
Distance (Route):
Temperature : 16.4°C
Humidity : 58.8%
Pressure : 0hPa| Receiver | Frames | First received | Last received |
|---|---|---|---|
| PETON7-10 | 372 | 2026-08-30 11:21:19 | 2026-08-30 13:14:04 |
| DO3MHA-11 | 267 | 2026-08-30 11:50:50 | 2026-08-30 12:55:43 |
| OE5MMP-10 | 237 | 2026-08-30 12:01:54 | 2026-08-30 12:53:41 |
| PG1ADW-2 | 201 | 2026-08-30 11:39:10 | 2026-08-30 13:02:37 |
| OE5DRO-10 | 187 | 2026-08-30 11:35:51 | 2026-08-30 13:02:36 |
| OE3OSB-13 | 166 | 2026-08-30 11:22:22 | 2026-08-30 13:14:44 |
| OE5DXL-15 | 126 | 2026-08-30 11:40:33 | 2026-08-30 13:01:18 |
| OE3JTB-15 | 118 | 2026-08-30 11:19:20 | 2026-08-30 13:17:17 |
| OM5KV | 72 | 2026-08-30 11:52:02 | 2026-08-30 13:14:55 |
| HA6NAB-11 | 50 | 2026-08-30 11:45:36 | 2026-08-30 13:04:04 |
| SP3WXH-11 | 35 | 2026-08-30 12:25:35 | 2026-08-30 12:58:10 |
| DB0DAN | 30 | 2026-08-30 12:15:25 | 2026-08-30 12:48:55 |
| NBG1-10 | 20 | 2026-08-30 12:16:18 | 2026-08-30 12:51:05 |
| OK1SLM-15 | 18 | 2026-08-30 12:22:37 | 2026-08-30 12:47:15 |
| SP3BTT-10 | 15 | 2026-08-30 12:23:32 | 2026-08-30 12:46:28 |
| GYPAP8-17 | 7 | 2026-08-30 12:01:27 | 2026-08-30 12:24:35 |
| S52SK | 6 | 2026-08-30 11:42:23 | 2026-08-30 11:44:16 |
| DB0UT-7 | 3 | 2026-08-30 12:39:24 | 2026-08-30 12:41:31 |
| SQ9EZE-14 | 1 | 2026-08-30 12:02:02 | 2026-08-30 12:02:02 |
| Receiver | Date | Latitude | Longitude | Direction | Speed | Altitude | Climb | Temperature | Humidity | Pressure | Voltage | Killtimer | Uptime | BKT | XDATA |
|---|---|---|---|---|---|---|---|---|---|---|---|---|---|---|---|
| OE3JTB-15 | 2026-08-30 13:17:17 | 49.49005 | 17.99381 | 36° | 24km/h | 1332m | -12.0m/s | 16.4°C | 58.8% | 0hPa | 2.7V | 00:00:00 | 00:00:00 | 00:00:00 | |
| OE3JTB-15 | 2026-08-30 13:17:13 | 49.48985 | 17.99362 | 31° | 24km/h | 1376m | -9.2m/s | 16.0°C | 60.3% | 0hPa | 2.7V | 00:00:00 | 02:38:09 | 00:00:00 | |
| OE3JTB-15 | 2026-08-30 13:17:11 | 49.48975 | 17.99352 | 39° | 24km/h | 1397m | -10.0m/s | 15.8°C | 61.0% | 0hPa | 2.7V | 00:00:00 | 00:00:00 | 00:00:00 | |
| OE3JTB-15 | 2026-08-30 13:17:09 | 49.48966 | 17.99342 | 36° | 24km/h | 1417m | -11.4m/s | 15.6°C | 61.5% | 0hPa | 2.6V | 00:00:00 | 00:00:00 | 00:00:00 | |
| OE3JTB-15 | 2026-08-30 13:17:07 | 49.48956 | 17.99330 | 36° | 24km/h | 1437m | -9.3m/s | 15.4°C | 62.3% | 0hPa | 2.6V | 00:00:00 | 02:38:03 | 00:00:00 | |
| OE3JTB-15 | 2026-08-30 13:17:05 | 49.48946 | 17.99320 | 34° | 24km/h | 1457m | -11.8m/s | 15.2°C | 62.8% | 0hPa | 2.6V | 07:55:00 | 00:00:00 | 00:00:00 | |
| OE3JTB-15 | 2026-08-30 13:17:03 | 49.48936 | 17.99309 | 35° | 26km/h | 1478m | -9.7m/s | 15.0°C | 63.6% | 0hPa | 2.7V | 00:00:00 | 00:00:00 | 00:00:00 | |
| OE3JTB-15 | 2026-08-30 13:17:01 | 49.48925 | 17.99297 | 41° | 27km/h | 1499m | -10.1m/s | 14.8°C | 64.1% | 0hPa | 2.7V | 00:00:00 | 02:37:57 | 00:00:00 | |
| OE3JTB-15 | 2026-08-30 13:16:59 | 49.48915 | 17.99284 | 43° | 24km/h | 1522m | -11.6m/s | 14.6°C | 64.7% | 0hPa | 2.7V | 00:00:00 | 00:00:00 | 00:00:00 | |
| OE3JTB-15 | 2026-08-30 13:16:55 | 49.48897 | 17.99256 | 52° | 26km/h | 1564m | -11.2m/s | 14.2°C | 66.1% | 0hPa | 2.7V | 00:00:00 | 02:37:51 | 00:00:00 | |
| OE3JTB-15 | 2026-08-30 13:16:53 | 49.48889 | 17.99240 | 54° | 26km/h | 1585m | -10.3m/s | 14.0°C | 67.1% | 0hPa | 2.7V | 00:00:00 | 00:00:00 | 00:00:00 | |
| OE3JTB-15 | 2026-08-30 13:16:51 | 49.48881 | 17.99224 | 55° | 26km/h | 1607m | -10.8m/s | 13.9°C | 67.3% | 0hPa | 2.7V | 00:00:00 | 00:00:00 | 00:00:00 | |
| OE3JTB-15 | 2026-08-30 13:16:49 | 49.48873 | 17.99208 | 52° | 26km/h | 1627m | -9.6m/s | 13.7°C | 67.8% | 0hPa | 2.7V | 07:55:00 | 02:37:45 | 00:00:00 | |
| OE3JTB-15 | 2026-08-30 13:16:47 | 49.48866 | 17.99193 | 57° | 24km/h | 1649m | -10.8m/s | 13.5°C | 68.4% | 0hPa | 2.7V | 00:00:00 | 00:00:00 | 00:00:00 | |
| OE3JTB-15 | 2026-08-30 13:16:45 | 49.48859 | 17.99177 | 57° | 24km/h | 1669m | -8.2m/s | 13.3°C | 69.6% | 0hPa | 2.7V | 00:00:00 | 00:00:00 | 00:00:00 | |
| OE3JTB-15 | 2026-08-30 13:16:43 | 49.48852 | 17.99162 | 59° | 22km/h | 1686m | -9.2m/s | 13.1°C | 70.6% | 0hPa | 2.7V | 00:00:00 | 02:37:39 | 00:00:00 | |
| OE3JTB-15 | 2026-08-30 13:16:41 | 49.48845 | 17.99146 | 56° | 26km/h | 1706m | -9.7m/s | 12.9°C | 71.2% | 0hPa | 2.7V | 00:00:00 | 00:00:00 | 00:00:00 | |
| OE3JTB-15 | 2026-08-30 13:16:39 | 49.48838 | 17.99130 | 55° | 26km/h | 1726m | -9.9m/s | 12.7°C | 71.9% | 0hPa | 2.5V | 00:00:00 | 00:00:00 | 00:00:00 | |
| OE3JTB-15 | 2026-08-30 13:16:37 | 49.48830 | 17.99114 | 59° | 24km/h | 1746m | -9.3m/s | 12.5°C | 72.5% | 0hPa | 2.5V | 00:00:00 | 02:37:33 | 00:00:00 | |
| OE3JTB-15 | 2026-08-30 13:16:35 | 49.48824 | 17.99098 | 61° | 24km/h | 1766m | -10.5m/s | 12.3°C | 73.3% | 0hPa | 2.5V | 00:00:00 | 00:00:00 | 00:00:00 | |
| OE3JTB-15 | 2026-08-30 13:16:33 | 49.48818 | 17.99082 | 62° | 24km/h | 1788m | -11.2m/s | 12.2°C | 73.5% | 0hPa | 2.7V | 07:55:00 | 00:00:00 | 00:00:00 | |
| OE3JTB-15 | 2026-08-30 13:16:31 | 49.48811 | 17.99065 | 62° | 27km/h | 1808m | -10.5m/s | 12.0°C | 74.9% | 0hPa | 2.7V | 00:00:00 | 02:37:27 | 00:00:00 | |
| OE3JTB-15 | 2026-08-30 13:16:29 | 49.48805 | 17.99046 | 65° | 27km/h | 1830m | -10.9m/s | 11.8°C | 75.4% | 0hPa | 2.7V | 00:00:00 | 00:00:00 | 00:00:00 | |
| OE3JTB-15 | 2026-08-30 13:16:27 | 49.48798 | 17.99027 | 62° | 29km/h | 1850m | -10.9m/s | 11.8°C | 72.8% | 0hPa | 2.7V | 00:00:00 | 00:00:00 | 00:00:00 | |
| OE3JTB-15 | 2026-08-30 13:16:25 | 49.48790 | 17.99008 | 60° | 31km/h | 1871m | -11.4m/s | 11.8°C | 69.0% | 0hPa | 2.7V | 00:00:00 | 02:37:21 | 00:00:00 | |
| OE3JTB-15 | 2026-08-30 13:16:17 | 49.48764 | 17.98919 | 65° | 33km/h | 1954m | -11.2m/s | 11.6°C | 59.7% | 0hPa | 2.7V | 00:00:00 | 00:00:00 | 00:00:00 | |
| OE3JTB-15 | 2026-08-30 13:16:08 | 49.48735 | 17.98814 | 73° | 31km/h | 2046m | -10.5m/s | 11.7°C | 51.8% | 0hPa | 2.7V | 00:00:00 | 00:00:00 | 00:00:00 | |
| OE3JTB-15 | 2026-08-30 13:15:59 | 49.48716 | 17.98707 | 73° | 33km/h | 2139m | -8.8m/s | 11.6°C | 56.3% | 0hPa | 2.7V | 00:00:00 | 02:36:55 | 00:00:00 | |
| OE3JTB-15 | 2026-08-30 13:15:50 | 49.48696 | 17.98593 | 75° | 35km/h | 2235m | -11.7m/s | 11.0°C | 63.4% | 0hPa | 2.7V | 07:56:00 | 00:00:00 | 00:00:00 | |
| OE3JTB-15 | 2026-08-30 13:15:41 | 49.48677 | 17.98476 | 77° | 31km/h | 2329m | -9.4m/s | 10.5°C | 66.9% | 0hPa | 2.5V | 00:00:00 | 00:00:00 | 00:00:00 | |
| OE3JTB-15 | 2026-08-30 13:15:32 | 49.48660 | 17.98368 | 78° | 26km/h | 2427m | -11.9m/s | 9.8°C | 69.1% | 0hPa | 2.5V | 00:00:00 | 02:36:28 | 00:00:00 | |
| OE3JTB-15 | 2026-08-30 13:15:13 | 49.48634 | 17.98180 | 73° | 24km/h | 2622m | -8.4m/s | 8.7°C | 67.7% | 0hPa | 2.5V | 00:00:00 | 00:00:00 | 00:00:00 | |
| OM5KV | 2026-08-30 13:14:55 | 49.48614 | 17.98029 | 80° | 26km/h | 2793m | -9.6m/s | 7.2°C | 72.2% | 0hPa | 2.6V | 07:57:00 | 00:00:00 | 00:00:00 | |
| OE3JTB-15 | 2026-08-30 13:14:54 | 49.48612 | 17.98010 | 79° | 26km/h | 2813m | -10.7m/s | 6.9°C | 74.2% | 0hPa | 2.6V | 00:00:00 | 00:00:00 | 00:00:00 | |
| OM5KV | 2026-08-30 13:14:49 | 49.48607 | 17.97973 | 78° | 24km/h | 2857m | -11.4m/s | 6.6°C | 73.2% | 0hPa | 2.6V | 07:57:00 | 00:00:00 | 00:00:00 | |
| OM5KV | 2026-08-30 13:14:45 | 49.48601 | 17.97927 | 84° | 24km/h | 2908m | -9.5m/s | 6.2°C | 74.3% | 0hPa | 2.6V | 07:57:00 | 00:00:00 | 00:00:00 | |
| OE3OSB-13 | 2026-08-30 13:14:44 | 49.48601 | 17.97919 | 80° | 22km/h | 2918m | -10.2m/s | 6.1°C | 74.7% | -1.0hPa | 2.6V | 00:00:00 | 00:00:00 | 00:00:00 | |
| OM5KV | 2026-08-30 13:14:37 | 49.48595 | 17.97861 | 81° | 27km/h | 2978m | -10.1m/s | 5.7°C | 74.0% | 0hPa | 2.6V | 07:57:00 | 00:00:00 | 00:00:00 | |
| OE3JTB-15 | 2026-08-30 13:14:35 | 49.48591 | 17.97832 | 80° | 22km/h | 3009m | -10.6m/s | 5.5°C | 77.1% | 0hPa | 2.6V | 00:00:00 | 02:35:31 | 00:00:00 | |
| OM5KV | 2026-08-30 13:14:31 | 49.48588 | 17.97806 | 81° | 22km/h | 3041m | -10.8m/s | 5.2°C | 75.5% | 0hPa | 2.6V | 07:58:00 | 00:00:00 | 00:00:00 | |
| OM5KV | 2026-08-30 13:14:26 | 49.48583 | 17.97763 | 83° | 20km/h | 3095m | -11.3m/s | 4.8°C | 74.2% | 0hPa | 2.6V | 07:58:00 | 00:00:00 | 00:00:00 | |
| OM5KV | 2026-08-30 13:14:21 | 49.48578 | 17.97722 | 81° | 24km/h | 3149m | -10.5m/s | 4.3°C | 74.9% | 0hPa | 2.6V | 07:58:00 | 00:00:00 | 00:00:00 | |
| OE3JTB-15 | 2026-08-30 13:14:16 | 49.48572 | 17.97673 | 82° | 26km/h | 3213m | -9.9m/s | 3.7°C | 78.2% | 0hPa | 2.6V | 00:00:00 | 00:00:00 | 00:00:00 | |
| OM5KV | 2026-08-30 13:14:14 | 49.48571 | 17.97665 | 77° | 22km/h | 3223m | -10.4m/s | 3.7°C | 76.7% | 0hPa | 2.6V | 07:58:00 | 00:00:00 | 00:00:00 | |
| OM5KV | 2026-08-30 13:14:09 | 49.48564 | 17.97621 | 79° | 24km/h | 3278m | -11.1m/s | 3.2°C | 79.3% | 0hPa | 2.6V | 07:58:00 | 00:00:00 | 00:00:00 | |
| PETON7-10 | 2026-08-30 13:14:04 | 49.48556 | 17.97566 | 78° | 29km/h | 3340m | -8.8m/s | 2.5°C | 83.8% | 0hPa | 2.6V | 00:00:00 | 00:00:00 | 00:00:00 | |
| OM5KV | 2026-08-30 13:14:03 | 49.48556 | 17.97566 | 79° | 24km/h | 3340m | -8.9m/s | 2.6°C | 81.8% | 0hPa | 2.6V | 07:58:00 | 00:00:00 | 00:00:00 | |
| OM5KV | 2026-08-30 13:13:58 | 49.48548 | 17.97515 | 74° | 29km/h | 3389m | -10.8m/s | 2.3°C | 81.3% | 0hPa | 2.6V | 07:58:00 | 00:00:00 | 00:00:00 | |
| OE3JTB-15 | 2026-08-30 13:13:57 | 49.48543 | 17.97493 | 78° | 35km/h | 3411m | -9.8m/s | 2.1°C | 84.3% | 0hPa | 2.6V | 00:00:00 | 00:00:00 | 00:00:00 | |
| OM5KV | 2026-08-30 13:13:52 | 49.48537 | 17.97448 | 82° | 29km/h | 3446m | -8.9m/s | 1.8°C | 84.0% | 0hPa | 2.6V | 07:58:00 | 00:00:00 | 00:00:00 | |
| PETON7-10 | 2026-08-30 13:13:49 | 49.48532 | 17.97403 | 81° | 38km/h | 3481m | -8.4m/s | 1.5°C | 88.0% | 0hPa | 2.6V | 00:00:00 | 00:00:00 | 00:00:00 | |
| OE3OSB-13 | 2026-08-30 13:13:42 | 49.48525 | 17.97311 | 86° | 35km/h | 3541m | -8.2m/s | 1.2°C | 87.4% | -1.0hPa | 2.6V | 00:00:00 | 00:00:00 | 00:00:00 | |
| OM5KV | 2026-08-30 13:13:41 | 49.48525 | 17.97311 | 88° | 35km/h | 3541m | -8.2m/s | 1.2°C | 87.5% | 0hPa | 2.6V | 07:59:00 | 00:00:00 | 00:00:00 | |
| OM5KV | 2026-08-30 13:13:34 | 49.48521 | 17.97210 | 88° | 38km/h | 3598m | -7.3m/s | 0.8°C | 88.0% | 0hPa | 2.6V | 07:59:00 | 00:00:00 | 00:00:00 | |
| PETON7-10 | 2026-08-30 13:13:28 | 49.48520 | 17.97101 | 90° | 42km/h | 3656m | -8.1m/s | 1.0°C | 79.8% | 0hPa | 2.6V | 07:58:00 | 02:34:24 | 00:00:00 | |
| OM5KV | 2026-08-30 13:13:22 | 49.48519 | 17.97019 | 89° | 42km/h | 3697m | -7.8m/s | 0.7°C | 78.8% | 0hPa | 2.6V | 07:59:00 | 00:00:00 | 00:00:00 | |
| OM5KV | 2026-08-30 13:13:17 | 49.48519 | 17.96938 | 93° | 42km/h | 3738m | -7.6m/s | 0.3°C | 80.4% | 0hPa | 2.6V | 07:59:00 | 00:00:00 | 00:00:00 | |
| PETON7-10 | 2026-08-30 13:13:13 | 49.48518 | 17.96855 | 88° | 42km/h | 3778m | -8.0m/s | -0.0°C | 84.8% | 0hPa | 2.6V | 00:00:00 | 00:00:00 | 00:00:00 | |
| OE3OSB-13 | 2026-08-30 13:13:11 | 49.48518 | 17.96822 | 91° | 42km/h | 3794m | -8.3m/s | -0.2°C | 83.2% | -1.0hPa | 2.6V | 00:00:00 | 00:00:00 | 00:00:00 | |
| PETON7-10 | 2026-08-30 13:12:58 | 49.48520 | 17.96604 | 91° | 44km/h | 3896m | -9.5m/s | -1.1°C | 90.4% | 0hPa | 2.6V | 00:00:00 | 00:00:00 | 00:00:00 | |
| PETON7-10 | 2026-08-30 13:12:43 | 49.48521 | 17.96352 | 90° | 40km/h | 4036m | -10.0m/s | -2.0°C | 92.8% | 0hPa | 2.6V | 00:00:00 | 02:33:39 | 00:00:00 | |
| OM5KV | 2026-08-30 13:12:42 | 49.48521 | 17.96352 | 90° | 40km/h | 4036m | -10.1m/s | -2.0°C | 90.1% | 0hPa | 2.6V | 00:00:00 | 00:00:00 | 00:00:00 | |
| OE3OSB-13 | 2026-08-30 13:12:40 | 49.48521 | 17.96305 | 89° | 38km/h | 4067m | -9.8m/s | -2.2°C | 88.9% | -1.0hPa | 2.6V | 00:00:00 | 00:00:00 | 00:00:00 | |
| OM5KV | 2026-08-30 13:12:34 | 49.48519 | 17.96226 | 87° | 40km/h | 4117m | -10.9m/s | -2.5°C | 86.6% | 0hPa | 2.6V | 00:00:00 | 00:00:00 | 00:00:00 | |
| OE3JTB-15 | 2026-08-30 13:12:30 | 49.48515 | 17.96146 | 86° | 46km/h | 4166m | -9.3m/s | -2.7°C | 87.3% | 0hPa | 2.6V | 00:00:00 | 00:00:00 | 00:00:00 | |
| PETON7-10 | 2026-08-30 13:12:28 | 49.48513 | 17.96114 | 85° | 46km/h | 4184m | -8.9m/s | -2.9°C | 88.3% | 0hPa | 2.6V | 00:00:00 | 00:00:00 | 00:00:00 | |
| OM5KV | 2026-08-30 13:12:23 | 49.48510 | 17.96048 | 86° | 44km/h | 4223m | -9.8m/s | -3.2°C | 84.8% | 0hPa | 2.6V | 00:00:00 | 00:00:00 | 00:00:00 | |
| OM5KV | 2026-08-30 13:12:17 | 49.48503 | 17.95943 | 84° | 47km/h | 4278m | -10.5m/s | -3.6°C | 86.4% | 0hPa | 2.6V | 00:00:00 | 00:00:00 | 00:00:00 | |
| PETON7-10 | 2026-08-30 13:12:13 | 49.48498 | 17.95850 | 87° | 47km/h | 4327m | -8.7m/s | -3.8°C | 92.7% | 0hPa | 2.6V | 00:00:00 | 00:00:00 | 00:00:00 | |
| OM5KV | 2026-08-30 13:12:11 | 49.48497 | 17.95831 | 87° | 49km/h | 4336m | -9.6m/s | -4.0°C | 91.9% | 0hPa | 2.6V | 00:00:00 | 00:00:00 | 00:00:00 | |
| OE3OSB-13 | 2026-08-30 13:12:09 | 49.48494 | 17.95776 | 84° | 47km/h | 4364m | -9.8m/s | -4.2°C | 93.3% | -1.0hPa | 2.6V | 00:00:00 | 00:00:00 | 00:00:00 | |
| OM5KV | 2026-08-30 13:12:05 | 49.48492 | 17.95721 | 88° | 47km/h | 4395m | -10.2m/s | -4.4°C | 93.9% | 0hPa | 2.6V | 00:00:00 | 00:00:00 | 00:00:00 | |
| OE3JTB-15 | 2026-08-30 13:12:01 | 49.48487 | 17.95629 | 85° | 49km/h | 4444m | -9.5m/s | -4.7°C | 0% | 0hPa | 2.6V | 00:00:00 | 02:32:57 | 00:00:00 | |
| OM5KV | 2026-08-30 13:11:59 | 49.48486 | 17.95611 | 87° | 47km/h | 4454m | -9.3m/s | -4.8°C | 95.9% | 0hPa | 2.6V | 08:00:00 | 00:00:00 | 00:00:00 | |
| PETON7-10 | 2026-08-30 13:11:58 | 49.48484 | 17.95575 | 87° | 47km/h | 4474m | -9.6m/s | -4.9°C | 0% | 0hPa | 2.6V | 00:00:00 | 02:32:54 | 00:00:00 | |
| OM5KV | 2026-08-30 13:11:53 | 49.48481 | 17.95503 | 88° | 46km/h | 4514m | -10.0m/s | -5.1°C | 95.7% | 0hPa | 2.6V | 08:00:00 | 00:00:00 | 00:00:00 | |
| PETON7-10 | 2026-08-30 13:11:43 | 49.48475 | 17.95296 | 89° | 51km/h | 4619m | -8.6m/s | -5.5°C | 93.7% | 0hPa | 2.6V | 08:00:00 | 00:00:00 | 00:00:00 | |
| OE3OSB-13 | 2026-08-30 13:11:38 | 49.48472 | 17.95197 | 88° | 49km/h | 4670m | -10.4m/s | -5.9°C | 89.4% | -1.0hPa | 2.6V | 00:00:00 | 00:00:00 | 00:00:00 | |
| OM5KV | 2026-08-30 13:11:37 | 49.48472 | 17.95197 | 89° | 51km/h | 4670m | -10.4m/s | -5.9°C | 89.4% | 0hPa | 2.6V | 08:00:00 | 00:00:00 | 00:00:00 | |
| OE3JTB-15 | 2026-08-30 13:11:32 | 49.48469 | 17.95075 | 88° | 55km/h | 4735m | -10.9m/s | -6.5°C | 92.6% | 0hPa | 2.6V | 08:00:00 | 00:00:00 | 00:00:00 | |
| PETON7-10 | 2026-08-30 13:11:28 | 49.48467 | 17.94994 | 85° | 55km/h | 4775m | -9.8m/s | -6.8°C | 95.5% | 0hPa | 2.6V | 00:00:00 | 00:00:00 | 00:00:00 | |
| OM5KV | 2026-08-30 13:11:27 | 49.48466 | 17.94994 | 86° | 53km/h | 4775m | -9.9m/s | -6.9°C | 92.0% | 0hPa | 2.6V | 08:00:00 | 00:00:00 | 00:00:00 | |
| OM5KV | 2026-08-30 13:11:21 | 49.48459 | 17.94866 | 86° | 55km/h | 4840m | -11.4m/s | -7.1°C | 88.1% | 0hPa | 2.6V | 08:00:00 | 00:00:00 | 00:00:00 | |
| OM5KV | 2026-08-30 13:11:15 | 49.48451 | 17.94738 | 85° | 58km/h | 4898m | -10.3m/s | -6.9°C | 76.3% | 0hPa | 2.6V | 08:00:00 | 00:00:00 | 00:00:00 | |
| PETON7-10 | 2026-08-30 13:11:13 | 49.48446 | 17.94672 | 85° | 57km/h | 4928m | -9.7m/s | -7.1°C | 84.9% | 0hPa | 2.6V | 00:00:00 | 02:32:09 | 00:00:00 | |
| OM5KV | 2026-08-30 13:11:10 | 49.48443 | 17.94629 | 85° | 55km/h | 4949m | -11.5m/s | -7.3°C | 80.1% | 0hPa | 2.6V | 00:00:00 | 00:00:00 | 00:00:00 | |
| OE3OSB-13 | 2026-08-30 13:11:07 | 49.48439 | 17.94543 | 87° | 53km/h | 4987m | -8.6m/s | -7.7°C | 76.7% | -1.0hPa | 2.6V | 00:00:00 | 00:00:00 | 00:00:00 | |
| OM5KV | 2026-08-30 13:11:05 | 49.48438 | 17.94521 | 87° | 58km/h | 4997m | -11.1m/s | -7.7°C | 76.3% | 0hPa | 2.6V | 00:00:00 | 00:00:00 | 00:00:00 | |
| OE3JTB-15 | 2026-08-30 13:11:03 | 49.48436 | 17.94455 | 87° | 58km/h | 5028m | -9.4m/s | -7.9°C | 80.2% | 0hPa | 2.6V | 00:00:00 | 00:00:00 | 00:00:00 | |
| OM5KV | 2026-08-30 13:11:00 | 49.48434 | 17.94410 | 86° | 58km/h | 5047m | -10.6m/s | -8.2°C | 77.4% | 0hPa | 2.6V | 00:00:00 | 00:00:00 | 00:00:00 | |
| PETON7-10 | 2026-08-30 13:10:58 | 49.48430 | 17.94343 | 86° | 58km/h | 5079m | -8.8m/s | -8.4°C | 81.3% | 0hPa | 2.6V | 00:00:00 | 00:00:00 | 00:00:00 | |
| OM5KV | 2026-08-30 13:10:53 | 49.48427 | 17.94251 | 87° | 60km/h | 5118m | -9.4m/s | -8.7°C | 77.6% | 0hPa | 2.5V | 00:00:00 | 00:00:00 | 00:00:00 | |
| PETON7-10 | 2026-08-30 13:10:43 | 49.48421 | 17.93999 | 90° | 57km/h | 5221m | -10.3m/s | -9.5°C | 90.7% | 0hPa | 2.5V | 00:00:00 | 00:00:00 | 00:00:00 | |
| OE3OSB-13 | 2026-08-30 13:10:36 | 49.48427 | 17.93823 | 93° | 55km/h | 5303m | -9.2m/s | -9.7°C | 57.7% | -1.0hPa | 2.5V | 00:00:00 | 00:00:00 | 00:00:00 | |
| OE3JTB-15 | 2026-08-30 13:10:34 | 49.48428 | 17.93802 | 93° | 51km/h | 5312m | -8.1m/s | -9.7°C | 60.7% | 0hPa | 2.5V | 00:00:00 | 02:31:30 | 00:00:00 | |
| PETON7-10 | 2026-08-30 13:10:28 | 49.48433 | 17.93675 | 94° | 49km/h | 5369m | -10.8m/s | -9.6°C | 30.9% | 0hPa | 2.5V | 00:00:00 | 02:31:24 | 00:00:00 | |
| PETON7-10 | 2026-08-30 13:10:13 | 49.48448 | 17.93385 | 95° | 49km/h | 5531m | -11.0m/s | -9.6°C | 9.4% | 0hPa | 2.5V | 00:00:00 | 00:00:00 | 00:00:00 | |
| OE3OSB-13 | 2026-08-30 13:10:05 | 49.48459 | 17.93212 | 95° | 49km/h | 5631m | -10.9m/s | -10.5°C | 9.3% | -1.0hPa | 2.5V | 00:00:00 | 00:00:00 | 00:00:00 | |
| PETON7-10 | 2026-08-30 13:09:57 | 49.48469 | 17.93078 | 97° | 47km/h | 5707m | -10.8m/s | -11.1°C | 9.1% | 0hPa | 2.5V | 00:00:00 | 00:00:00 | 00:00:00 | |
| PETON7-10 | 2026-08-30 13:09:42 | 49.48492 | 17.92803 | 97° | 44km/h | 5873m | -11.5m/s | -12.1°C | 8.3% | 0hPa | 2.5V | 00:00:00 | 02:30:38 | 00:00:00 | |
| OE3JTB-15 | 2026-08-30 13:09:36 | 49.48503 | 17.92702 | 99° | 46km/h | 5938m | -9.4m/s | -12.6°C | 9.2% | 0hPa | 2.5V | 00:00:00 | 00:00:00 | 00:00:00 | |
| OE3OSB-13 | 2026-08-30 13:09:34 | 49.48508 | 17.92649 | 98° | 44km/h | 5970m | -11.1m/s | -12.9°C | 8.7% | -1.0hPa | 2.5V | 00:00:00 | 00:00:00 | 00:00:00 | |
| PETON7-10 | 2026-08-30 13:09:27 | 49.48518 | 17.92545 | 99° | 46km/h | 6039m | -11.2m/s | -13.4°C | 9.2% | 0hPa | 2.5V | 08:02:00 | 00:00:00 | 00:00:00 | |
| PETON7-10 | 2026-08-30 13:09:12 | 49.48534 | 17.92284 | 95° | 49km/h | 6202m | -10.9m/s | -14.6°C | 7.8% | 0hPa | 2.5V | 00:00:00 | 00:00:00 | 00:00:00 | |
| OE3JTB-15 | 2026-08-30 13:09:07 | 49.48542 | 17.92193 | 97° | 51km/h | 6257m | -11.2m/s | -14.9°C | 7.5% | 0hPa | 2.5V | 00:00:00 | 02:30:03 | 00:00:00 | |
| OE3OSB-13 | 2026-08-30 13:09:02 | 49.48551 | 17.92097 | 99° | 49km/h | 6314m | -11.1m/s | -15.5°C | 7.1% | -1.0hPa | 2.5V | 00:00:00 | 00:00:00 | 00:00:00 | |
| PETON7-10 | 2026-08-30 13:08:57 | 49.48562 | 17.91999 | 101° | 51km/h | 6367m | -9.8m/s | -15.8°C | 8.0% | 0hPa | 2.5V | 00:00:00 | 02:29:53 | 00:00:00 | |
| PETON7-10 | 2026-08-30 13:08:42 | 49.48595 | 17.91703 | 99° | 51km/h | 6528m | -10.1m/s | -16.9°C | 7.9% | 0hPa | 2.5V | 00:00:00 | 00:00:00 | 00:00:00 | |
| OE3JTB-15 | 2026-08-30 13:08:38 | 49.48603 | 17.91623 | 99° | 51km/h | 6571m | -12.4m/s | -17.2°C | 8.0% | 0hPa | 2.5V | 00:00:00 | 00:00:00 | 00:00:00 | |
| OE3OSB-13 | 2026-08-30 13:08:31 | 49.48618 | 17.91485 | 98° | 49km/h | 6649m | -10.8m/s | -17.9°C | 7.7% | -1.0hPa | 2.4V | 00:00:00 | 00:00:00 | 00:00:00 | |
| PETON7-10 | 2026-08-30 13:08:27 | 49.48626 | 17.91408 | 100° | 51km/h | 6694m | -11.6m/s | -18.2°C | 8.8% | 0hPa | 2.4V | 00:00:00 | 00:00:00 | 00:00:00 | |
| PETON7-10 | 2026-08-30 13:08:12 | 49.48661 | 17.91112 | 101° | 55km/h | 6860m | -12.2m/s | -19.6°C | 15.3% | 0hPa | 2.4V | 00:00:00 | 02:29:08 | 00:00:00 | |
| OE3JTB-15 | 2026-08-30 13:08:09 | 49.48670 | 17.91049 | 103° | 55km/h | 6895m | -11.8m/s | -19.9°C | 17.3% | 0hPa | 2.4V | 00:00:00 | 00:00:00 | 00:00:00 | |
| OE3OSB-13 | 2026-08-30 13:08:00 | 49.48703 | 17.90821 | 103° | 53km/h | 7020m | -11.5m/s | -20.8°C | 8.9% | -1.0hPa | 2.4V | 00:00:00 | 00:00:00 | 00:00:00 | |
| PETON7-10 | 2026-08-30 13:07:57 | 49.48707 | 17.90801 | 107° | 55km/h | 7032m | -11.4m/s | -20.8°C | 9.0% | 0hPa | 2.4V | 00:00:00 | 00:00:00 | 00:00:00 | |
| PETON7-10 | 2026-08-30 13:07:42 | 49.48770 | 17.90498 | 110° | 58km/h | 7200m | -11.0m/s | -21.7°C | 12.0% | 0hPa | 2.6V | 00:00:00 | 00:00:00 | 00:00:00 | |
| OE3JTB-15 | 2026-08-30 13:07:40 | 49.48780 | 17.90456 | 110° | 60km/h | 7221m | -11.8m/s | -21.8°C | 14.1% | 0hPa | 2.6V | 00:00:00 | 02:28:36 | 00:00:00 | |
| OE3OSB-13 | 2026-08-30 13:07:29 | 49.48832 | 17.90218 | 107° | 58km/h | 7347m | -12.3m/s | -22.8°C | 26.4% | -1.0hPa | 2.6V | 00:00:00 | 00:00:00 | 00:00:00 | |
| PETON7-10 | 2026-08-30 13:07:27 | 49.48841 | 17.90174 | 106° | 60km/h | 7372m | -13.4m/s | -22.9°C | 27.5% | 0hPa | 2.6V | 00:00:00 | 02:28:23 | 00:00:00 | |
| PETON7-10 | 2026-08-30 13:07:12 | 49.48899 | 17.89835 | 104° | 60km/h | 7558m | -13.8m/s | -24.2°C | 27.9% | 0hPa | 2.6V | 08:04:00 | 00:00:00 | 00:00:00 | |
| OE3JTB-15 | 2026-08-30 13:07:11 | 49.48903 | 17.89813 | 104° | 62km/h | 7572m | -13.6m/s | -24.3°C | 28.1% | 0hPa | 2.6V | 08:04:00 | 00:00:00 | 00:00:00 | |
| OE3OSB-13 | 2026-08-30 13:06:58 | 49.48947 | 17.89512 | 101° | 62km/h | 7734m | -12.0m/s | -25.7°C | 33.8% | -1.0hPa | 2.6V | 00:00:00 | 00:00:00 | 00:00:00 | |
| PETON7-10 | 2026-08-30 13:06:57 | 49.48950 | 17.89488 | 103° | 62km/h | 7746m | -11.6m/s | -25.7°C | 37.2% | 0hPa | 2.6V | 00:00:00 | 00:00:00 | 00:00:00 | |
| PETON7-10 | 2026-08-30 13:06:42 | 49.48995 | 17.89139 | 102° | 66km/h | 7932m | -11.3m/s | -27.3°C | 45.8% | 0hPa | 2.6V | 00:00:00 | 02:27:38 | 00:00:00 | |
| PETON7-10 | 2026-08-30 13:06:27 | 49.49046 | 17.88767 | 103° | 69km/h | 8117m | -12.7m/s | -28.7°C | 41.2% | 0hPa | 2.6V | 00:00:00 | 00:00:00 | 00:00:00 | |
| OE3JTB-15 | 2026-08-30 13:06:13 | 49.49091 | 17.88396 | 100° | 68km/h | 8289m | -12.6m/s | -30.1°C | 32.2% | 0hPa | 2.5V | 00:00:00 | 02:27:09 | 00:00:00 | |
| PETON7-10 | 2026-08-30 13:06:12 | 49.49094 | 17.88369 | 101° | 69km/h | 8301m | -11.2m/s | -30.2°C | 31.8% | 0hPa | 2.5V | 00:00:00 | 00:00:00 | 00:00:00 | |
| OE3OSB-13 | 2026-08-30 13:05:58 | 49.49141 | 17.87951 | 100° | 66km/h | 8491m | -12.8m/s | -31.6°C | 23.0% | -1.0hPa | 2.5V | 00:00:00 | 00:00:00 | 00:00:00 | |
| PETON7-10 | 2026-08-30 13:05:57 | 49.49138 | 17.87977 | 100° | 68km/h | 8479m | -11.4m/s | -31.4°C | 25.9% | 0hPa | 2.5V | 00:00:00 | 02:26:53 | 00:00:00 | |
| OE3JTB-15 | 2026-08-30 13:05:44 | 49.49185 | 17.87642 | 105° | 73km/h | 8624m | -9.1m/s | -32.7°C | 27.5% | 0hPa | 2.5V | 00:00:00 | 00:00:00 | 00:00:00 | |
| PETON7-10 | 2026-08-30 13:05:42 | 49.49193 | 17.87590 | 105° | 71km/h | 8642m | -7.9m/s | -32.9°C | 28.0% | 0hPa | 2.6V | 00:00:00 | 00:00:00 | 00:00:00 | |
| PETON7-10 | 2026-08-30 13:05:27 | 49.49271 | 17.87192 | 110° | 75km/h | 8784m | -8.7m/s | -34.2°C | 37.3% | 0hPa | 2.5V | 00:00:00 | 00:00:00 | 00:00:00 | |
| OE3OSB-13 | 2026-08-30 13:05:25 | 49.49283 | 17.87139 | 109° | 71km/h | 8802m | -9.5m/s | -34.4°C | 34.5% | -1.0hPa | 2.5V | 00:00:00 | 00:00:00 | 00:00:00 | |
| OE3JTB-15 | 2026-08-30 13:05:15 | 49.49345 | 17.86865 | 109° | 78km/h | 8897m | -9.3m/s | -35.1°C | 46.4% | 0hPa | 2.5V | 00:00:00 | 00:00:00 | 00:00:00 | |
| PETON7-10 | 2026-08-30 13:05:12 | 49.49363 | 17.86780 | 108° | 78km/h | 8928m | -10.5m/s | -35.3°C | 47.3% | 0hPa | 2.5V | 00:00:00 | 02:26:08 | 00:00:00 | |
| OE3OSB-13 | 2026-08-30 13:04:54 | 49.49466 | 17.86256 | 104° | 78km/h | 9101m | -11.0m/s | -36.5°C | 42.2% | -1.0hPa | 2.5V | 00:00:00 | 00:00:00 | 00:00:00 | |
| OE3JTB-15 | 2026-08-30 13:04:46 | 49.49504 | 17.86020 | 104° | 75km/h | 9175m | -10.7m/s | -37.0°C | 49.4% | 0hPa | 2.5V | 00:00:00 | 02:25:42 | 00:00:00 | |
| PETON7-10 | 2026-08-30 13:04:42 | 49.49521 | 17.85903 | 104° | 75km/h | 9219m | -8.5m/s | -37.3°C | 48.8% | 0hPa | 2.5V | 00:00:00 | 00:00:00 | 00:00:00 | |
| PETON7-10 | 2026-08-30 13:04:27 | 49.49586 | 17.85477 | 104° | 75km/h | 9364m | -9.8m/s | -38.5°C | 50.9% | 0hPa | 2.5V | 00:00:00 | 02:25:23 | 00:00:00 | |
| OE3OSB-13 | 2026-08-30 13:04:23 | 49.49609 | 17.85337 | 104° | 73km/h | 9414m | -10.4m/s | -38.9°C | 45.3% | -1.0hPa | 2.5V | 00:00:00 | 00:00:00 | 00:00:00 | |
| OE3JTB-15 | 2026-08-30 13:04:17 | 49.49634 | 17.85196 | 106° | 77km/h | 9465m | -9.3m/s | -39.3°C | 53.4% | 0hPa | 2.5V | 00:00:00 | 00:00:00 | 00:00:00 | |
| PETON7-10 | 2026-08-30 13:04:12 | 49.49660 | 17.85055 | 106° | 77km/h | 9506m | -9.4m/s | -39.7°C | 52.5% | 0hPa | 2.5V | 00:00:00 | 00:00:00 | 00:00:00 | |
| HA6NAB-11 | 2026-08-30 13:04:04 | 49.49698 | 17.84854 | 107° | 78km/h | 9575m | -9.8m/s | -40.3°C | 46.6% | 0hPa | 2.5V | 00:00:00 | 00:00:00 | 00:00:00 | |
| OE3OSB-13 | 2026-08-30 13:03:52 | 49.49776 | 17.84446 | 106° | 78km/h | 9713m | -9.4m/s | -41.6°C | 51.8% | -1.0hPa | 2.5V | 00:00:00 | 00:00:00 | 00:00:00 | |
| OE3JTB-15 | 2026-08-30 13:03:48 | 49.49794 | 17.84356 | 106° | 82km/h | 9748m | -10.9m/s | -41.9°C | 59.7% | 0hPa | 2.5V | 00:00:00 | 00:00:00 | 00:00:00 | |
| PETON7-10 | 2026-08-30 13:03:42 | 49.49827 | 17.84174 | 106° | 82km/h | 9810m | -8.7m/s | -42.5°C | 59.9% | 0hPa | 2.5V | 00:00:00 | 02:24:38 | 00:00:00 | |
| PETON7-10 | 2026-08-30 13:03:27 | 49.49903 | 17.83708 | 104° | 82km/h | 9966m | -11.6m/s | -43.5°C | 54.6% | 0hPa | 2.5V | 00:00:00 | 00:00:00 | 00:00:00 | |
| OE3OSB-13 | 2026-08-30 13:03:21 | 49.49937 | 17.83492 | 103° | 82km/h | 10038m | -10.8m/s | -44.1°C | 47.5% | -1.0hPa | 2.5V | 00:00:00 | 00:00:00 | 00:00:00 | |
| OE3JTB-15 | 2026-08-30 13:03:19 | 49.49942 | 17.83460 | 105° | 86km/h | 10048m | -9.5m/s | -44.2°C | 55.3% | 0hPa | 2.5V | 00:00:00 | 02:24:15 | 00:00:00 | |
| PETON7-10 | 2026-08-30 13:03:12 | 49.49978 | 17.83240 | 106° | 86km/h | 10122m | -10.4m/s | -44.7°C | 53.9% | 0hPa | 2.5V | 00:00:00 | 00:00:00 | 00:00:00 | |
| OE3OSB-13 | 2026-08-30 13:02:50 | 49.50103 | 17.82498 | 104° | 84km/h | 10369m | -10.2m/s | -46.6°C | 46.4% | -1.0hPa | 2.5V | 00:00:00 | 00:00:00 | 00:00:00 | |
| PETON7-10 | 2026-08-30 13:02:42 | 49.50140 | 17.82279 | 105° | 84km/h | 10439m | -8.7m/s | -47.2°C | 57.3% | 0hPa | 2.5V | 08:09:00 | 00:00:00 | 00:00:00 | |
| PG1ADW-2 | 2026-08-30 13:02:37 | 49.50166 | 17.82121 | 105° | 84km/h | 10493m | -10.8m/s | -47.8°C | 58.5% | 0hPa | 2.5V | 00:00:00 | 02:23:33 | 00:00:00 | |
| OE5DRO-10 | 2026-08-30 13:02:36 | 49.50171 | 17.82089 | 105° | 82km/h | 10504m | -10.4m/s | -47.9°C | 58.7% | 0hPa | 2.5V | 00:00:00 | 00:00:00 | 00:00:00 | |
| PETON7-10 | 2026-08-30 13:02:27 | 49.50222 | 17.81806 | 105° | 82km/h | 10599m | -9.7m/s | -48.7°C | 57.4% | 0hPa | 2.5V | 00:00:00 | 00:00:00 | 00:00:00 | |
| OE3JTB-15 | 2026-08-30 13:02:20 | 49.50258 | 17.81586 | 105° | 73km/h | 10672m | -9.5m/s | -49.3°C | 55.7% | 0hPa | 2.5V | 00:00:00 | 00:00:00 | 00:00:00 | |
| OE3OSB-13 | 2026-08-30 13:02:19 | 49.50268 | 17.81525 | 103° | 80km/h | 10694m | -12.8m/s | -49.5°C | 46.1% | -1.0hPa | 2.5V | 00:00:00 | 00:00:00 | 00:00:00 | |
| PG1ADW-2 | 2026-08-30 13:02:17 | 49.50273 | 17.81495 | 104° | 75km/h | 10706m | -11.7m/s | -49.5°C | 54.8% | 0hPa | 2.5V | 00:00:00 | 00:00:00 | 00:00:00 | |
| OE5DRO-10 | 2026-08-30 13:02:14 | 49.50288 | 17.81405 | 105° | 73km/h | 10739m | -10.7m/s | -49.8°C | 55.1% | 0hPa | 2.5V | 00:00:00 | 00:00:00 | 00:00:00 | |
| PETON7-10 | 2026-08-30 13:02:12 | 49.50297 | 17.81347 | 105° | 73km/h | 10761m | -10.2m/s | -50.0°C | 55.1% | 0hPa | 2.5V | 00:00:00 | 02:23:08 | 00:00:00 | |
| OE3OSB-13 | 2026-08-30 13:01:47 | 49.50445 | 17.80613 | 105° | 75km/h | 11079m | -13.2m/s | -52.1°C | 46.1% | -1.0hPa | 2.5V | 00:00:00 | 00:00:00 | 00:00:00 | |
| PETON7-10 | 2026-08-30 13:01:42 | 49.50460 | 17.80528 | 105° | 75km/h | 11120m | -13.6m/s | -52.3°C | 56.2% | 0hPa | 2.5V | 00:00:00 | 00:00:00 | 00:00:00 | |
| PG1ADW-2 | 2026-08-30 13:01:37 | 49.50484 | 17.80385 | 106° | 73km/h | 11186m | -12.9m/s | -52.9°C | 57.1% | 0hPa | 2.5V | 00:00:00 | 00:00:00 | 00:00:00 | |
| OE5DRO-10 | 2026-08-30 13:01:36 | 49.50489 | 17.80357 | 106° | 73km/h | 11200m | -13.4m/s | -53.0°C | 57.1% | 0hPa | 2.5V | 00:00:00 | 00:00:00 | 00:00:00 | |
| PETON7-10 | 2026-08-30 13:01:27 | 49.50538 | 17.80108 | 107° | 73km/h | 11313m | -11.6m/s | -53.8°C | 57.5% | 0hPa | 2.5V | 00:00:00 | 02:22:23 | 00:00:00 | |
| OE5DXL-15 | 2026-08-30 13:01:18 | 49.50578 | 17.79862 | 104° | 77km/h | 11412m | -9.6m/s | -54.7°C | 56.7% | 0hPa | 2.5V | 00:00:00 | 00:00:00 | 00:00:00 | |
| PG1ADW-2 | 2026-08-30 13:01:17 | 49.50582 | 17.79834 | 103° | 75km/h | 11423m | -11.1m/s | -54.8°C | 56.0% | 0hPa | 2.5V | 00:00:00 | 02:22:13 | 00:00:00 | |
| OE3OSB-13 | 2026-08-30 13:01:16 | 49.50586 | 17.79806 | 102° | 73km/h | 11434m | -12.0m/s | -54.9°C | 45.3% | -1.0hPa | 2.5V | 00:00:00 | 00:00:00 | 00:00:00 | |
| PETON7-10 | 2026-08-30 13:01:12 | 49.50602 | 17.79693 | 102° | 75km/h | 11480m | -11.6m/s | -55.0°C | 53.3% | 0hPa | 2.5V | 00:00:00 | 00:00:00 | 00:00:00 | |
| HA6NAB-11 | 2026-08-30 13:01:10 | 49.50606 | 17.79665 | 101° | 73km/h | 11492m | -11.9m/s | -55.1°C | 43.5% | 0hPa | 2.5V | 00:00:00 | 00:00:00 | 00:00:00 | |
| OE3OSB-13 | 2026-08-30 13:00:45 | 49.50686 | 17.78911 | 94° | 75km/h | 11796m | -11.2m/s | -56.0°C | 29.5% | -1.0hPa | 2.5V | 00:00:00 | 00:00:00 | 00:00:00 | |
| PETON7-10 | 2026-08-30 13:00:42 | 49.50689 | 17.78823 | 92° | 77km/h | 11830m | -10.4m/s | -55.9°C | 35.7% | 0hPa | 2.5V | 00:00:00 | 02:21:38 | 00:00:00 | |
| OE5DRO-10 | 2026-08-30 13:00:39 | 49.50689 | 17.78736 | 91° | 80km/h | 11859m | -10.8m/s | -55.8°C | 32.4% | 0hPa | 2.5V | 00:00:00 | 00:00:00 | 00:00:00 | |
| PG1ADW-2 | 2026-08-30 13:00:37 | 49.50690 | 17.78678 | 90° | 82km/h | 11881m | -9.7m/s | -55.9°C | 29.8% | 0hPa | 2.5V | 00:00:00 | 00:00:00 | 00:00:00 | |
| HA6NAB-11 | 2026-08-30 13:00:36 | 49.50690 | 17.78679 | 91° | 73km/h | 11881m | -9.8m/s | -55.9°C | 22.8% | 0hPa | 2.5V | 00:00:00 | 00:00:00 | 00:00:00 | |
| HA6NAB-11 | 2026-08-30 13:00:30 | 49.50687 | 17.78505 | 90° | 78km/h | 11945m | -11.5m/s | -54.9°C | 14.7% | 0hPa | 2.5V | 00:00:00 | 00:00:00 | 00:00:00 | |
| PETON7-10 | 2026-08-30 13:00:28 | 49.50687 | 17.78378 | 91° | 89km/h | 11988m | -10.5m/s | -54.7°C | 15.8% | 0hPa | 2.5V | 08:11:00 | 00:00:00 | 00:00:00 | |
| HA6NAB-11 | 2026-08-30 13:00:25 | 49.50687 | 17.78345 | 92° | 86km/h | 11999m | -10.9m/s | -54.7°C | 10.3% | 0hPa | 2.5V | 00:00:00 | 00:00:00 | 00:00:00 | |
| OE5DRO-10 | 2026-08-30 13:00:20 | 49.50690 | 17.78141 | 92° | 89km/h | 12065m | -11.6m/s | -53.9°C | 10.4% | 0hPa | 2.5V | 00:00:00 | 00:00:00 | 00:00:00 | |
| OE3JTB-15 | 2026-08-30 13:00:19 | 49.50690 | 17.78106 | 93° | 88km/h | 12077m | -11.6m/s | -53.9°C | 10.1% | 0hPa | 2.5V | 00:00:00 | 02:21:15 | 00:00:00 | |
| OE5DXL-15 | 2026-08-30 13:00:18 | 49.50692 | 17.78071 | 94° | 88km/h | 12088m | -11.6m/s | -54.0°C | 10.1% | 0hPa | 2.5V | 00:00:00 | 00:00:00 | 00:00:00 | |
| PG1ADW-2 | 2026-08-30 13:00:17 | 49.50693 | 17.78035 | 95° | 88km/h | 12100m | -12.1m/s | -54.0°C | 10.0% | 0hPa | 2.5V | 08:11:00 | 00:00:00 | 00:00:00 | |
| OE3OSB-13 | 2026-08-30 13:00:14 | 49.50699 | 17.77927 | 96° | 91km/h | 12134m | -9.7m/s | -54.2°C | 6.0% | -1.0hPa | 2.5V | 00:00:00 | 00:00:00 | 00:00:00 | |
| PETON7-10 | 2026-08-30 13:00:12 | 49.50705 | 17.77856 | 98° | 86km/h | 12157m | -11.4m/s | -54.3°C | 9.6% | 0hPa | 2.5V | 00:00:00 | 00:00:00 | 00:00:00 | |
| OE5DRO-10 | 2026-08-30 13:00:01 | 49.50744 | 17.77492 | 101° | 86km/h | 12279m | -11.9m/s | -54.0°C | 9.1% | 0hPa | 2.5V | 00:00:00 | 00:00:00 | 00:00:00 | |
| PETON7-10 | 2026-08-30 12:59:57 | 49.50759 | 17.77364 | 100° | 86km/h | 12324m | -11.7m/s | -54.1°C | 9.4% | 0hPa | 2.6V | 00:00:00 | 02:20:53 | 00:00:00 | |
| OE3JTB-15 | 2026-08-30 12:59:50 | 49.50776 | 17.77138 | 95° | 86km/h | 12400m | -10.7m/s | -54.4°C | 9.6% | 0hPa | 2.6V | 00:00:00 | 00:00:00 | 00:00:00 | |
| OE5DXL-15 | 2026-08-30 12:59:48 | 49.50779 | 17.77071 | 94° | 84km/h | 12423m | -10.0m/s | -54.4°C | 9.5% | 0hPa | 2.5V | 00:00:00 | 00:00:00 | 00:00:00 | |
| OE3OSB-13 | 2026-08-30 12:59:43 | 49.50784 | 17.76901 | 92° | 88km/h | 12479m | -10.4m/s | -54.3°C | 5.8% | -1.0hPa | 2.5V | 00:00:00 | 00:00:00 | 00:00:00 | |
| PETON7-10 | 2026-08-30 12:59:42 | 49.50785 | 17.76867 | 94° | 88km/h | 12491m | -12.3m/s | -54.2°C | 9.6% | 0hPa | 2.5V | 00:00:00 | 00:00:00 | 00:00:00 | |
| PG1ADW-2 | 2026-08-30 12:59:37 | 49.50795 | 17.76695 | 96° | 82km/h | 12550m | -10.4m/s | -54.2°C | 9.8% | 0hPa | 2.5V | 00:00:00 | 00:00:00 | 00:00:00 | |
| PETON7-10 | 2026-08-30 12:59:27 | 49.50813 | 17.76364 | 96° | 77km/h | 12668m | -13.8m/s | -54.3°C | 8.5% | 0hPa | 2.5V | 00:00:00 | 00:00:00 | 00:00:00 | |
| OE5DRO-10 | 2026-08-30 12:59:23 | 49.50822 | 17.76240 | 96° | 73km/h | 12721m | -12.9m/s | -54.4°C | 8.5% | 0hPa | 2.5V | 00:00:00 | 00:00:00 | 00:00:00 | |
| OE3JTB-15 | 2026-08-30 12:59:21 | 49.50825 | 17.76180 | 96° | 57km/h | 12746m | -11.6m/s | -54.5°C | 8.5% | 0hPa | 2.5V | 00:00:00 | 00:00:00 | 00:00:00 | |
| OE5DXL-15 | 2026-08-30 12:59:18 | 49.50830 | 17.76092 | 95° | 75km/h | 12778m | -11.2m/s | -54.7°C | 8.3% | 0hPa | 2.5V | 00:00:00 | 00:00:00 | 00:00:00 | |
| PG1ADW-2 | 2026-08-30 12:59:17 | 49.50832 | 17.76063 | 94° | 73km/h | 12789m | -10.8m/s | -54.8°C | 8.2% | 0hPa | 2.5V | 00:00:00 | 00:00:00 | 00:00:00 | |
| PETON7-10 | 2026-08-30 12:59:12 | 49.50834 | 17.75926 | 90° | 73km/h | 12850m | -11.9m/s | -55.1°C | 8.0% | 0hPa | 2.6V | 00:00:00 | 02:20:08 | 00:00:00 | |
| OE5DRO-10 | 2026-08-30 12:59:04 | 49.50832 | 17.75700 | 92° | 75km/h | 12942m | -10.5m/s | -54.9°C | 7.4% | 0hPa | 2.6V | 08:13:00 | 00:00:00 | 00:00:00 | |
| PETON7-10 | 2026-08-30 12:58:57 | 49.50830 | 17.75499 | 87° | 75km/h | 13026m | -12.5m/s | -54.6°C | 6.9% | 0hPa | 2.5V | 00:00:00 | 00:00:00 | 00:00:00 | |
| OE5DXL-15 | 2026-08-30 12:58:48 | 49.50828 | 17.75229 | 94° | 71km/h | 13135m | -11.1m/s | -54.4°C | 6.7% | 0hPa | 2.5V | 00:00:00 | 00:00:00 | 00:00:00 | |
| OE5DRO-10 | 2026-08-30 12:58:45 | 49.50833 | 17.75142 | 97° | 71km/h | 13171m | -12.5m/s | -54.3°C | 6.6% | 0hPa | 2.6V | 00:00:00 | 00:00:00 | 00:00:00 | |
| PETON7-10 | 2026-08-30 12:58:42 | 49.50838 | 17.75060 | 95° | 73km/h | 13207m | -13.6m/s | -54.3°C | 6.6% | 0hPa | 2.6V | 00:00:00 | 00:00:00 | 00:00:00 | |
| OE3OSB-13 | 2026-08-30 12:58:41 | 49.50839 | 17.75034 | 93° | 68km/h | 13220m | -13.0m/s | -54.3°C | 3.3% | -1.0hPa | 2.6V | 00:00:00 | 00:00:00 | 00:00:00 | |
| PG1ADW-2 | 2026-08-30 12:58:37 | 49.50843 | 17.74923 | 92° | 69km/h | 13271m | -9.2m/s | -54.0°C | 6.5% | 0hPa | 2.6V | 00:00:00 | 02:19:33 | 00:00:00 | |
| PETON7-10 | 2026-08-30 12:58:27 | 49.50860 | 17.74639 | 98° | 68km/h | 13388m | -13.3m/s | -53.8°C | 5.7% | 0hPa | 2.6V | 00:00:00 | 02:19:23 | 00:00:00 | |
| OE5DRO-10 | 2026-08-30 12:58:26 | 49.50862 | 17.74613 | 97° | 68km/h | 13401m | -13.2m/s | -53.8°C | 5.8% | 0hPa | 2.6V | 00:00:00 | 00:00:00 | 00:00:00 | |
| OE5DXL-15 | 2026-08-30 12:58:18 | 49.50869 | 17.74410 | 92° | 68km/h | 13483m | -9.0m/s | -53.8°C | 5.9% | 0hPa | 2.6V | 00:00:00 | 00:00:00 | 00:00:00 | |
| PG1ADW-2 | 2026-08-30 12:58:17 | 49.50869 | 17.74382 | 94° | 69km/h | 13492m | -9.4m/s | -53.8°C | 5.9% | 0hPa | 2.6V | 00:00:00 | 00:00:00 | 00:00:00 | |
| PETON7-10 | 2026-08-30 12:58:12 | 49.50878 | 17.74244 | 97° | 68km/h | 13552m | -12.8m/s | -54.1°C | 6.0% | 0hPa | 2.6V | 08:13:00 | 00:00:00 | 00:00:00 | |
| SP3WXH-11 | 2026-08-30 12:58:10 | 49.50884 | 17.74163 | 95° | 68km/h | 13585m | -11.1m/s | -54.0°C | 2.8% | -1.0hPa | 2.6V | 00:00:00 | 00:00:00 | 00:00:00 | |
| OE5DRO-10 | 2026-08-30 12:58:07 | 49.50886 | 17.74110 | 94° | 66km/h | 13608m | -11.3m/s | -54.0°C | 5.9% | 0hPa | 2.6V | 00:00:00 | 00:00:00 | 00:00:00 | |
| HA6NAB-11 | 2026-08-30 12:58:06 | 49.50886 | 17.74109 | 95° | 68km/h | 13608m | -11.4m/s | -54.0°C | 2.9% | 0hPa | 2.5V | 00:00:00 | 00:00:00 | 00:00:00 | |
| HA6NAB-11 | 2026-08-30 12:58:01 | 49.50892 | 17.73978 | 96° | 68km/h | 13673m | -15.8m/s | -53.7°C | 2.8% | 0hPa | 2.5V | 00:00:00 | 00:00:00 | 00:00:00 | |
| PG1ADW-2 | 2026-08-30 12:57:57 | 49.50900 | 17.73850 | 94° | 62km/h | 13742m | -12.6m/s | -53.7°C | 5.7% | 0hPa | 2.5V | 00:00:00 | 00:00:00 | 00:00:00 | |
| HA6NAB-11 | 2026-08-30 12:57:56 | 49.50900 | 17.73850 | 95° | 64km/h | 13742m | -12.6m/s | -53.7°C | 2.8% | 0hPa | 2.5V | 00:00:00 | 00:00:00 | 00:00:00 | |
| HA6NAB-11 | 2026-08-30 12:57:50 | 49.50906 | 17.73704 | 95° | 60km/h | 13816m | -12.2m/s | -54.0°C | 2.8% | 0hPa | 2.5V | 00:00:00 | 00:00:00 | 00:00:00 | |
| OE5DRO-10 | 2026-08-30 12:57:48 | 49.50910 | 17.73633 | 97° | 66km/h | 13850m | -12.6m/s | -54.1°C | 5.8% | 0hPa | 2.5V | 00:00:00 | 00:00:00 | 00:00:00 | |
| HA6NAB-11 | 2026-08-30 12:57:44 | 49.50916 | 17.73562 | 98° | 60km/h | 13889m | -13.4m/s | -54.3°C | 2.9% | 0hPa | 2.5V | 00:00:00 | 00:00:00 | 00:00:00 | |
| PETON7-10 | 2026-08-30 12:57:42 | 49.50921 | 17.73492 | 96° | 66km/h | 13928m | -13.4m/s | -54.3°C | 5.8% | 0hPa | 2.5V | 00:00:00 | 02:18:38 | 00:00:00 | |
| OE3OSB-13 | 2026-08-30 12:57:39 | 49.50926 | 17.73417 | 95° | 66km/h | 13966m | -13.1m/s | -54.3°C | 2.5% | -1.0hPa | 2.5V | 00:00:00 | 00:00:00 | 00:00:00 | |
| HA6NAB-11 | 2026-08-30 12:57:38 | 49.50926 | 17.73417 | 96° | 68km/h | 13967m | -13.1m/s | -54.3°C | 2.7% | 0hPa | 2.5V | 00:00:00 | 00:00:00 | 00:00:00 | |
| PG1ADW-2 | 2026-08-30 12:57:37 | 49.50930 | 17.73365 | 97° | 62km/h | 13995m | -14.7m/s | -54.4°C | 5.7% | 0hPa | 2.5V | 00:00:00 | 00:00:00 | 00:00:00 | |
| OE5DRO-10 | 2026-08-30 12:57:29 | 49.50951 | 17.73157 | 100° | 53km/h | 14102m | -13.2m/s | -55.3°C | 6.1% | 0hPa | 2.5V | 00:00:00 | 00:00:00 | 00:00:00 | |
| PETON7-10 | 2026-08-30 12:57:27 | 49.50957 | 17.73108 | 101° | 53km/h | 14128m | -12.1m/s | -55.1°C | 6.0% | 0hPa | 2.5V | 00:00:00 | 00:00:00 | 00:00:00 | |
| OE5DXL-15 | 2026-08-30 12:57:18 | 49.50978 | 17.72917 | 101° | 55km/h | 14245m | -10.7m/s | -54.7°C | 5.7% | 0hPa | 2.6V | 08:14:00 | 00:00:00 | 00:00:00 | |
| PG1ADW-2 | 2026-08-30 12:57:17 | 49.50980 | 17.72898 | 101° | 49km/h | 14255m | -9.3m/s | -54.8°C | 5.7% | 0hPa | 2.5V | 08:14:00 | 02:18:13 | 00:00:00 | |
| PETON7-10 | 2026-08-30 12:57:12 | 49.50988 | 17.72808 | 93° | 51km/h | 14317m | -14.5m/s | -54.6°C | 5.5% | 0hPa | 2.5V | 00:00:00 | 00:00:00 | 00:00:00 | |
| OE5DRO-10 | 2026-08-30 12:57:10 | 49.50989 | 17.72773 | 89° | 55km/h | 14344m | -12.8m/s | -54.6°C | 5.5% | 0hPa | 2.5V | 00:00:00 | 00:00:00 | 00:00:00 | |
| OE3OSB-13 | 2026-08-30 12:57:08 | 49.50986 | 17.72721 | 82° | 46km/h | 14381m | -12.6m/s | -54.8°C | 2.3% | -1.0hPa | 2.6V | 00:00:00 | 00:00:00 | 00:00:00 | |
| HA6NAB-11 | 2026-08-30 12:57:04 | 49.50982 | 17.72684 | 83° | 49km/h | 14407m | -12.5m/s | -54.6°C | 2.4% | 0hPa | 2.6V | 00:00:00 | 00:00:00 | 00:00:00 | |
| PETON7-10 | 2026-08-30 12:56:57 | 49.50960 | 17.72517 | 77° | 69km/h | 14515m | -13.0m/s | -54.1°C | 5.2% | 0hPa | 2.6V | 00:00:00 | 02:17:53 | 00:00:00 | |
| HA6NAB-11 | 2026-08-30 12:56:56 | 49.50960 | 17.72517 | 77° | 58km/h | 14515m | -13.0m/s | -54.2°C | 2.2% | 0hPa | 2.6V | 00:00:00 | 00:00:00 | 00:00:00 | |
| OE5DRO-10 | 2026-08-30 12:56:51 | 49.50935 | 17.72375 | 77° | 71km/h | 14599m | -13.6m/s | -54.4°C | 5.3% | 0hPa | 2.6V | 00:00:00 | 00:00:00 | 00:00:00 | |
| OE5DXL-15 | 2026-08-30 12:56:48 | 49.50923 | 17.72293 | 79° | 64km/h | 14639m | -14.5m/s | -54.5°C | 5.3% | 0hPa | 2.6V | 00:00:00 | 00:00:00 | 00:00:00 | |
| PETON7-10 | 2026-08-30 12:56:42 | 49.50910 | 17.72120 | 89° | 66km/h | 14723m | -13.3m/s | -54.7°C | 5.5% | 0hPa | 2.6V | 00:00:00 | 00:00:00 | 00:00:00 | |
| PG1ADW-2 | 2026-08-30 12:56:37 | 49.50911 | 17.71983 | 93° | 58km/h | 14788m | -13.9m/s | -53.5°C | 5.1% | 0hPa | 2.5V | 00:00:00 | 00:00:00 | 00:00:00 | |
| OE5DRO-10 | 2026-08-30 12:56:32 | 49.50912 | 17.71859 | 88° | 55km/h | 14851m | -11.1m/s | -53.0°C | 4.7% | 0hPa | 2.5V | 00:00:00 | 00:00:00 | 00:00:00 | |
| PETON7-10 | 2026-08-30 12:56:27 | 49.50908 | 17.71742 | 88° | 51km/h | 14918m | -13.2m/s | -53.3°C | 4.6% | 0hPa | 2.5V | 00:00:00 | 00:00:00 | 00:00:00 | |
| OE5DXL-15 | 2026-08-30 12:56:18 | 49.50915 | 17.71552 | 102° | 42km/h | 15042m | -11.7m/s | -51.5°C | 4.1% | 0hPa | 2.5V | 00:00:00 | 00:00:00 | 00:00:00 | |
| PG1ADW-2 | 2026-08-30 12:56:17 | 49.50918 | 17.71532 | 102° | 42km/h | 15053m | -11.2m/s | -51.5°C | 4.1% | 0hPa | 2.5V | 00:00:00 | 00:00:00 | 00:00:00 | |
| OE5DRO-10 | 2026-08-30 12:56:13 | 49.50925 | 17.71462 | 94° | 40km/h | 15094m | -10.0m/s | -51.7°C | 4.0% | 0hPa | 2.6V | 08:15:00 | 00:00:00 | 00:00:00 | |
| PETON7-10 | 2026-08-30 12:56:12 | 49.50926 | 17.71445 | 94° | 42km/h | 15105m | -11.2m/s | -51.7°C | 4.0% | 0hPa | 2.6V | 00:00:00 | 02:17:08 | 00:00:00 | |
| SP3WXH-11 | 2026-08-30 12:56:06 | 49.50930 | 17.71332 | 95° | 40km/h | 15198m | -14.1m/s | -52.4°C | 1.5% | -1.0hPa | 2.6V | 00:00:00 | 00:00:00 | 00:00:00 | |
| PETON7-10 | 2026-08-30 12:55:57 | 49.50945 | 17.71209 | 101° | 37km/h | 15297m | -11.0m/s | -53.1°C | 4.3% | 0hPa | 2.6V | 08:16:00 | 00:00:00 | 00:00:00 | |
| OE5DRO-10 | 2026-08-30 12:55:54 | 49.50949 | 17.71166 | 95° | 35km/h | 15331m | -14.2m/s | -53.4°C | 4.3% | 0hPa | 2.5V | 00:00:00 | 00:00:00 | 00:00:00 | |
| OE5DXL-15 | 2026-08-30 12:55:48 | 49.50953 | 17.71075 | 96° | 26km/h | 15406m | -12.1m/s | -54.1°C | 4.5% | 0hPa | 2.5V | 00:00:00 | 00:00:00 | 00:00:00 | |
| DO3MHA-11 | 2026-08-30 12:55:43 | 49.50958 | 17.71006 | 99° | 38km/h | 15467m | -13.9m/s | -54.6°C | 4.5% | 0hPa | 2.5V | 00:00:00 | 02:16:39 | 00:00:00 | |
| PETON7-10 | 2026-08-30 12:55:42 | 49.50960 | 17.70993 | 97° | 27km/h | 15480m | -13.5m/s | -54.8°C | 4.6% | 0hPa | 2.5V | 00:00:00 | 00:00:00 | 00:00:00 | |
| PG1ADW-2 | 2026-08-30 12:55:37 | 49.50963 | 17.70935 | 93° | 22km/h | 15548m | -15.2m/s | -55.2°C | 4.6% | 0hPa | 2.5V | 00:00:00 | 00:00:00 | 00:00:00 | |
| OE3OSB-13 | 2026-08-30 12:55:35 | 49.50964 | 17.70904 | 91° | 24km/h | 15591m | -12.9m/s | -55.6°C | 1.7% | -1.0hPa | 2.5V | 00:00:00 | 00:00:00 | 00:00:00 | |
| PETON7-10 | 2026-08-30 12:55:27 | 49.50963 | 17.70841 | 92° | 20km/h | 15676m | -14.1m/s | -56.1°C | 4.9% | 0hPa | 2.5V | 00:00:00 | 02:16:23 | 00:00:00 | |
| HA6NAB-11 | 2026-08-30 12:55:22 | 49.50964 | 17.70811 | 88° | 18km/h | 15731m | -13.2m/s | -56.6°C | 1.9% | 0hPa | 2.5V | 00:00:00 | 00:00:00 | 00:00:00 | |
| OE5DXL-15 | 2026-08-30 12:55:18 | 49.50957 | 17.70777 | 66° | 38km/h | 15797m | -15.3m/s | -57.0°C | 5.2% | 0hPa | 2.5V | 00:00:00 | 00:00:00 | 00:00:00 | |
| PG1ADW-2 | 2026-08-30 12:55:17 | 49.50955 | 17.70770 | 63° | 38km/h | 15812m | -14.8m/s | -57.1°C | 5.4% | 0hPa | 2.5V | 00:00:00 | 00:00:00 | 00:00:00 | |
| OE5DRO-10 | 2026-08-30 12:55:16 | 49.50952 | 17.70762 | 64° | 40km/h | 15827m | -14.1m/s | -57.2°C | 5.4% | 0hPa | 2.6V | 00:00:00 | 00:00:00 | 00:00:00 | |
| HA6NAB-11 | 2026-08-30 12:55:15 | 49.50952 | 17.70762 | 65° | 24km/h | 15827m | -14.2m/s | -57.3°C | 1.8% | 0hPa | 2.5V | 00:00:00 | 00:00:00 | 00:00:00 | |
| PETON7-10 | 2026-08-30 12:55:12 | 49.50940 | 17.70725 | 65° | 44km/h | 15886m | -14.8m/s | -57.5°C | 5.7% | 0hPa | 2.5V | 00:00:00 | 00:00:00 | 00:00:00 | |
| DO3MHA-11 | 2026-08-30 12:55:05 | 49.50906 | 17.70626 | 64° | 46km/h | 15981m | -12.7m/s | -56.0°C | 4.9% | 0hPa | 2.5V | 00:00:00 | 02:16:01 | 00:00:00 | |
| SP3WXH-11 | 2026-08-30 12:55:04 | 49.50897 | 17.70594 | 65° | 46km/h | 16011m | -14.0m/s | -56.0°C | 1.5% | -1.0hPa | 2.5V | 00:00:00 | 00:00:00 | 00:00:00 | |
| PETON7-10 | 2026-08-30 12:54:57 | 49.50868 | 17.70499 | 65° | 37km/h | 16102m | -16.0m/s | -55.5°C | 4.7% | 0hPa | 2.5V | 00:00:00 | 00:00:00 | 00:00:00 | |
| DO3MHA-11 | 2026-08-30 12:54:55 | 49.50860 | 17.70469 | 66° | 37km/h | 16135m | -16.8m/s | -55.3°C | 4.6% | 0hPa | 2.5V | 00:00:00 | 02:15:51 | 00:00:00 | |
| OE5DXL-15 | 2026-08-30 12:54:48 | 49.50839 | 17.70371 | 81° | 31km/h | 16239m | -13.9m/s | -54.9°C | 4.5% | 0hPa | 2.5V | 00:00:00 | 00:00:00 | 00:00:00 | |
| DO3MHA-11 | 2026-08-30 12:54:45 | 49.50838 | 17.70332 | 91° | 31km/h | 16279m | -14.3m/s | -54.9°C | 4.4% | 0hPa | 2.5V | 08:17:00 | 02:15:41 | 00:00:00 | |
| PETON7-10 | 2026-08-30 12:54:42 | 49.50838 | 17.70297 | 88° | 33km/h | 16323m | -15.1m/s | -55.2°C | 4.6% | 0hPa | 2.5V | 00:00:00 | 02:15:38 | 00:00:00 | |
| OE5DRO-10 | 2026-08-30 12:54:38 | 49.50834 | 17.70251 | 77° | 31km/h | 16376m | -13.1m/s | -55.3°C | 4.8% | 0hPa | 2.5V | 00:00:00 | 00:00:00 | 00:00:00 | |
| PG1ADW-2 | 2026-08-30 12:54:37 | 49.50832 | 17.70239 | 75° | 29km/h | 16389m | -14.1m/s | -55.2°C | 4.7% | 0hPa | 2.5V | 00:00:00 | 02:15:33 | 00:00:00 | |
| DO3MHA-11 | 2026-08-30 12:54:35 | 49.50827 | 17.70214 | 71° | 35km/h | 16418m | -14.2m/s | -54.6°C | 4.5% | 0hPa | 2.5V | 00:00:00 | 02:15:31 | 00:00:00 | |
| OE3OSB-13 | 2026-08-30 12:54:33 | 49.50818 | 17.70173 | 71° | 37km/h | 16463m | -14.7m/s | -54.9°C | 1.4% | -1.0hPa | 2.5V | 00:00:00 | 00:00:00 | 00:00:00 | |
| PETON7-10 | 2026-08-30 12:54:27 | 49.50807 | 17.70108 | 80° | 20km/h | 16536m | -13.9m/s | -55.1°C | 4.6% | 0hPa | 2.5V | 00:00:00 | 00:00:00 | 00:00:00 | |
| DO3MHA-11 | 2026-08-30 12:54:25 | 49.50804 | 17.70084 | 82° | 20km/h | 16565m | -15.9m/s | -55.0°C | 4.6% | 0hPa | 2.5V | 00:00:00 | 02:15:21 | 00:00:00 | |
| OE5DRO-10 | 2026-08-30 12:54:19 | 49.50799 | 17.70034 | 78° | 18km/h | 16649m | -14.6m/s | -54.4°C | 4.3% | 0hPa | 2.5V | 00:00:00 | 00:00:00 | 00:00:00 | |
| OE5DXL-15 | 2026-08-30 12:54:18 | 49.50798 | 17.70027 | 71° | 20km/h | 16663m | -13.7m/s | -54.1°C | 4.3% | 0hPa | 2.5V | 00:00:00 | 00:00:00 | 00:00:00 | |
| PG1ADW-2 | 2026-08-30 12:54:17 | 49.50797 | 17.70021 | 69° | 20km/h | 16677m | -13.9m/s | -53.9°C | 4.2% | 0hPa | 2.6V | 08:17:00 | 00:00:00 | 00:00:00 | |
| DO3MHA-11 | 2026-08-30 12:54:15 | 49.50793 | 17.70011 | 63° | 16km/h | 16703m | -14.1m/s | -53.8°C | 4.1% | 0hPa | 2.6V | 00:00:00 | 02:15:11 | 00:00:00 | |
| PETON7-10 | 2026-08-30 12:54:12 | 49.50788 | 17.69995 | 58° | 22km/h | 16743m | -11.8m/s | -53.8°C | 4.2% | 0hPa | 2.5V | 00:00:00 | 00:00:00 | 00:00:00 | |
| DO3MHA-11 | 2026-08-30 12:54:05 | 49.50774 | 17.69951 | 74° | 26km/h | 16844m | -16.0m/s | -54.4°C | 4.2% | 0hPa | 2.5V | 00:00:00 | 02:15:01 | 00:00:00 | |
| OE3OSB-13 | 2026-08-30 12:54:02 | 49.50770 | 17.69914 | 82° | 26km/h | 16902m | -13.4m/s | -54.8°C | 1.3% | -1.0hPa | 2.5V | 00:00:00 | 00:00:00 | 00:00:00 | |
| OE5DRO-10 | 2026-08-30 12:54:00 | 49.50769 | 17.69904 | 83° | 22km/h | 16915m | -12.3m/s | -54.7°C | 4.5% | 0hPa | 2.5V | 00:00:00 | 00:00:00 | 00:00:00 | |
| PG1ADW-2 | 2026-08-30 12:53:57 | 49.50766 | 17.69873 | 86° | 20km/h | 16952m | -12.2m/s | -54.8°C | 4.4% | 0hPa | 2.5V | 00:00:00 | 00:00:00 | 00:00:00 | |
| OE5DXL-15 | 2026-08-30 12:53:48 | 49.50764 | 17.69800 | 87° | 16km/h | 17075m | -14.0m/s | -54.8°C | 4.3% | 0hPa | 2.5V | 00:00:00 | 00:00:00 | 00:00:00 | |
| DO3MHA-11 | 2026-08-30 12:53:44 | 49.50762 | 17.69770 | 81° | 16km/h | 17130m | -12.9m/s | -55.2°C | 4.6% | 0hPa | 2.5V | 00:00:00 | 02:14:40 | 00:00:00 | |
| PETON7-10 | 2026-08-30 12:53:42 | 49.50760 | 17.69756 | 75° | 16km/h | 17158m | -16.5m/s | -55.4°C | 4.6% | 0hPa | 2.6V | 08:18:00 | 00:00:00 | 00:00:00 | |
| OE5MMP-10 | 2026-08-30 12:53:41 | 49.50758 | 17.69750 | 76° | 15km/h | 17174m | -15.2m/s | -55.5°C | 4.6% | 0hPa | 2.6V | 08:18:00 | 02:14:37 | 00:00:00 | |
| PG1ADW-2 | 2026-08-30 12:53:37 | 49.50754 | 17.69728 | 75° | 16km/h | 17238m | -16.8m/s | -55.9°C | 4.8% | 0hPa | 2.5V | 00:00:00 | 00:00:00 | 00:00:00 | |
| DO3MHA-11 | 2026-08-30 12:53:34 | 49.50751 | 17.69712 | 74° | 16km/h | 17283m | -14.8m/s | -55.6°C | 4.7% | 0hPa | 2.5V | 00:00:00 | 02:14:30 | 00:00:00 | |
| SP3WXH-11 | 2026-08-30 12:53:31 | 49.50744 | 17.69690 | 53° | 16km/h | 17343m | -15.5m/s | -55.2°C | 1.3% | -1.0hPa | 2.5V | 00:00:00 | 00:00:00 | 00:00:00 | |
| OE3OSB-13 | 2026-08-30 12:53:30 | 49.50744 | 17.69690 | 53° | 16km/h | 17343m | -15.5m/s | -55.2°C | 1.3% | -1.0hPa | 2.5V | 00:00:00 | 00:00:00 | 00:00:00 | |
| OE5MMP-10 | 2026-08-30 12:53:27 | 49.50736 | 17.69674 | 49° | 18km/h | 17389m | -16.6m/s | -54.6°C | 4.2% | 0hPa | 2.5V | 00:00:00 | 02:14:23 | 00:00:00 | |
| DO3MHA-11 | 2026-08-30 12:53:24 | 49.50727 | 17.69659 | 49° | 18km/h | 17435m | -13.5m/s | -54.7°C | 4.3% | 0hPa | 2.5V | 00:00:00 | 02:14:20 | 00:00:00 | |
| OE5DRO-10 | 2026-08-30 12:53:22 | 49.50721 | 17.69649 | 46° | 20km/h | 17467m | -15.7m/s | -54.9°C | 4.3% | 0hPa | 2.5V | 08:18:00 | 00:00:00 | 00:00:00 | |
| OE5DXL-15 | 2026-08-30 12:53:18 | 49.50707 | 17.69628 | 45° | 18km/h | 17527m | -14.2m/s | -55.2°C | 4.5% | 0hPa | 2.6V | 00:00:00 | 00:00:00 | 00:00:00 | |
| OE5MMP-10 | 2026-08-30 12:53:17 | 49.50704 | 17.69623 | 41° | 20km/h | 17541m | -13.8m/s | -55.2°C | 4.4% | 0hPa | 2.6V | 00:00:00 | 02:14:13 | 00:00:00 | |
| DO3MHA-11 | 2026-08-30 12:53:14 | 49.50692 | 17.69608 | 36° | 20km/h | 17586m | -14.7m/s | -55.2°C | 4.5% | 0hPa | 2.6V | 08:18:00 | 02:14:10 | 00:00:00 | |
| PETON7-10 | 2026-08-30 12:53:12 | 49.50683 | 17.69600 | 31° | 18km/h | 17615m | -14.2m/s | -55.2°C | 4.6% | 0hPa | 2.6V | 00:00:00 | 02:14:08 | 00:00:00 | |
| HA6NAB-11 | 2026-08-30 12:53:11 | 49.50683 | 17.69600 | 32° | 22km/h | 17615m | -14.2m/s | -55.3°C | 1.5% | 0hPa | 2.6V | 00:00:00 | 00:00:00 | 00:00:00 | |
| OE5MMP-10 | 2026-08-30 12:53:07 | 49.50660 | 17.69582 | 25° | 16km/h | 17681m | -15.3m/s | -55.3°C | 4.5% | 0hPa | 2.6V | 00:00:00 | 02:14:03 | 00:00:00 | |
| HA6NAB-11 | 2026-08-30 12:53:06 | 49.50660 | 17.69582 | 25° | 20km/h | 17681m | -15.4m/s | -55.4°C | 1.4% | 0hPa | 2.5V | 00:00:00 | 00:00:00 | 00:00:00 | |
| OE5DRO-10 | 2026-08-30 12:53:03 | 49.50645 | 17.69566 | 52° | 16km/h | 17750m | -17.7m/s | -55.6°C | 4.6% | 0hPa | 2.5V | 00:00:00 | 00:00:00 | 00:00:00 | |
| SP3WXH-11 | 2026-08-30 12:53:00 | 49.50639 | 17.69544 | 85° | 15km/h | 17821m | -18.2m/s | -55.5°C | 1.3% | -1.0hPa | 2.5V | 00:00:00 | 00:00:00 | 00:00:00 | |
| OE3OSB-13 | 2026-08-30 12:52:59 | 49.50639 | 17.69544 | 85° | 15km/h | 17821m | -18.2m/s | -55.5°C | 1.3% | -1.0hPa | 2.5V | 00:00:00 | 00:00:00 | 00:00:00 | |
| PETON7-10 | 2026-08-30 12:52:57 | 49.50639 | 17.69533 | 90° | 18km/h | 17855m | -15.9m/s | -55.6°C | 4.6% | 0hPa | 2.5V | 00:00:00 | 00:00:00 | 00:00:00 | |
| DO3MHA-11 | 2026-08-30 12:52:54 | 49.50638 | 17.69516 | 83° | 18km/h | 17902m | -16.6m/s | -55.5°C | 4.6% | 0hPa | 2.5V | 00:00:00 | 02:13:50 | 00:00:00 | |
| OE5MMP-10 | 2026-08-30 12:52:52 | 49.50636 | 17.69506 | 72° | 16km/h | 17932m | -15.4m/s | -55.0°C | 4.4% | 0hPa | 2.5V | 00:00:00 | 02:13:48 | 00:00:00 | |
| OE5DXL-15 | 2026-08-30 12:52:48 | 49.50630 | 17.69482 | 64° | 20km/h | 18000m | -17.8m/s | -54.8°C | 4.3% | 0hPa | 2.5V | 08:19:00 | 00:00:00 | 00:00:00 | |
| DO3MHA-11 | 2026-08-30 12:52:44 | 49.50620 | 17.69452 | 69° | 22km/h | 18060m | -14.8m/s | -55.0°C | 4.4% | 0hPa | 2.6V | 00:00:00 | 02:13:40 | 00:00:00 | |
| PETON7-10 | 2026-08-30 12:52:42 | 49.50616 | 17.69435 | 66° | 20km/h | 18093m | -17.0m/s | -55.2°C | 4.5% | 0hPa | 2.5V | 00:00:00 | 00:00:00 | 00:00:00 | |
| PG1ADW-2 | 2026-08-30 12:52:37 | 49.50599 | 17.69399 | 48° | 18km/h | 18180m | -16.3m/s | -55.6°C | 4.6% | 0hPa | 2.5V | 00:00:00 | 00:00:00 | 00:00:00 | |
| HA6NAB-11 | 2026-08-30 12:52:36 | 49.50600 | 17.69399 | 49° | 22km/h | 18180m | -16.4m/s | -55.7°C | 1.3% | 0hPa | 2.5V | 00:00:00 | 00:00:00 | 00:00:00 | |
| DO3MHA-11 | 2026-08-30 12:52:34 | 49.50589 | 17.69382 | 50° | 18km/h | 18226m | -14.5m/s | -55.8°C | 4.7% | 0hPa | 2.5V | 00:00:00 | 02:13:30 | 00:00:00 | |
| OE3OSB-13 | 2026-08-30 12:52:29 | 49.50576 | 17.69345 | 64° | 16km/h | 18320m | -17.3m/s | -54.9°C | 1.2% | -1.0hPa | 2.5V | 00:00:00 | 00:00:00 | 00:00:00 | |
| PETON7-10 | 2026-08-30 12:52:28 | 49.50574 | 17.69340 | 66° | 18km/h | 18337m | -16.1m/s | -54.7°C | 4.4% | 0hPa | 2.5V | 00:00:00 | 02:13:23 | 00:00:00 | |
| OE5DRO-10 | 2026-08-30 12:52:25 | 49.50570 | 17.69328 | 66° | 16km/h | 18367m | -14.6m/s | -54.5°C | 4.3% | 0hPa | 2.5V | 00:00:00 | 00:00:00 | 00:00:00 | |
| DO3MHA-11 | 2026-08-30 12:52:24 | 49.50568 | 17.69322 | 62° | 18km/h | 18382m | -14.5m/s | -54.6°C | 4.3% | 0hPa | 2.6V | 00:00:00 | 02:13:20 | 00:00:00 | |
| OE5DXL-15 | 2026-08-30 12:52:18 | 49.50563 | 17.69283 | 99° | 13km/h | 18485m | -17.2m/s | -54.8°C | 4.3% | 0hPa | 2.6V | 00:00:00 | 00:00:00 | 00:00:00 | |
| PG1ADW-2 | 2026-08-30 12:52:17 | 49.50564 | 17.69274 | 99° | 15km/h | 18503m | -18.7m/s | -54.8°C | 4.2% | 0hPa | 2.6V | 00:00:00 | 00:00:00 | 00:00:00 | |
| DO3MHA-11 | 2026-08-30 12:52:14 | 49.50568 | 17.69251 | 114° | 15km/h | 18562m | -19.7m/s | -54.8°C | 4.2% | 0hPa | 2.5V | 00:00:00 | 02:13:10 | 00:00:00 | |
| PETON7-10 | 2026-08-30 12:52:12 | 49.50573 | 17.69239 | 122° | 11km/h | 18602m | -20.4m/s | -55.1°C | 4.3% | 0hPa | 2.7V | 00:00:00 | 00:00:00 | 00:00:00 | |
| OE5DRO-10 | 2026-08-30 12:52:06 | 49.50586 | 17.69214 | 130° | 11km/h | 18714m | -18.5m/s | -55.1°C | 4.4% | 0hPa | 2.6V | 00:00:00 | 00:00:00 | 00:00:00 | |
| DO3MHA-11 | 2026-08-30 12:52:04 | 49.50590 | 17.69206 | 126° | 7km/h | 18747m | -16.7m/s | -55.2°C | 4.4% | 0hPa | 2.6V | 00:00:00 | 02:13:00 | 00:00:00 | |
| OE5MMP-10 | 2026-08-30 12:52:03 | 49.50592 | 17.69201 | 126° | 7km/h | 18763m | -15.3m/s | -55.3°C | 4.4% | 0hPa | 2.6V | 00:00:00 | 02:12:59 | 00:00:00 | |
| PG1ADW-2 | 2026-08-30 12:51:57 | 49.50595 | 17.69186 | 46° | 16km/h | 18862m | -17.1m/s | -55.9°C | 4.6% | 0hPa | 2.6V | 00:00:00 | 02:12:53 | 00:00:00 | |
| DO3MHA-11 | 2026-08-30 12:51:54 | 49.50592 | 17.69187 | 336° | 15km/h | 18907m | -14.3m/s | -55.8°C | 4.6% | 0hPa | 2.6V | 00:00:00 | 02:12:50 | 00:00:00 | |
| OE5MMP-10 | 2026-08-30 12:51:53 | 49.50590 | 17.69189 | 339° | 16km/h | 18923m | -17.6m/s | -55.6°C | 4.5% | 0hPa | 2.6V | 00:00:00 | 02:12:49 | 00:00:00 | |
| OE5DXL-15 | 2026-08-30 12:51:48 | 49.50572 | 17.69195 | 4° | 20km/h | 19003m | -17.5m/s | -55.5°C | 4.5% | 0hPa | 2.5V | 00:00:00 | 00:00:00 | 00:00:00 | |
| OE5DRO-10 | 2026-08-30 12:51:47 | 49.50568 | 17.69194 | 13° | 20km/h | 19020m | -16.4m/s | -55.6°C | 4.6% | 0hPa | 2.5V | 00:00:00 | 00:00:00 | 00:00:00 | |
| DO3MHA-11 | 2026-08-30 12:51:44 | 49.50554 | 17.69184 | 32° | 24km/h | 19072m | -18.4m/s | -55.8°C | 4.6% | 0hPa | 2.5V | 08:20:00 | 02:12:40 | 00:00:00 | |
| OE5MMP-10 | 2026-08-30 12:51:43 | 49.50549 | 17.69179 | 37° | 24km/h | 19091m | -18.6m/s | -55.9°C | 4.6% | 0hPa | 2.6V | 00:00:00 | 02:12:39 | 00:00:00 | |
| PETON7-10 | 2026-08-30 12:51:42 | 49.50544 | 17.69173 | 41° | 18km/h | 19109m | -19.4m/s | -55.9°C | 4.7% | 0hPa | 2.6V | 00:00:00 | 02:12:38 | 00:00:00 | |
| PG1ADW-2 | 2026-08-30 12:51:37 | 49.50523 | 17.69137 | 56° | 18km/h | 19201m | -18.5m/s | -55.9°C | 4.7% | 0hPa | 2.6V | 00:00:00 | 00:00:00 | 00:00:00 | |
| DO3MHA-11 | 2026-08-30 12:51:34 | 49.50516 | 17.69117 | 68° | 15km/h | 19253m | -16.8m/s | -55.9°C | 4.9% | 0hPa | 2.6V | 00:00:00 | 02:12:30 | 00:00:00 | |
| OE5MMP-10 | 2026-08-30 12:51:33 | 49.50514 | 17.69111 | 70° | 20km/h | 19270m | -16.4m/s | -55.9°C | 4.9% | 0hPa | 2.6V | 00:00:00 | 02:12:29 | 00:00:00 | |
| OE5DRO-10 | 2026-08-30 12:51:29 | 49.50511 | 17.69088 | 67° | 16km/h | 19356m | -19.2m/s | -55.7°C | 4.9% | 0hPa | 2.6V | 00:00:00 | 00:00:00 | 00:00:00 | |
| PETON7-10 | 2026-08-30 12:51:27 | 49.50510 | 17.69084 | 58° | 18km/h | 19375m | -19.4m/s | -55.6°C | 4.9% | 0hPa | 2.6V | 08:20:00 | 00:00:00 | 00:00:00 | |
| OE3OSB-13 | 2026-08-30 12:51:26 | 49.50507 | 17.69078 | 53° | 16km/h | 19394m | -17.3m/s | -55.6°C | 1.3% | -1.0hPa | 2.6V | 00:00:00 | 00:00:00 | 00:00:00 | |
| DO3MHA-11 | 2026-08-30 12:51:24 | 49.50501 | 17.69065 | 56° | 22km/h | 19428m | -16.3m/s | -55.2°C | 4.7% | 0hPa | 2.6V | 00:00:00 | 02:12:20 | 00:00:00 | |
| OE5MMP-10 | 2026-08-30 12:51:22 | 49.50494 | 17.69049 | 62° | 13km/h | 19461m | -17.0m/s | -55.0°C | 4.6% | 0hPa | 2.6V | 08:20:00 | 02:12:18 | 00:00:00 | |
| OE5DXL-15 | 2026-08-30 12:51:18 | 49.50484 | 17.69015 | 76° | 7km/h | 19528m | -17.5m/s | -54.8°C | 4.5% | 0hPa | 2.7V | 00:00:00 | 00:00:00 | 00:00:00 | |
| PG1ADW-2 | 2026-08-30 12:51:17 | 49.50483 | 17.69008 | 85° | 7km/h | 19546m | -18.7m/s | -54.8°C | 4.6% | 0hPa | 2.6V | 08:20:00 | 00:00:00 | 00:00:00 | |
| DO3MHA-11 | 2026-08-30 12:51:14 | 49.50484 | 17.68992 | 106° | 7km/h | 19594m | -14.4m/s | -54.5°C | 4.6% | 0hPa | 2.5V | 00:00:00 | 02:12:10 | 00:00:00 | |
| PETON7-10 | 2026-08-30 12:51:12 | 49.50486 | 17.68985 | 109° | 4km/h | 19622m | -17.9m/s | -54.1°C | 4.4% | 0hPa | 2.7V | 00:00:00 | 00:00:00 | 00:00:00 | |
| OE5DRO-10 | 2026-08-30 12:51:09 | 49.50487 | 17.68977 | 91° | 5km/h | 19677m | -17.1m/s | -53.7°C | 4.3% | 0hPa | 2.7V | 00:00:00 | 00:00:00 | 00:00:00 | |
| NBG1-10 | 2026-08-30 12:51:05 | 49.50485 | 17.68970 | 63° | 9km/h | 19743m | -17.6m/s | -53.4°C | 4.1% | 0hPa | 2.7V | 08:21:00 | 02:12:01 | 00:00:00 | |
| DO3MHA-11 | 2026-08-30 12:51:04 | 49.50485 | 17.68969 | 63° | 4km/h | 19760m | -16.4m/s | -53.4°C | 4.2% | 0hPa | 2.5V | 00:00:00 | 02:12:00 | 00:00:00 | |
| OE5MMP-10 | 2026-08-30 12:51:03 | 49.50484 | 17.68967 | 73° | 4km/h | 19777m | -16.8m/s | -53.3°C | 4.1% | 0hPa | 2.5V | 00:00:00 | 02:11:59 | 00:00:00 | |
| HA6NAB-11 | 2026-08-30 12:51:02 | 49.50484 | 17.68967 | 74° | 2km/h | 19777m | -16.8m/s | -53.3°C | 1.2% | 0hPa | 2.5V | 08:21:00 | 00:00:00 | 00:00:00 | |
| OE3OSB-13 | 2026-08-30 12:50:55 | 49.50485 | 17.68978 | 288° | 7km/h | 19912m | -15.1m/s | -53.2°C | 1.1% | -1.0hPa | 2.5V | 00:00:00 | 00:00:00 | 00:00:00 | |
| DO3MHA-11 | 2026-08-30 12:50:54 | 49.50484 | 17.68980 | 300° | 9km/h | 19928m | -17.5m/s | -53.2°C | 4.1% | 0hPa | 2.5V | 00:00:00 | 02:11:50 | 00:00:00 | |
| OE5MMP-10 | 2026-08-30 12:50:53 | 49.50483 | 17.68983 | 304° | 11km/h | 19946m | -17.6m/s | -53.3°C | 4.1% | 0hPa | 2.5V | 00:00:00 | 02:11:49 | 00:00:00 | |
| OE5DRO-10 | 2026-08-30 12:50:50 | 49.50479 | 17.68990 | 312° | 13km/h | 19999m | -19.9m/s | -53.2°C | 4.1% | 0hPa | 2.5V | 00:00:00 | 00:00:00 | 00:00:00 | |
| OE5DXL-15 | 2026-08-30 12:50:48 | 49.50476 | 17.68995 | 318° | 11km/h | 20037m | -19.1m/s | -53.0°C | 4.0% | 0hPa | 2.5V | 00:00:00 | 00:00:00 | 00:00:00 | |
| DO3MHA-11 | 2026-08-30 12:50:44 | 49.50469 | 17.69009 | 302° | 15km/h | 20106m | -16.1m/s | -52.9°C | 4.0% | 0hPa | 2.5V | 00:00:00 | 02:11:40 | 00:00:00 | |
| PETON7-10 | 2026-08-30 12:50:42 | 49.50465 | 17.69017 | 304° | 13km/h | 20141m | -17.1m/s | -52.7°C | 3.9% | 0hPa | 2.7V | 00:00:00 | 00:00:00 | 00:00:00 | |
| HA6NAB-11 | 2026-08-30 12:50:38 | 49.50458 | 17.69030 | 317° | 15km/h | 20192m | -16.7m/s | -52.7°C | 1.1% | 0hPa | 2.7V | 08:22:00 | 00:00:00 | 00:00:00 | |
| PG1ADW-2 | 2026-08-30 12:50:37 | 49.50452 | 17.69038 | 326° | 9km/h | 20227m | -18.0m/s | -52.6°C | 3.8% | 0hPa | 2.7V | 00:00:00 | 02:11:33 | 00:00:00 | |
| DO3MHA-11 | 2026-08-30 12:50:34 | 49.50442 | 17.69044 | 350° | 11km/h | 20281m | -17.1m/s | -53.0°C | 3.9% | 0hPa | 2.7V | 00:00:00 | 02:11:30 | 00:00:00 | |
| HA6NAB-11 | 2026-08-30 12:50:33 | 49.50439 | 17.69044 | 355° | 15km/h | 20298m | -16.5m/s | -53.3°C | 1.1% | 0hPa | 2.7V | 08:22:00 | 00:00:00 | 00:00:00 | |
| OE5MMP-10 | 2026-08-30 12:50:32 | 49.50435 | 17.69045 | 1° | 9km/h | 20315m | -18.1m/s | -53.4°C | 4.0% | 0hPa | 2.7V | 00:00:00 | 02:11:28 | 00:00:00 | |
| OE5DRO-10 | 2026-08-30 12:50:31 | 49.50432 | 17.69045 | 3° | 7km/h | 20332m | -16.1m/s | -53.4°C | 4.0% | 0hPa | 2.7V | 08:21:00 | 00:00:00 | 00:00:00 | |
| PETON7-10 | 2026-08-30 12:50:27 | 49.50421 | 17.69044 | 351° | 5km/h | 20401m | -17.9m/s | -53.6°C | 4.1% | 0hPa | 2.5V | 00:00:00 | 00:00:00 | 00:00:00 | |
| NBG1-10 | 2026-08-30 12:50:26 | 49.50419 | 17.69044 | 2° | 9km/h | 20419m | -18.7m/s | -53.6°C | 4.2% | 0hPa | 2.5V | 00:00:00 | 02:11:22 | 00:00:00 | |
| DO3MHA-11 | 2026-08-30 12:50:24 | 49.50417 | 17.69044 | 18° | 5km/h | 20451m | -13.3m/s | -53.7°C | 4.2% | 0hPa | 2.5V | 00:00:00 | 02:11:20 | 00:00:00 | |
| OE5MMP-10 | 2026-08-30 12:50:22 | 49.50416 | 17.69043 | 1° | 5km/h | 20477m | -13.8m/s | -53.7°C | 4.1% | 0hPa | 2.5V | 00:00:00 | 02:11:18 | 00:00:00 | |
| OE5DXL-15 | 2026-08-30 12:50:18 | 49.50412 | 17.69047 | 328° | 9km/h | 20543m | -17.7m/s | -53.6°C | 4.0% | 0hPa | 2.5V | 00:00:00 | 00:00:00 | 00:00:00 | |
| PG1ADW-2 | 2026-08-30 12:50:17 | 49.50410 | 17.69048 | 323° | 11km/h | 20560m | -17.2m/s | -53.5°C | 4.0% | 0hPa | 2.5V | 00:00:00 | 00:00:00 | 00:00:00 | |
| DO3MHA-11 | 2026-08-30 12:50:14 | 49.50406 | 17.69055 | 305° | 9km/h | 20616m | -17.0m/s | -53.7°C | 4.0% | 0hPa | 2.7V | 08:21:00 | 02:11:10 | 00:00:00 | |
| PETON7-10 | 2026-08-30 12:50:12 | 49.50405 | 17.69061 | 274° | 13km/h | 20651m | -18.5m/s | -53.9°C | 4.1% | 0hPa | 2.5V | 00:00:00 | 02:11:08 | 00:00:00 | |
| DO3MHA-11 | 2026-08-30 12:50:04 | 49.50401 | 17.69092 | 304° | 13km/h | 20794m | -19.1m/s | -54.5°C | 4.4% | 0hPa | 2.5V | 00:00:00 | 02:11:00 | 00:00:00 | |
| OE5MMP-10 | 2026-08-30 12:50:01 | 49.50393 | 17.69104 | 327° | 11km/h | 20853m | -18.5m/s | -54.7°C | 4.5% | 0hPa | 2.5V | 00:00:00 | 02:10:57 | 00:00:00 | |
| PG1ADW-2 | 2026-08-30 12:49:57 | 49.50380 | 17.69113 | 344° | 7km/h | 20924m | -17.3m/s | -55.1°C | 4.6% | 0hPa | 2.5V | 00:00:00 | 00:00:00 | 00:00:00 | |
| DO3MHA-11 | 2026-08-30 12:49:54 | 49.50374 | 17.69114 | 11° | 4km/h | 20983m | -19.0m/s | -54.9°C | 4.6% | 0hPa | 2.5V | 00:00:00 | 02:10:50 | 00:00:00 | |
| OE5DRO-10 | 2026-08-30 12:49:53 | 49.50373 | 17.69114 | 3° | 7km/h | 21002m | -19.0m/s | -54.8°C | 4.5% | 0hPa | 2.5V | 00:00:00 | 00:00:00 | 00:00:00 | |
| HA6NAB-11 | 2026-08-30 12:49:52 | 49.50373 | 17.69114 | 4° | 5km/h | 21002m | -19.0m/s | -54.8°C | 1.3% | 0hPa | 2.5V | 00:00:00 | 00:00:00 | 00:00:00 | |
| OE5MMP-10 | 2026-08-30 12:49:51 | 49.50371 | 17.69114 | 350° | 9km/h | 21042m | -19.5m/s | -54.5°C | 4.4% | 0hPa | 2.5V | 00:00:00 | 02:10:47 | 00:00:00 | |
| OE5DXL-15 | 2026-08-30 12:49:48 | 49.50370 | 17.69117 | 282° | 9km/h | 21097m | -20.0m/s | -54.4°C | 4.4% | 0hPa | 2.5V | 00:00:00 | 00:00:00 | 00:00:00 | |
| HA6NAB-11 | 2026-08-30 12:49:47 | 49.50370 | 17.69117 | 282° | 4km/h | 21097m | -20.0m/s | -54.4°C | 1.2% | 0hPa | 2.5V | 00:00:00 | 00:00:00 | 00:00:00 | |
| DO3MHA-11 | 2026-08-30 12:49:44 | 49.50367 | 17.69124 | 312° | 11km/h | 21175m | -20.6m/s | -54.3°C | 4.5% | 0hPa | 2.5V | 00:00:00 | 02:10:40 | 00:00:00 | |
| PETON7-10 | 2026-08-30 12:49:42 | 49.50365 | 17.69127 | 337° | 11km/h | 21213m | -17.5m/s | -54.4°C | 4.6% | 0hPa | 2.7V | 00:00:00 | 00:00:00 | 00:00:00 | |
| HA6NAB-11 | 2026-08-30 12:49:41 | 49.50365 | 17.69127 | 337° | 7km/h | 21213m | -17.5m/s | -54.4°C | 1.3% | 0hPa | 2.7V | 00:00:00 | 00:00:00 | 00:00:00 | |
| PG1ADW-2 | 2026-08-30 12:49:37 | 49.50350 | 17.69128 | 352° | 9km/h | 21299m | -19.3m/s | -54.3°C | 4.5% | 0hPa | 2.7V | 00:00:00 | 00:00:00 | 00:00:00 | |
| OE5MMP-10 | 2026-08-30 12:49:36 | 49.50345 | 17.69129 | 355° | 7km/h | 21318m | -19.1m/s | -54.3°C | 4.4% | 0hPa | 2.7V | 08:22:00 | 02:10:32 | 00:00:00 | |
| DO3MHA-11 | 2026-08-30 12:49:34 | 49.50338 | 17.69131 | 353° | 7km/h | 21363m | -22.1m/s | -54.1°C | 4.4% | 0hPa | 2.5V | 00:00:00 | 02:10:30 | 00:00:00 | |
| HA6NAB-11 | 2026-08-30 12:49:30 | 49.50332 | 17.69130 | 41° | 4km/h | 21425m | -21.6m/s | -53.9°C | 0% | 0hPa | 2.5V | 00:00:00 | 00:00:00 | 00:00:00 | |
| PETON7-10 | 2026-08-30 12:49:27 | 49.50331 | 17.69124 | 92° | 11km/h | 21507m | -20.4m/s | -53.4°C | 4.2% | 0hPa | 2.5V | 00:00:00 | 02:10:23 | 00:00:00 | |
| OE5MMP-10 | 2026-08-30 12:49:25 | 49.50331 | 17.69117 | 86° | 11km/h | 21550m | -20.3m/s | -53.3°C | 4.2% | 0hPa | 2.5V | 00:00:00 | 02:10:21 | 00:00:00 | |
| DO3MHA-11 | 2026-08-30 12:49:24 | 49.50331 | 17.69114 | 80° | 11km/h | 21569m | -18.6m/s | -53.4°C | 4.2% | 0hPa | 2.5V | 00:00:00 | 02:10:20 | 00:00:00 | |
| OE3OSB-13 | 2026-08-30 12:49:22 | 49.50328 | 17.69105 | 36° | 7km/h | 21623m | -17.0m/s | -53.1°C | 1.0% | -1.0hPa | 2.5V | 00:00:00 | 00:00:00 | 00:00:00 | |
| OE5DXL-15 | 2026-08-30 12:49:18 | 49.50321 | 17.69101 | 16° | 15km/h | 21678m | -18.2m/s | -53.1°C | 4.1% | 0hPa | 2.5V | 00:00:00 | 00:00:00 | 00:00:00 | |
| PG1ADW-2 | 2026-08-30 12:49:17 | 49.50319 | 17.69100 | 14° | 13km/h | 21698m | -20.8m/s | -53.1°C | 4.1% | 0hPa | 2.5V | 00:00:00 | 02:10:13 | 00:00:00 | |
| OE5MMP-10 | 2026-08-30 12:49:15 | 49.50311 | 17.69097 | 14° | 15km/h | 21738m | -18.9m/s | -53.0°C | 4.0% | 0hPa | 2.7V | 00:00:00 | 02:10:11 | 00:00:00 | |
| DO3MHA-11 | 2026-08-30 12:49:14 | 49.50307 | 17.69095 | 16° | 15km/h | 21757m | -19.2m/s | -53.0°C | 4.0% | 0hPa | 2.7V | 00:00:00 | 02:10:10 | 00:00:00 | |
| PETON7-10 | 2026-08-30 12:49:12 | 49.50299 | 17.69091 | 26° | 13km/h | 21796m | -20.8m/s | -53.1°C | 4.0% | 0hPa | 2.5V | 08:22:00 | 00:00:00 | 00:00:00 | |
| OE5MMP-10 | 2026-08-30 12:49:05 | 49.50282 | 17.69068 | 76° | 13km/h | 21933m | -20.3m/s | -53.0°C | 4.0% | 0hPa | 2.5V | 00:00:00 | 02:10:01 | 00:00:00 | |
| DO3MHA-11 | 2026-08-30 12:49:04 | 49.50281 | 17.69065 | 88° | 13km/h | 21953m | -17.9m/s | -53.0°C | 4.0% | 0hPa | 2.7V | 00:00:00 | 02:10:00 | 00:00:00 | |
| NBG1-10 | 2026-08-30 12:48:58 | 49.50289 | 17.69042 | 135° | 18km/h | 22065m | -18.4m/s | -53.2°C | 4.0% | 0hPa | 2.7V | 00:00:00 | 02:09:54 | 00:00:00 | |
| DB0DAN | 2026-08-30 12:48:55 | 49.50299 | 17.69032 | 162° | 16km/h | 22122m | -22.1m/s | -53.5°C | 1% | 0hPa | 2.5V | 00:00:00 | 00:00:00 | 00:00:00 | |
| SP3WXH-11 | 2026-08-30 12:48:52 | 49.50317 | 17.69027 | 180° | 18km/h | 22204m | -18.9m/s | -53.5°C | 1.0% | -1.0hPa | 2.7V | 00:00:00 | 00:00:00 | 00:00:00 | |
| OE3OSB-13 | 2026-08-30 12:48:51 | 49.50322 | 17.69027 | 184° | 18km/h | 22223m | -19.4m/s | -53.5°C | 1.0% | -1.0hPa | 2.7V | 00:00:00 | 00:00:00 | 00:00:00 | |
| OE5MMP-10 | 2026-08-30 12:48:45 | 49.50342 | 17.69040 | 223° | 16km/h | 22325m | -18.9m/s | -53.6°C | 4.2% | 0hPa | 2.7V | 00:00:00 | 02:09:41 | 00:00:00 | |
| DO3MHA-11 | 2026-08-30 12:48:44 | 49.50345 | 17.69044 | 239° | 15km/h | 22344m | -18.2m/s | -53.6°C | 4.2% | 0hPa | 2.7V | 08:23:00 | 02:09:40 | 00:00:00 | |
| PETON7-10 | 2026-08-30 12:48:42 | 49.50347 | 17.69055 | 272° | 13km/h | 22381m | -18.6m/s | -53.4°C | 4.0% | 0hPa | 2.5V | 00:00:00 | 02:09:38 | 00:00:00 | |
| PG1ADW-2 | 2026-08-30 12:48:37 | 49.50339 | 17.69084 | 303° | 18km/h | 22475m | -17.9m/s | -53.7°C | 4.1% | 0hPa | 2.5V | 00:00:00 | 00:00:00 | 00:00:00 | |
| OE5MMP-10 | 2026-08-30 12:48:35 | 49.50336 | 17.69094 | 296° | 11km/h | 22511m | -20.4m/s | -53.7°C | 4.1% | 0hPa | 2.5V | 00:00:00 | 02:09:31 | 00:00:00 | |
| DO3MHA-11 | 2026-08-30 12:48:34 | 49.50335 | 17.69098 | 293° | 15km/h | 22531m | -20.6m/s | -53.6°C | 4.2% | 0hPa | 2.7V | 00:00:00 | 02:09:30 | 00:00:00 | |
| PETON7-10 | 2026-08-30 12:48:27 | 49.50318 | 17.69112 | 359° | 22km/h | 22663m | -20.4m/s | -53.5°C | 4.1% | 0hPa | 2.7V | 00:00:00 | 00:00:00 | 00:00:00 | |
| OE5MMP-10 | 2026-08-30 12:48:25 | 49.50306 | 17.69112 | 6° | 22km/h | 22706m | -21.7m/s | -53.6°C | 4.1% | 0hPa | 2.5V | 00:00:00 | 02:09:21 | 00:00:00 | |
| DO3MHA-11 | 2026-08-30 12:48:24 | 49.50299 | 17.69110 | 9° | 24km/h | 22727m | -21.1m/s | -53.8°C | 4.1% | 0hPa | 2.5V | 00:00:00 | 02:09:20 | 00:00:00 | |
| OE3OSB-13 | 2026-08-30 12:48:20 | 49.50269 | 17.69094 | 30° | 22km/h | 22838m | -19.8m/s | -54.1°C | 1.1% | -1.0hPa | 2.5V | 00:00:00 | 00:00:00 | 00:00:00 | |
| OE5DXL-15 | 2026-08-30 12:48:18 | 49.50264 | 17.69089 | 36° | 13km/h | 22859m | -20.9m/s | -54.1°C | 4.3% | 0hPa | 2.5V | 08:23:00 | 00:00:00 | 00:00:00 | |
| PG1ADW-2 | 2026-08-30 12:48:17 | 49.50260 | 17.69084 | 42° | 9km/h | 22879m | -18.4m/s | -54.2°C | 4.4% | 0hPa | 2.7V | 08:23:00 | 00:00:00 | 00:00:00 | |
| DO3MHA-11 | 2026-08-30 12:48:14 | 49.50249 | 17.69067 | 49° | 7km/h | 22933m | -20.6m/s | -53.9°C | 4.2% | 0hPa | 2.5V | 00:00:00 | 02:09:10 | 00:00:00 | |
| DB0DAN | 2026-08-30 12:48:10 | 49.50242 | 17.69053 | 50° | 5km/h | 23014m | -22.9m/s | -53.8°C | 1% | 0hPa | 2.7V | 00:00:00 | 00:00:00 | 00:00:00 | |
| DO3MHA-11 | 2026-08-30 12:48:04 | 49.50245 | 17.69049 | 205° | 13km/h | 23129m | -19.1m/s | -54.1°C | 4.3% | 0hPa | 2.7V | 00:00:00 | 02:09:00 | 00:00:00 | |
| OE5DRO-10 | 2026-08-30 12:47:59 | 49.50252 | 17.69064 | 265° | 13km/h | 23231m | -19.7m/s | -54.0°C | 4.3% | 0hPa | 2.7V | 00:00:00 | 00:00:00 | 00:00:00 | |
| DB0DAN | 2026-08-30 12:47:55 | 49.50249 | 17.69088 | 295° | 15km/h | 23306m | -18.1m/s | -54.2°C | 1.1% | 0hPa | 2.7V | 00:00:00 | 00:00:00 | 00:00:00 | |
| OE3OSB-13 | 2026-08-30 12:47:49 | 49.50234 | 17.69106 | 35° | 9km/h | 23447m | -19.0m/s | -54.0°C | 1.1% | -1.0hPa | 2.5V | 00:00:00 | 00:00:00 | 00:00:00 | |
| OE5DXL-15 | 2026-08-30 12:47:48 | 49.50234 | 17.69106 | 36° | 11km/h | 23447m | -19.0m/s | -53.9°C | 4.3% | 0hPa | 2.5V | 00:00:00 | 00:00:00 | 00:00:00 | |
| OE5MMP-10 | 2026-08-30 12:47:44 | 49.50226 | 17.69090 | 62° | 7km/h | 23524m | -21.3m/s | -54.2°C | 4.4% | 0hPa | 2.5V | 00:00:00 | 02:08:40 | 00:00:00 | |
| PETON7-10 | 2026-08-30 12:47:42 | 49.50223 | 17.69081 | 67° | 7km/h | 23564m | -19.1m/s | -54.2°C | 4.3% | 0hPa | 2.5V | 00:00:00 | 00:00:00 | 00:00:00 | |
| OE5DRO-10 | 2026-08-30 12:47:40 | 49.50220 | 17.69073 | 69° | 9km/h | 23606m | -22.3m/s | -54.3°C | 4.4% | 0hPa | 2.5V | 08:24:00 | 00:00:00 | 00:00:00 | |
| PG1ADW-2 | 2026-08-30 12:47:37 | 49.50218 | 17.69068 | 40° | 11km/h | 23675m | -23.2m/s | -54.0°C | 4.3% | 0hPa | 2.7V | 00:00:00 | 00:00:00 | 00:00:00 | |
| DO3MHA-11 | 2026-08-30 12:47:34 | 49.50217 | 17.69071 | 278° | 11km/h | 23744m | -21.5m/s | -53.8°C | 4.3% | 0hPa | 2.7V | 00:00:00 | 02:08:30 | 00:00:00 | |
| NBG1-10 | 2026-08-30 12:47:33 | 49.50217 | 17.69073 | 285° | 18km/h | 23765m | -21.0m/s | -53.7°C | 4.3% | 0hPa | 2.7V | 00:00:00 | 02:08:29 | 00:00:00 | |
| PETON7-10 | 2026-08-30 12:47:27 | 49.50211 | 17.69096 | 289° | 11km/h | 23895m | -28.3m/s | -53.5°C | 4.0% | 0hPa | 2.7V | 00:00:00 | 00:00:00 | 00:00:00 | |
| DO3MHA-11 | 2026-08-30 12:47:24 | 49.50208 | 17.69112 | 283° | 11km/h | 23973m | -25.6m/s | -53.8°C | 4.2% | 0hPa | 2.7V | 00:00:00 | 02:08:20 | 00:00:00 | |
| OE5DRO-10 | 2026-08-30 12:47:21 | 49.50206 | 17.69129 | 279° | 9km/h | 24049m | -21.5m/s | -54.1°C | 4.4% | 0hPa | 2.7V | 00:00:00 | 00:00:00 | 00:00:00 | |
| OE3OSB-13 | 2026-08-30 12:47:18 | 49.50203 | 17.69146 | 310° | 7km/h | 24132m | -20.5m/s | -53.6°C | 1.0% | -1.0hPa | 2.7V | 00:00:00 | 00:00:00 | 00:00:00 | |
| PG1ADW-2 | 2026-08-30 12:47:17 | 49.50203 | 17.69146 | 311° | 11km/h | 24132m | -20.4m/s | -53.6°C | 4.2% | 0hPa | 2.7V | 00:00:00 | 00:00:00 | 00:00:00 | |
| OK1SLM-15 | 2026-08-30 12:47:15 | 49.50200 | 17.69148 | 352° | 7km/h | 24176m | -23.2m/s | -53.7°C | 1.1% | 0hPa | 2.5V | 00:00:00 | 00:00:00 | 00:00:00 | |
| OE5MMP-10 | 2026-08-30 12:47:14 | 49.50199 | 17.69149 | 354° | 9km/h | 24199m | -21.7m/s | -53.7°C | 4.2% | 0hPa | 2.5V | 00:00:00 | 02:08:10 | 00:00:00 | |
| PETON7-10 | 2026-08-30 12:47:12 | 49.50197 | 17.69147 | 53° | 13km/h | 24244m | -21.5m/s | -53.5°C | 4.1% | 0hPa | 2.5V | 00:00:00 | 02:08:08 | 00:00:00 | |
| OK1SLM-15 | 2026-08-30 12:47:08 | 49.50198 | 17.69142 | 134° | 7km/h | 24318m | -25.7m/s | -53.7°C | 1.1% | 0hPa | 2.5V | 00:00:00 | 00:00:00 | 00:00:00 | |
| DO3MHA-11 | 2026-08-30 12:47:04 | 49.50213 | 17.69132 | 163° | 16km/h | 24450m | -23.0m/s | -54.1°C | 4.4% | 0hPa | 2.5V | 00:00:00 | 02:08:00 | 00:00:00 | |
| OE5DRO-10 | 2026-08-30 12:47:02 | 49.50221 | 17.69128 | 163° | 16km/h | 24495m | -22.0m/s | -54.1°C | 4.5% | 0hPa | 2.5V | 00:00:00 | 00:00:00 | 00:00:00 | |
| OE3JTB-15 | 2026-08-30 12:46:58 | 49.50236 | 17.69119 | 157° | 16km/h | 24579m | -21.9m/s | -54.1°C | 4.6% | 0hPa | 2.5V | 00:00:00 | 02:07:54 | 00:00:00 | |
| PG1ADW-2 | 2026-08-30 12:46:57 | 49.50240 | 17.69117 | 159° | 15km/h | 24600m | -19.2m/s | -54.1°C | 4.6% | 0hPa | 2.5V | 00:00:00 | 00:00:00 | 00:00:00 | |
| DO3MHA-11 | 2026-08-30 12:46:54 | 49.50250 | 17.69113 | 187° | 16km/h | 24660m | -23.3m/s | -53.9°C | 4.5% | 0hPa | 2.5V | 00:00:00 | 02:07:50 | 00:00:00 | |
| HA6NAB-11 | 2026-08-30 12:46:52 | 49.50254 | 17.69114 | 198° | 13km/h | 24683m | -20.3m/s | -53.9°C | 0% | 0hPa | 2.5V | 08:25:00 | 00:00:00 | 00:00:00 | |
| OE5DXL-15 | 2026-08-30 12:46:48 | 49.50271 | 17.69131 | 225° | 18km/h | 24796m | -20.2m/s | -53.1°C | 4.2% | 0hPa | 2.5V | 00:00:00 | 00:00:00 | 00:00:00 | |
| HA6NAB-11 | 2026-08-30 12:46:47 | 49.50274 | 17.69136 | 234° | 16km/h | 24816m | -19.7m/s | -53.1°C | 0% | 0hPa | 2.7V | 08:25:00 | 00:00:00 | 00:00:00 | |
| OE5DRO-10 | 2026-08-30 12:46:44 | 49.50280 | 17.69158 | 272° | 16km/h | 24902m | -23.3m/s | -52.8°C | 4.1% | 0hPa | 2.7V | 00:00:00 | 00:00:00 | 00:00:00 | |
| PETON7-10 | 2026-08-30 12:46:42 | 49.50280 | 17.69162 | 282° | 16km/h | 24925m | -22.2m/s | -52.7°C | 4.1% | 0hPa | 2.7V | 00:00:00 | 00:00:00 | 00:00:00 | |
| HA6NAB-11 | 2026-08-30 12:46:41 | 49.50280 | 17.69162 | 283° | 13km/h | 24925m | -22.3m/s | -52.8°C | 0% | 0hPa | 2.7V | 08:25:00 | 00:00:00 | 00:00:00 | |
| PG1ADW-2 | 2026-08-30 12:46:37 | 49.50274 | 17.69186 | 298° | 20km/h | 25042m | -20.8m/s | -52.7°C | 4.2% | 0hPa | 2.7V | 00:00:00 | 02:07:33 | 00:00:00 | |
| HA6NAB-11 | 2026-08-30 12:46:35 | 49.50272 | 17.69191 | 292° | 13km/h | 25065m | -24.1m/s | -52.8°C | 0% | 0hPa | 2.7V | 08:25:00 | 00:00:00 | 00:00:00 | |
| OE5MMP-10 | 2026-08-30 12:46:34 | 49.50270 | 17.69201 | 295° | 20km/h | 25109m | -21.7m/s | -52.6°C | 4.1% | 0hPa | 2.7V | 08:25:00 | 02:07:30 | 00:00:00 | |
| HA6NAB-11 | 2026-08-30 12:46:30 | 49.50266 | 17.69218 | 291° | 18km/h | 25178m | -24.3m/s | -52.5°C | 0% | 0hPa | 2.5V | 00:00:00 | 00:00:00 | 00:00:00 | |
| OE3JTB-15 | 2026-08-30 12:46:29 | 49.50263 | 17.69233 | 287° | 16km/h | 25229m | -25.1m/s | -52.5°C | 4.0% | 0hPa | 2.5V | 08:25:00 | 00:00:00 | 00:00:00 | |
| SP3BTT-10 | 2026-08-30 12:46:28 | 49.50262 | 17.69241 | 282° | 20km/h | 25255m | -26.5m/s | -52.5°C | 4.0% | 0hPa | 2.7V | 00:00:00 | 00:00:00 | 00:00:00 | |
| PETON7-10 | 2026-08-30 12:46:27 | 49.50260 | 17.69249 | 282° | 22km/h | 25281m | -24.8m/s | -52.5°C | 4.1% | 0hPa | 2.5V | 00:00:00 | 02:07:23 | 00:00:00 | |
| DO3MHA-11 | 2026-08-30 12:46:24 | 49.50259 | 17.69278 | 270° | 24km/h | 25358m | -25.2m/s | -52.4°C | 4.0% | 0hPa | 2.5V | 00:00:00 | 02:07:20 | 00:00:00 | |
| OE5DXL-15 | 2026-08-30 12:46:18 | 49.50254 | 17.69330 | 300° | 18km/h | 25500m | -20.9m/s | -51.8°C | 3.9% | 0hPa | 2.5V | 00:00:00 | 00:00:00 | 00:00:00 | |
| PG1ADW-2 | 2026-08-30 12:46:17 | 49.50251 | 17.69337 | 310° | 15km/h | 25522m | -22.0m/s | -51.8°C | 3.9% | 0hPa | 2.5V | 00:00:00 | 00:00:00 | 00:00:00 | |
| SP3WXH-11 | 2026-08-30 12:46:16 | 49.50247 | 17.69344 | 318° | 26km/h | 25543m | -22.6m/s | -51.9°C | 0.9% | -1.0hPa | 2.7V | 00:00:00 | 00:00:00 | 00:00:00 | |
| OE3OSB-13 | 2026-08-30 12:46:15 | 49.50242 | 17.69350 | 325° | 22km/h | 25567m | -22.2m/s | -51.9°C | 0.9% | -1.0hPa | 2.7V | 00:00:00 | 00:00:00 | 00:00:00 | |
| DO3MHA-11 | 2026-08-30 12:46:14 | 49.50237 | 17.69354 | 330° | 13km/h | 25589m | -23.0m/s | -51.8°C | 3.9% | 0hPa | 2.7V | 00:00:00 | 02:07:10 | 00:00:00 | |
| OK1SLM-15 | 2026-08-30 12:46:13 | 49.50232 | 17.69358 | 337° | 24km/h | 25613m | -22.8m/s | -51.8°C | 1.0% | 0hPa | 2.5V | 00:00:00 | 00:00:00 | 00:00:00 | |
| PETON7-10 | 2026-08-30 12:46:08 | 49.50214 | 17.69366 | 345° | 15km/h | 25732m | -24.4m/s | -52.0°C | 4.1% | 0hPa | 2.5V | 00:00:00 | 00:00:00 | 00:00:00 | |
| NBG1-10 | 2026-08-30 12:46:06 | 49.50212 | 17.69367 | 9° | 9km/h | 25780m | -22.5m/s | -52.1°C | 4.1% | 0hPa | 2.7V | 00:00:00 | 02:07:02 | 00:00:00 | |
| OE5DRO-10 | 2026-08-30 12:46:05 | 49.50211 | 17.69368 | 313° | 18km/h | 25803m | -21.5m/s | -52.0°C | 4.1% | 0hPa | 2.5V | 00:00:00 | 00:00:00 | 00:00:00 | |
| DO3MHA-11 | 2026-08-30 12:46:04 | 49.50210 | 17.69369 | 317° | 16km/h | 25827m | -25.2m/s | -52.0°C | 4.1% | 0hPa | 2.5V | 00:00:00 | 02:07:00 | 00:00:00 | |
| SP3WXH-11 | 2026-08-30 12:45:45 | 49.50145 | 17.69456 | 13° | 27km/h | 26337m | -26.9m/s | -50.9°C | 0.9% | -1.0hPa | 2.5V | 00:00:00 | 00:00:00 | 00:00:00 | |
| OE5MMP-10 | 2026-08-30 12:45:44 | 49.50138 | 17.69454 | 12° | 13km/h | 26364m | -25.5m/s | -51.0°C | 3.8% | 0hPa | 2.5V | 00:00:00 | 02:06:40 | 00:00:00 | |
| PETON7-10 | 2026-08-30 12:45:38 | 49.50112 | 17.69452 | 155° | 5km/h | 26510m | -22.5m/s | -51.1°C | 4.1% | 0hPa | 2.5V | 00:00:00 | 02:06:34 | 00:00:00 | |
| PG1ADW-2 | 2026-08-30 12:45:37 | 49.50112 | 17.69453 | 333° | 9km/h | 26533m | -23.8m/s | -51.0°C | 4.1% | 0hPa | 2.5V | 00:00:00 | 00:00:00 | 00:00:00 | |
| OE5MMP-10 | 2026-08-30 12:45:34 | 49.50109 | 17.69458 | 340° | 4km/h | 26602m | -18.6m/s | -50.5°C | 4.0% | 0hPa | 2.5V | 00:00:00 | 02:06:30 | 00:00:00 | |
| NBG1-10 | 2026-08-30 12:45:33 | 49.50108 | 17.69460 | 328° | 16km/h | 26622m | -21.5m/s | -50.4°C | 3.9% | 0hPa | 2.7V | 00:00:00 | 02:06:29 | 00:00:00 | |
| OE5DRO-10 | 2026-08-30 12:45:27 | 49.50106 | 17.69464 | 185° | 11km/h | 26757m | -24.9m/s | -49.8°C | 3.8% | 0hPa | 2.7V | 00:00:00 | 00:00:00 | 00:00:00 | |
| OE3JTB-15 | 2026-08-30 12:45:26 | 49.50107 | 17.69466 | 314° | 11km/h | 26781m | -22.8m/s | -49.7°C | 3.8% | 0hPa | 2.7V | 00:00:00 | 02:06:22 | 00:00:00 | |
| PETON7-10 | 2026-08-30 12:45:23 | 49.50104 | 17.69477 | 281° | 13km/h | 26854m | -25.8m/s | -49.1°C | 3.6% | 0hPa | 2.7V | 00:00:00 | 00:00:00 | 00:00:00 | |
| OK1SLM-15 | 2026-08-30 12:45:22 | 49.50104 | 17.69477 | 281° | 18km/h | 26854m | -25.8m/s | -49.1°C | 0.9% | 0hPa | 2.7V | 00:00:00 | 00:00:00 | 00:00:00 | |
| PG1ADW-2 | 2026-08-30 12:45:18 | 49.50092 | 17.69514 | 309° | 9km/h | 26994m | -22.9m/s | -48.0°C | 3.3% | 0hPa | 2.7V | 08:26:00 | 02:06:13 | 00:00:00 | |
| DO3MHA-11 | 2026-08-30 12:45:14 | 49.50088 | 17.69525 | 10° | 7km/h | 27060m | -26.0m/s | -48.0°C | 3.3% | 0hPa | 2.5V | 00:00:00 | 02:06:10 | 00:00:00 | |
| OE3OSB-13 | 2026-08-30 12:45:13 | 49.50087 | 17.69525 | 14° | 2km/h | 27085m | -26.5m/s | -48.1°C | 0.8% | -1.0hPa | 2.7V | 00:00:00 | 00:00:00 | 00:00:00 | |
| OK1SLM-15 | 2026-08-30 12:45:12 | 49.50087 | 17.69525 | 15° | 4km/h | 27085m | -26.5m/s | -48.1°C | 0.8% | 0hPa | 2.7V | 00:00:00 | 00:00:00 | 00:00:00 | |
| PETON7-10 | 2026-08-30 12:45:08 | 49.50079 | 17.69511 | 46° | 5km/h | 27211m | -23.6m/s | -47.8°C | 3.2% | 0hPa | 2.7V | 00:00:00 | 00:00:00 | 00:00:00 | |
| DO3MHA-11 | 2026-08-30 12:45:04 | 49.50074 | 17.69503 | 195° | 5km/h | 27307m | -22.2m/s | -47.5°C | 3.2% | 0hPa | 2.7V | 00:00:00 | 02:06:00 | 00:00:00 | |
| DB0DAN | 2026-08-30 12:44:55 | 49.50057 | 17.69502 | 12° | 9km/h | 27537m | -26.9m/s | -48.2°C | 0.8% | 0hPa | 2.7V | 00:00:00 | 00:00:00 | 00:00:00 | |
| SP3BTT-10 | 2026-08-30 12:44:55 | 49.50057 | 17.69502 | 13° | 11km/h | 27537m | -26.9m/s | -48.2°C | 3.4% | 0hPa | 2.7V | 00:00:00 | 00:00:00 | 00:00:00 | |
| OE5MMP-10 | 2026-08-30 12:44:54 | 49.50055 | 17.69501 | 15° | 18km/h | 27565m | -26.4m/s | -48.3°C | 3.4% | 0hPa | 2.7V | 00:00:00 | 02:05:50 | 00:00:00 | |
| PETON7-10 | 2026-08-30 12:44:53 | 49.50052 | 17.69501 | 355° | 20km/h | 27591m | -25.1m/s | -48.3°C | 3.5% | 0hPa | 2.7V | 00:00:00 | 02:05:49 | 00:00:00 | |
| DO3MHA-11 | 2026-08-30 12:44:51 | 49.50047 | 17.69501 | 335° | 22km/h | 27638m | -24.2m/s | -48.0°C | 3.4% | 0hPa | 2.7V | 00:00:00 | 02:05:47 | 00:00:00 | |
| OE5DRO-10 | 2026-08-30 12:44:49 | 49.50037 | 17.69511 | 314° | 18km/h | 27685m | -21.9m/s | -47.7°C | 3.3% | 0hPa | 2.7V | 08:27:00 | 00:00:00 | 00:00:00 | |
| OE5DXL-15 | 2026-08-30 12:44:48 | 49.50032 | 17.69517 | 318° | 18km/h | 27708m | -22.5m/s | -47.4°C | 3.3% | 0hPa | 2.7V | 00:00:00 | 00:00:00 | 00:00:00 | |
| OE5MMP-10 | 2026-08-30 12:44:44 | 49.50008 | 17.69541 | 348° | 15km/h | 27803m | -25.8m/s | -47.0°C | 3.2% | 0hPa | 2.7V | 00:00:00 | 02:05:40 | 00:00:00 | |
| SP3WXH-11 | 2026-08-30 12:44:43 | 49.50001 | 17.69542 | 357° | 18km/h | 27830m | -26.2m/s | -47.1°C | 0.7% | -1.0hPa | 2.7V | 00:00:00 | 00:00:00 | 00:00:00 | |
| OE3OSB-13 | 2026-08-30 12:44:42 | 49.49997 | 17.69542 | 2° | 9km/h | 27856m | -24.9m/s | -47.2°C | 0.8% | -1.0hPa | 2.7V | 00:00:00 | 00:00:00 | 00:00:00 | |
| DO3MHA-11 | 2026-08-30 12:44:41 | 49.49993 | 17.69542 | 19° | 11km/h | 27879m | -25.5m/s | -47.1°C | 3.2% | 0hPa | 2.7V | 00:00:00 | 02:05:37 | 00:00:00 | |
| PETON7-10 | 2026-08-30 12:44:38 | 49.49980 | 17.69531 | 39° | 15km/h | 27954m | -26.0m/s | -46.8°C | 3.1% | 0hPa | 2.5V | 08:27:00 | 00:00:00 | 00:00:00 | |
| PG1ADW-2 | 2026-08-30 12:44:37 | 49.49976 | 17.69529 | 48° | 18km/h | 27981m | -26.9m/s | -46.7°C | 3.1% | 0hPa | 2.5V | 00:00:00 | 00:00:00 | 00:00:00 | |
| OE5MMP-10 | 2026-08-30 12:44:34 | 49.49968 | 17.69528 | 295° | 16km/h | 28057m | -26.0m/s | -46.6°C | 3.1% | 0hPa | 2.5V | 00:00:00 | 02:05:30 | 00:00:00 | |
| DO3MHA-11 | 2026-08-30 12:44:31 | 49.49959 | 17.69533 | 332° | 20km/h | 28137m | -29.8m/s | -46.1°C | 2.9% | 0hPa | 2.7V | 00:00:00 | 02:05:27 | 00:00:00 | |
| OE3JTB-15 | 2026-08-30 12:44:27 | 49.49970 | 17.69543 | 320° | 20km/h | 28246m | -25.3m/s | -46.1°C | 2.9% | 0hPa | 2.7V | 00:00:00 | 00:00:00 | 00:00:00 | |
| OE5MMP-10 | 2026-08-30 12:44:24 | 49.49966 | 17.69557 | 292° | 27km/h | 28325m | -27.2m/s | -46.4°C | 3.0% | 0hPa | 2.7V | 00:00:00 | 02:05:20 | 00:00:00 | |
| PETON7-10 | 2026-08-30 12:44:23 | 49.49964 | 17.69564 | 307° | 26km/h | 28350m | -26.6m/s | -46.5°C | 3.1% | 0hPa | 2.7V | 00:00:00 | 00:00:00 | 00:00:00 | |
| OK1SLM-15 | 2026-08-30 12:44:22 | 49.49964 | 17.69564 | 307° | 18km/h | 28350m | -26.7m/s | -46.6°C | 0.7% | 0hPa | 2.7V | 00:00:00 | 00:00:00 | 00:00:00 | |
| DO3MHA-11 | 2026-08-30 12:44:21 | 49.49956 | 17.69579 | 309° | 27km/h | 28399m | -26.1m/s | -46.8°C | 3.1% | 0hPa | 2.7V | 00:00:00 | 02:05:17 | 00:00:00 | |
| OE5DXL-15 | 2026-08-30 12:44:18 | 49.49938 | 17.69604 | 332° | 16km/h | 28475m | -26.0m/s | -47.1°C | 3.3% | 0hPa | 2.7V | 00:00:00 | 00:00:00 | 00:00:00 | |
| PG1ADW-2 | 2026-08-30 12:44:17 | 49.49931 | 17.69611 | 334° | 18km/h | 28500m | -28.0m/s | -47.1°C | 3.3% | 0hPa | 2.7V | 00:00:00 | 00:00:00 | 00:00:00 | |
| HA6NAB-11 | 2026-08-30 12:44:16 | 49.49931 | 17.69611 | 335° | 31km/h | 28500m | -28.1m/s | -47.1°C | 0% | 0hPa | 2.7V | 08:28:00 | 00:00:00 | 00:00:00 | |
| OE5MMP-10 | 2026-08-30 12:44:13 | 49.49903 | 17.69622 | 9° | 18km/h | 28607m | -26.3m/s | -46.7°C | 3.2% | 0hPa | 2.7V | 00:00:00 | 02:05:09 | 00:00:00 | |
| SP3WXH-11 | 2026-08-30 12:44:12 | 49.49898 | 17.69620 | 18° | 18km/h | 28634m | -28.0m/s | -46.6°C | 0.7% | -1.0hPa | 2.7V | 00:00:00 | 00:00:00 | 00:00:00 | |
| DO3MHA-11 | 2026-08-30 12:44:11 | 49.49893 | 17.69617 | 29° | 16km/h | 28662m | -29.2m/s | -46.5°C | 3.2% | 0hPa | 2.7V | 08:27:00 | 02:05:07 | 00:00:00 | |
| HA6NAB-11 | 2026-08-30 12:44:10 | 49.49893 | 17.69617 | 30° | 22km/h | 28662m | -29.2m/s | -46.6°C | 0% | 0hPa | 2.5V | 08:28:00 | 00:00:00 | 00:00:00 | |
| PETON7-10 | 2026-08-30 12:44:08 | 49.49882 | 17.69602 | 53° | 13km/h | 28756m | -30.4m/s | -46.2°C | 3.1% | 0hPa | 2.5V | 00:00:00 | 02:05:04 | 00:00:00 | |
| HA6NAB-11 | 2026-08-30 12:44:04 | 49.49878 | 17.69583 | 74° | 16km/h | 28854m | -30.8m/s | -46.3°C | 0% | 0hPa | 2.5V | 08:28:00 | 00:00:00 | 00:00:00 | |
| OE5MMP-10 | 2026-08-30 12:44:03 | 49.49877 | 17.69573 | 50° | 11km/h | 28917m | -30.9m/s | -46.1°C | 3.2% | 0hPa | 2.5V | 00:00:00 | 02:04:59 | 00:00:00 | |
| DO3MHA-11 | 2026-08-30 12:44:01 | 49.49874 | 17.69564 | 77° | 9km/h | 28973m | -28.2m/s | -45.8°C | 3.1% | 0hPa | 2.7V | 00:00:00 | 02:04:57 | 00:00:00 | |
| OE5DRO-10 | 2026-08-30 12:44:00 | 49.49873 | 17.69561 | 48° | 11km/h | 29002m | -28.9m/s | -45.7°C | 3.1% | 0hPa | 2.7V | 00:00:00 | 00:00:00 | 00:00:00 | |
| HA6NAB-11 | 2026-08-30 12:43:59 | 49.49873 | 17.69561 | 48° | 11km/h | 29002m | -29.0m/s | -45.7°C | 0% | 0hPa | 2.7V | 00:00:00 | 00:00:00 | 00:00:00 | |
| OE3JTB-15 | 2026-08-30 12:43:58 | 49.49874 | 17.69554 | 120° | 11km/h | 29056m | -26.6m/s | -45.5°C | 3.1% | 0hPa | 2.7V | 00:00:00 | 02:04:54 | 00:00:00 | |
| PG1ADW-2 | 2026-08-30 12:43:57 | 49.49876 | 17.69551 | 142° | 9km/h | 29083m | -26.6m/s | -45.4°C | 3.0% | 0hPa | 2.7V | 00:00:00 | 02:04:53 | 00:00:00 | |
| PETON7-10 | 2026-08-30 12:43:53 | 49.49881 | 17.69540 | 7° | 9km/h | 29195m | -30.1m/s | -45.2°C | 3.0% | 0hPa | 2.7V | 00:00:00 | 00:00:00 | 00:00:00 | |
| DO3MHA-11 | 2026-08-30 12:43:51 | 49.49880 | 17.69539 | 351° | 11km/h | 29255m | -27.1m/s | -45.0°C | 3.0% | 0hPa | 2.7V | 00:00:00 | 02:04:47 | 00:00:00 | |
| OE5DXL-15 | 2026-08-30 12:43:48 | 49.49862 | 17.69544 | 3° | 18km/h | 29338m | -32.6m/s | -44.6°C | 2.8% | 0hPa | 2.7V | 08:28:00 | 00:00:00 | 00:00:00 | |
| SP3BTT-10 | 2026-08-30 12:43:47 | 49.49858 | 17.69544 | 9° | 13km/h | 29370m | -31.1m/s | -44.5°C | 2.8% | 0hPa | 2.7V | 00:00:00 | 00:00:00 | 00:00:00 | |
| OE5MMP-10 | 2026-08-30 12:43:43 | 49.49845 | 17.69539 | 21° | 9km/h | 29502m | -30.8m/s | -44.4°C | 2.8% | 0hPa | 2.7V | 00:00:00 | 02:04:39 | 00:00:00 | |
| DO3MHA-11 | 2026-08-30 12:43:41 | 49.49842 | 17.69535 | 98° | 9km/h | 29563m | -30.3m/s | -44.3°C | 2.8% | 0hPa | 2.7V | 00:00:00 | 02:04:37 | 00:00:00 | |
| OE3OSB-13 | 2026-08-30 12:43:40 | 49.49841 | 17.69534 | 17° | 2km/h | 29594m | -32.3m/s | -44.3°C | 0.6% | -1.0hPa | 2.5V | 00:00:00 | 00:00:00 | 00:00:00 | |
| PETON7-10 | 2026-08-30 12:43:38 | 49.49837 | 17.69533 | 351° | 20km/h | 29656m | -30.3m/s | -44.3°C | 2.8% | 0hPa | 2.5V | 00:00:00 | 00:00:00 | 00:00:00 | |
| PG1ADW-2 | 2026-08-30 12:43:37 | 49.49833 | 17.69535 | 337° | 22km/h | 29686m | -30.7m/s | -44.3°C | 2.8% | 0hPa | 2.5V | 00:00:00 | 00:00:00 | 00:00:00 | |
| OE5MMP-10 | 2026-08-30 12:43:33 | 49.49814 | 17.69544 | 324° | 26km/h | 29808m | -33.0m/s | -43.9°C | 2.8% | 0hPa | 2.5V | 08:28:00 | 02:04:29 | 00:00:00 | |
| DO3MHA-11 | 2026-08-30 12:43:31 | 49.49799 | 17.69550 | 326° | 38km/h | 29871m | -32.5m/s | -43.7°C | 2.7% | 0hPa | 2.7V | 00:00:00 | 02:04:27 | 00:00:00 | |
| OE3JTB-15 | 2026-08-30 12:43:29 | 49.49782 | 17.69557 | 328° | 29km/h | 29936m | -34.4m/s | -43.7°C | 2.7% | 0hPa | 2.7V | 00:00:00 | 00:00:00 | 00:00:00 | |
| DB0DAN | 2026-08-30 12:43:25 | 49.49750 | 17.69568 | 1° | 35km/h | 30052m | -27.9m/s | -43.9°C | 0.6% | 0hPa | 2.7V | 00:00:00 | 00:00:00 | 00:00:00 | |
| PETON7-10 | 2026-08-30 12:43:23 | 49.49734 | 17.69569 | 352° | 26km/h | 30111m | -29.9m/s | -43.7°C | 2.8% | 0hPa | 2.5V | 00:00:00 | 02:04:19 | 00:00:00 | |
| OE5DRO-10 | 2026-08-30 12:43:22 | 49.49729 | 17.69570 | 8° | 27km/h | 30139m | -29.1m/s | -43.6°C | 2.8% | 0hPa | 2.5V | 00:00:00 | 00:00:00 | 00:00:00 | |
| NBG1-10 | 2026-08-30 12:43:21 | 49.49722 | 17.69570 | 9° | 16km/h | 30165m | -28.7m/s | -43.5°C | 2.8% | 0hPa | 2.7V | 00:00:00 | 02:04:17 | 00:00:00 | |
| OE5DXL-15 | 2026-08-30 12:43:18 | 49.49704 | 17.69559 | 30° | 27km/h | 30248m | -31.6m/s | -43.1°C | 2.7% | 0hPa | 2.7V | 00:00:00 | 00:00:00 | 00:00:00 | |
| PG1ADW-2 | 2026-08-30 12:43:17 | 49.49697 | 17.69554 | 34° | 27km/h | 30276m | -27.5m/s | -43.0°C | 2.7% | 0hPa | 2.7V | 00:00:00 | 00:00:00 | 00:00:00 | |
| OE5MMP-10 | 2026-08-30 12:43:13 | 49.49676 | 17.69523 | 67° | 27km/h | 30376m | -27.8m/s | -42.6°C | 2.6% | 0hPa | 2.5V | 00:00:00 | 02:04:09 | 00:00:00 | |
| SP3WXH-11 | 2026-08-30 12:43:10 | 49.49665 | 17.69506 | 32° | 27km/h | 30458m | -27.5m/s | -42.7°C | 0.6% | -1.0hPa | 2.5V | 00:00:00 | 00:00:00 | 00:00:00 | |
| OE3OSB-13 | 2026-08-30 12:43:09 | 49.49660 | 17.69500 | 44° | 20km/h | 30486m | -28.5m/s | -42.8°C | 0.5% | -1.0hPa | 2.5V | 00:00:00 | 00:00:00 | 00:00:00 | |
| PETON7-10 | 2026-08-30 12:43:08 | 49.49656 | 17.69493 | 54° | 27km/h | 30514m | -27.1m/s | -42.8°C | 2.6% | 0hPa | 2.5V | 00:00:00 | 00:00:00 | 00:00:00 | |
| OE5MMP-10 | 2026-08-30 12:43:04 | 49.49632 | 17.69444 | 60° | 27km/h | 30651m | -24.2m/s | -42.6°C | 2.6% | 0hPa | 2.5V | 00:00:00 | 02:03:59 | 00:00:00 | |
| OE3JTB-15 | 2026-08-30 12:42:59 | 49.49619 | 17.69408 | 63° | 22km/h | 30765m | -29.6m/s | -41.9°C | 2.5% | 0hPa | 2.7V | 00:00:00 | 00:00:00 | 00:00:00 | |
| PG1ADW-2 | 2026-08-30 12:42:57 | 49.49611 | 17.69390 | 61° | 26km/h | 30824m | -30.2m/s | -42.0°C | 2.5% | 0hPa | 2.7V | 00:00:00 | 00:00:00 | 00:00:00 | |
| OE5MMP-10 | 2026-08-30 12:42:53 | 49.49601 | 17.69353 | 79° | 29km/h | 30929m | -28.6m/s | -42.2°C | 2.5% | 0hPa | 2.7V | 00:00:00 | 02:03:49 | 00:00:00 | |
| OE5DXL-15 | 2026-08-30 12:42:48 | 49.49596 | 17.69297 | 94° | 16km/h | 31089m | -31.1m/s | -42.1°C | 2.5% | 0hPa | 2.7V | 00:00:00 | 00:00:00 | 00:00:00 | |
| OE5DRO-10 | 2026-08-30 12:42:44 | 49.49596 | 17.69251 | 84° | 15km/h | 31187m | -26.6m/s | -42.1°C | 2.6% | 0hPa | 2.7V | 00:00:00 | 00:00:00 | 00:00:00 | |
| OE5MMP-10 | 2026-08-30 12:42:43 | 49.49596 | 17.69242 | 93° | 15km/h | 31212m | -25.7m/s | -42.1°C | 2.6% | 0hPa | 2.7V | 00:00:00 | 02:03:39 | 00:00:00 | |
| SP3WXH-11 | 2026-08-30 12:42:39 | 49.49595 | 17.69216 | 107° | 13km/h | 31315m | -25.9m/s | -42.2°C | 0.6% | -1.0hPa | 2.7V | 00:00:00 | 00:00:00 | 00:00:00 | |
| PETON7-10 | 2026-08-30 12:42:38 | 49.49595 | 17.69211 | 58° | 13km/h | 31340m | -25.0m/s | -42.1°C | 2.6% | 0hPa | 2.7V | 00:00:00 | 02:03:34 | 00:00:00 | |
| PG1ADW-2 | 2026-08-30 12:42:37 | 49.49593 | 17.69207 | 71° | 13km/h | 31365m | -25.1m/s | -42.0°C | 2.6% | 0hPa | 2.7V | 00:00:00 | 02:03:33 | 00:00:00 | |
| OE3JTB-15 | 2026-08-30 12:42:30 | 49.49591 | 17.69176 | 133° | 20km/h | 31544m | -24.7m/s | -41.3°C | 2.5% | 0hPa | 2.7V | 00:00:00 | 02:03:26 | 00:00:00 | |
| OE5DRO-10 | 2026-08-30 12:42:25 | 49.49577 | 17.69156 | 36° | 16km/h | 31673m | -23.8m/s | -41.0°C | 2.5% | 0hPa | 2.7V | 00:00:00 | 00:00:00 | 00:00:00 | |
| OK1SLM-15 | 2026-08-30 12:42:24 | 49.49577 | 17.69156 | 36° | 15km/h | 31673m | -23.8m/s | -41.1°C | 0.6% | 0hPa | 2.5V | 08:29:00 | 00:00:00 | 00:00:00 | |
| OE5MMP-10 | 2026-08-30 12:42:23 | 49.49570 | 17.69149 | 34° | 15km/h | 31720m | -23.9m/s | -40.8°C | 2.5% | 0hPa | 2.5V | 00:00:00 | 02:03:19 | 00:00:00 | |
| OK1SLM-15 | 2026-08-30 12:42:19 | 49.49559 | 17.69144 | 12° | 15km/h | 31811m | -23.8m/s | -40.4°C | 0.5% | 0hPa | 2.5V | 08:29:00 | 00:00:00 | 00:00:00 | |
| OE5DXL-15 | 2026-08-30 12:42:18 | 49.49556 | 17.69142 | 40° | 24km/h | 31836m | -26.6m/s | -40.2°C | 2.5% | 0hPa | 2.5V | 00:00:00 | 00:00:00 | 00:00:00 | |
| PG1ADW-2 | 2026-08-30 12:42:17 | 49.49552 | 17.69136 | 47° | 18km/h | 31865m | -26.8m/s | -40.1°C | 2.4% | 0hPa | 2.5V | 00:00:00 | 00:00:00 | 08:30:00 | |
| SP3BTT-10 | 2026-08-30 12:42:16 | 49.49549 | 17.69130 | 72° | 37km/h | 31892m | -23.3m/s | -40.0°C | 2.4% | 0hPa | 2.7V | 00:00:00 | 00:00:00 | 08:30:00 | |
| OE5MMP-10 | 2026-08-30 12:42:13 | 49.49538 | 17.69109 | 44° | 15km/h | 31967m | -20.9m/s | -39.7°C | 2.3% | 0hPa | 2.7V | 00:00:00 | 02:03:09 | 00:00:00 | |
| PETON7-10 | 2026-08-30 12:42:08 | 49.49517 | 17.69102 | 25° | 24km/h | 32060m | -25.3m/s | -39.2°C | 2.2% | 0hPa | 2.7V | 00:00:00 | 00:00:00 | 00:00:00 | |
| OE3OSB-13 | 2026-08-30 12:42:07 | 49.49512 | 17.69099 | 20° | 15km/h | 32085m | -22.2m/s | -39.2°C | 0.4% | -1.0hPa | 2.7V | 00:00:00 | 00:00:00 | 00:00:00 | |
| OE5DRO-10 | 2026-08-30 12:42:06 | 49.49510 | 17.69096 | 72° | 26km/h | 32108m | -25.6m/s | -39.1°C | 2.2% | 0hPa | 2.7V | 00:00:00 | 00:00:00 | 00:00:00 | |
| OE5MMP-10 | 2026-08-30 12:42:03 | 49.49508 | 17.69089 | 70° | 31km/h | 32180m | -26.5m/s | -38.7°C | 2.2% | 0hPa | 2.7V | 00:00:00 | 02:02:59 | 08:30:00 | |
| PETON7-10 | 2026-08-30 12:41:53 | 49.49431 | 17.69041 | 32° | 40km/h | 32469m | -29.8m/s | -38.2°C | 2.0% | 0hPa | 2.5V | 00:00:00 | 02:02:49 | 00:00:00 | |
| NBG1-10 | 2026-08-30 12:41:48 | 49.49405 | 17.69001 | 70° | 24km/h | 32587m | -23.7m/s | -38.5°C | 2.1% | 0hPa | 2.5V | 00:00:00 | 02:02:44 | 00:00:00 | |
| OE5DRO-10 | 2026-08-30 12:41:47 | 49.49403 | 17.68992 | 66° | 40km/h | 32611m | -24.1m/s | -38.5°C | 2.1% | 0hPa | 2.5V | 00:00:00 | 00:00:00 | 00:00:00 | |
| OE5MMP-10 | 2026-08-30 12:41:43 | 49.49372 | 17.68950 | 30° | 47km/h | 32689m | -21.6m/s | -38.7°C | 2.1% | 0hPa | 2.5V | 00:00:00 | 02:02:39 | 00:00:00 | |
| PETON7-10 | 2026-08-30 12:41:38 | 49.49317 | 17.68870 | 69° | 33km/h | 32828m | -31.5m/s | -38.9°C | 2.1% | 0hPa | 2.5V | 00:00:00 | 00:00:00 | 00:00:00 | |
| PG1ADW-2 | 2026-08-30 12:41:37 | 49.49313 | 17.68853 | 79° | 38km/h | 32856m | -21.5m/s | -39.0°C | 2.2% | 0hPa | 2.6V | 00:00:00 | 00:00:00 | 00:00:00 | |
| OE5MMP-10 | 2026-08-30 12:41:33 | 49.49301 | 17.68801 | 63° | 33km/h | 32871m | 15.6m/s | -38.8°C | 2.2% | 0hPa | 2.6V | 00:00:00 | 02:02:29 | 00:00:00 | |
| DB0UT-7 | 2026-08-30 12:41:31 | 49.49290 | 17.68782 | 43° | 38km/h | 32849m | 9.7m/s | 0°C | 0% | 0hPa | 2.7V | 00:00:00 | 00:00:00 | 00:00:00 | |
| OE5DRO-10 | 2026-08-30 12:41:28 | 49.49268 | 17.68766 | 32° | 40km/h | 32819m | 4.7m/s | -38.8°C | 2.2% | 0hPa | 2.7V | 00:00:00 | 00:00:00 | 08:30:00 | |
| DB0DAN | 2026-08-30 12:41:25 | 49.49243 | 17.68741 | 57° | 37km/h | 32783m | 7.8m/s | -38.9°C | 0.5% | 0hPa | 2.6V | 00:00:00 | 00:00:00 | 00:00:00 | |
| OE5MMP-10 | 2026-08-30 12:41:23 | 49.49226 | 17.68717 | 56° | 44km/h | 32758m | 12.4m/s | -39.0°C | 2.3% | 0hPa | 2.7V | 00:00:00 | 02:02:19 | 00:00:00 | |
| OE5DXL-15 | 2026-08-30 12:41:18 | 49.49166 | 17.68661 | 43° | 37km/h | 32679m | 9.7m/s | -38.9°C | 2.1% | 0hPa | 2.7V | 00:00:00 | 00:00:00 | 00:00:00 | |
| PG1ADW-2 | 2026-08-30 12:41:17 | 49.49155 | 17.68653 | 46° | 33km/h | 32664m | 6.2m/s | -38.9°C | 2.1% | 0hPa | 2.7V | 00:00:00 | 02:02:13 | 00:00:00 | |
| OE5MMP-10 | 2026-08-30 12:41:13 | 49.49107 | 17.68631 | 27° | 38km/h | 32618m | 3.5m/s | -38.6°C | 2.1% | 0hPa | 2.7V | 00:00:00 | 02:02:09 | 00:00:00 | |
| OE5DRO-10 | 2026-08-30 12:41:09 | 49.49078 | 17.68593 | 95° | 35km/h | 32596m | 2.0m/s | -38.3°C | 2.1% | 0hPa | 2.7V | 00:00:00 | 00:00:00 | 00:00:00 | |
| PETON7-10 | 2026-08-30 12:41:08 | 49.49080 | 17.68580 | 78° | 35km/h | 32595m | 3.5m/s | -38.4°C | 2.1% | 0hPa | 2.7V | 00:00:00 | 02:02:04 | 00:00:00 | |
| SP3WXH-11 | 2026-08-30 12:41:06 | 49.49056 | 17.68535 | 57° | 55km/h | 32577m | -1.0m/s | -38.4°C | 0.4% | -1.0hPa | 2.7V | 00:00:00 | 00:00:00 | 00:00:00 | |
| OE3OSB-13 | 2026-08-30 12:41:05 | 49.49049 | 17.68518 | 61° | 46km/h | 32579m | -3.3m/s | -38.4°C | 0.5% | -1.0hPa | 2.7V | 00:00:00 | 00:00:00 | 00:00:00 | |
| OE5MMP-10 | 2026-08-30 12:41:03 | 49.49045 | 17.68503 | 62° | 27km/h | 32583m | -0.5m/s | -38.4°C | 2.1% | 0hPa | 2.7V | 00:00:00 | 02:01:59 | 00:00:00 | |
| DB0UT-7 | 2026-08-30 12:41:01 | 49.49043 | 17.68484 | 88° | 16km/h | 32583m | 3.7m/s | 0°C | 0% | 0hPa | 2.6V | 00:00:00 | 02:01:57 | 00:00:00 | |
| PG1ADW-2 | 2026-08-30 12:40:57 | 49.49036 | 17.68463 | 20° | 37km/h | 32563m | 8.0m/s | -38.3°C | 2.1% | 0hPa | 2.6V | 00:00:00 | 00:00:00 | 00:00:00 | |
| OK1SLM-15 | 2026-08-30 12:40:55 | 49.49025 | 17.68457 | 30° | 42km/h | 32552m | 6.9m/s | -38.4°C | 0.5% | 0hPa | 2.6V | 00:00:00 | 00:00:00 | 00:00:00 | |
| PETON7-10 | 2026-08-30 12:40:53 | 49.48990 | 17.68427 | 38° | 33km/h | 32520m | 8.3m/s | -38.2°C | 2.1% | 0hPa | 2.6V | 00:00:00 | 00:00:00 | 00:00:00 | |
| OE5DRO-10 | 2026-08-30 12:40:50 | 49.48964 | 17.68397 | 33° | 31km/h | 32489m | 9.2m/s | -38.4°C | 2.1% | 0hPa | 2.6V | 00:00:00 | 00:00:00 | 00:00:00 | |
| OK1SLM-15 | 2026-08-30 12:40:49 | 49.48964 | 17.68397 | 33° | 37km/h | 32489m | 9.2m/s | -38.4°C | 0% | 0hPa | 2.6V | 00:00:00 | 00:00:00 | 00:00:00 | |
| OE5DXL-15 | 2026-08-30 12:40:48 | 49.48933 | 17.68386 | 18° | 27km/h | 32452m | 9.8m/s | -38.4°C | 2.1% | 0hPa | 2.6V | 00:00:00 | 00:00:00 | 00:00:00 | |
| SP3BTT-10 | 2026-08-30 12:40:46 | 49.48900 | 17.68382 | 13° | 20km/h | 32421m | 2.3m/s | -38.3°C | 2.1% | 0hPa | 2.6V | 00:00:00 | 00:00:00 | 00:00:00 | |
| OE5MMP-10 | 2026-08-30 12:40:43 | 49.48886 | 17.68377 | 246° | 24km/h | 32412m | 0.5m/s | -38.0°C | 2.1% | 0hPa | 2.6V | 00:00:00 | 02:01:39 | 00:00:00 | |
| PETON7-10 | 2026-08-30 12:40:38 | 49.48879 | 17.68336 | 41° | 27km/h | 32413m | -0.5m/s | -37.9°C | 2.0% | 0hPa | 2.6V | 00:00:00 | 00:00:00 | 00:00:00 | |
| PG1ADW-2 | 2026-08-30 12:40:37 | 49.48878 | 17.68330 | 27° | 27km/h | 32419m | 3.1m/s | -37.9°C | 2.0% | 0hPa | 2.6V | 00:00:00 | 00:00:00 | 00:00:00 | |
| SP3WXH-11 | 2026-08-30 12:40:35 | 49.48859 | 17.68319 | 11° | 29km/h | 32409m | 2.6m/s | -38.0°C | 0.4% | -1.0hPa | 2.6V | 00:00:00 | 00:00:00 | 00:00:00 | |
| OE3OSB-13 | 2026-08-30 12:40:34 | 49.48850 | 17.68317 | 9° | 35km/h | 32405m | 3.5m/s | -38.0°C | 0.4% | -1.0hPa | 2.6V | 00:00:00 | 00:00:00 | 00:00:00 | |
| OE5MMP-10 | 2026-08-30 12:40:33 | 49.48850 | 17.68317 | 10° | 27km/h | 32405m | 3.5m/s | -37.9°C | 2.0% | 0hPa | 2.6V | 00:00:00 | 02:01:29 | 08:30:00 | |
| OE5DRO-10 | 2026-08-30 12:40:31 | 49.48830 | 17.68312 | 11° | 26km/h | 32393m | 3.3m/s | -37.9°C | 2.0% | 0hPa | 2.6V | 00:00:00 | 00:00:00 | 00:00:00 | |
| OE5MMP-10 | 2026-08-30 12:40:23 | 49.48786 | 17.68270 | 7° | 26km/h | 32363m | 7.2m/s | -38.3°C | 2.1% | 0hPa | 2.6V | 00:00:00 | 02:01:19 | 00:00:00 | |
| OE5DXL-15 | 2026-08-30 12:40:18 | 49.48749 | 17.68251 | 47° | 20km/h | 32342m | 3.1m/s | -38.6°C | 2.2% | 0hPa | 2.6V | 00:00:00 | 00:00:00 | 00:00:00 | |
| PG1ADW-2 | 2026-08-30 12:40:17 | 49.48742 | 17.68244 | 37° | 20km/h | 32339m | 5.8m/s | -38.7°C | 2.1% | 0hPa | 2.6V | 00:00:00 | 00:00:00 | 00:00:00 | |
| OE5MMP-10 | 2026-08-30 12:40:13 | 49.48716 | 17.68221 | 22° | 20km/h | 32322m | 5.8m/s | -38.5°C | 2.1% | 0hPa | 2.7V | 00:00:00 | 02:01:09 | 00:00:00 | |
| OE5DRO-10 | 2026-08-30 12:40:12 | 49.48712 | 17.68218 | 30° | 16km/h | 32315m | 8.6m/s | -38.4°C | 2.1% | 0hPa | 2.7V | 00:00:00 | 00:00:00 | 00:00:00 | |
| OE3JTB-15 | 2026-08-30 12:40:11 | 49.48706 | 17.68218 | 11° | 20km/h | 32289m | 7.7m/s | -38.4°C | 2.1% | 0hPa | 2.7V | 00:00:00 | 00:00:00 | 08:30:00 | |
| PETON7-10 | 2026-08-30 12:40:08 | 49.48708 | 17.68220 | 15° | 18km/h | 32271m | 10.9m/s | -38.3°C | 2.1% | 0hPa | 2.6V | 00:00:00 | 00:00:00 | 08:30:00 | |
| SP3WXH-11 | 2026-08-30 12:40:04 | 49.48687 | 17.68212 | 36° | 24km/h | 32219m | 8.1m/s | -38.7°C | 0.5% | -1.0hPa | 2.7V | 00:00:00 | 00:00:00 | 00:00:00 | |
| PG1ADW-2 | 2026-08-30 12:39:57 | 49.48671 | 17.68183 | 25° | 16km/h | 32176m | 7.7m/s | -39.1°C | 2.2% | 0hPa | 2.7V | 00:00:00 | 02:00:53 | 00:00:00 | |
| OK1SLM-15 | 2026-08-30 12:39:54 | 49.48668 | 17.68175 | 54° | 11km/h | 32151m | 4.6m/s | -39.0°C | 0% | 0hPa | 2.7V | 00:00:00 | 00:00:00 | 00:00:00 | |
| PETON7-10 | 2026-08-30 12:39:53 | 49.48665 | 17.68172 | 25° | 18km/h | 32145m | 5.5m/s | -39.0°C | 2.2% | 0hPa | 2.7V | 00:00:00 | 00:00:00 | 00:00:00 | |
| OE5DXL-15 | 2026-08-30 12:39:48 | 49.48641 | 17.68154 | 51° | 22km/h | 32110m | 9.8m/s | -38.9°C | 2.1% | 0hPa | 2.7V | 00:00:00 | 00:00:00 | 00:00:00 | |
| SP3BTT-10 | 2026-08-30 12:39:45 | 49.48631 | 17.68134 | 46° | 20km/h | 32090m | 6.9m/s | -39.0°C | 2.1% | 0hPa | 2.7V | 00:00:00 | 00:00:00 | 00:00:00 | |
| OE5MMP-10 | 2026-08-30 12:39:43 | 49.48624 | 17.68130 | 354° | 20km/h | 32076m | 7.2m/s | -39.1°C | 2.1% | 0hPa | 2.7V | 00:00:00 | 02:00:39 | 00:00:00 | |
| NBG1-10 | 2026-08-30 12:39:39 | 49.48613 | 17.68120 | 37° | 22km/h | 32047m | 7.4m/s | -39.2°C | 2.2% | 0hPa | 2.7V | 00:00:00 | 02:00:35 | 00:00:00 | |
| PETON7-10 | 2026-08-30 12:39:38 | 49.48609 | 17.68116 | 25° | 27km/h | 32040m | 7.7m/s | -39.3°C | 2.2% | 0hPa | 2.7V | 00:00:00 | 02:00:34 | 00:00:00 | |
| OE3JTB-15 | 2026-08-30 12:39:37 | 49.48588 | 17.68105 | 20° | 24km/h | 32011m | 8.2m/s | -39.5°C | 2.2% | 0hPa | 2.7V | 00:00:00 | 00:00:00 | 00:00:00 | |
| OE5DRO-10 | 2026-08-30 12:39:34 | 49.48582 | 17.68100 | 28° | 26km/h | 32006m | 6.8m/s | -39.6°C | 2.2% | 0hPa | 2.7V | 00:00:00 | 00:00:00 | 00:00:00 | |
| SP3WXH-11 | 2026-08-30 12:39:33 | 49.48568 | 17.68087 | 54° | 26km/h | 31987m | 7.2m/s | -39.7°C | 0.5% | -1.0hPa | 2.7V | 00:00:00 | 00:00:00 | 00:00:00 | |
| OE3OSB-13 | 2026-08-30 12:39:31 | 49.48565 | 17.68078 | 81° | 29km/h | 31983m | 3.9m/s | -39.6°C | 0.5% | -1.0hPa | 2.7V | 00:00:00 | 00:00:00 | 00:00:00 | |
| DB0UT-7 | 2026-08-30 12:39:24 | 49.48538 | 17.68034 | 19° | 18km/h | 31953m | 7.5m/s | 0°C | 0% | 0hPa | 2.7V | 00:00:00 | 02:00:20 | 00:00:00 | |
| OE5MMP-10 | 2026-08-30 12:39:23 | 49.48534 | 17.68031 | 22° | 24km/h | 31946m | 4.9m/s | -39.6°C | 2.2% | 0hPa | 2.7V | 00:00:00 | 02:00:19 | 00:00:00 | |
| OE5DXL-15 | 2026-08-30 12:39:18 | 49.48504 | 17.68019 | 11° | 20km/h | 31919m | 4.4m/s | -39.9°C | 2.3% | 0hPa | 2.7V | 00:00:00 | 00:00:00 | 08:30:00 | |
| PG1ADW-2 | 2026-08-30 12:39:17 | 49.48495 | 17.68017 | 4° | 22km/h | 31914m | 6.4m/s | -39.9°C | 2.3% | 0hPa | 2.7V | 00:00:00 | 00:00:00 | 08:30:00 | |
| OE5DRO-10 | 2026-08-30 12:39:15 | 49.48483 | 17.68007 | 73° | 20km/h | 31900m | 8.5m/s | -39.9°C | 2.3% | 0hPa | 2.7V | 00:00:00 | 00:00:00 | 00:00:00 | |
| OE5MMP-10 | 2026-08-30 12:39:13 | 49.48480 | 17.67996 | 15° | 20km/h | 31885m | 8.8m/s | -40.0°C | 2.2% | 0hPa | 2.7V | 00:00:00 | 02:00:09 | 00:00:00 | |
| PETON7-10 | 2026-08-30 12:39:08 | 49.48455 | 17.68001 | 347° | 20km/h | 31858m | 7.0m/s | -40.2°C | 2.3% | 0hPa | 2.7V | 00:00:00 | 00:00:00 | 00:00:00 | |
| OE5MMP-10 | 2026-08-30 12:39:03 | 49.48436 | 17.67978 | 65° | 20km/h | 31818m | 3.6m/s | -40.4°C | 2.3% | 0hPa | 2.7V | 00:00:00 | 01:59:59 | 08:30:00 | |
| SP3WXH-11 | 2026-08-30 12:39:02 | 49.48433 | 17.67964 | 81° | 16km/h | 31808m | 2.4m/s | -40.6°C | 0.5% | -1.0hPa | 2.6V | 00:00:00 | 00:00:00 | 00:00:00 | |
| OE3OSB-13 | 2026-08-30 12:39:00 | 49.48435 | 17.67957 | 137° | 24km/h | 31808m | -4.6m/s | -40.5°C | 0.5% | -1.0hPa | 2.6V | 00:00:00 | 00:00:00 | 00:00:00 | |
| DB0DAN | 2026-08-30 12:38:55 | 49.48408 | 17.67973 | 354° | 16km/h | 31741m | 9.8m/s | -40.6°C | 0.5% | 0hPa | 2.6V | 00:00:00 | 00:00:00 | 00:00:00 | |
| OE5MMP-10 | 2026-08-30 12:38:53 | 49.48393 | 17.67977 | 351° | 20km/h | 31713m | 11.9m/s | -40.7°C | 2.3% | 0hPa | 2.7V | 00:00:00 | 01:59:49 | 00:00:00 | |
| OE5DXL-15 | 2026-08-30 12:38:47 | 49.48346 | 17.67997 | 49° | 22km/h | 31608m | 9.2m/s | -40.8°C | 2.3% | 0hPa | 2.7V | 00:00:00 | 00:00:00 | 00:00:00 | |
| OK1SLM-15 | 2026-08-30 12:38:45 | 49.48341 | 17.67995 | 96° | 15km/h | 31594m | 1.6m/s | 0°C | 0% | 0hPa | 2.7V | 00:00:00 | 00:00:00 | 00:00:00 | |
| OE5MMP-10 | 2026-08-30 12:38:43 | 49.48373 | 17.67974 | 49° | 15km/h | 31626m | 7.0m/s | -41.0°C | 2.4% | 0hPa | 2.7V | 00:00:00 | 01:59:39 | 00:00:00 | |
| OK1SLM-15 | 2026-08-30 12:38:39 | 49.48368 | 17.67973 | 69° | 13km/h | 31584m | 10.8m/s | 0°C | 0% | 0hPa | 2.7V | 00:00:00 | 00:00:00 | 00:00:00 | |
| PETON7-10 | 2026-08-30 12:38:38 | 49.48361 | 17.67971 | 42° | 27km/h | 31555m | 5.3m/s | -41.1°C | 2.4% | 0hPa | 2.7V | 00:00:00 | 00:00:00 | 00:00:00 | |
| OE5DRO-10 | 2026-08-30 12:38:37 | 49.48354 | 17.67972 | 20° | 24km/h | 31542m | 6.7m/s | -41.0°C | 2.4% | 0hPa | 2.7V | 00:00:00 | 00:00:00 | 08:30:00 | |
| OE5MMP-10 | 2026-08-30 12:38:33 | 49.48327 | 17.67979 | 23° | 31km/h | 31495m | 6.3m/s | -41.1°C | 2.3% | 0hPa | 2.6V | 00:00:00 | 01:59:29 | 00:00:00 | |
| NBG1-10 | 2026-08-30 12:38:30 | 49.48301 | 17.67945 | 69° | 24km/h | 31488m | 1.4m/s | -41.1°C | 2.4% | 0hPa | 2.6V | 00:00:00 | 01:59:26 | 00:00:00 | |
| OE3OSB-13 | 2026-08-30 12:38:29 | 49.48297 | 17.67936 | 86° | 16km/h | 31482m | 8.3m/s | -41.2°C | 0.5% | -1.0hPa | 2.7V | 00:00:00 | 00:00:00 | 00:00:00 | |
| OE3JTB-15 | 2026-08-30 12:38:25 | 49.48295 | 17.67889 | 86° | 22km/h | 31444m | -2.1m/s | -41.4°C | 2.5% | 0hPa | 2.7V | 00:00:00 | 00:00:00 | 00:00:00 | |
| OE5MMP-10 | 2026-08-30 12:38:23 | 49.48295 | 17.67889 | 86° | 20km/h | 31444m | -2.1m/s | -41.4°C | 2.5% | 0hPa | 2.7V | 00:00:00 | 01:59:19 | 00:00:00 | |
| OE5DRO-10 | 2026-08-30 12:38:18 | 49.48299 | 17.67865 | 124° | 22km/h | 31431m | -1.8m/s | -41.5°C | 2.4% | 0hPa | 2.7V | 00:00:00 | 00:00:00 | 00:00:00 | |
| PG1ADW-2 | 2026-08-30 12:38:17 | 49.48302 | 17.67858 | 104° | 24km/h | 31430m | 0.4m/s | -41.5°C | 2.4% | 0hPa | 2.7V | 00:00:00 | 00:00:00 | 00:00:00 | |
| SP3BTT-10 | 2026-08-30 12:38:15 | 49.48307 | 17.67841 | 115° | 26km/h | 31430m | -0.5m/s | -41.5°C | 2.4% | 0hPa | 2.7V | 00:00:00 | 00:00:00 | 00:00:00 | |
| OE5MMP-10 | 2026-08-30 12:38:13 | 49.48318 | 17.67826 | 140° | 22km/h | 31423m | 5.2m/s | -41.5°C | 2.4% | 0hPa | 2.6V | 00:00:00 | 01:59:09 | 00:00:00 | |
| PETON7-10 | 2026-08-30 12:38:08 | 49.48345 | 17.67790 | 88° | 24km/h | 31392m | 7.7m/s | -41.5°C | 2.4% | 0hPa | 2.6V | 00:00:00 | 01:59:04 | 00:00:00 | |
| OE5MMP-10 | 2026-08-30 12:38:03 | 49.48350 | 17.67747 | 68° | 26km/h | 31355m | 5.1m/s | -41.9°C | 2.5% | 0hPa | 2.6V | 00:00:00 | 01:58:59 | 00:00:00 | |
| SP3WXH-11 | 2026-08-30 12:37:59 | 49.48369 | 17.67699 | 121° | 35km/h | 31316m | 8.5m/s | -42.1°C | 0.6% | -1.0hPa | 2.6V | 00:00:00 | 00:00:00 | 00:00:00 | |
| OE3OSB-13 | 2026-08-30 12:37:58 | 49.48379 | 17.67685 | 127° | 37km/h | 31303m | 7.9m/s | -42.1°C | 0.6% | -1.0hPa | 2.6V | 00:00:00 | 00:00:00 | 00:00:00 | |
| PG1ADW-2 | 2026-08-30 12:37:57 | 49.48389 | 17.67672 | 128° | 29km/h | 31291m | 7.3m/s | -42.0°C | 2.5% | 0hPa | 2.6V | 00:00:00 | 00:00:00 | 00:00:00 | |
| OE3JTB-15 | 2026-08-30 12:37:55 | 49.48406 | 17.67647 | 101° | 31km/h | 31276m | 4.2m/s | -41.8°C | 2.6% | 0hPa | 2.6V | 00:00:00 | 00:00:00 | 00:00:00 | |
| OE5MMP-10 | 2026-08-30 12:37:53 | 49.48414 | 17.67632 | 74° | 42km/h | 31256m | 11.8m/s | -41.9°C | 2.5% | 0hPa | 2.6V | 00:00:00 | 01:58:49 | 00:00:00 | |
| OE5DXL-15 | 2026-08-30 12:37:47 | 49.48351 | 17.67613 | 52° | 29km/h | 31241m | -1.7m/s | -41.8°C | 2.5% | 0hPa | 2.6V | 00:00:00 | 00:00:00 | 00:00:00 | |
| OK1SLM-15 | 2026-08-30 12:37:43 | 49.48317 | 17.67597 | 81° | 31km/h | 31230m | 3.1m/s | 0°C | 0% | 0hPa | 2.7V | 00:00:00 | 00:00:00 | 00:00:00 | |
| OE5DRO-10 | 2026-08-30 12:37:40 | 49.48303 | 17.67582 | 10° | 29km/h | 31216m | 10.0m/s | -41.5°C | 2.4% | 0hPa | 2.7V | 00:00:00 | 00:00:00 | 00:00:00 | |
| PETON7-10 | 2026-08-30 12:37:38 | 49.48303 | 17.67564 | 77° | 31km/h | 31201m | 6.8m/s | -41.6°C | 2.5% | 0hPa | 2.7V | 00:00:00 | 00:00:00 | 00:00:00 | |
| PG1ADW-2 | 2026-08-30 12:37:37 | 49.48299 | 17.67553 | 64° | 29km/h | 31193m | 8.6m/s | -41.6°C | 2.5% | 0hPa | 2.7V | 00:00:00 | 00:00:00 | 00:00:00 | |
| OK1SLM-15 | 2026-08-30 12:37:36 | 49.48299 | 17.67553 | 64° | 31km/h | 31193m | 8.7m/s | 0°C | 0% | 0hPa | 2.7V | 00:00:00 | 00:00:00 | 00:00:00 | |
| OE5MMP-10 | 2026-08-30 12:37:33 | 49.48298 | 17.67501 | 88° | 31km/h | 31166m | 7.6m/s | -41.7°C | 2.5% | 0hPa | 2.7V | 00:00:00 | 01:58:29 | 08:30:00 | |
| OE3OSB-13 | 2026-08-30 12:37:27 | 49.48314 | 17.67425 | 80° | 38km/h | 31115m | 7.2m/s | -41.8°C | 0.6% | -1.0hPa | 2.6V | 00:00:00 | 00:00:00 | 00:00:00 | |
| OE3JTB-15 | 2026-08-30 12:37:26 | 49.48310 | 17.67401 | 62° | 33km/h | 31103m | 6.1m/s | -41.6°C | 2.5% | 0hPa | 2.6V | 00:00:00 | 01:58:21 | 00:00:00 | |
| PETON7-10 | 2026-08-30 12:37:23 | 49.48305 | 17.67381 | 70° | 31km/h | 31083m | 7.8m/s | -41.5°C | 2.5% | 0hPa | 2.6V | 00:00:00 | 01:58:19 | 00:00:00 | |
| OE5DRO-10 | 2026-08-30 12:37:21 | 49.48301 | 17.67363 | 59° | 29km/h | 31068m | 7.5m/s | -41.6°C | 2.4% | 0hPa | 2.6V | 00:00:00 | 00:00:00 | 00:00:00 | |
| PG1ADW-2 | 2026-08-30 12:37:17 | 49.48292 | 17.67323 | 86° | 29km/h | 31041m | 8.7m/s | -41.7°C | 2.5% | 0hPa | 2.6V | 00:00:00 | 01:58:13 | 00:00:00 | |
| OE5DXL-15 | 2026-08-30 12:37:16 | 49.48293 | 17.67311 | 91° | 31km/h | 31032m | 9.8m/s | -41.6°C | 2.4% | 0hPa | 2.7V | 00:00:00 | 00:00:00 | 00:00:00 | |
| OE5MMP-10 | 2026-08-30 12:37:13 | 49.48291 | 17.67272 | 71° | 31km/h | 31012m | 7.7m/s | -41.7°C | 2.5% | 0hPa | 2.7V | 00:00:00 | 01:58:09 | 00:00:00 | |
| PETON7-10 | 2026-08-30 12:37:08 | 49.48272 | 17.67208 | 65° | 29km/h | 30975m | 6.9m/s | -41.7°C | 2.5% | 0hPa | 2.7V | 00:00:00 | 00:00:00 | 00:00:00 | |
| OE5MMP-10 | 2026-08-30 12:37:03 | 49.48257 | 17.67168 | 52° | 31km/h | 30941m | 5.8m/s | -41.8°C | 2.5% | 0hPa | 2.7V | 00:00:00 | 01:57:59 | 00:00:00 | |
| SP3WXH-11 | 2026-08-30 12:36:57 | 49.48247 | 17.67104 | 56° | 37km/h | 30898m | 9.1m/s | -42.2°C | 0.6% | -1.0hPa | 2.7V | 00:00:00 | 00:00:00 | 00:00:00 | |
| OE3OSB-13 | 2026-08-30 12:36:56 | 49.48242 | 17.67092 | 53° | 38km/h | 30889m | 9.4m/s | -42.1°C | 0.6% | -1.0hPa | 2.7V | 00:00:00 | 00:00:00 | 00:00:00 | |
| DB0DAN | 2026-08-30 12:36:55 | 49.48235 | 17.67081 | 43° | 37km/h | 30880m | 5.7m/s | -42°C | 0.6% | 0hPa | 2.7V | 00:00:00 | 00:00:00 | 00:00:00 | |
| OE5MMP-10 | 2026-08-30 12:36:53 | 49.48221 | 17.67064 | 45° | 27km/h | 30866m | 6.6m/s | -41.8°C | 2.5% | 0hPa | 2.6V | 00:00:00 | 01:57:49 | 00:00:00 | |
| OE3JTB-15 | 2026-08-30 12:36:51 | 49.48201 | 17.67048 | 38° | 27km/h | 30844m | 7.0m/s | -41.8°C | 2.4% | 0hPa | 2.6V | 00:00:00 | 00:00:00 | 00:00:00 | |
| OE5DXL-15 | 2026-08-30 12:36:46 | 49.48190 | 17.67019 | 69° | 24km/h | 30827m | 8.2m/s | -41.7°C | 2.4% | 0hPa | 2.7V | 00:00:00 | 00:00:00 | 00:00:00 | |
| OE5MMP-10 | 2026-08-30 12:36:43 | 49.48185 | 17.66990 | 57° | 22km/h | 30806m | 4.8m/s | -41.7°C | 2.4% | 0hPa | 2.7V | 00:00:00 | 01:57:39 | 00:00:00 | |
| DB0DAN | 2026-08-30 12:36:40 | 49.48172 | 17.66964 | 49° | 33km/h | 30783m | 5.8m/s | -41.7°C | 0.6% | 0hPa | 2.7V | 00:00:00 | 00:00:00 | 00:00:00 | |
| PETON7-10 | 2026-08-30 12:36:38 | 49.48162 | 17.66945 | 55° | 22km/h | 30774m | 5.3m/s | -41.8°C | 2.4% | 0hPa | 2.6V | 00:00:00 | 01:57:34 | 00:00:00 | |
| PG1ADW-2 | 2026-08-30 12:36:37 | 49.48159 | 17.66938 | 55° | 20km/h | 30767m | 8.6m/s | -41.8°C | 2.4% | 0hPa | 2.6V | 00:00:00 | 00:00:00 | 00:00:00 | |
| OE5MMP-10 | 2026-08-30 12:36:33 | 49.48162 | 17.66919 | 107° | 26km/h | 30744m | 8.3m/s | -42.0°C | 2.4% | 0hPa | 2.6V | 00:00:00 | 01:57:29 | 00:00:00 | |
| DB0DAN | 2026-08-30 12:36:25 | 49.48149 | 17.66844 | 59° | 27km/h | 30683m | 10.5m/s | -42.7°C | 0.6% | 0hPa | 2.7V | 00:00:00 | 00:00:00 | 00:00:00 | |
| OE5DRO-10 | 2026-08-30 12:36:24 | 49.48146 | 17.66834 | 61° | 31km/h | 30674m | 8.8m/s | -42.6°C | 2.6% | 0hPa | 2.6V | 00:00:00 | 00:00:00 | 00:00:00 | |
| PETON7-10 | 2026-08-30 12:36:23 | 49.48144 | 17.66825 | 57° | 27km/h | 30666m | 5.1m/s | -42.7°C | 2.6% | 0hPa | 2.6V | 00:00:00 | 00:00:00 | 00:00:00 | |
| OK1SLM-15 | 2026-08-30 12:36:18 | 49.48141 | 17.66803 | 47° | 13km/h | 30631m | 5.2m/s | 0°C | 0% | 0hPa | 2.6V | 00:00:00 | 00:00:00 | 00:00:00 | |
| PG1ADW-2 | 2026-08-30 12:36:17 | 49.48138 | 17.66792 | 40° | 42km/h | 30618m | 10.5m/s | -42.9°C | 2.6% | 0hPa | 2.6V | 00:00:00 | 00:00:00 | 08:30:00 | |
| OE5DXL-15 | 2026-08-30 12:36:16 | 49.48138 | 17.66782 | 50° | 37km/h | 30610m | 7.8m/s | -43.0°C | 2.6% | 0hPa | 2.6V | 00:00:00 | 00:00:00 | 00:00:00 | |
| OE5MMP-10 | 2026-08-30 12:36:13 | 49.48122 | 17.66747 | 46° | 35km/h | 30587m | 7.9m/s | -43.0°C | 2.6% | 0hPa | 2.7V | 00:00:00 | 01:57:09 | 00:00:00 | |
| PETON7-10 | 2026-08-30 12:36:08 | 49.48105 | 17.66696 | 42° | 44km/h | 30554m | 4.7m/s | -42.9°C | 2.7% | 0hPa | 2.7V | 00:00:00 | 00:00:00 | 00:00:00 | |
| OE5MMP-10 | 2026-08-30 12:36:03 | 49.48060 | 17.66685 | 359° | 47km/h | 30526m | 5.0m/s | -43.0°C | 2.6% | 0hPa | 2.7V | 00:00:00 | 01:56:59 | 08:30:00 | |
| SP3WXH-11 | 2026-08-30 12:35:55 | 49.47999 | 17.66621 | 47° | 22km/h | 30484m | 6.2m/s | -42.9°C | 0.6% | -1.0hPa | 2.7V | 00:00:00 | 00:00:00 | 00:00:00 | |
| OE3OSB-13 | 2026-08-30 12:35:54 | 49.47994 | 17.66614 | 35° | 26km/h | 30477m | 9.5m/s | -43.0°C | 0.6% | -1.0hPa | 2.7V | 00:00:00 | 00:00:00 | 00:00:00 | |
| OE5MMP-10 | 2026-08-30 12:35:53 | 49.47988 | 17.66606 | 38° | 24km/h | 30470m | 7.0m/s | -43.0°C | 2.5% | 0hPa | 2.7V | 00:00:00 | 01:56:49 | 00:00:00 | |
| DO3MHA-11 | 2026-08-30 12:35:48 | 49.47965 | 17.66579 | 21° | 26km/h | 30441m | 6.6m/s | -43.3°C | 2.6% | 0hPa | 2.7V | 00:00:00 | 01:56:44 | 00:00:00 | |
| OE5MMP-10 | 2026-08-30 12:35:43 | 49.47934 | 17.66547 | 27° | 27km/h | 30409m | 6.9m/s | -43.5°C | 2.6% | 0hPa | 2.7V | 00:00:00 | 01:56:39 | 00:00:00 | |
| OE3JTB-15 | 2026-08-30 12:35:39 | 49.47900 | 17.66514 | 5° | 27km/h | 30396m | 11.2m/s | -43.7°C | 2.6% | 0hPa | 2.7V | 00:00:00 | 00:00:00 | 00:00:00 | |
| DO3MHA-11 | 2026-08-30 12:35:38 | 49.47900 | 17.66514 | 5° | 29km/h | 30396m | 11.2m/s | -43.7°C | 2.6% | 0hPa | 2.7V | 00:00:00 | 01:56:34 | 00:00:00 | |
| PG1ADW-2 | 2026-08-30 12:35:37 | 49.47896 | 17.66514 | 323° | 26km/h | 30391m | 11.4m/s | -43.8°C | 2.7% | 0hPa | 2.7V | 00:00:00 | 00:00:00 | 00:00:00 | |
| OE5MMP-10 | 2026-08-30 12:35:33 | 49.47875 | 17.66558 | 16° | 29km/h | 30284m | 5.2m/s | -43.9°C | 2.8% | 0hPa | 2.7V | 00:00:00 | 01:56:29 | 00:00:00 | |
| SP3BTT-10 | 2026-08-30 12:35:32 | 49.47869 | 17.66556 | 23° | 26km/h | 30274m | 7.5m/s | 0°C | 0% | 0hPa | 2.7V | 00:00:00 | 00:00:00 | 00:00:00 | |
| OE5DRO-10 | 2026-08-30 12:35:27 | 49.47821 | 17.66532 | 16° | 26km/h | 30222m | 7.6m/s | -44.3°C | 2.7% | 0hPa | 2.7V | 00:00:00 | 00:00:00 | 00:00:00 | |
| DO3MHA-11 | 2026-08-30 12:35:24 | 49.47789 | 17.66538 | 339° | 22km/h | 30189m | 8.6m/s | -44.4°C | 2.7% | 0hPa | 2.7V | 00:00:00 | 01:56:20 | 00:00:00 | |
| OE5MMP-10 | 2026-08-30 12:35:23 | 49.47782 | 17.66542 | 338° | 22km/h | 30177m | 7.4m/s | -44.4°C | 2.8% | 0hPa | 2.7V | 00:00:00 | 01:56:19 | 00:00:00 | |
| PG1ADW-2 | 2026-08-30 12:35:17 | 49.47740 | 17.66570 | 26° | 24km/h | 30096m | 6.4m/s | -44.5°C | 2.9% | 0hPa | 2.7V | 00:00:00 | 00:00:00 | 00:00:00 | |
| OE5DXL-15 | 2026-08-30 12:35:16 | 49.47737 | 17.66568 | 121° | 24km/h | 30081m | 2.1m/s | -44.6°C | 2.9% | 0hPa | 2.6V | 00:00:00 | 00:00:00 | 00:00:00 | |
| DO3MHA-11 | 2026-08-30 12:35:14 | 49.47730 | 17.66558 | 32° | 26km/h | 30075m | -5.6m/s | -44.6°C | 2.8% | 0hPa | 2.6V | 00:00:00 | 01:56:10 | 08:30:00 | |
| OE5MMP-10 | 2026-08-30 12:35:13 | 49.47725 | 17.66553 | 6° | 27km/h | 30084m | 2.0m/s | -44.6°C | 2.8% | 0hPa | 2.7V | 00:00:00 | 01:56:09 | 00:00:00 | |
| OK1SLM-15 | 2026-08-30 12:35:09 | 49.47693 | 17.66572 | 327° | 40km/h | 30056m | 3.6m/s | 0°C | 0% | 0hPa | 2.7V | 00:00:00 | 00:00:00 | 00:00:00 | |
| PETON7-10 | 2026-08-30 12:35:08 | 49.47674 | 17.66592 | 351° | 20km/h | 30032m | -3.9m/s | -44.6°C | 2.8% | 0hPa | 2.7V | 00:00:00 | 01:56:04 | 00:00:00 | |
| DO3MHA-11 | 2026-08-30 12:35:04 | 49.47676 | 17.66598 | 322° | 26km/h | 30109m | 8.5m/s | -44.4°C | 2.9% | 0hPa | 2.7V | 00:00:00 | 01:56:00 | 00:00:00 | |
| OE5MMP-10 | 2026-08-30 12:35:03 | 49.47672 | 17.66601 | 332° | 20km/h | 30101m | 4.3m/s | -44.5°C | 2.9% | 0hPa | 2.7V | 00:00:00 | 01:55:59 | 00:00:00 | |
| SP3WXH-11 | 2026-08-30 12:34:53 | 49.47622 | 17.66636 | 341° | 35km/h | 30034m | 8.5m/s | -44.5°C | 0.7% | -1.0hPa | 2.7V | 00:00:00 | 00:00:00 | 00:00:00 | |
| OE3OSB-13 | 2026-08-30 12:34:52 | 49.47613 | 17.66642 | 327° | 33km/h | 30026m | 4.8m/s | -44.4°C | 0.7% | -1.0hPa | 2.7V | 00:00:00 | 00:00:00 | 00:00:00 | |
| DO3MHA-11 | 2026-08-30 12:34:50 | 49.47601 | 17.66654 | 339° | 18km/h | 30020m | 8.9m/s | -44.3°C | 2.8% | 0hPa | 2.7V | 00:00:00 | 01:55:46 | 00:00:00 | |
| OE5DRO-10 | 2026-08-30 12:34:49 | 49.47595 | 17.66660 | 322° | 18km/h | 30012m | 9.5m/s | -44.3°C | 2.8% | 0hPa | 2.7V | 00:00:00 | 00:00:00 | 00:00:00 | |
| OE5DXL-15 | 2026-08-30 12:34:46 | 49.47582 | 17.66670 | 343° | 16km/h | 29991m | 8.5m/s | -44.5°C | 2.8% | 0hPa | 2.6V | 00:00:00 | 00:00:00 | 08:30:00 | |
| OE5MMP-10 | 2026-08-30 12:34:43 | 49.47567 | 17.66679 | 329° | 20km/h | 29969m | 3.2m/s | -44.5°C | 2.8% | 0hPa | 2.7V | 00:00:00 | 01:55:39 | 00:00:00 | |
| PETON7-10 | 2026-08-30 12:34:38 | 49.47547 | 17.66693 | 334° | 16km/h | 29931m | 7.8m/s | -44.3°C | 2.8% | 0hPa | 2.7V | 00:00:00 | 00:00:00 | 00:00:00 | |
| PG1ADW-2 | 2026-08-30 12:34:36 | 49.47538 | 17.66706 | 319° | 15km/h | 29914m | 8.3m/s | -44.4°C | 2.8% | 0hPa | 2.7V | 00:00:00 | 01:55:32 | 00:00:00 | |
| OE5MMP-10 | 2026-08-30 12:34:33 | 49.47523 | 17.66728 | 300° | 11km/h | 29882m | 10.0m/s | -44.3°C | 2.8% | 0hPa | 2.7V | 00:00:00 | 01:55:29 | 08:30:00 | |
| DO3MHA-11 | 2026-08-30 12:34:30 | 49.47512 | 17.66737 | 348° | 16km/h | 29853m | 9.4m/s | -44.4°C | 2.8% | 0hPa | 2.6V | 00:00:00 | 01:55:26 | 00:00:00 | |
| DB0DAN | 2026-08-30 12:34:25 | 49.47496 | 17.66745 | 274° | 7km/h | 29805m | 5.3m/s | -44.5°C | 0.6% | 0hPa | 2.6V | 00:00:00 | 00:00:00 | 00:00:00 | |
| OE5MMP-10 | 2026-08-30 12:34:23 | 49.47491 | 17.66752 | 296° | 11km/h | 29788m | 5.6m/s | -44.6°C | 2.8% | 0hPa | 2.6V | 00:00:00 | 01:55:19 | 00:00:00 | |
| SP3WXH-11 | 2026-08-30 12:34:22 | 49.47489 | 17.66758 | 271° | 13km/h | 29777m | 5.4m/s | -44.6°C | 0.6% | -1.0hPa | 2.6V | 00:00:00 | 00:00:00 | 00:00:00 | |
| OE3OSB-13 | 2026-08-30 12:34:21 | 49.47496 | 17.66769 | 288° | 15km/h | 29785m | 1.1m/s | -44.6°C | 0.7% | -1.0hPa | 2.6V | 00:00:00 | 00:00:00 | 00:00:00 | |
| PG1ADW-2 | 2026-08-30 12:34:16 | 49.47501 | 17.66776 | 11° | 9km/h | 29778m | 4.2m/s | -44.7°C | 2.9% | 0hPa | 2.6V | 00:00:00 | 00:00:00 | 00:00:00 | |
| OE5MMP-10 | 2026-08-30 12:34:13 | 49.47497 | 17.66777 | 18° | 15km/h | 29751m | 4.5m/s | -44.6°C | 2.9% | 0hPa | 2.6V | 00:00:00 | 01:55:09 | 00:00:00 | |
| DB0DAN | 2026-08-30 12:34:10 | 49.47491 | 17.66765 | 82° | 16km/h | 29728m | 7.8m/s | -44.8°C | 0.7% | 0hPa | 2.6V | 00:00:00 | 00:00:00 | 00:00:00 | |
| PETON7-10 | 2026-08-30 12:34:08 | 49.47488 | 17.66756 | 15° | 11km/h | 29719m | 5.4m/s | -44.8°C | 2.8% | 0hPa | 2.7V | 00:00:00 | 00:00:00 | 00:00:00 | |
| DO3MHA-11 | 2026-08-30 12:34:03 | 49.47473 | 17.66749 | 6° | 11km/h | 29686m | 6.8m/s | -44.7°C | 2.8% | 0hPa | 2.6V | 00:00:00 | 01:54:59 | 00:00:00 | |
| SP3WXH-11 | 2026-08-30 12:33:51 | 49.47457 | 17.66739 | 334° | 13km/h | 29597m | 7.5m/s | -44.9°C | 0.6% | -1.0hPa | 2.6V | 00:00:00 | 00:00:00 | 00:00:00 | |
| OE3OSB-13 | 2026-08-30 12:33:50 | 49.47448 | 17.66751 | 315° | 24km/h | 29574m | 8.1m/s | -44.9°C | 0.6% | -1.0hPa | 2.6V | 00:00:00 | 00:00:00 | 00:00:00 | |
| OE5DXL-15 | 2026-08-30 12:33:46 | 49.47436 | 17.66762 | 12° | 16km/h | 29542m | 9.5m/s | -44.9°C | 2.9% | 0hPa | 2.6V | 00:00:00 | 00:00:00 | 00:00:00 | |
| OE5MMP-10 | 2026-08-30 12:33:43 | 49.47431 | 17.66762 | 49° | 15km/h | 29509m | 6.2m/s | -44.9°C | 2.9% | 0hPa | 2.6V | 00:00:00 | 01:54:39 | 00:00:00 | |
| SP3BTT-10 | 2026-08-30 12:33:42 | 49.47430 | 17.66761 | 45° | 18km/h | 29499m | 5.8m/s | 0°C | 0% | 0hPa | 2.6V | 00:00:00 | 00:00:00 | 00:00:00 | |
| DO3MHA-11 | 2026-08-30 12:33:40 | 49.47430 | 17.66759 | 79° | 18km/h | 29481m | 5.3m/s | -44.9°C | 2.9% | 0hPa | 2.6V | 00:00:00 | 01:54:36 | 00:00:00 | |
| PETON7-10 | 2026-08-30 12:33:38 | 49.47430 | 17.66760 | 349° | 18km/h | 29463m | 7.2m/s | -45.0°C | 2.9% | 0hPa | 2.6V | 00:00:00 | 01:54:34 | 00:00:00 | |
| PG1ADW-2 | 2026-08-30 12:33:36 | 49.47424 | 17.66772 | 332° | 20km/h | 29438m | 6.1m/s | -45.0°C | 2.9% | 0hPa | 2.6V | 00:00:00 | 00:00:00 | 00:00:00 | |
| OE5MMP-10 | 2026-08-30 12:33:33 | 49.47410 | 17.66779 | 347° | 18km/h | 29410m | 8.1m/s | -45.1°C | 2.9% | 0hPa | 2.6V | 00:00:00 | 01:54:29 | 00:00:00 | |
| DO3MHA-11 | 2026-08-30 12:33:30 | 49.47398 | 17.66777 | 15° | 18km/h | 29369m | 9.0m/s | -45.2°C | 2.9% | 0hPa | 2.7V | 00:00:00 | 01:54:26 | 00:00:00 | |
| PETON7-10 | 2026-08-30 12:33:23 | 49.47375 | 17.66795 | 326° | 24km/h | 29214m | 9.9m/s | -45.0°C | 2.9% | 0hPa | 2.7V | 00:00:00 | 00:00:00 | 08:30:00 | |
| DO3MHA-11 | 2026-08-30 12:33:20 | 49.47376 | 17.66833 | 307° | 24km/h | 29145m | 10.8m/s | -45.3°C | 2.9% | 0hPa | 2.6V | 00:00:00 | 01:54:16 | 08:30:00 | |
| OE3OSB-13 | 2026-08-30 12:33:19 | 49.47374 | 17.66848 | 353° | 20km/h | 29112m | 12.1m/s | -45.5°C | 0.7% | -1.0hPa | 2.7V | 00:00:00 | 00:00:00 | 00:00:00 | |
| PG1ADW-2 | 2026-08-30 12:33:16 | 49.47374 | 17.66862 | 4° | 20km/h | 29069m | 10.2m/s | -45.5°C | 2.9% | 0hPa | 2.7V | 00:00:00 | 01:54:12 | 08:30:00 | |
| OE5DRO-10 | 2026-08-30 12:33:14 | 49.47380 | 17.66861 | 118° | 22km/h | 29031m | -5.0m/s | -45.4°C | 2.9% | 0hPa | 2.6V | 00:00:00 | 00:00:00 | 00:00:00 | |
| OE5MMP-10 | 2026-08-30 12:33:13 | 49.47384 | 17.66853 | 99° | 24km/h | 29018m | -19.8m/s | -45.5°C | 2.9% | 0hPa | 2.6V | 00:00:00 | 01:54:09 | 00:00:00 | |
| SP3BTT-10 | 2026-08-30 12:33:12 | 49.47380 | 17.66831 | 72° | 18km/h | 29050m | -16.2m/s | 0°C | 0% | 0hPa | 2.6V | 00:00:00 | 00:00:00 | 00:00:00 | |
| DO3MHA-11 | 2026-08-30 12:33:10 | 49.47366 | 17.66804 | 90° | 18km/h | 29100m | -14.9m/s | -45.6°C | 3.0% | 0hPa | 2.6V | 00:00:00 | 01:54:06 | 00:00:00 | |
| PETON7-10 | 2026-08-30 12:33:08 | 49.47360 | 17.66780 | 57° | 16km/h | 29154m | -14.0m/s | -45.6°C | 3.0% | 0hPa | 2.6V | 00:00:00 | 00:00:00 | 00:00:00 | |
| SP3WXH-11 | 2026-08-30 12:32:49 | 49.47347 | 17.66684 | 123° | 11km/h | 29182m | 6.4m/s | -46.0°C | 0.7% | -1.0hPa | 2.6V | 00:00:00 | 00:00:00 | 00:00:00 | |
| OE3OSB-13 | 2026-08-30 12:32:47 | 49.47345 | 17.66674 | 53° | 13km/h | 29167m | 5.8m/s | -46.1°C | 0.7% | -1.0hPa | 2.6V | 00:00:00 | 00:00:00 | 00:00:00 | |
| OE5DXL-15 | 2026-08-30 12:32:46 | 49.47343 | 17.66669 | 63° | 16km/h | 29161m | 6.1m/s | -46.0°C | 2.9% | 0hPa | 2.6V | 00:00:00 | 00:00:00 | 00:00:00 | |
| OE5MMP-10 | 2026-08-30 12:32:43 | 49.47340 | 17.66652 | 97° | 13km/h | 29139m | 5.9m/s | -45.9°C | 2.9% | 0hPa | 2.6V | 00:00:00 | 01:53:39 | 00:00:00 | |
| DO3MHA-11 | 2026-08-30 12:32:40 | 49.47341 | 17.66632 | 26° | 13km/h | 29120m | 5.3m/s | -45.9°C | 2.9% | 0hPa | 2.6V | 00:00:00 | 01:53:36 | 00:00:00 | |
| PETON7-10 | 2026-08-30 12:32:38 | 49.47339 | 17.66630 | 78° | 16km/h | 29107m | 7.8m/s | -46.0°C | 3.0% | 0hPa | 2.6V | 00:00:00 | 00:00:00 | 00:00:00 | |
| HA6NAB-11 | 2026-08-30 12:32:37 | 49.47340 | 17.66629 | 92° | 7km/h | 29100m | 8.3m/s | -46.0°C | 0% | 0hPa | 2.6V | 00:00:00 | 00:00:00 | 00:00:00 | |
| PG1ADW-2 | 2026-08-30 12:32:36 | 49.47338 | 17.66627 | 28° | 16km/h | 29092m | 6.3m/s | -46.0°C | 3.1% | 0hPa | 2.6V | 00:00:00 | 00:00:00 | 00:00:00 | |
| OE5MMP-10 | 2026-08-30 12:32:33 | 49.47328 | 17.66616 | 32° | 20km/h | 29068m | 5.5m/s | -46.2°C | 3.0% | 0hPa | 2.6V | 00:00:00 | 01:53:29 | 00:00:00 | |
| DO3MHA-11 | 2026-08-30 12:32:30 | 49.47316 | 17.66601 | 61° | 16km/h | 29044m | 9.6m/s | -46.3°C | 3.0% | 0hPa | 2.7V | 00:00:00 | 01:53:26 | 00:00:00 | |
| PETON7-10 | 2026-08-30 12:32:23 | 49.47297 | 17.66562 | 150° | 18km/h | 28998m | 5.3m/s | -46.4°C | 3.1% | 0hPa | 2.7V | 00:00:00 | 00:00:00 | 00:00:00 | |
| DO3MHA-11 | 2026-08-30 12:32:20 | 49.47298 | 17.66552 | 54° | 20km/h | 28981m | 5.0m/s | -46.7°C | 3.1% | 0hPa | 2.7V | 00:00:00 | 01:53:16 | 00:00:00 | |
| SP3WXH-11 | 2026-08-30 12:32:18 | 49.47291 | 17.66542 | 38° | 18km/h | 28968m | 8.3m/s | -46.9°C | 0.8% | -1.0hPa | 2.6V | 00:00:00 | 00:00:00 | 00:00:00 | |
| OE5DRO-10 | 2026-08-30 12:32:17 | 49.47287 | 17.66537 | 44° | 22km/h | 28960m | 5.1m/s | -46.9°C | 3.2% | 0hPa | 2.6V | 00:00:00 | 00:00:00 | 00:00:00 | |
| PG1ADW-2 | 2026-08-30 12:32:16 | 49.47283 | 17.66531 | 52° | 22km/h | 28955m | 5.5m/s | -47.0°C | 3.2% | 0hPa | 2.6V | 00:00:00 | 00:00:00 | 00:00:00 | |
| OE5DXL-15 | 2026-08-30 12:32:15 | 49.47280 | 17.66524 | 67° | 22km/h | 28948m | 9.2m/s | -47.0°C | 3.2% | 0hPa | 2.7V | 00:00:00 | 00:00:00 | 00:00:00 | |
| OE5MMP-10 | 2026-08-30 12:32:13 | 49.47278 | 17.66508 | 119° | 22km/h | 28934m | 4.0m/s | -46.8°C | 3.2% | 0hPa | 2.7V | 00:00:00 | 01:53:09 | 00:00:00 | |
| DO3MHA-11 | 2026-08-30 12:32:10 | 49.47274 | 17.66488 | 53° | 24km/h | 28911m | 6.2m/s | -46.8°C | 3.1% | 0hPa | 2.7V | 00:00:00 | 01:53:06 | 00:00:00 | |
| PETON7-10 | 2026-08-30 12:32:08 | 49.47268 | 17.66476 | 50° | 22km/h | 28898m | 7.5m/s | -46.7°C | 3.1% | 0hPa | 2.7V | 00:00:00 | 01:53:04 | 00:00:00 | |
| OE5MMP-10 | 2026-08-30 12:32:03 | 49.47243 | 17.66445 | 21° | 22km/h | 28860m | 8.9m/s | -46.5°C | 3.1% | 0hPa | 2.7V | 00:00:00 | 01:52:59 | 00:00:00 | |
| SP3WXH-11 | 2026-08-30 12:31:47 | 49.47164 | 17.66386 | 351° | 29km/h | 28757m | 4.1m/s | -46.8°C | 0.7% | -1.0hPa | 2.6V | 00:00:00 | 00:00:00 | 00:00:00 | |
| OE5DXL-15 | 2026-08-30 12:31:45 | 49.47151 | 17.66388 | 359° | 29km/h | 28744m | 8.5m/s | -46.8°C | 3.1% | 0hPa | 2.6V | 00:00:00 | 00:00:00 | 00:00:00 | |
| OE5MMP-10 | 2026-08-30 12:31:43 | 49.47140 | 17.66384 | 10° | 33km/h | 28734m | 4.3m/s | -46.8°C | 3.1% | 0hPa | 2.6V | 00:00:00 | 01:52:39 | 00:00:00 | |
| SP3BTT-10 | 2026-08-30 12:31:42 | 49.47133 | 17.66382 | 6° | 18km/h | 28729m | 8.8m/s | 0°C | 0% | 0hPa | 2.6V | 00:00:00 | 00:00:00 | 00:00:00 | |
| DO3MHA-11 | 2026-08-30 12:31:40 | 49.47114 | 17.66380 | 347° | 33km/h | 28710m | 2.5m/s | -46.7°C | 3.1% | 0hPa | 2.6V | 00:00:00 | 01:52:36 | 00:00:00 | |
| OE5DRO-10 | 2026-08-30 12:31:39 | 49.47106 | 17.66382 | 359° | 29km/h | 28706m | 4.0m/s | -46.8°C | 3.1% | 0hPa | 2.6V | 00:00:00 | 00:00:00 | 00:00:00 | |
| PETON7-10 | 2026-08-30 12:31:38 | 49.47098 | 17.66383 | 356° | 29km/h | 28699m | 7.4m/s | -46.9°C | 3.2% | 0hPa | 2.6V | 00:00:00 | 00:00:00 | 00:00:00 | |
| PG1ADW-2 | 2026-08-30 12:31:36 | 49.47082 | 17.66383 | 1° | 29km/h | 28683m | 3.4m/s | -46.9°C | 3.1% | 0hPa | 2.6V | 00:00:00 | 00:00:00 | 00:00:00 | |
| OE5MMP-10 | 2026-08-30 12:31:33 | 49.47056 | 17.66387 | 346° | 27km/h | 28660m | 3.8m/s | -47.1°C | 3.1% | 0hPa | 2.6V | 00:00:00 | 01:52:29 | 08:30:00 | |
| DO3MHA-11 | 2026-08-30 12:31:30 | 49.47030 | 17.66397 | 352° | 26km/h | 28640m | 8.2m/s | -47.3°C | 3.2% | 0hPa | 2.7V | 00:00:00 | 01:52:26 | 00:00:00 | |
| PETON7-10 | 2026-08-30 12:31:23 | 49.46995 | 17.66420 | 329° | 24km/h | 28602m | 6.9m/s | -47.4°C | 3.3% | 0hPa | 2.7V | 00:00:00 | 01:52:19 | 00:00:00 | |
| DO3MHA-11 | 2026-08-30 12:31:20 | 49.46976 | 17.66431 | 344° | 24km/h | 28584m | 7.7m/s | -47.5°C | 3.4% | 0hPa | 2.7V | 00:00:00 | 01:52:16 | 00:00:00 | |
| PG1ADW-2 | 2026-08-30 12:31:16 | 49.46951 | 17.66450 | 328° | 18km/h | 28557m | 8.6m/s | -47.6°C | 3.3% | 0hPa | 2.6V | 00:00:00 | 00:00:00 | 00:00:00 | |
| OE5DXL-15 | 2026-08-30 12:31:14 | 49.46946 | 17.66458 | 283° | 16km/h | 28542m | 4.3m/s | -47.4°C | 3.3% | 0hPa | 2.7V | 00:00:00 | 00:00:00 | 00:00:00 | |
| OE5MMP-10 | 2026-08-30 12:31:13 | 49.46944 | 17.66463 | 312° | 22km/h | 28536m | 9.0m/s | -47.5°C | 3.3% | 0hPa | 2.7V | 00:00:00 | 01:52:09 | 00:00:00 | |
| DB0DAN | 2026-08-30 12:31:10 | 49.46941 | 17.66489 | 284° | 22km/h | 28514m | 4.7m/s | -47.3°C | 0.8% | 0hPa | 2.7V | 00:00:00 | 00:00:00 | 00:00:00 | |
| DO3MHA-11 | 2026-08-30 12:31:10 | 49.46941 | 17.66489 | 284° | 20km/h | 28514m | 4.7m/s | -47.3°C | 3.3% | 0hPa | 2.7V | 00:00:00 | 01:52:06 | 00:00:00 | |
| PETON7-10 | 2026-08-30 12:31:08 | 49.46938 | 17.66506 | 292° | 16km/h | 28498m | 9.9m/s | -47.2°C | 3.3% | 0hPa | 2.7V | 00:00:00 | 00:00:00 | 08:30:00 | |
| OE5MMP-10 | 2026-08-30 12:31:03 | 49.46923 | 17.66536 | 333° | 15km/h | 28460m | 5.8m/s | -46.9°C | 3.3% | 0hPa | 2.7V | 00:00:00 | 01:51:59 | 00:00:00 | |
| DB0DAN | 2026-08-30 12:30:55 | 49.46901 | 17.66553 | 274° | 15km/h | 28404m | 6.7m/s | -46.7°C | 0.7% | 0hPa | 2.6V | 00:00:00 | 00:00:00 | 00:00:00 | |
| OE5MMP-10 | 2026-08-30 12:30:53 | 49.46902 | 17.66564 | 248° | 11km/h | 28389m | 6.9m/s | -46.5°C | 3.1% | 0hPa | 2.6V | 00:00:00 | 01:51:49 | 00:00:00 | |
| DO3MHA-11 | 2026-08-30 12:30:50 | 49.46903 | 17.66577 | 283° | 9km/h | 28370m | 8.0m/s | -46.4°C | 3.2% | 0hPa | 2.6V | 00:00:00 | 01:51:46 | 00:00:00 | |
| SP3WXH-11 | 2026-08-30 12:30:45 | 49.46899 | 17.66598 | 344° | 2km/h | 28330m | 6.3m/s | -46.4°C | 0.7% | -1.0hPa | 2.6V | 00:00:00 | 00:00:00 | 00:00:00 | |
| OE5DXL-15 | 2026-08-30 12:30:44 | 49.46899 | 17.66598 | 345° | 11km/h | 28330m | 6.3m/s | -46.3°C | 3.1% | 0hPa | 2.6V | 00:00:00 | 00:00:00 | 00:00:00 | |
| OE5MMP-10 | 2026-08-30 12:30:43 | 49.46899 | 17.66599 | 297° | 11km/h | 28323m | 8.1m/s | -46.3°C | 3.0% | 0hPa | 2.6V | 00:00:00 | 01:51:39 | 00:00:00 | |
| DB0DAN | 2026-08-30 12:30:40 | 49.46904 | 17.66605 | 197° | 13km/h | 28302m | 7m/s | -46.3°C | 0.7% | 0hPa | 2.6V | 00:00:00 | 00:00:00 | 00:00:00 | |
| DO3MHA-11 | 2026-08-30 12:30:40 | 49.46903 | 17.66605 | 198° | 9km/h | 28303m | 6.9m/s | -46.2°C | 3.0% | 0hPa | 2.6V | 00:00:00 | 01:51:36 | 00:00:00 | |
| OE5DRO-10 | 2026-08-30 12:30:38 | 49.46909 | 17.66608 | 216° | 11km/h | 28288m | 4.6m/s | -46.1°C | 3.0% | 0hPa | 2.6V | 00:00:00 | 00:00:00 | 00:00:00 | |
| PG1ADW-2 | 2026-08-30 12:30:36 | 49.46909 | 17.66613 | 289° | 11km/h | 28277m | 7.1m/s | -46.1°C | 3.0% | 0hPa | 2.6V | 00:00:00 | 01:51:32 | 00:00:00 | |
| OE5MMP-10 | 2026-08-30 12:30:33 | 49.46907 | 17.66628 | 271° | 11km/h | 28256m | 4.8m/s | -46.0°C | 3.0% | 0hPa | 2.6V | 00:00:00 | 01:51:29 | 00:00:00 | |
| DO3MHA-11 | 2026-08-30 12:30:30 | 49.46907 | 17.66630 | 91° | 13km/h | 28234m | 6.5m/s | -46.2°C | 3.0% | 0hPa | 2.6V | 00:00:00 | 01:51:26 | 00:00:00 | |
| SP3BTT-10 | 2026-08-30 12:30:26 | 49.46915 | 17.66608 | 156° | 15km/h | 28205m | 6.0m/s | 0°C | 0% | 0hPa | 2.6V | 00:00:00 | 00:00:00 | 00:00:00 | |
| PETON7-10 | 2026-08-30 12:30:24 | 49.46922 | 17.66608 | 249° | 11km/h | 28185m | 9.6m/s | -46.4°C | 3.1% | 0hPa | 2.6V | 00:00:00 | 00:00:00 | 00:00:00 | |
| OE5MMP-10 | 2026-08-30 12:30:23 | 49.46922 | 17.66608 | 249° | 11km/h | 28185m | 9.6m/s | -46.4°C | 3.1% | 0hPa | 2.7V | 00:00:00 | 01:51:19 | 00:00:00 | |
| DO3MHA-11 | 2026-08-30 12:30:20 | 49.46919 | 17.66618 | 293° | 11km/h | 28164m | 8.5m/s | -46.7°C | 3.2% | 0hPa | 2.7V | 00:00:00 | 01:51:16 | 08:30:00 | |
| PG1ADW-2 | 2026-08-30 12:30:16 | 49.46917 | 17.66615 | 71° | 16km/h | 28135m | 8.6m/s | -46.8°C | 3.2% | 0hPa | 2.6V | 00:00:00 | 00:00:00 | 08:30:00 | |
| OE5DXL-15 | 2026-08-30 12:30:14 | 49.46914 | 17.66602 | 68° | 16km/h | 28123m | 5.0m/s | -46.8°C | 3.1% | 0hPa | 2.7V | 00:00:00 | 00:00:00 | 08:30:00 | |
| OE5MMP-10 | 2026-08-30 12:30:13 | 49.46912 | 17.66596 | 74° | 11km/h | 28117m | 8.0m/s | -46.8°C | 3.1% | 0hPa | 2.6V | 00:00:00 | 01:51:09 | 00:00:00 | |
| OE3OSB-13 | 2026-08-30 12:30:12 | 49.46912 | 17.66591 | 82° | 9km/h | 28109m | 7.4m/s | -46.9°C | 0.7% | -1.0hPa | 2.6V | 00:00:00 | 00:00:00 | 00:00:00 | |
| DO3MHA-11 | 2026-08-30 12:30:10 | 49.46910 | 17.66588 | 3° | 16km/h | 28096m | 6.6m/s | -46.8°C | 3.1% | 0hPa | 2.6V | 00:00:00 | 01:51:06 | 00:00:00 | |
| PETON7-10 | 2026-08-30 12:30:08 | 49.46906 | 17.66587 | 9° | 16km/h | 28082m | 6.6m/s | -46.8°C | 3.1% | 0hPa | 2.6V | 00:00:00 | 00:00:00 | 00:00:00 | |
| DO3MHA-11 | 2026-08-30 12:30:00 | 49.46873 | 17.66560 | 26° | 15km/h | 28027m | 6.7m/s | -46.8°C | 3.1% | 0hPa | 2.6V | 00:00:00 | 01:50:56 | 00:00:00 | |
| PG1ADW-2 | 2026-08-30 12:29:56 | 49.46857 | 17.66551 | 42° | 18km/h | 28000m | 5.8m/s | -46.8°C | 3.0% | 0hPa | 2.6V | 00:00:00 | 00:00:00 | 00:00:00 | |
| PETON7-10 | 2026-08-30 12:29:53 | 49.46850 | 17.66546 | 347° | 20km/h | 27978m | 6.0m/s | -46.8°C | 3.1% | 0hPa | 2.6V | 00:00:00 | 01:50:49 | 00:00:00 | |
| DO3MHA-11 | 2026-08-30 12:29:50 | 49.46843 | 17.66551 | 343° | 22km/h | 27956m | 7.2m/s | -46.8°C | 3.2% | 0hPa | 2.6V | 00:00:00 | 01:50:46 | 00:00:00 | |
| OE5DXL-15 | 2026-08-30 12:29:44 | 49.46808 | 17.66564 | 346° | 20km/h | 27913m | 8.7m/s | -47.1°C | 3.2% | 0hPa | 2.6V | 00:00:00 | 00:00:00 | 00:00:00 | |
| SP3WXH-11 | 2026-08-30 12:29:43 | 49.46796 | 17.66567 | 344° | 18km/h | 27897m | 5.2m/s | -47.2°C | 0.8% | -1.0hPa | 2.6V | 00:00:00 | 00:00:00 | 00:00:00 | |
| OE5MMP-10 | 2026-08-30 12:29:41 | 49.46792 | 17.66570 | 333° | 22km/h | 27891m | 7.0m/s | -47.0°C | 3.2% | 0hPa | 2.6V | 00:00:00 | 01:50:37 | 00:00:00 | |
| DO3MHA-11 | 2026-08-30 12:29:40 | 49.46788 | 17.66574 | 315° | 24km/h | 27883m | 9.3m/s | -47.0°C | 3.2% | 0hPa | 2.6V | 00:00:00 | 01:50:36 | 00:00:00 | |
| PETON7-10 | 2026-08-30 12:29:38 | 49.46786 | 17.66586 | 276° | 22km/h | 27869m | 6.6m/s | -46.9°C | 3.2% | 0hPa | 2.6V | 00:00:00 | 00:00:00 | 00:00:00 | |
| PG1ADW-2 | 2026-08-30 12:29:36 | 49.46784 | 17.66598 | 295° | 20km/h | 27854m | 6.1m/s | -46.9°C | 3.2% | 0hPa | 2.6V | 00:00:00 | 00:00:00 | 00:00:00 | |
| OE5MMP-10 | 2026-08-30 12:29:31 | 49.46759 | 17.66640 | 319° | 20km/h | 27821m | 6.0m/s | -46.8°C | 3.2% | 0hPa | 2.6V | 00:00:00 | 01:50:27 | 00:00:00 | |
| DO3MHA-11 | 2026-08-30 12:29:30 | 49.46752 | 17.66648 | 324° | 16km/h | 27815m | 7.5m/s | -46.7°C | 3.1% | 0hPa | 2.6V | 00:00:00 | 01:50:26 | 00:00:00 | |
| PETON7-10 | 2026-08-30 12:29:23 | 49.46725 | 17.66669 | 322° | 16km/h | 27766m | 6.3m/s | -46.7°C | 3.0% | 0hPa | 2.6V | 00:00:00 | 00:00:00 | 00:00:00 | |
| OE5DRO-10 | 2026-08-30 12:29:22 | 49.46722 | 17.66672 | 325° | 16km/h | 27758m | 9.0m/s | -46.7°C | 3.1% | 0hPa | 2.6V | 00:00:00 | 00:00:00 | 00:00:00 | |
| OE5MMP-10 | 2026-08-30 12:29:21 | 49.46720 | 17.66674 | 327° | 20km/h | 27751m | 6.6m/s | -46.6°C | 3.1% | 0hPa | 2.6V | 00:00:00 | 01:50:17 | 00:00:00 | |
| DO3MHA-11 | 2026-08-30 12:29:20 | 49.46718 | 17.66677 | 317° | 20km/h | 27744m | 5.2m/s | -46.7°C | 3.1% | 0hPa | 2.6V | 00:00:00 | 01:50:16 | 00:00:00 | |
| PG1ADW-2 | 2026-08-30 12:29:16 | 49.46702 | 17.66695 | 339° | 15km/h | 27717m | 7.3m/s | -47.0°C | 3.1% | 0hPa | 2.6V | 00:00:00 | 01:50:12 | 00:00:00 | |
| OE5DXL-15 | 2026-08-30 12:29:14 | 49.46688 | 17.66701 | 345° | 11km/h | 27704m | 6.1m/s | -47.2°C | 3.0% | 0hPa | 2.6V | 00:00:00 | 00:00:00 | 00:00:00 | |
| SP3WXH-11 | 2026-08-30 12:29:12 | 49.46675 | 17.66711 | 315° | 13km/h | 27682m | 6.7m/s | -47.6°C | 0.8% | -1.0hPa | 2.6V | 00:00:00 | 00:00:00 | 00:00:00 | |
| OE5MMP-10 | 2026-08-30 12:29:11 | 49.46675 | 17.66711 | 316° | 11km/h | 27682m | 6.7m/s | -47.6°C | 3.2% | 0hPa | 2.6V | 00:00:00 | 01:50:07 | 00:00:00 | |
| DO3MHA-11 | 2026-08-30 12:29:10 | 49.46673 | 17.66714 | 305° | 11km/h | 27675m | 7.7m/s | -47.5°C | 3.2% | 0hPa | 2.6V | 00:00:00 | 01:50:06 | 00:00:00 | |
| PETON7-10 | 2026-08-30 12:29:08 | 49.46673 | 17.66718 | 203° | 11km/h | 27662m | 5.1m/s | -47.6°C | 3.3% | 0hPa | 2.6V | 00:00:00 | 01:50:04 | 00:00:00 | |
| OE5DRO-10 | 2026-08-30 12:29:03 | 49.46680 | 17.66736 | 296° | 9km/h | 27625m | 7.5m/s | -48.0°C | 3.4% | 0hPa | 2.6V | 00:00:00 | 00:00:00 | 00:00:00 | |
| OE5MMP-10 | 2026-08-30 12:29:01 | 49.46675 | 17.66743 | 331° | 11km/h | 27611m | 4.4m/s | -48.1°C | 3.4% | 0hPa | 2.6V | 00:00:00 | 01:49:57 | 00:00:00 | |
| DO3MHA-11 | 2026-08-30 12:29:00 | 49.46673 | 17.66745 | 328° | 9km/h | 27605m | 5.8m/s | -48.0°C | 3.4% | 0hPa | 2.7V | 00:00:00 | 01:49:56 | 00:00:00 | |
| PG1ADW-2 | 2026-08-30 12:28:56 | 49.46669 | 17.66758 | 250° | 9km/h | 27576m | 6.2m/s | -47.9°C | 3.4% | 0hPa | 2.7V | 00:00:00 | 00:00:00 | 00:00:00 | |
| PETON7-10 | 2026-08-30 12:28:53 | 49.46675 | 17.66760 | 168° | 9km/h | 27554m | 3.7m/s | -47.8°C | 3.4% | 0hPa | 2.7V | 00:00:00 | 00:00:00 | 08:30:00 | |
| OE5MMP-10 | 2026-08-30 12:28:51 | 49.46679 | 17.66760 | 211° | 9km/h | 27541m | 9.9m/s | -47.7°C | 3.3% | 0hPa | 2.6V | 00:00:00 | 01:49:47 | 00:00:00 | |
| DO3MHA-11 | 2026-08-30 12:28:50 | 49.46679 | 17.66762 | 305° | 9km/h | 27533m | 7.4m/s | -47.6°C | 3.3% | 0hPa | 2.6V | 00:00:00 | 01:49:46 | 08:30:00 | |
| OE5DXL-15 | 2026-08-30 12:28:44 | 49.46670 | 17.66773 | 251° | 11km/h | 27493m | 8.4m/s | -47.5°C | 3.3% | 0hPa | 2.7V | 00:00:00 | 00:00:00 | 00:00:00 | |
| SP3WXH-11 | 2026-08-30 12:28:41 | 49.46676 | 17.66779 | 153° | 11km/h | 27464m | 9.4m/s | -47.5°C | 0.8% | -1.0hPa | 2.7V | 00:00:00 | 00:00:00 | 00:00:00 | |
| DO3MHA-11 | 2026-08-30 12:28:40 | 49.46675 | 17.66779 | 154° | 11km/h | 27465m | 9.3m/s | -47.4°C | 3.2% | 0hPa | 2.7V | 00:00:00 | 01:49:36 | 00:00:00 | |
| OE3OSB-13 | 2026-08-30 12:28:39 | 49.46682 | 17.66772 | 142° | 15km/h | 27451m | 5.3m/s | -47.5°C | 0.8% | -1.0hPa | 2.7V | 00:00:00 | 00:00:00 | 00:00:00 | |
| PETON7-10 | 2026-08-30 12:28:38 | 49.46682 | 17.66772 | 143° | 13km/h | 27451m | 5.3m/s | -47.4°C | 3.2% | 0hPa | 2.7V | 00:00:00 | 00:00:00 | 00:00:00 | |
| PG1ADW-2 | 2026-08-30 12:28:36 | 49.46686 | 17.66768 | 156° | 13km/h | 27436m | 9.7m/s | -47.3°C | 3.3% | 0hPa | 2.7V | 00:00:00 | 00:00:00 | 00:00:00 | |
| OE5MMP-10 | 2026-08-30 12:28:31 | 49.46677 | 17.66775 | 338° | 15km/h | 27401m | 5.3m/s | -47.3°C | 3.2% | 0hPa | 2.7V | 00:00:00 | 01:49:27 | 08:30:00 | |
| DO3MHA-11 | 2026-08-30 12:28:30 | 49.46674 | 17.66777 | 341° | 15km/h | 27395m | 8.0m/s | -47.4°C | 3.2% | 0hPa | 2.7V | 00:00:00 | 01:49:26 | 00:00:00 | |
| OE5DRO-10 | 2026-08-30 12:28:25 | 49.46669 | 17.66763 | 130° | 11km/h | 27360m | 6.1m/s | -47.3°C | 3.1% | 0hPa | 2.7V | 00:00:00 | 00:00:00 | 00:00:00 | |
| PETON7-10 | 2026-08-30 12:28:23 | 49.46676 | 17.66753 | 147° | 11km/h | 27348m | 6.8m/s | -47.5°C | 3.3% | 0hPa | 2.7V | 00:00:00 | 01:49:19 | 00:00:00 | |
| OE5MMP-10 | 2026-08-30 12:28:21 | 49.46680 | 17.66749 | 30° | 11km/h | 27335m | 5.5m/s | -47.4°C | 3.3% | 0hPa | 2.7V | 00:00:00 | 01:49:17 | 00:00:00 | |
| DO3MHA-11 | 2026-08-30 12:28:20 | 49.46678 | 17.66748 | 19° | 11km/h | 27329m | 7.1m/s | -47.4°C | 3.3% | 0hPa | 2.7V | 00:00:00 | 01:49:16 | 00:00:00 | |
| PG1ADW-2 | 2026-08-30 12:28:16 | 49.46666 | 17.66745 | 354° | 11km/h | 27302m | 8.4m/s | -47.4°C | 3.3% | 0hPa | 2.6V | 00:00:00 | 00:00:00 | 00:00:00 | |
| OE5DXL-15 | 2026-08-30 12:28:14 | 49.46661 | 17.66746 | 42° | 9km/h | 27288m | 5.3m/s | -47.4°C | 3.2% | 0hPa | 2.7V | 00:00:00 | 00:00:00 | 00:00:00 | |
| OE5MMP-10 | 2026-08-30 12:28:11 | 49.46659 | 17.66733 | 77° | 11km/h | 27265m | 5.1m/s | -47.4°C | 3.1% | 0hPa | 2.7V | 00:00:00 | 01:49:07 | 00:00:00 | |
| SP3WXH-11 | 2026-08-30 12:28:10 | 49.46658 | 17.66724 | 89° | 7km/h | 27253m | 7.6m/s | -47.4°C | 0.8% | -1.0hPa | 2.7V | 00:00:00 | 00:00:00 | 00:00:00 | |
| OE3OSB-13 | 2026-08-30 12:28:08 | 49.46660 | 17.66721 | 186° | 5km/h | 27239m | 6.0m/s | -47.5°C | 0.8% | -1.0hPa | 2.7V | 00:00:00 | 00:00:00 | 00:00:00 | |
| OE5DRO-10 | 2026-08-30 12:28:06 | 49.46662 | 17.66722 | 218° | 9km/h | 27232m | 7.4m/s | -47.5°C | 3.2% | 0hPa | 2.7V | 00:00:00 | 00:00:00 | 00:00:00 | |
| OE5MMP-10 | 2026-08-30 12:28:01 | 49.46659 | 17.66746 | 288° | 9km/h | 27195m | 5.4m/s | -47.5°C | 3.3% | 0hPa | 2.7V | 00:00:00 | 01:48:57 | 00:00:00 | |
| DO3MHA-11 | 2026-08-30 12:28:00 | 49.46658 | 17.66749 | 303° | 9km/h | 27189m | 6.6m/s | -47.6°C | 3.3% | 0hPa | 2.7V | 00:00:00 | 01:48:56 | 00:00:00 | |
| PG1ADW-2 | 2026-08-30 12:27:56 | 49.46653 | 17.66742 | 86° | 11km/h | 27160m | 8.0m/s | -48.0°C | 3.2% | 0hPa | 2.7V | 00:00:00 | 01:48:52 | 00:00:00 | |
| PETON7-10 | 2026-08-30 12:27:53 | 49.46657 | 17.66734 | 156° | 9km/h | 27140m | 7.4m/s | -47.8°C | 3.3% | 0hPa | 2.7V | 00:00:00 | 00:00:00 | 00:00:00 | |
| OE5MMP-10 | 2026-08-30 12:27:51 | 49.46659 | 17.66733 | 290° | 9km/h | 27124m | 5.2m/s | -47.9°C | 3.3% | 0hPa | 2.7V | 00:00:00 | 01:48:47 | 00:00:00 | |
| DO3MHA-11 | 2026-08-30 12:27:50 | 49.46658 | 17.66736 | 301° | 11km/h | 27119m | 5.7m/s | -48.0°C | 3.3% | 0hPa | 2.7V | 00:00:00 | 01:48:46 | 00:00:00 | |
| OE5DRO-10 | 2026-08-30 12:27:47 | 49.46655 | 17.66747 | 289° | 16km/h | 27097m | 3.9m/s | -48.0°C | 3.3% | 0hPa | 2.7V | 00:00:00 | 00:00:00 | 00:00:00 | |
| OE5DXL-15 | 2026-08-30 12:27:45 | 49.46650 | 17.66756 | 343° | 15km/h | 27077m | 10.8m/s | -48.1°C | 3.3% | 0hPa | 2.7V | 00:00:00 | 00:00:00 | 00:00:00 | |
| OE5MMP-10 | 2026-08-30 12:27:41 | 49.46642 | 17.66755 | 1° | 20km/h | 27057m | 7.9m/s | -48.0°C | 3.2% | 0hPa | 2.7V | 00:00:00 | 01:48:37 | 00:00:00 | |
| DO3MHA-11 | 2026-08-30 12:27:40 | 49.46641 | 17.66756 | 295° | 20km/h | 27049m | 7.5m/s | -47.9°C | 3.1% | 0hPa | 2.7V | 00:00:00 | 01:48:36 | 00:00:00 | |
| SP3WXH-11 | 2026-08-30 12:27:39 | 49.46640 | 17.66767 | 284° | 18km/h | 27037m | 7.2m/s | -48.1°C | 0.7% | -1.0hPa | 2.7V | 00:00:00 | 00:00:00 | 00:00:00 | |
| PETON7-10 | 2026-08-30 12:27:38 | 49.46640 | 17.66767 | 285° | 16km/h | 27037m | 7.2m/s | -48.1°C | 3.1% | 0hPa | 2.7V | 00:00:00 | 01:48:34 | 00:00:00 | |
| OE3OSB-13 | 2026-08-30 12:27:37 | 49.46636 | 17.66784 | 293° | 26km/h | 27021m | 5.8m/s | -48.4°C | 0% | -1.0hPa | 2.7V | 00:00:00 | 00:00:00 | 00:00:00 | |
| PG1ADW-2 | 2026-08-30 12:27:36 | 49.46636 | 17.66784 | 294° | 15km/h | 27021m | 5.7m/s | -48.3°C | 3.1% | 0hPa | 2.7V | 00:00:00 | 00:00:00 | 00:00:00 | |
| OE5MMP-10 | 2026-08-30 12:27:31 | 49.46632 | 17.66829 | 273° | 13km/h | 26989m | 6.1m/s | -48.6°C | 3.3% | 0hPa | 2.7V | 00:00:00 | 01:48:27 | 00:00:00 | |
| DO3MHA-11 | 2026-08-30 12:27:30 | 49.46631 | 17.66834 | 291° | 13km/h | 26982m | 8.1m/s | -48.8°C | 3.3% | 0hPa | 2.6V | 00:00:00 | 01:48:26 | 00:00:00 | |
| OE3JTB-15 | 2026-08-30 12:27:28 | 49.46622 | 17.66848 | 294° | 11km/h | 26948m | 5.4m/s | -49.2°C | 3.4% | 0hPa | 2.6V | 00:00:00 | 00:00:00 | 00:00:00 | |
| PETON7-10 | 2026-08-30 12:27:23 | 49.46619 | 17.66857 | 306° | 11km/h | 26934m | 8.2m/s | -49.2°C | 3.3% | 0hPa | 2.6V | 00:00:00 | 00:00:00 | 00:00:00 | |
| OE5MMP-10 | 2026-08-30 12:27:21 | 49.46614 | 17.66866 | 316° | 9km/h | 26921m | 5.4m/s | -49.4°C | 3.3% | 0hPa | 2.7V | 00:00:00 | 01:48:17 | 00:00:00 | |
| DO3MHA-11 | 2026-08-30 12:27:20 | 49.46612 | 17.66869 | 301° | 9km/h | 26915m | 5.9m/s | -49.5°C | 3.4% | 0hPa | 2.7V | 00:00:00 | 01:48:16 | 08:30:00 | |
| PG1ADW-2 | 2026-08-30 12:27:16 | 49.46614 | 17.66885 | 234° | 5km/h | 26888m | 6.5m/s | -49.8°C | 3.6% | 0hPa | 2.6V | 00:00:00 | 00:00:00 | 08:30:00 | |
| OE5DXL-15 | 2026-08-30 12:27:14 | 49.46613 | 17.66887 | 351° | 5km/h | 26874m | 6.6m/s | -49.8°C | 3.5% | 0hPa | 2.7V | 00:00:00 | 00:00:00 | 00:00:00 | |
| SP3BTT-10 | 2026-08-30 12:27:12 | 49.46608 | 17.66889 | 335° | 7km/h | 26863m | 5.9m/s | 0°C | 0% | 0hPa | 2.6V | 00:00:00 | 00:00:00 | 00:00:00 | |
| OE5MMP-10 | 2026-08-30 12:27:11 | 49.46606 | 17.66891 | 311° | 7km/h | 26856m | 8.0m/s | -50.1°C | 3.5% | 0hPa | 2.6V | 00:00:00 | 01:48:07 | 00:00:00 | |
| DO3MHA-11 | 2026-08-30 12:27:10 | 49.46605 | 17.66894 | 281° | 5km/h | 26849m | 6.1m/s | -50.2°C | 3.5% | 0hPa | 2.6V | 00:00:00 | 01:48:06 | 00:00:00 | |
| OE5DRO-10 | 2026-08-30 12:27:09 | 49.46605 | 17.66898 | 277° | 5km/h | 26843m | 5.6m/s | -50.2°C | 3.5% | 0hPa | 2.6V | 00:00:00 | 00:00:00 | 08:30:00 | |
| PETON7-10 | 2026-08-30 12:27:08 | 49.46605 | 17.66902 | 283° | 5km/h | 26837m | 7.5m/s | -50.2°C | 3.5% | 0hPa | 2.7V | 00:00:00 | 00:00:00 | 00:00:00 | |
| SP3WXH-11 | 2026-08-30 12:27:07 | 49.46604 | 17.66905 | 300° | 4km/h | 26829m | 6.6m/s | -50.3°C | 0.9% | -1.0hPa | 2.7V | 00:00:00 | 00:00:00 | 00:00:00 | |
| OE3OSB-13 | 2026-08-30 12:27:06 | 49.46604 | 17.66904 | 133° | 4km/h | 26817m | 7.6m/s | -50.5°C | 0.9% | -1.0hPa | 2.7V | 00:00:00 | 00:00:00 | 00:00:00 | |
| OE5MMP-10 | 2026-08-30 12:27:01 | 49.46609 | 17.66905 | 251° | 4km/h | 26789m | 8.4m/s | -50.5°C | 3.7% | 0hPa | 2.7V | 00:00:00 | 01:47:57 | 08:30:00 | |
| DO3MHA-11 | 2026-08-30 12:27:00 | 49.46609 | 17.66906 | 334° | 5km/h | 26782m | 5.6m/s | -50.5°C | 3.7% | 0hPa | 2.7V | 00:00:00 | 01:47:56 | 00:00:00 | |
| NBG1-10 | 2026-08-30 12:26:59 | 49.46608 | 17.66906 | 338° | 16km/h | 26776m | 6.0m/s | -50.7°C | 3.7% | 0hPa | 2.7V | 00:00:00 | 01:47:55 | 00:00:00 | |
| PG1ADW-2 | 2026-08-30 12:26:56 | 49.46609 | 17.66911 | 276° | 7km/h | 26755m | 7.4m/s | -50.6°C | 3.7% | 0hPa | 2.7V | 00:00:00 | 00:00:00 | 00:00:00 | |
| PETON7-10 | 2026-08-30 12:26:53 | 49.46607 | 17.66917 | 268° | 7km/h | 26735m | 6.8m/s | -50.8°C | 3.6% | 0hPa | 2.7V | 00:00:00 | 01:47:49 | 00:00:00 | |
| OE5MMP-10 | 2026-08-30 12:26:51 | 49.46609 | 17.66921 | 242° | 7km/h | 26719m | 6.7m/s | -50.8°C | 3.6% | 0hPa | 2.7V | 00:00:00 | 01:47:47 | 00:00:00 | |
| DO3MHA-11 | 2026-08-30 12:26:50 | 49.46610 | 17.66924 | 251° | 7km/h | 26712m | 6.6m/s | -50.9°C | 3.7% | 0hPa | 2.7V | 00:00:00 | 01:47:46 | 00:00:00 | |
| OE5DXL-15 | 2026-08-30 12:26:44 | 49.46610 | 17.66936 | 293° | 16km/h | 26670m | 6.0m/s | -51.0°C | 3.7% | 0hPa | 2.7V | 00:00:00 | 00:00:00 | 00:00:00 | |
| SP3BTT-10 | 2026-08-30 12:26:42 | 49.46607 | 17.66939 | 344° | 16km/h | 26656m | 6.9m/s | 0°C | 0% | 0hPa | 2.7V | 00:00:00 | 00:00:00 | 00:00:00 | |
| OE5MMP-10 | 2026-08-30 12:26:41 | 49.46604 | 17.66940 | 348° | 11km/h | 26650m | 5.6m/s | -51.1°C | 3.7% | 0hPa | 2.7V | 00:00:00 | 01:47:37 | 00:00:00 | |
| DO3MHA-11 | 2026-08-30 12:26:40 | 49.46601 | 17.66942 | 343° | 11km/h | 26643m | 7.3m/s | -51.1°C | 3.7% | 0hPa | 2.7V | 00:00:00 | 01:47:36 | 00:00:00 | |
| PETON7-10 | 2026-08-30 12:26:38 | 49.46595 | 17.66947 | 321° | 16km/h | 26627m | 5.6m/s | -51.3°C | 3.8% | 0hPa | 2.7V | 00:00:00 | 00:00:00 | 08:30:00 | |
| PG1ADW-2 | 2026-08-30 12:26:36 | 49.46590 | 17.66952 | 336° | 18km/h | 26614m | 8.1m/s | -51.5°C | 3.9% | 0hPa | 2.7V | 00:00:00 | 01:47:32 | 00:00:00 | |
| OE3OSB-13 | 2026-08-30 12:26:35 | 49.46586 | 17.66952 | 27° | 7km/h | 26601m | 6.1m/s | -51.6°C | 0.9% | -1.0hPa | 2.7V | 00:00:00 | 00:00:00 | 00:00:00 | |
| OE5DRO-10 | 2026-08-30 12:26:31 | 49.46580 | 17.66949 | 353° | 22km/h | 26582m | 5.3m/s | -51.7°C | 3.9% | 0hPa | 2.7V | 00:00:00 | 00:00:00 | 00:00:00 | |
| DO3MHA-11 | 2026-08-30 12:26:30 | 49.46578 | 17.66950 | 347° | 22km/h | 26576m | 6.9m/s | -51.7°C | 3.8% | 0hPa | 2.7V | 00:00:00 | 01:47:26 | 00:00:00 | |
| PETON7-10 | 2026-08-30 12:26:23 | 49.46536 | 17.66946 | 27° | 24km/h | 26527m | 4.3m/s | -51.7°C | 3.9% | 0hPa | 2.7V | 00:00:00 | 00:00:00 | 00:00:00 | |
| OE5MMP-10 | 2026-08-30 12:26:21 | 49.46527 | 17.66936 | 43° | 24km/h | 26512m | 10.7m/s | -51.9°C | 4.0% | 0hPa | 2.7V | 00:00:00 | 01:47:17 | 00:00:00 | |
| DO3MHA-11 | 2026-08-30 12:26:20 | 49.46523 | 17.66930 | 49° | 24km/h | 26504m | 4.2m/s | -51.9°C | 4.1% | 0hPa | 2.7V | 00:00:00 | 01:47:16 | 00:00:00 | |
| PG1ADW-2 | 2026-08-30 12:26:16 | 49.46508 | 17.66913 | 342° | 22km/h | 26478m | 4.1m/s | -51.7°C | 4.0% | 0hPa | 2.6V | 00:00:00 | 00:00:00 | 00:00:00 | |
| OE5DXL-15 | 2026-08-30 12:26:14 | 49.46496 | 17.66919 | 344° | 22km/h | 26466m | 8.3m/s | -51.7°C | 3.9% | 0hPa | 2.6V | 00:00:00 | 00:00:00 | 00:00:00 | |
| OE5MMP-10 | 2026-08-30 12:26:11 | 49.46475 | 17.66920 | 12° | 22km/h | 26447m | 6.0m/s | -51.4°C | 3.8% | 0hPa | 2.6V | 00:00:00 | 01:47:07 | 00:00:00 | |
| DO3MHA-11 | 2026-08-30 12:26:10 | 49.46468 | 17.66918 | 11° | 20km/h | 26440m | 8.8m/s | -51.4°C | 3.8% | 0hPa | 2.6V | 00:00:00 | 01:47:06 | 00:00:00 | |
| PETON7-10 | 2026-08-30 12:26:08 | 49.46458 | 17.66916 | 1° | 20km/h | 26426m | 5.4m/s | -51.3°C | 3.7% | 0hPa | 2.6V | 00:00:00 | 01:47:04 | 00:00:00 | |
| SP3WXH-11 | 2026-08-30 12:26:05 | 49.46440 | 17.66916 | 357° | 22km/h | 26405m | 3.4m/s | -51.4°C | 1.0% | -1.0hPa | 2.6V | 00:00:00 | 00:00:00 | 00:00:00 | |
| OE3OSB-13 | 2026-08-30 12:26:04 | 49.46430 | 17.66919 | 340° | 16km/h | 26394m | 9.1m/s | -51.6°C | 0.9% | -1.0hPa | 2.6V | 00:00:00 | 00:00:00 | 00:00:00 | |
| OE3JTB-15 | 2026-08-30 12:26:03 | 49.46430 | 17.66919 | 341° | 22km/h | 26394m | 9.0m/s | -51.5°C | 3.9% | 0hPa | 2.6V | 00:00:00 | 00:00:00 | 08:30:00 | |
| OE5MMP-10 | 2026-08-30 12:26:01 | 49.46424 | 17.66925 | 325° | 20km/h | 26378m | 4.6m/s | -51.6°C | 3.9% | 0hPa | 2.7V | 00:00:00 | 01:46:57 | 00:00:00 | |
| DO3MHA-11 | 2026-08-30 12:26:00 | 49.46421 | 17.66927 | 337° | 22km/h | 26373m | 6.7m/s | -51.6°C | 3.9% | 0hPa | 2.7V | 00:00:00 | 01:46:56 | 00:00:00 | |
| DB0DAN | 2026-08-30 12:25:55 | 49.46395 | 17.66930 | 358° | 18km/h | 26337m | 6.9m/s | -51.8°C | 0.9% | 0hPa | 2.7V | 00:00:00 | 00:00:00 | 00:00:00 | |
| PETON7-10 | 2026-08-30 12:25:53 | 49.46385 | 17.66931 | 355° | 24km/h | 26326m | 7.3m/s | -51.8°C | 3.8% | 0hPa | 2.6V | 00:00:00 | 00:00:00 | 00:00:00 | |
| OE5MMP-10 | 2026-08-30 12:25:51 | 49.46372 | 17.66936 | 333° | 24km/h | 26311m | 3.4m/s | -51.7°C | 3.9% | 0hPa | 2.7V | 00:00:00 | 01:46:47 | 00:00:00 | |
| DO3MHA-11 | 2026-08-30 12:25:50 | 49.46366 | 17.66942 | 321° | 24km/h | 26307m | 4.5m/s | -51.6°C | 3.9% | 0hPa | 2.7V | 00:00:00 | 01:46:46 | 08:30:00 | |
| OE5DXL-15 | 2026-08-30 12:25:44 | 49.46351 | 17.66982 | 307° | 18km/h | 26267m | 8.0m/s | -51.7°C | 3.9% | 0hPa | 2.7V | 00:00:00 | 00:00:00 | 08:30:00 | |
| DB0DAN | 2026-08-30 12:25:40 | 49.46335 | 17.67014 | 308° | 20km/h | 26240m | 4.8m/s | -51.9°C | 1% | 0hPa | 2.6V | 00:00:00 | 00:00:00 | 00:00:00 | |
| DO3MHA-11 | 2026-08-30 12:25:40 | 49.46335 | 17.67014 | 308° | 20km/h | 26240m | 4.7m/s | -51.9°C | 3.9% | 0hPa | 2.7V | 00:00:00 | 01:46:36 | 00:00:00 | |
| PETON7-10 | 2026-08-30 12:25:38 | 49.46329 | 17.67027 | 305° | 18km/h | 26227m | 7.7m/s | -51.9°C | 3.8% | 0hPa | 2.7V | 00:00:00 | 00:00:00 | 00:00:00 | |
| PG1ADW-2 | 2026-08-30 12:25:36 | 49.46324 | 17.67042 | 289° | 18km/h | 26214m | 5.3m/s | -51.9°C | 3.8% | 0hPa | 2.7V | 00:00:00 | 00:00:00 | 00:00:00 | |
| SP3WXH-11 | 2026-08-30 12:25:35 | 49.46322 | 17.67058 | 270° | 18km/h | 26200m | 8.6m/s | -51.8°C | -1.0% | -1.0hPa | 2.7V | 00:00:00 | 00:00:00 | 00:00:00 | |
| OE5DRO-10 | 2026-08-30 12:25:34 | 49.46322 | 17.67058 | 271° | 16km/h | 26200m | 8.5m/s | -51.8°C | 3.8% | 0hPa | 2.7V | 00:00:00 | 00:00:00 | 00:00:00 | |
| OE3OSB-13 | 2026-08-30 12:25:33 | 49.46323 | 17.67071 | 258° | 15km/h | 26187m | 6.1m/s | -51.8°C | 1.0% | -1.0hPa | 2.7V | 00:00:00 | 00:00:00 | 00:00:00 | |
| OE3JTB-15 | 2026-08-30 12:25:32 | 49.46323 | 17.67071 | 259° | 15km/h | 26187m | 6.1m/s | -51.7°C | 3.9% | 0hPa | 2.7V | 00:00:00 | 00:00:00 | 00:00:00 | |
| OE5MMP-10 | 2026-08-30 12:25:31 | 49.46324 | 17.67077 | 266° | 18km/h | 26180m | 8.3m/s | -51.8°C | 3.9% | 0hPa | 2.7V | 00:00:00 | 01:46:27 | 08:30:00 | |
| DO3MHA-11 | 2026-08-30 12:25:30 | 49.46324 | 17.67084 | 274° | 13km/h | 26172m | 6.4m/s | -51.8°C | 4.0% | 0hPa | 2.7V | 00:00:00 | 01:46:26 | 00:00:00 | |
| DB0DAN | 2026-08-30 12:25:25 | 49.46320 | 17.67117 | 292° | 15km/h | 26140m | 8m/s | -52°C | 1% | 0hPa | 2.7V | 00:00:00 | 00:00:00 | 00:00:00 | |
| PETON7-10 | 2026-08-30 12:25:23 | 49.46317 | 17.67130 | 289° | 15km/h | 26127m | 5.6m/s | -52.1°C | 3.9% | 0hPa | 2.6V | 00:00:00 | 01:46:19 | 00:00:00 | |
| OE5MMP-10 | 2026-08-30 12:25:21 | 49.46314 | 17.67142 | 300° | 13km/h | 26114m | 4.8m/s | -52.0°C | 3.9% | 0hPa | 2.6V | 00:00:00 | 01:46:17 | 00:00:00 | |
| PG1ADW-2 | 2026-08-30 12:25:16 | 49.46302 | 17.67165 | 304° | 11km/h | 26081m | 6.6m/s | -52.0°C | 3.9% | 0hPa | 2.6V | 00:00:00 | 01:46:12 | 00:00:00 | |
| OE5DRO-10 | 2026-08-30 12:25:15 | 49.46300 | 17.67169 | 303° | 11km/h | 26073m | 9.3m/s | -52.0°C | 3.9% | 0hPa | 2.7V | 00:00:00 | 00:00:00 | 00:00:00 | |
| OE5DXL-15 | 2026-08-30 12:25:14 | 49.46299 | 17.67172 | 307° | 9km/h | 26066m | 4.6m/s | -52.1°C | 3.9% | 0hPa | 2.6V | 00:00:00 | 01:46:10 | 00:00:00 | |
| DB0DAN | 2026-08-30 12:25:10 | 49.46294 | 17.67186 | 286° | 16km/h | 26040m | 4.3m/s | -52.3°C | 1% | 0hPa | 2.6V | 00:00:00 | 00:00:00 | 00:00:00 | |
| PETON7-10 | 2026-08-30 12:25:08 | 49.46292 | 17.67199 | 280° | 9km/h | 26028m | 8.3m/s | -52.3°C | 3.9% | 0hPa | 2.7V | 00:00:00 | 00:00:00 | 00:00:00 | |
| DO3MHA-11 | 2026-08-30 12:25:06 | 49.46291 | 17.67209 | 282° | 9km/h | 26014m | 5.2m/s | -52.3°C | 4.0% | 0hPa | 2.7V | 00:00:00 | 01:46:02 | 00:00:00 | |
| OE3JTB-15 | 2026-08-30 12:25:03 | 49.46288 | 17.67221 | 306° | 11km/h | 25994m | 5.1m/s | -52.4°C | 4.0% | 0hPa | 2.7V | 00:00:00 | 01:45:59 | 00:00:00 | |
| OE5MMP-10 | 2026-08-30 12:25:01 | 49.46284 | 17.67225 | 356° | 7km/h | 25981m | 8.6m/s | -52.6°C | 4.1% | 0hPa | 2.7V | 00:00:00 | 01:45:57 | 00:00:00 | |
| DO3MHA-11 | 2026-08-30 12:24:56 | 49.46279 | 17.67225 | 239° | 7km/h | 25948m | 4.9m/s | -52.6°C | 4.1% | 0hPa | 2.6V | 00:00:00 | 01:45:52 | 00:00:00 | |
| PETON7-10 | 2026-08-30 12:24:53 | 49.46285 | 17.67228 | 174° | 13km/h | 25928m | 5.9m/s | -52.7°C | 4.1% | 0hPa | 2.6V | 00:00:00 | 00:00:00 | 00:00:00 | |
| OE5MMP-10 | 2026-08-30 12:24:51 | 49.46290 | 17.67227 | 179° | 11km/h | 25917m | 6.6m/s | -52.8°C | 4.1% | 0hPa | 2.6V | 00:00:00 | 01:45:47 | 00:00:00 | |
| DO3MHA-11 | 2026-08-30 12:24:46 | 49.46284 | 17.67227 | 39° | 15km/h | 25884m | 6.9m/s | -52.8°C | 4.2% | 0hPa | 2.6V | 00:00:00 | 01:45:42 | 00:00:00 | |
| OE5DXL-15 | 2026-08-30 12:24:44 | 49.46278 | 17.67218 | 48° | 15km/h | 25873m | 3.8m/s | -52.7°C | 4.2% | 0hPa | 2.6V | 00:00:00 | 00:00:00 | 00:00:00 | |
| OE5MMP-10 | 2026-08-30 12:24:41 | 49.46269 | 17.67212 | 346° | 15km/h | 25853m | 5.7m/s | -52.6°C | 4.1% | 0hPa | 2.6V | 00:00:00 | 01:45:37 | 00:00:00 | |
| PETON7-10 | 2026-08-30 12:24:38 | 49.46257 | 17.67219 | 336° | 15km/h | 25833m | 5.4m/s | -52.6°C | 4.2% | 0hPa | 2.6V | 00:00:00 | 01:45:34 | 00:00:00 | |
| DO3MHA-11 | 2026-08-30 12:24:36 | 49.46252 | 17.67224 | 323° | 15km/h | 25822m | 6.5m/s | -52.5°C | 4.1% | 0hPa | 2.6V | 00:00:00 | 01:45:32 | 00:00:00 | |
| GYPAP8-17 | 2026-08-30 12:24:35 | 49.46250 | 17.67226 | 335° | 13km/h | 25816m | 6.3m/s | 0°C | 0% | 0hPa | 2.6V | 00:00:00 | 00:00:00 | 00:00:00 | |
| OE3JTB-15 | 2026-08-30 12:24:34 | 49.46246 | 17.67227 | 353° | 15km/h | 25809m | 6.5m/s | -52.5°C | 4.1% | 0hPa | 2.6V | 00:00:00 | 00:00:00 | 00:00:00 | |
| OE5MMP-10 | 2026-08-30 12:24:31 | 49.46237 | 17.67223 | 29° | 16km/h | 25789m | 6.1m/s | -52.4°C | 4.1% | 0hPa | 2.6V | 00:00:00 | 01:45:27 | 00:00:00 | |
| OE3OSB-13 | 2026-08-30 12:24:30 | 49.46235 | 17.67222 | 14° | 11km/h | 25782m | 7.7m/s | -52.3°C | 1.0% | -1.0hPa | 2.6V | 00:00:00 | 00:00:00 | 00:00:00 | |
| DO3MHA-11 | 2026-08-30 12:24:26 | 49.46218 | 17.67224 | 347° | 16km/h | 25754m | 6.8m/s | -52.2°C | 4.0% | 0hPa | 2.6V | 00:00:00 | 01:45:22 | 00:00:00 | |
| PETON7-10 | 2026-08-30 12:24:23 | 49.46207 | 17.67235 | 321° | 16km/h | 25734m | 8.2m/s | -52.2°C | 4.0% | 0hPa | 2.6V | 00:00:00 | 00:00:00 | 08:30:00 | |
| OE5MMP-10 | 2026-08-30 12:24:21 | 49.46199 | 17.67245 | 316° | 13km/h | 25721m | 6.4m/s | -52.2°C | 4.0% | 0hPa | 2.7V | 00:00:00 | 01:45:17 | 00:00:00 | |
| NBG1-10 | 2026-08-30 12:24:20 | 49.46197 | 17.67250 | 302° | 13km/h | 25715m | 6.0m/s | -52.1°C | 4.0% | 0hPa | 2.7V | 00:00:00 | 01:45:16 | 00:00:00 | |
| OE5DRO-10 | 2026-08-30 12:24:18 | 49.46194 | 17.67260 | 280° | 18km/h | 25703m | 7.5m/s | -52.2°C | 4.1% | 0hPa | 2.6V | 00:00:00 | 00:00:00 | 08:30:00 | |
| PG1ADW-2 | 2026-08-30 12:24:16 | 49.46192 | 17.67269 | 297° | 20km/h | 25687m | 6.1m/s | -52.1°C | 4.0% | 0hPa | 2.6V | 00:00:00 | 00:00:00 | 08:30:00 | |
| DO3MHA-11 | 2026-08-30 12:24:15 | 49.46191 | 17.67273 | 307° | 22km/h | 25680m | 7.0m/s | -52.1°C | 4.0% | 0hPa | 2.7V | 00:00:00 | 01:45:11 | 00:00:00 | |
| OE5DXL-15 | 2026-08-30 12:24:14 | 49.46190 | 17.67276 | 311° | 24km/h | 25673m | 7.9m/s | -52.1°C | 4.0% | 0hPa | 2.7V | 00:00:00 | 00:00:00 | 00:00:00 | |
| OE5MMP-10 | 2026-08-30 12:24:11 | 49.46180 | 17.67283 | 342° | 26km/h | 25654m | 9.0m/s | -52.2°C | 3.9% | 0hPa | 2.6V | 00:00:00 | 01:45:07 | 00:00:00 | |
| PETON7-10 | 2026-08-30 12:24:08 | 49.46161 | 17.67295 | 331° | 24km/h | 25634m | 6.5m/s | -52.2°C | 3.9% | 0hPa | 2.6V | 00:00:00 | 00:00:00 | 00:00:00 | |
| DO3MHA-11 | 2026-08-30 12:24:05 | 49.46147 | 17.67320 | 292° | 20km/h | 25614m | 7.4m/s | -52.2°C | 4.1% | 0hPa | 2.6V | 00:00:00 | 01:45:01 | 08:30:00 | |
| OE5MMP-10 | 2026-08-30 12:24:01 | 49.46143 | 17.67351 | 267° | 24km/h | 25585m | 8.3m/s | -52.2°C | 4.0% | 0hPa | 2.7V | 00:00:00 | 01:44:57 | 08:30:00 | |
| OE5DRO-10 | 2026-08-30 12:23:59 | 49.46143 | 17.67362 | 273° | 26km/h | 25573m | 5.9m/s | -52.2°C | 4.0% | 0hPa | 2.7V | 00:00:00 | 00:00:00 | 00:00:00 | |
| PG1ADW-2 | 2026-08-30 12:23:56 | 49.46137 | 17.67382 | 309° | 27km/h | 25551m | 5.8m/s | -52.2°C | 3.9% | 0hPa | 2.7V | 00:00:00 | 01:44:52 | 00:00:00 | |
| DO3MHA-11 | 2026-08-30 12:23:55 | 49.46132 | 17.67390 | 305° | 27km/h | 25545m | 7.4m/s | -52.2°C | 3.9% | 0hPa | 2.7V | 00:00:00 | 01:44:51 | 00:00:00 | |
| PETON7-10 | 2026-08-30 12:23:53 | 49.46125 | 17.67413 | 292° | 27km/h | 25532m | 5.4m/s | -52.2°C | 3.9% | 0hPa | 2.7V | 00:00:00 | 01:44:49 | 00:00:00 | |
| OE5MMP-10 | 2026-08-30 12:23:51 | 49.46119 | 17.67437 | 288° | 24km/h | 25518m | 8.5m/s | -52.3°C | 3.9% | 0hPa | 2.7V | 00:00:00 | 01:44:47 | 00:00:00 | |
| DO3MHA-11 | 2026-08-30 12:23:45 | 49.46130 | 17.67486 | 236° | 29km/h | 25479m | 7.0m/s | -52.3°C | 4.0% | 0hPa | 2.7V | 00:00:00 | 01:44:41 | 00:00:00 | |
| OE5DXL-15 | 2026-08-30 12:23:44 | 49.46133 | 17.67495 | 248° | 22km/h | 25471m | 9.4m/s | -52.4°C | 4.0% | 0hPa | 2.7V | 00:00:00 | 00:00:00 | 00:00:00 | |
| NBG1-10 | 2026-08-30 12:23:43 | 49.46134 | 17.67503 | 275° | 20km/h | 25464m | 5.0m/s | -52.5°C | 4.0% | 0hPa | 2.7V | 00:00:00 | 01:44:39 | 00:00:00 | |
| OE5MMP-10 | 2026-08-30 12:23:41 | 49.46131 | 17.67523 | 285° | 27km/h | 25450m | 8.9m/s | -52.5°C | 3.9% | 0hPa | 2.7V | 00:00:00 | 01:44:37 | 00:00:00 | |
| OE5DRO-10 | 2026-08-30 12:23:40 | 49.46129 | 17.67535 | 282° | 24km/h | 25443m | 6.3m/s | -52.5°C | 3.9% | 0hPa | 2.7V | 00:00:00 | 00:00:00 | 00:00:00 | |
| PETON7-10 | 2026-08-30 12:23:38 | 49.46125 | 17.67562 | 284° | 24km/h | 25431m | 7.2m/s | -52.5°C | 4.0% | 0hPa | 2.7V | 00:00:00 | 00:00:00 | 00:00:00 | |
| PG1ADW-2 | 2026-08-30 12:23:36 | 49.46122 | 17.67584 | 277° | 20km/h | 25416m | 5.0m/s | -52.5°C | 4.1% | 0hPa | 2.6V | 00:00:00 | 00:00:00 | 00:00:00 | |
| DO3MHA-11 | 2026-08-30 12:23:35 | 49.46122 | 17.67592 | 260° | 22km/h | 25411m | 6.7m/s | -52.6°C | 4.1% | 0hPa | 2.6V | 00:00:00 | 01:44:31 | 00:00:00 | |
| SP3BTT-10 | 2026-08-30 12:23:32 | 49.46132 | 17.67612 | 223° | 22km/h | 25389m | 6.6m/s | 0°C | 0% | 0hPa | 2.6V | 00:00:00 | 00:00:00 | 00:00:00 | |
| OE5MMP-10 | 2026-08-30 12:23:31 | 49.46136 | 17.67618 | 226° | 22km/h | 25382m | 7.6m/s | -52.7°C | 4.2% | 0hPa | 2.6V | 00:00:00 | 01:44:27 | 00:00:00 | |
| DO3MHA-11 | 2026-08-30 12:23:25 | 49.46140 | 17.67665 | 274° | 18km/h | 25344m | 5.0m/s | -52.6°C | 4.1% | 0hPa | 2.7V | 00:00:00 | 01:44:21 | 00:00:00 | |
| PETON7-10 | 2026-08-30 12:23:23 | 49.46139 | 17.67682 | 280° | 18km/h | 25329m | 7.3m/s | -52.6°C | 4.2% | 0hPa | 2.7V | 00:00:00 | 00:00:00 | 00:00:00 | |
| OE5MMP-10 | 2026-08-30 12:23:21 | 49.46137 | 17.67697 | 282° | 18km/h | 25318m | 5.8m/s | -52.5°C | 4.1% | 0hPa | 2.7V | 00:00:00 | 01:44:17 | 00:00:00 | |
| PG1ADW-2 | 2026-08-30 12:23:16 | 49.46142 | 17.67726 | 263° | 13km/h | 25287m | 5.7m/s | -52.5°C | 4.0% | 0hPa | 2.7V | 00:00:00 | 00:00:00 | 00:00:00 | |
| DO3MHA-11 | 2026-08-30 12:23:15 | 49.46142 | 17.67732 | 270° | 16km/h | 25280m | 7.6m/s | -52.5°C | 4.1% | 0hPa | 2.6V | 00:00:00 | 01:44:11 | 00:00:00 | |
| OE5DXL-15 | 2026-08-30 12:23:14 | 49.46142 | 17.67740 | 274° | 13km/h | 25271m | 9.3m/s | -52.5°C | 4.2% | 0hPa | 2.6V | 00:00:00 | 00:00:00 | 00:00:00 | |
| OE5MMP-10 | 2026-08-30 12:23:11 | 49.46139 | 17.67765 | 290° | 13km/h | 25252m | 8.0m/s | -52.4°C | 4.2% | 0hPa | 2.6V | 00:00:00 | 01:44:07 | 00:00:00 | |
| PETON7-10 | 2026-08-30 12:23:08 | 49.46134 | 17.67780 | 293° | 13km/h | 25232m | 7.7m/s | -52.4°C | 4.1% | 0hPa | 2.6V | 00:00:00 | 01:44:04 | 00:00:00 | |
| DO3MHA-11 | 2026-08-30 12:23:05 | 49.46135 | 17.67790 | 245° | 13km/h | 25212m | 7.5m/s | -52.4°C | 4.1% | 0hPa | 2.6V | 00:00:00 | 01:44:01 | 00:00:00 | |
| OE3OSB-13 | 2026-08-30 12:22:57 | 49.46138 | 17.67832 | 268° | 13km/h | 25157m | 5.2m/s | -52.2°C | 1.0% | -1.0hPa | 2.7V | 00:00:00 | 00:00:00 | 00:00:00 | |
| DO3MHA-11 | 2026-08-30 12:22:55 | 49.46139 | 17.67843 | 254° | 11km/h | 25144m | 7.8m/s | -52.1°C | 4.0% | 0hPa | 2.7V | 00:00:00 | 01:43:51 | 00:00:00 | |
| PG1ADW-2 | 2026-08-30 12:22:52 | 49.46143 | 17.67859 | 264° | 9km/h | 25123m | 6.0m/s | -52.0°C | 4.0% | 0hPa | 2.7V | 00:00:00 | 00:00:00 | 00:00:00 | |
| OE5MMP-10 | 2026-08-30 12:22:51 | 49.46143 | 17.67863 | 284° | 11km/h | 25118m | 5.6m/s | -52.1°C | 4.0% | 0hPa | 2.7V | 00:00:00 | 01:43:47 | 00:00:00 | |
| DO3MHA-11 | 2026-08-30 12:22:45 | 49.46136 | 17.67881 | 322° | 11km/h | 25075m | 5.8m/s | -52.1°C | 3.9% | 0hPa | 2.7V | 00:00:00 | 01:43:41 | 00:00:00 | |
| OE5DXL-15 | 2026-08-30 12:22:44 | 49.46134 | 17.67885 | 316° | 11km/h | 25069m | 5.2m/s | -52.1°C | 4.0% | 0hPa | 2.7V | 00:00:00 | 00:00:00 | 00:00:00 | |
| OE5DRO-10 | 2026-08-30 12:22:43 | 49.46131 | 17.67889 | 307° | 11km/h | 25063m | 7.2m/s | -52.1°C | 4.1% | 0hPa | 2.6V | 00:00:00 | 00:00:00 | 00:00:00 | |
| OE5MMP-10 | 2026-08-30 12:22:41 | 49.46129 | 17.67899 | 259° | 7km/h | 25047m | 4.5m/s | -52.0°C | 4.1% | 0hPa | 2.6V | 00:00:00 | 01:43:37 | 00:00:00 | |
| PETON7-10 | 2026-08-30 12:22:38 | 49.46130 | 17.67908 | 309° | 11km/h | 25027m | 7.5m/s | -52.1°C | 4.1% | 0hPa | 2.6V | 00:00:00 | 00:00:00 | 00:00:00 | |
| OK1SLM-15 | 2026-08-30 12:22:37 | 49.46129 | 17.67910 | 340° | 5km/h | 25021m | 4.9m/s | 0°C | 0% | 0hPa | 2.6V | 00:00:00 | 00:00:00 | 00:00:00 | |
| DO3MHA-11 | 2026-08-30 12:22:35 | 49.46126 | 17.67911 | 316° | 13km/h | 25007m | 8.7m/s | -52.3°C | 4.0% | 0hPa | 2.6V | 00:00:00 | 01:43:31 | 08:30:00 | |
| OE5MMP-10 | 2026-08-30 12:22:31 | 49.46121 | 17.67925 | 296° | 13km/h | 24980m | 4.2m/s | -52.1°C | 3.8% | 0hPa | 2.7V | 00:00:00 | 01:43:27 | 08:30:00 | |
| PG1ADW-2 | 2026-08-30 12:22:30 | 49.46120 | 17.67930 | 279° | 13km/h | 24976m | 5.4m/s | -52.0°C | 3.8% | 0hPa | 2.6V | 00:00:00 | 01:43:26 | 00:00:00 | |
| OE3OSB-13 | 2026-08-30 12:22:26 | 49.46125 | 17.67954 | 237° | 11km/h | 24948m | 7.7m/s | -52.0°C | 1.0% | -1.0hPa | 2.6V | 00:00:00 | 00:00:00 | 00:00:00 | |
| DO3MHA-11 | 2026-08-30 12:22:25 | 49.46126 | 17.67958 | 242° | 5km/h | 24941m | 6.7m/s | -51.9°C | 4.0% | 0hPa | 2.6V | 00:00:00 | 01:43:21 | 00:00:00 | |
| OE5DRO-10 | 2026-08-30 12:22:24 | 49.46127 | 17.67960 | 243° | 15km/h | 24934m | 6.6m/s | -52.0°C | 3.9% | 0hPa | 2.6V | 00:00:00 | 00:00:00 | 00:00:00 | |
| PETON7-10 | 2026-08-30 12:22:23 | 49.46127 | 17.67962 | 232° | 15km/h | 24927m | 7.8m/s | -52.0°C | 4.0% | 0hPa | 2.6V | 00:00:00 | 01:43:19 | 00:00:00 | |
| OE5MMP-10 | 2026-08-30 12:22:21 | 49.46130 | 17.67964 | 206° | 15km/h | 24915m | 4.6m/s | -52.1°C | 3.9% | 0hPa | 2.6V | 00:00:00 | 01:43:17 | 00:00:00 | |
| DO3MHA-11 | 2026-08-30 12:22:15 | 49.46133 | 17.67975 | 228° | 22km/h | 24880m | 8.0m/s | -52.4°C | 4.0% | 0hPa | 2.6V | 00:00:00 | 01:43:11 | 00:00:00 | |
| OE5DXL-15 | 2026-08-30 12:22:13 | 49.46143 | 17.67992 | 227° | 16km/h | 24866m | 5.5m/s | -52.4°C | 4.0% | 0hPa | 2.6V | 00:00:00 | 00:00:00 | 00:00:00 | |
| OE5MMP-10 | 2026-08-30 12:22:11 | 49.46154 | 17.68008 | 226° | 15km/h | 24853m | 6.2m/s | -52.4°C | 4.1% | 0hPa | 2.6V | 00:00:00 | 01:43:07 | 00:00:00 | |
| PG1ADW-2 | 2026-08-30 12:22:10 | 49.46158 | 17.68014 | 220° | 15km/h | 24847m | 5.6m/s | -52.4°C | 4.1% | 0hPa | 2.6V | 00:00:00 | 00:00:00 | 00:00:00 | |
| PETON7-10 | 2026-08-30 12:22:08 | 49.46164 | 17.68021 | 209° | 15km/h | 24834m | 6.6m/s | -52.5°C | 4.0% | 0hPa | 2.7V | 00:00:00 | 00:00:00 | 08:30:00 | |
| DO3MHA-11 | 2026-08-30 12:22:05 | 49.46172 | 17.68030 | 238° | 18km/h | 24817m | 6.6m/s | -52.7°C | 4.0% | 0hPa | 2.6V | 00:00:00 | 01:43:01 | 00:00:00 | |
| OE5MMP-10 | 2026-08-30 12:22:01 | 49.46177 | 17.68044 | 214° | 16km/h | 24792m | 5.6m/s | -52.7°C | 4.0% | 0hPa | 2.6V | 00:00:00 | 01:42:57 | 00:00:00 | |
| NBG1-10 | 2026-08-30 12:21:57 | 49.46198 | 17.68055 | 198° | 20km/h | 24764m | 7.6m/s | -52.9°C | 4.1% | 0hPa | 2.6V | 00:00:00 | 01:42:53 | 00:00:00 | |
| DO3MHA-11 | 2026-08-30 12:21:55 | 49.46206 | 17.68061 | 217° | 11km/h | 24752m | 5.6m/s | -52.9°C | 4.1% | 0hPa | 2.6V | 00:00:00 | 01:42:51 | 00:00:00 | |
| PETON7-10 | 2026-08-30 12:21:53 | 49.46211 | 17.68066 | 195° | 16km/h | 24741m | 6.3m/s | -52.8°C | 4.1% | 0hPa | 2.6V | 00:00:00 | 00:00:00 | 00:00:00 | |
| OE5MMP-10 | 2026-08-30 12:21:51 | 49.46216 | 17.68065 | 170° | 15km/h | 24728m | 4.4m/s | -52.8°C | 4.0% | 0hPa | 2.6V | 00:00:00 | 01:42:47 | 00:00:00 | |
| PG1ADW-2 | 2026-08-30 12:21:50 | 49.46219 | 17.68065 | 184° | 16km/h | 24723m | 5.2m/s | -52.9°C | 4.0% | 0hPa | 2.6V | 00:00:00 | 00:00:00 | 00:00:00 | |
| OE5DRO-10 | 2026-08-30 12:21:46 | 49.46229 | 17.68073 | 201° | 16km/h | 24699m | 7.3m/s | -53.1°C | 4.0% | 0hPa | 2.6V | 00:00:00 | 00:00:00 | 00:00:00 | |
| DO3MHA-11 | 2026-08-30 12:21:45 | 49.46232 | 17.68073 | 181° | 22km/h | 24692m | 7.1m/s | -53.0°C | 4.0% | 0hPa | 2.6V | 00:00:00 | 01:42:41 | 00:00:00 | |
| OE5DXL-15 | 2026-08-30 12:21:42 | 49.46248 | 17.68075 | 189° | 18km/h | 24672m | 6.8m/s | -53.1°C | 4.2% | 0hPa | 2.6V | 00:00:00 | 00:00:00 | 00:00:00 | |
| OE5MMP-10 | 2026-08-30 12:21:41 | 49.46254 | 17.68076 | 187° | 16km/h | 24666m | 5.5m/s | -53.1°C | 4.2% | 0hPa | 2.6V | 00:00:00 | 01:42:37 | 00:00:00 | |
| PETON7-10 | 2026-08-30 12:21:38 | 49.46273 | 17.68076 | 175° | 15km/h | 24646m | 5.2m/s | -53.2°C | 4.1% | 0hPa | 2.6V | 00:00:00 | 01:42:34 | 00:00:00 | |
| DO3MHA-11 | 2026-08-30 12:21:35 | 49.46285 | 17.68079 | 216° | 13km/h | 24628m | 6.1m/s | -53.5°C | 4.1% | 0hPa | 2.6V | 00:00:00 | 01:42:31 | 00:00:00 | |
| OE5MMP-10 | 2026-08-30 12:21:31 | 49.46292 | 17.68085 | 165° | 18km/h | 24603m | 4.9m/s | -53.7°C | 4.2% | 0hPa | 2.6V | 00:00:00 | 01:42:27 | 00:00:00 | |
| PG1ADW-2 | 2026-08-30 12:21:30 | 49.46295 | 17.68084 | 171° | 18km/h | 24598m | 6.5m/s | -53.7°C | 4.2% | 0hPa | 2.7V | 00:00:00 | 00:00:00 | 00:00:00 | |
| OE5DRO-10 | 2026-08-30 12:21:27 | 49.46305 | 17.68081 | 154° | 18km/h | 24580m | 5.8m/s | -53.8°C | 4.3% | 0hPa | 2.7V | 00:00:00 | 00:00:00 | 08:30:00 | |
| OE3OSB-13 | 2026-08-30 12:21:24 | 49.46318 | 17.68065 | 138° | 22km/h | 24559m | 4.8m/s | -53.8°C | 1.1% | -1.0hPa | 2.6V | 00:00:00 | 00:00:00 | 00:00:00 | |
| PETON7-10 | 2026-08-30 12:21:23 | 49.46323 | 17.68060 | 145° | 16km/h | 24553m | 7.7m/s | -53.8°C | 4.4% | 0hPa | 2.6V | 00:00:00 | 00:00:00 | 00:00:00 | |
| NBG1-10 | 2026-08-30 12:21:22 | 49.46327 | 17.68056 | 160° | 11km/h | 24546m | 6.1m/s | -53.8°C | 4.4% | 0hPa | 2.6V | 00:00:00 | 01:42:18 | 00:00:00 | |
| OE5MMP-10 | 2026-08-30 12:21:21 | 49.46331 | 17.68054 | 166° | 16km/h | 24541m | 4.4m/s | -53.7°C | 4.4% | 0hPa | 2.6V | 00:00:00 | 01:42:17 | 00:00:00 | |
| DO3MHA-11 | 2026-08-30 12:21:15 | 49.46351 | 17.68033 | 136° | 16km/h | 24501m | 5.2m/s | -53.8°C | 4.2% | 0hPa | 2.6V | 00:00:00 | 01:42:11 | 00:00:00 | |
| OE5DXL-15 | 2026-08-30 12:21:12 | 49.46359 | 17.68014 | 114° | 11km/h | 24481m | 6.5m/s | -53.8°C | 4.3% | 0hPa | 2.6V | 00:00:00 | 00:00:00 | 08:30:00 | |
| OE5MMP-10 | 2026-08-30 12:21:11 | 49.46360 | 17.68008 | 114° | 11km/h | 24474m | 7.4m/s | -53.7°C | 4.3% | 0hPa | 2.7V | 00:00:00 | 01:42:07 | 00:00:00 | |
| PG1ADW-2 | 2026-08-30 12:21:10 | 49.46362 | 17.68003 | 123° | 11km/h | 24467m | 6.6m/s | -53.7°C | 4.4% | 0hPa | 2.7V | 00:00:00 | 01:42:06 | 08:30:00 | |
| PETON7-10 | 2026-08-30 12:21:08 | 49.46366 | 17.67993 | 116° | 11km/h | 24454m | 4.3m/s | -53.6°C | 4.5% | 0hPa | 2.6V | 00:00:00 | 00:00:00 | 00:00:00 | |
| DO3MHA-11 | 2026-08-30 12:21:05 | 49.46369 | 17.67980 | 105° | 9km/h | 24433m | 9.3m/s | -53.6°C | 4.4% | 0hPa | 2.6V | 00:00:00 | 01:42:01 | 08:30:00 | |
| OE5MMP-10 | 2026-08-30 12:20:59 | 49.46370 | 17.67961 | 75° | 13km/h | 24394m | 6.4m/s | -53.6°C | 4.3% | 0hPa | 2.6V | 00:00:00 | 01:41:55 | 08:30:00 | |
| DB0DAN | 2026-08-30 12:20:55 | 49.46373 | 17.67947 | 111° | 13km/h | 24366m | 9m/s | -53.6°C | 1.1% | 0hPa | 2.6V | 00:00:00 | 00:00:00 | 00:00:00 | |
| OE3OSB-13 | 2026-08-30 12:20:54 | 49.46374 | 17.67937 | 106° | 13km/h | 24354m | 5.5m/s | -53.3°C | 1.1% | -1.0hPa | 2.6V | 00:00:00 | 00:00:00 | 00:00:00 | |
| PETON7-10 | 2026-08-30 12:20:53 | 49.46374 | 17.67936 | 107° | 11km/h | 24354m | 5.5m/s | -53.3°C | 4.2% | 0hPa | 2.6V | 00:00:00 | 01:41:49 | 00:00:00 | |
| PG1ADW-2 | 2026-08-30 12:20:50 | 49.46379 | 17.67923 | 108° | 11km/h | 24334m | 3.5m/s | -53.2°C | 4.2% | 0hPa | 2.6V | 00:00:00 | 00:00:00 | 00:00:00 | |
| OE5MMP-10 | 2026-08-30 12:20:49 | 49.46379 | 17.67918 | 92° | 9km/h | 24329m | 7.7m/s | -53.3°C | 4.3% | 0hPa | 2.6V | 00:00:00 | 01:41:45 | 00:00:00 | |
| DO3MHA-11 | 2026-08-30 12:20:45 | 49.46374 | 17.67903 | 74° | 9km/h | 24303m | 8.6m/s | -53.2°C | 4.3% | 0hPa | 2.6V | 00:00:00 | 01:41:41 | 00:00:00 | |
| DB0DAN | 2026-08-30 12:20:40 | 49.46375 | 17.67886 | 112° | 9km/h | 24270m | 6.8m/s | -53.2°C | 1.1% | 0hPa | 2.6V | 00:00:00 | 00:00:00 | 00:00:00 | |
| OE5MMP-10 | 2026-08-30 12:20:39 | 49.46376 | 17.67882 | 129° | 11km/h | 24263m | 8.1m/s | -53.1°C | 4.2% | 0hPa | 2.7V | 00:00:00 | 01:41:35 | 00:00:00 | |
| PETON7-10 | 2026-08-30 12:20:38 | 49.46378 | 17.67879 | 131° | 9km/h | 24257m | 4.0m/s | -53.1°C | 4.2% | 0hPa | 2.7V | 00:00:00 | 00:00:00 | 00:00:00 | |
| DO3MHA-11 | 2026-08-30 12:20:35 | 49.46377 | 17.67871 | 29° | 9km/h | 24239m | 5.3m/s | -53.1°C | 4.2% | 0hPa | 2.6V | 00:00:00 | 01:41:31 | 00:00:00 | |
| OE5DRO-10 | 2026-08-30 12:20:30 | 49.46367 | 17.67859 | 46° | 9km/h | 24209m | 6.3m/s | -53.0°C | 4.0% | 0hPa | 2.6V | 00:00:00 | 00:00:00 | 00:00:00 | |
| OE5MMP-10 | 2026-08-30 12:20:29 | 49.46365 | 17.67856 | 34° | 9km/h | 24202m | 7.6m/s | -53.0°C | 4.1% | 0hPa | 2.6V | 00:00:00 | 01:41:25 | 00:00:00 | |
| DO3MHA-11 | 2026-08-30 12:20:25 | 49.46359 | 17.67852 | 294° | 9km/h | 24177m | 4.2m/s | -52.9°C | 4.2% | 0hPa | 2.7V | 00:00:00 | 01:41:21 | 00:00:00 | |
| PETON7-10 | 2026-08-30 12:20:23 | 49.46357 | 17.67856 | 321° | 11km/h | 24164m | 7.2m/s | -53.0°C | 4.3% | 0hPa | 2.7V | 00:00:00 | 00:00:00 | 00:00:00 | |
| OE3OSB-13 | 2026-08-30 12:20:22 | 49.46354 | 17.67859 | 330° | 11km/h | 24158m | 5.0m/s | -53.0°C | 1.1% | -1.0hPa | 2.7V | 00:00:00 | 00:00:00 | 00:00:00 | |
| NBG1-10 | 2026-08-30 12:20:21 | 49.46352 | 17.67861 | 342° | 15km/h | 24153m | 6.1m/s | -53.1°C | 4.2% | 0hPa | 2.7V | 00:00:00 | 01:41:17 | 08:30:00 | |
| OE5MMP-10 | 2026-08-30 12:20:19 | 49.46348 | 17.67860 | 43° | 11km/h | 24139m | 6.2m/s | -53.1°C | 4.3% | 0hPa | 2.6V | 00:00:00 | 01:41:15 | 00:00:00 | |
| GYPAP8-17 | 2026-08-30 12:20:17 | 49.46347 | 17.67857 | 48° | 11km/h | 24133m | 5.8m/s | 0°C | 0% | 0hPa | 2.6V | 00:00:00 | 00:00:00 | 00:00:00 | |
| DO3MHA-11 | 2026-08-30 12:20:15 | 49.46340 | 17.67853 | 340° | 15km/h | 24114m | 5.3m/s | -53.0°C | 4.1% | 0hPa | 2.6V | 00:00:00 | 01:41:11 | 00:00:00 | |
| DB0DAN | 2026-08-30 12:20:10 | 49.46333 | 17.67870 | 289° | 15km/h | 24082m | 7.5m/s | -53°C | 0% | 0hPa | 2.6V | 00:00:00 | 00:00:00 | 00:00:00 | |
| PG1ADW-2 | 2026-08-30 12:20:10 | 49.46333 | 17.67870 | 289° | 13km/h | 24082m | 7.4m/s | -53.0°C | 4.0% | 0hPa | 2.6V | 00:00:00 | 00:00:00 | 00:00:00 | |
| OE5MMP-10 | 2026-08-30 12:20:09 | 49.46331 | 17.67876 | 302° | 13km/h | 24076m | 6.0m/s | -52.9°C | 4.0% | 0hPa | 2.6V | 00:00:00 | 01:41:05 | 00:00:00 | |
| PETON7-10 | 2026-08-30 12:20:08 | 49.46328 | 17.67883 | 310° | 13km/h | 24070m | 6.0m/s | -53.0°C | 4.0% | 0hPa | 2.6V | 00:00:00 | 01:41:04 | 00:00:00 | |
| DO3MHA-11 | 2026-08-30 12:20:05 | 49.46321 | 17.67897 | 293° | 9km/h | 24051m | 7.9m/s | -53.0°C | 4.1% | 0hPa | 2.6V | 00:00:00 | 01:41:01 | 00:00:00 | |
| OE3OSB-13 | 2026-08-30 12:19:51 | 49.46304 | 17.67957 | 312° | 9km/h | 23951m | 7.9m/s | -53.3°C | 1.1% | -1.0hPa | 2.6V | 00:00:00 | 00:00:00 | 00:00:00 | |
| PG1ADW-2 | 2026-08-30 12:19:50 | 49.46304 | 17.67957 | 313° | 15km/h | 23952m | 7.9m/s | -53.3°C | 4.2% | 0hPa | 2.6V | 00:00:00 | 01:40:46 | 00:00:00 | |
| OE5MMP-10 | 2026-08-30 12:19:49 | 49.46302 | 17.67959 | 339° | 13km/h | 23945m | 5.2m/s | -53.2°C | 4.2% | 0hPa | 2.6V | 00:00:00 | 01:40:45 | 00:00:00 | |
| DO3MHA-11 | 2026-08-30 12:19:45 | 49.46296 | 17.67966 | 305° | 16km/h | 23917m | 6.3m/s | -53.0°C | 4.2% | 0hPa | 2.6V | 00:00:00 | 01:40:41 | 00:00:00 | |
| OE5DXL-15 | 2026-08-30 12:19:41 | 49.46292 | 17.67987 | 283° | 15km/h | 23889m | 9.9m/s | -53.0°C | 4.2% | 0hPa | 2.6V | 00:00:00 | 00:00:00 | 00:00:00 | |
| OE5MMP-10 | 2026-08-30 12:19:39 | 49.46289 | 17.68002 | 290° | 16km/h | 23877m | 5.7m/s | -53.0°C | 4.2% | 0hPa | 2.6V | 00:00:00 | 01:40:35 | 00:00:00 | |
| PETON7-10 | 2026-08-30 12:19:38 | 49.46287 | 17.68009 | 286° | 18km/h | 23870m | 8.3m/s | -53.1°C | 4.2% | 0hPa | 2.6V | 00:00:00 | 00:00:00 | 00:00:00 | |
| DO3MHA-11 | 2026-08-30 12:19:35 | 49.46286 | 17.68030 | 282° | 18km/h | 23850m | 7.6m/s | -52.9°C | 4.1% | 0hPa | 2.6V | 00:00:00 | 01:40:31 | 08:30:00 | |
| OE5DRO-10 | 2026-08-30 12:19:33 | 49.46282 | 17.68041 | 304° | 15km/h | 23838m | 6.1m/s | -52.8°C | 4.1% | 0hPa | 2.7V | 00:00:00 | 00:00:00 | 00:00:00 | |
| PG1ADW-2 | 2026-08-30 12:19:30 | 49.46278 | 17.68057 | 284° | 13km/h | 23816m | 5.3m/s | -52.7°C | 4.1% | 0hPa | 2.6V | 00:00:00 | 00:00:00 | 00:00:00 | |
| OE5MMP-10 | 2026-08-30 12:19:29 | 49.46276 | 17.68065 | 288° | 18km/h | 23810m | 6.8m/s | -52.8°C | 4.1% | 0hPa | 2.6V | 00:00:00 | 01:40:25 | 08:30:00 | |
| DO3MHA-11 | 2026-08-30 12:19:25 | 49.46266 | 17.68096 | 296° | 11km/h | 23783m | 7.5m/s | -53.0°C | 4.1% | 0hPa | 2.6V | 00:00:00 | 01:40:21 | 00:00:00 | |
| PETON7-10 | 2026-08-30 12:19:23 | 49.46261 | 17.68112 | 298° | 9km/h | 23770m | 7.3m/s | -52.9°C | 4.0% | 0hPa | 2.6V | 00:00:00 | 01:40:19 | 00:00:00 | |
| OE3OSB-13 | 2026-08-30 12:19:20 | 49.46255 | 17.68124 | 300° | 5km/h | 23750m | 8.7m/s | -53.0°C | 1.0% | -1.0hPa | 2.6V | 00:00:00 | 00:00:00 | 00:00:00 | |
| OE5MMP-10 | 2026-08-30 12:19:19 | 49.46255 | 17.68126 | 259° | 5km/h | 23743m | 5.6m/s | -52.9°C | 4.1% | 0hPa | 2.6V | 00:00:00 | 01:40:15 | 00:00:00 | |
| DO3MHA-11 | 2026-08-30 12:19:15 | 49.46255 | 17.68131 | 7° | 9km/h | 23717m | 6.0m/s | -53.1°C | 4.2% | 0hPa | 2.6V | 00:00:00 | 01:40:11 | 00:00:00 | |
| OE5DRO-10 | 2026-08-30 12:19:14 | 49.46254 | 17.68131 | 343° | 7km/h | 23710m | 7.6m/s | -53.1°C | 4.1% | 0hPa | 2.6V | 00:00:00 | 00:00:00 | 00:00:00 | |
| DB0DAN | 2026-08-30 12:19:10 | 49.46248 | 17.68139 | 343° | 11km/h | 23683m | 7.3m/s | -53.2°C | 0% | 0hPa | 2.6V | 00:00:00 | 00:00:00 | 00:00:00 | |
| PG1ADW-2 | 2026-08-30 12:19:10 | 49.46247 | 17.68139 | 343° | 9km/h | 23683m | 7.3m/s | -53.2°C | 4.2% | 0hPa | 2.6V | 00:00:00 | 00:00:00 | 00:00:00 | |
| OE5MMP-10 | 2026-08-30 12:19:09 | 49.46245 | 17.68140 | 2° | 5km/h | 23677m | 5.3m/s | -53.2°C | 4.2% | 0hPa | 2.7V | 00:00:00 | 01:40:05 | 00:00:00 | |
| PETON7-10 | 2026-08-30 12:19:08 | 49.46242 | 17.68140 | 6° | 7km/h | 23670m | 7.0m/s | -53.2°C | 4.1% | 0hPa | 2.7V | 00:00:00 | 00:00:00 | 00:00:00 | |
| GYPAP8-17 | 2026-08-30 12:19:07 | 49.46242 | 17.68140 | 7° | 11km/h | 23670m | 7.1m/s | 0°C | 0% | 0hPa | 2.6V | 00:00:00 | 00:00:00 | 00:00:00 | |
| DO3MHA-11 | 2026-08-30 12:19:05 | 49.46235 | 17.68141 | 353° | 5km/h | 23649m | 7.0m/s | -53.2°C | 4.2% | 0hPa | 2.6V | 00:00:00 | 01:40:01 | 00:00:00 | |
| OE5MMP-10 | 2026-08-30 12:18:59 | 49.46231 | 17.68142 | 321° | 13km/h | 23609m | 6.6m/s | -53.4°C | 4.2% | 0hPa | 2.6V | 00:00:00 | 01:39:55 | 00:00:00 | |
| DB0DAN | 2026-08-30 12:18:55 | 49.46225 | 17.68139 | 21° | 9km/h | 23579m | 9.1m/s | -53.6°C | 0% | 0hPa | 2.7V | 00:00:00 | 00:00:00 | 00:00:00 | |
| OE5DRO-10 | 2026-08-30 12:18:55 | 49.46225 | 17.68139 | 22° | 15km/h | 23580m | 9.0m/s | -53.6°C | 4.3% | 0hPa | 2.6V | 00:00:00 | 00:00:00 | 00:00:00 | |
| PETON7-10 | 2026-08-30 12:18:53 | 49.46218 | 17.68134 | 30° | 16km/h | 23568m | 5.7m/s | -53.7°C | 4.3% | 0hPa | 2.6V | 00:00:00 | 00:00:00 | 00:00:00 | |
| PG1ADW-2 | 2026-08-30 12:18:50 | 49.46207 | 17.68118 | 56° | 13km/h | 23547m | 6.0m/s | -53.7°C | 4.3% | 0hPa | 2.6V | 00:00:00 | 00:00:00 | 00:00:00 | |
| OE5MMP-10 | 2026-08-30 12:18:49 | 49.46204 | 17.68111 | 53° | 15km/h | 23540m | 7.0m/s | -53.6°C | 4.3% | 0hPa | 2.6V | 00:00:00 | 01:39:45 | 00:00:00 | |
| DB0DAN | 2026-08-30 12:18:40 | 49.46180 | 17.68080 | 36° | 13km/h | 23480m | 5.2m/s | -53.5°C | 0% | 0hPa | 2.6V | 00:00:00 | 00:00:00 | 00:00:00 | |
| OE5DXL-15 | 2026-08-30 12:18:40 | 49.46180 | 17.68080 | 37° | 13km/h | 23480m | 5.2m/s | -53.5°C | 4.3% | 0hPa | 2.6V | 00:00:00 | 00:00:00 | 00:00:00 | |
| OE5MMP-10 | 2026-08-30 12:18:39 | 49.46177 | 17.68077 | 36° | 9km/h | 23474m | 6.5m/s | -53.5°C | 4.3% | 0hPa | 2.6V | 00:00:00 | 01:39:35 | 00:00:00 | |
| PETON7-10 | 2026-08-30 12:18:38 | 49.46174 | 17.68074 | 25° | 11km/h | 23467m | 8.5m/s | -53.5°C | 4.3% | 0hPa | 2.6V | 00:00:00 | 01:39:34 | 00:00:00 | |
| OE5DRO-10 | 2026-08-30 12:18:36 | 49.46168 | 17.68071 | 19° | 11km/h | 23454m | 6.6m/s | -53.5°C | 4.3% | 0hPa | 2.6V | 00:00:00 | 00:00:00 | 08:30:00 | |
| DO3MHA-11 | 2026-08-30 12:18:35 | 49.46165 | 17.68069 | 28° | 9km/h | 23447m | 7.2m/s | -53.5°C | 4.4% | 0hPa | 2.6V | 00:00:00 | 01:39:31 | 00:00:00 | |
| NBG1-10 | 2026-08-30 12:18:32 | 49.46162 | 17.68069 | 310° | 15km/h | 23426m | 8.7m/s | -53.4°C | 4.4% | 0hPa | 2.7V | 00:00:00 | 01:39:28 | 00:00:00 | |
| PG1ADW-2 | 2026-08-30 12:18:30 | 49.46160 | 17.68073 | 317° | 13km/h | 23413m | 6.9m/s | -53.4°C | 4.3% | 0hPa | 2.6V | 00:00:00 | 01:39:26 | 00:00:00 | |
| OE5MMP-10 | 2026-08-30 12:18:29 | 49.46158 | 17.68075 | 335° | 15km/h | 23405m | 8.7m/s | -53.4°C | 4.3% | 0hPa | 2.6V | 00:00:00 | 01:39:25 | 00:00:00 | |
| DB0DAN | 2026-08-30 12:18:25 | 49.46144 | 17.68077 | 357° | 20km/h | 23378m | 5.4m/s | -53.3°C | 0% | 0hPa | 2.6V | 00:00:00 | 00:00:00 | 00:00:00 | |
| DO3MHA-11 | 2026-08-30 12:18:25 | 49.46144 | 17.68077 | 358° | 15km/h | 23378m | 5.3m/s | -53.3°C | 4.2% | 0hPa | 2.6V | 00:00:00 | 01:39:21 | 00:00:00 | |
| PETON7-10 | 2026-08-30 12:18:23 | 49.46135 | 17.68077 | 354° | 15km/h | 23365m | 5.4m/s | -53.2°C | 4.2% | 0hPa | 2.6V | 00:00:00 | 00:00:00 | 00:00:00 | |
| OE5MMP-10 | 2026-08-30 12:18:19 | 49.46126 | 17.68090 | 286° | 15km/h | 23339m | 6.0m/s | -53.0°C | 4.2% | 0hPa | 2.7V | 00:00:00 | 01:39:15 | 00:00:00 | |
| OE3OSB-13 | 2026-08-30 12:18:18 | 49.46124 | 17.68101 | 281° | 13km/h | 23326m | 4.0m/s | -53.2°C | 1.1% | -1.0hPa | 2.7V | 00:00:00 | 00:00:00 | 00:00:00 | |
| OE5DRO-10 | 2026-08-30 12:18:17 | 49.46124 | 17.68101 | 282° | 18km/h | 23326m | 4.0m/s | -53.1°C | 4.2% | 0hPa | 2.7V | 00:00:00 | 00:00:00 | 00:00:00 | |
| DO3MHA-11 | 2026-08-30 12:18:15 | 49.46122 | 17.68109 | 311° | 18km/h | 23313m | 8.7m/s | -53.2°C | 4.2% | 0hPa | 2.7V | 00:00:00 | 01:39:11 | 00:00:00 | |
| OE5DXL-15 | 2026-08-30 12:18:10 | 49.46108 | 17.68125 | 292° | 15km/h | 23279m | 6.2m/s | -53.5°C | 4.2% | 0hPa | 2.7V | 00:00:00 | 00:00:00 | 00:00:00 | |
| OE5MMP-10 | 2026-08-30 12:18:09 | 49.46107 | 17.68130 | 283° | 22km/h | 23272m | 8.4m/s | -53.5°C | 4.3% | 0hPa | 2.6V | 00:00:00 | 01:39:05 | 00:00:00 | |
| PETON7-10 | 2026-08-30 12:18:08 | 49.46106 | 17.68138 | 275° | 18km/h | 23266m | 4.1m/s | -53.3°C | 4.3% | 0hPa | 2.6V | 00:00:00 | 00:00:00 | 00:00:00 | |
| DO3MHA-11 | 2026-08-30 12:18:05 | 49.46106 | 17.68168 | 264° | 13km/h | 23246m | 5.7m/s | -53.4°C | 4.3% | 0hPa | 2.6V | 00:00:00 | 01:39:01 | 08:30:00 | |
| OE3OSB-13 | 2026-08-30 12:17:47 | 49.46116 | 17.68279 | 269° | 7km/h | 23122m | 5.1m/s | -53.7°C | 1.1% | -1.0hPa | 2.7V | 00:00:00 | 00:00:00 | 00:00:00 | |
| DO3MHA-11 | 2026-08-30 12:17:43 | 49.46115 | 17.68292 | 280° | 5km/h | 23104m | 3.8m/s | -53.7°C | 4.2% | 0hPa | 2.7V | 00:00:00 | 01:38:39 | 00:00:00 | |
| OE5DRO-10 | 2026-08-30 12:17:39 | 49.46117 | 17.68301 | 197° | 7km/h | 23079m | 6.4m/s | -53.8°C | 4.3% | 0hPa | 2.7V | 00:00:00 | 00:00:00 | 00:00:00 | |
| PETON7-10 | 2026-08-30 12:17:38 | 49.46118 | 17.68302 | 223° | 7km/h | 23072m | 8.5m/s | -53.8°C | 4.3% | 0hPa | 2.7V | 00:00:00 | 00:00:00 | 08:30:00 | |
| DO3MHA-11 | 2026-08-30 12:17:33 | 49.46123 | 17.68303 | 183° | 9km/h | 23041m | 5.2m/s | -53.5°C | 4.3% | 0hPa | 2.6V | 00:00:00 | 01:38:29 | 00:00:00 | |
| PG1ADW-2 | 2026-08-30 12:17:30 | 49.46121 | 17.68306 | 351° | 11km/h | 23022m | 4.9m/s | -53.5°C | 4.2% | 0hPa | 2.6V | 00:00:00 | 00:00:00 | 00:00:00 | |
| OE5MMP-10 | 2026-08-30 12:17:29 | 49.46119 | 17.68306 | 7° | 9km/h | 23015m | 8.8m/s | -53.5°C | 4.2% | 0hPa | 2.6V | 00:00:00 | 01:38:25 | 00:00:00 | |
| NBG1-10 | 2026-08-30 12:17:24 | 49.46106 | 17.68302 | 7° | 20km/h | 22985m | 4.7m/s | 0°C | 0% | 0hPa | 2.6V | 00:00:00 | 01:38:20 | 00:00:00 | |
| DO3MHA-11 | 2026-08-30 12:17:23 | 49.46104 | 17.68301 | 24° | 9km/h | 22978m | 8.5m/s | -53.6°C | 4.2% | 0hPa | 2.6V | 00:00:00 | 01:38:19 | 00:00:00 | |
| OE5DRO-10 | 2026-08-30 12:17:20 | 49.46101 | 17.68297 | 23° | 18km/h | 22959m | 7.7m/s | -53.6°C | 4.3% | 0hPa | 2.6V | 00:00:00 | 00:00:00 | 00:00:00 | |
| OE5MMP-10 | 2026-08-30 12:17:19 | 49.46100 | 17.68297 | 353° | 16km/h | 22952m | 6.1m/s | -53.6°C | 4.4% | 0hPa | 2.6V | 00:00:00 | 01:38:15 | 00:00:00 | |
| OE3OSB-13 | 2026-08-30 12:17:15 | 49.46092 | 17.68293 | 23° | 15km/h | 22927m | 4.7m/s | -53.7°C | 1.1% | -1.0hPa | 2.6V | 00:00:00 | 00:00:00 | 00:00:00 | |
| DO3MHA-11 | 2026-08-30 12:17:13 | 49.46082 | 17.68289 | 9° | 22km/h | 22914m | 6.5m/s | -53.7°C | 4.2% | 0hPa | 2.6V | 00:00:00 | 01:38:09 | 00:00:00 | |
| PG1ADW-2 | 2026-08-30 12:17:10 | 49.46064 | 17.68283 | 23° | 29km/h | 22894m | 6.7m/s | -53.9°C | 4.3% | 0hPa | 2.6V | 00:00:00 | 01:38:06 | 00:00:00 | |
| OE5MMP-10 | 2026-08-30 12:17:09 | 49.46060 | 17.68280 | 22° | 26km/h | 22889m | 3.9m/s | -53.8°C | 4.4% | 0hPa | 2.6V | 00:00:00 | 01:38:05 | 00:00:00 | |
| PETON7-10 | 2026-08-30 12:17:08 | 49.46055 | 17.68277 | 13° | 29km/h | 22884m | 6.2m/s | -53.8°C | 4.3% | 0hPa | 2.6V | 00:00:00 | 01:38:04 | 00:00:00 | |
| DO3MHA-11 | 2026-08-30 12:17:03 | 49.46028 | 17.68274 | 19° | 35km/h | 22851m | 6.0m/s | -53.6°C | 4.3% | 0hPa | 2.6V | 00:00:00 | 01:37:59 | 00:00:00 | |
| OE5DRO-10 | 2026-08-30 12:17:01 | 49.46014 | 17.68268 | 14° | 29km/h | 22838m | 7.1m/s | -53.7°C | 4.3% | 0hPa | 2.6V | 00:00:00 | 00:00:00 | 00:00:00 | |
| OE5MMP-10 | 2026-08-30 12:16:59 | 49.45996 | 17.68262 | 9° | 33km/h | 22827m | 4.7m/s | -53.6°C | 4.4% | 0hPa | 2.6V | 00:00:00 | 01:37:55 | 00:00:00 | |
| PETON7-10 | 2026-08-30 12:16:53 | 49.45941 | 17.68251 | 358° | 24km/h | 22790m | 4.4m/s | -53.7°C | 4.4% | 0hPa | 2.6V | 00:00:00 | 00:00:00 | 00:00:00 | |
| NBG1-10 | 2026-08-30 12:16:51 | 49.45926 | 17.68251 | 5° | 18km/h | 22778m | 7.8m/s | 0°C | 0% | 0hPa | 2.6V | 00:00:00 | 01:37:47 | 00:00:00 | |
| PG1ADW-2 | 2026-08-30 12:16:50 | 49.45920 | 17.68249 | 13° | 20km/h | 22771m | 5.9m/s | -53.6°C | 4.4% | 0hPa | 2.6V | 00:00:00 | 00:00:00 | 00:00:00 | |
| OE5MMP-10 | 2026-08-30 12:16:49 | 49.45914 | 17.68247 | 16° | 22km/h | 22765m | 6.3m/s | -53.6°C | 4.3% | 0hPa | 2.6V | 00:00:00 | 01:37:45 | 00:00:00 | |
| GYPAP8-17 | 2026-08-30 12:16:47 | 49.45908 | 17.68245 | 14° | 24km/h | 22758m | 7.9m/s | 0°C | 0% | 0hPa | 2.6V | 00:00:00 | 00:00:00 | 00:00:00 | |
| OE3OSB-13 | 2026-08-30 12:16:44 | 49.45886 | 17.68237 | 14° | 18km/h | 22731m | 6.1m/s | -53.5°C | 1.1% | -1.0hPa | 2.6V | 00:00:00 | 00:00:00 | 00:00:00 | |
| DO3MHA-11 | 2026-08-30 12:16:43 | 49.45881 | 17.68236 | 5° | 18km/h | 22726m | 5.1m/s | -53.4°C | 4.3% | 0hPa | 2.6V | 00:00:00 | 01:37:39 | 00:00:00 | |
| OE5DRO-10 | 2026-08-30 12:16:42 | 49.45876 | 17.68236 | 356° | 18km/h | 22719m | 7.8m/s | -53.4°C | 4.2% | 0hPa | 2.6V | 00:00:00 | 00:00:00 | 00:00:00 | |
| OE5MMP-10 | 2026-08-30 12:16:39 | 49.45861 | 17.68242 | 337° | 16km/h | 22700m | 7.7m/s | -53.4°C | 4.3% | 0hPa | 2.6V | 00:00:00 | 01:37:35 | 00:00:00 | |
| PETON7-10 | 2026-08-30 12:16:38 | 49.45858 | 17.68245 | 335° | 16km/h | 22693m | 6.1m/s | -53.3°C | 4.3% | 0hPa | 2.6V | 00:00:00 | 00:00:00 | 00:00:00 | |
| DO3MHA-11 | 2026-08-30 12:16:33 | 49.45839 | 17.68256 | 360° | 16km/h | 22663m | 8.2m/s | -53.4°C | 4.3% | 0hPa | 2.6V | 00:00:00 | 01:37:29 | 00:00:00 | |
| PG1ADW-2 | 2026-08-30 12:16:30 | 49.45826 | 17.68251 | 14° | 15km/h | 22645m | 6.9m/s | -53.5°C | 4.2% | 0hPa | 2.6V | 00:00:00 | 00:00:00 | 00:00:00 | |
| OE5MMP-10 | 2026-08-30 12:16:29 | 49.45821 | 17.68250 | 7° | 15km/h | 22638m | 5.9m/s | -53.4°C | 4.2% | 0hPa | 2.6V | 00:00:00 | 01:37:25 | 08:30:00 | |
| HA6NAB-11 | 2026-08-30 12:16:25 | 49.45808 | 17.68250 | 352° | 15km/h | 22620m | 6.4m/s | -53.4°C | 0% | 0hPa | 2.6V | 00:00:00 | 00:00:00 | 00:00:00 | |
| PETON7-10 | 2026-08-30 12:16:23 | 49.45799 | 17.68258 | 315° | 13km/h | 22602m | 5.7m/s | -53.3°C | 4.3% | 0hPa | 2.6V | 00:00:00 | 01:37:19 | 00:00:00 | |
| OE5MMP-10 | 2026-08-30 12:16:19 | 49.45791 | 17.68271 | 314° | 15km/h | 22577m | 4.8m/s | -53.4°C | 4.3% | 0hPa | 2.6V | 00:00:00 | 01:37:15 | 00:00:00 | |
| NBG1-10 | 2026-08-30 12:16:18 | 49.45790 | 17.68273 | 315° | 13km/h | 22572m | 6.7m/s | 0°C | 0% | 0hPa | 2.6V | 00:00:00 | 01:37:14 | 00:00:00 | |
| DO3MHA-11 | 2026-08-30 12:16:13 | 49.45776 | 17.68287 | 339° | 16km/h | 22539m | 6.1m/s | -53.7°C | 4.2% | 0hPa | 2.6V | 00:00:00 | 01:37:09 | 00:00:00 | |
| DB0DAN | 2026-08-30 12:16:10 | 49.45764 | 17.68297 | 316° | 16km/h | 22520m | 4.2m/s | -53.6°C | 0% | 0hPa | 2.6V | 00:00:00 | 00:00:00 | 00:00:00 | |
| PG1ADW-2 | 2026-08-30 12:16:10 | 49.45764 | 17.68297 | 317° | 15km/h | 22521m | 4.2m/s | -53.6°C | 4.4% | 0hPa | 2.6V | 00:00:00 | 00:00:00 | 00:00:00 | |
| PETON7-10 | 2026-08-30 12:16:09 | 49.45760 | 17.68306 | 281° | 13km/h | 22508m | 7.4m/s | -53.5°C | 4.4% | 0hPa | 2.7V | 00:00:00 | 00:00:00 | 00:00:00 | |
| OE5DRO-10 | 2026-08-30 12:16:04 | 49.45760 | 17.68333 | 276° | 11km/h | 22483m | 4.7m/s | -53.4°C | 4.3% | 0hPa | 2.6V | 00:00:00 | 00:00:00 | 00:00:00 | |
| DO3MHA-11 | 2026-08-30 12:16:03 | 49.45760 | 17.68340 | 273° | 11km/h | 22478m | 6.1m/s | -53.5°C | 4.3% | 0hPa | 2.6V | 00:00:00 | 01:36:59 | 00:00:00 | |
| OE5MMP-10 | 2026-08-30 12:15:59 | 49.45759 | 17.68358 | 286° | 13km/h | 22452m | 6.7m/s | -53.5°C | 4.2% | 0hPa | 2.6V | 00:00:00 | 01:36:55 | 00:00:00 | |
| DB0DAN | 2026-08-30 12:15:55 | 49.45761 | 17.68373 | 227° | 11km/h | 22428m | 6.1m/s | 0°C | 0% | 0hPa | 2.7V | 00:00:00 | 00:00:00 | 00:00:00 | |
| DO3MHA-11 | 2026-08-30 12:15:53 | 49.45765 | 17.68381 | 246° | 11km/h | 22417m | 7.0m/s | -53.4°C | 4.3% | 0hPa | 2.6V | 00:00:00 | 01:36:49 | 00:00:00 | |
| PG1ADW-2 | 2026-08-30 12:15:50 | 49.45768 | 17.68397 | 246° | 18km/h | 22399m | 7.0m/s | -53.4°C | 4.3% | 0hPa | 2.7V | 00:00:00 | 01:36:46 | 00:00:00 | |
| OE5MMP-10 | 2026-08-30 12:15:49 | 49.45769 | 17.68400 | 224° | 13km/h | 22391m | 7.4m/s | -53.2°C | 4.3% | 0hPa | 2.7V | 00:00:00 | 01:36:45 | 00:00:00 | |
| OE5DRO-10 | 2026-08-30 12:15:45 | 49.45777 | 17.68406 | 208° | 20km/h | 22366m | 5.4m/s | -53.4°C | 4.3% | 0hPa | 2.7V | 00:00:00 | 00:00:00 | 08:30:00 | |
| DO3MHA-11 | 2026-08-30 12:15:43 | 49.45784 | 17.68410 | 193° | 20km/h | 22353m | 6.5m/s | -53.3°C | 4.3% | 0hPa | 2.6V | 00:00:00 | 01:36:39 | 00:00:00 | |
| DB0DAN | 2026-08-30 12:15:40 | 49.45795 | 17.68417 | 217° | 16km/h | 22334m | 5.7m/s | 0°C | 0% | 0hPa | 2.6V | 00:00:00 | 00:00:00 | 00:00:00 | |
| OE5MMP-10 | 2026-08-30 12:15:39 | 49.45799 | 17.68421 | 218° | 24km/h | 22330m | 3.2m/s | -53.2°C | 4.2% | 0hPa | 2.6V | 00:00:00 | 01:36:35 | 00:00:00 | |
| PETON7-10 | 2026-08-30 12:15:38 | 49.45803 | 17.68425 | 209° | 20km/h | 22325m | 5.8m/s | -53.2°C | 4.1% | 0hPa | 2.6V | 00:00:00 | 01:36:34 | 00:00:00 | |
| DO3MHA-11 | 2026-08-30 12:15:33 | 49.45830 | 17.68432 | 185° | 20km/h | 22293m | 3.9m/s | -53.1°C | 4.2% | 0hPa | 2.6V | 00:00:00 | 01:36:29 | 00:00:00 | |
| PG1ADW-2 | 2026-08-30 12:15:30 | 49.45851 | 17.68429 | 165° | 20km/h | 22274m | 4.2m/s | -53.1°C | 4.3% | 0hPa | 2.6V | 00:00:00 | 00:00:00 | 00:00:00 | |
| OE5MMP-10 | 2026-08-30 12:15:29 | 49.45857 | 17.68427 | 168° | 15km/h | 22269m | 5.5m/s | -53.1°C | 4.3% | 0hPa | 2.6V | 00:00:00 | 01:36:25 | 00:00:00 | |
| DB0DAN | 2026-08-30 12:15:25 | 49.45872 | 17.68427 | 188° | 11km/h | 22243m | 7.1m/s | 0°C | 0% | 0hPa | 2.6V | 00:00:00 | 00:00:00 | 00:00:00 | |
| PETON7-10 | 2026-08-30 12:15:23 | 49.45877 | 17.68429 | 195° | 22km/h | 22231m | 5.9m/s | -53.1°C | 4.1% | 0hPa | 2.6V | 00:00:00 | 00:00:00 | 08:30:00 | |
| OE5MMP-10 | 2026-08-30 12:15:19 | 49.45895 | 17.68430 | 163° | 26km/h | 22207m | 6.6m/s | -53.3°C | 4.2% | 0hPa | 2.7V | 00:00:00 | 01:36:15 | 00:00:00 | |
| DO3MHA-11 | 2026-08-30 12:15:13 | 49.45933 | 17.68401 | 160° | 16km/h | 22172m | 8.4m/s | -53.1°C | 4.3% | 0hPa | 2.7V | 00:00:00 | 01:36:09 | 00:00:00 | |
| OE3OSB-13 | 2026-08-30 12:15:11 | 49.45945 | 17.68395 | 164° | 20km/h | 22160m | 4.1m/s | -53.1°C | 1.1% | -1.0hPa | 2.7V | 00:00:00 | 00:00:00 | 00:00:00 | |
| PG1ADW-2 | 2026-08-30 12:15:10 | 49.45949 | 17.68393 | 167° | 16km/h | 22154m | 7.8m/s | -53.0°C | 4.3% | 0hPa | 2.7V | 00:00:00 | 00:00:00 | 08:30:00 | |
| OE5MMP-10 | 2026-08-30 12:15:09 | 49.45953 | 17.68392 | 164° | 16km/h | 22147m | 6.1m/s | -52.9°C | 4.3% | 0hPa | 2.6V | 00:00:00 | 01:36:05 | 00:00:00 | |
| PETON7-10 | 2026-08-30 12:15:08 | 49.45955 | 17.68391 | 150° | 18km/h | 22141m | 5.5m/s | -52.9°C | 4.2% | 0hPa | 2.6V | 00:00:00 | 00:00:00 | 00:00:00 | |
| OE5DRO-10 | 2026-08-30 12:15:07 | 49.45956 | 17.68389 | 140° | 16km/h | 22134m | 7.9m/s | -52.9°C | 4.1% | 0hPa | 2.6V | 00:00:00 | 00:00:00 | 00:00:00 | |
| OE5MMP-10 | 2026-08-30 12:14:59 | 49.45984 | 17.68345 | 148° | 15km/h | 22084m | 6.7m/s | -53.1°C | 4.2% | 0hPa | 2.6V | 00:00:00 | 01:35:55 | 08:30:00 | |
| PETON7-10 | 2026-08-30 12:14:53 | 49.46007 | 17.68327 | 145° | 11km/h | 22047m | 7.6m/s | -53.0°C | 4.3% | 0hPa | 2.6V | 00:00:00 | 01:35:49 | 00:00:00 | |
| PG1ADW-2 | 2026-08-30 12:14:50 | 49.46008 | 17.68320 | 95° | 13km/h | 22028m | 7.3m/s | -53.0°C | 4.2% | 0hPa | 2.6V | 00:00:00 | 00:00:00 | 00:00:00 | |
| OE5MMP-10 | 2026-08-30 12:14:49 | 49.46008 | 17.68315 | 99° | 13km/h | 22022m | 5.6m/s | -53.1°C | 4.2% | 0hPa | 2.6V | 00:00:00 | 01:35:45 | 00:00:00 | |
| OE5DRO-10 | 2026-08-30 12:14:48 | 49.46009 | 17.68309 | 96° | 13km/h | 22016m | 5.1m/s | -53.0°C | 4.2% | 0hPa | 2.6V | 00:00:00 | 00:00:00 | 00:00:00 | |
| DO3MHA-11 | 2026-08-30 12:14:42 | 49.46012 | 17.68276 | 111° | 11km/h | 21979m | 4.7m/s | -53.0°C | 4.1% | 0hPa | 2.7V | 00:00:00 | 01:35:38 | 00:00:00 | |
| OE3OSB-13 | 2026-08-30 12:14:41 | 49.46012 | 17.68271 | 27° | 2km/h | 21967m | 5.1m/s | -53.0°C | 1.1% | -1.0hPa | 2.7V | 00:00:00 | 00:00:00 | 00:00:00 | |
| PETON7-10 | 2026-08-30 12:14:38 | 49.46011 | 17.68271 | 36° | 15km/h | 21956m | 7.0m/s | -53.0°C | 4.2% | 0hPa | 2.7V | 00:00:00 | 00:00:00 | 00:00:00 | |
| OE5DXL-15 | 2026-08-30 12:14:37 | 49.46010 | 17.68269 | 57° | 15km/h | 21950m | 5.4m/s | -53.0°C | 4.2% | 0hPa | 2.6V | 00:00:00 | 00:00:00 | 00:00:00 | |
| DO3MHA-11 | 2026-08-30 12:14:32 | 49.45996 | 17.68244 | 65° | 15km/h | 21920m | 7.9m/s | -53.5°C | 4.2% | 0hPa | 2.6V | 00:00:00 | 01:35:28 | 00:00:00 | |
| PG1ADW-2 | 2026-08-30 12:14:30 | 49.45992 | 17.68228 | 69° | 15km/h | 21908m | 5.7m/s | -53.6°C | 4.2% | 0hPa | 2.6V | 00:00:00 | 01:35:26 | 00:00:00 | |
| OE5MMP-10 | 2026-08-30 12:14:29 | 49.45990 | 17.68222 | 58° | 13km/h | 21902m | 7.1m/s | -53.5°C | 4.2% | 0hPa | 2.6V | 00:00:00 | 01:35:25 | 00:00:00 | |
| PETON7-10 | 2026-08-30 12:14:23 | 49.45976 | 17.68217 | 338° | 15km/h | 21864m | 6.0m/s | -53.5°C | 4.3% | 0hPa | 2.6V | 00:00:00 | 00:00:00 | 00:00:00 | |
| DO3MHA-11 | 2026-08-30 12:14:22 | 49.45972 | 17.68220 | 343° | 16km/h | 21859m | 4.3m/s | -53.5°C | 4.3% | 0hPa | 2.6V | 00:00:00 | 01:35:18 | 00:00:00 | |
| OE5MMP-10 | 2026-08-30 12:14:19 | 49.45960 | 17.68219 | 22° | 15km/h | 21842m | 4.1m/s | -53.6°C | 4.3% | 0hPa | 2.6V | 00:00:00 | 01:35:15 | 00:00:00 | |
| PG1ADW-2 | 2026-08-30 12:14:10 | 49.45931 | 17.68209 | 310° | 11km/h | 21789m | 4.3m/s | -53.8°C | 4.3% | 0hPa | 2.6V | 00:00:00 | 00:00:00 | 00:00:00 | |
| OE5MMP-10 | 2026-08-30 12:14:09 | 49.45930 | 17.68212 | 302° | 15km/h | 21783m | 6.6m/s | -53.8°C | 4.3% | 0hPa | 2.6V | 00:00:00 | 01:35:05 | 00:00:00 | |
| PETON7-10 | 2026-08-30 12:14:08 | 49.45929 | 17.68214 | 310° | 13km/h | 21777m | 5.6m/s | -53.8°C | 4.3% | 0hPa | 2.6V | 00:00:00 | 01:35:04 | 00:00:00 | |
| OE5DXL-15 | 2026-08-30 12:14:06 | 49.45925 | 17.68215 | 10° | 9km/h | 21767m | 5.5m/s | -53.9°C | 4.2% | 0hPa | 2.6V | 00:00:00 | 00:00:00 | 00:00:00 | |
| DO3MHA-11 | 2026-08-30 12:14:02 | 49.45909 | 17.68205 | 37° | 11km/h | 21744m | 6.5m/s | -53.8°C | 4.2% | 0hPa | 2.6V | 00:00:00 | 01:34:58 | 00:00:00 | |
| OE5MMP-10 | 2026-08-30 12:13:59 | 49.45901 | 17.68192 | 45° | 7km/h | 21728m | 6.4m/s | -53.9°C | 4.2% | 0hPa | 2.6V | 00:00:00 | 01:34:55 | 00:00:00 | |
| PETON7-10 | 2026-08-30 12:13:53 | 49.45895 | 17.68174 | 97° | 5km/h | 21694m | 6.5m/s | -54.2°C | 4.4% | 0hPa | 2.6V | 00:00:00 | 00:00:00 | 00:00:00 | |
| DO3MHA-11 | 2026-08-30 12:13:52 | 49.45895 | 17.68173 | 60° | 7km/h | 21688m | 5.0m/s | -54.2°C | 4.5% | 0hPa | 2.6V | 00:00:00 | 01:34:48 | 00:00:00 | |
| OE5DRO-10 | 2026-08-30 12:13:51 | 49.45895 | 17.68173 | 21° | 5km/h | 21684m | 3.6m/s | -54.3°C | 4.4% | 0hPa | 2.7V | 00:00:00 | 00:00:00 | 00:00:00 | |
| PG1ADW-2 | 2026-08-30 12:13:50 | 49.45895 | 17.68172 | 75° | 5km/h | 21679m | 5.6m/s | -54.4°C | 4.4% | 0hPa | 2.6V | 00:00:00 | 00:00:00 | 00:00:00 | |
| OE5MMP-10 | 2026-08-30 12:13:49 | 49.45895 | 17.68170 | 82° | 7km/h | 21673m | 6.8m/s | -54.4°C | 4.4% | 0hPa | 2.6V | 00:00:00 | 01:34:45 | 00:00:00 | |
| DO3MHA-11 | 2026-08-30 12:13:42 | 49.45889 | 17.68149 | 102° | 4km/h | 21634m | 5.0m/s | -54.3°C | 4.3% | 0hPa | 2.6V | 00:00:00 | 01:34:38 | 00:00:00 | |
| OE5MMP-10 | 2026-08-30 12:13:39 | 49.45891 | 17.68144 | 226° | 4km/h | 21617m | 5.4m/s | -54.4°C | 4.4% | 0hPa | 2.6V | 00:00:00 | 01:34:35 | 00:00:00 | |
| PETON7-10 | 2026-08-30 12:13:38 | 49.45892 | 17.68145 | 292° | 5km/h | 21612m | 4.9m/s | -54.4°C | 4.4% | 0hPa | 2.6V | 00:00:00 | 00:00:00 | 00:00:00 | |
| OE5DXL-15 | 2026-08-30 12:13:36 | 49.45891 | 17.68145 | 23° | 11km/h | 21600m | 5.8m/s | -54.5°C | 4.4% | 0hPa | 2.6V | 00:00:00 | 00:00:00 | 00:00:00 | |
| DO3MHA-11 | 2026-08-30 12:13:32 | 49.45888 | 17.68149 | 291° | 7km/h | 21579m | 4.4m/s | -54.7°C | 4.4% | 0hPa | 2.7V | 00:00:00 | 01:34:28 | 00:00:00 | |
| PG1ADW-2 | 2026-08-30 12:13:31 | 49.45888 | 17.68153 | 238° | 11km/h | 21569m | 6.3m/s | -54.9°C | 4.4% | 0hPa | 2.7V | 00:00:00 | 00:00:00 | 00:00:00 | |
| OE5MMP-10 | 2026-08-30 12:13:29 | 49.45888 | 17.68153 | 119° | 13km/h | 21562m | 5.8m/s | -55.0°C | 4.4% | 0hPa | 2.7V | 00:00:00 | 01:34:25 | 08:30:00 | |
| PETON7-10 | 2026-08-30 12:13:23 | 49.45875 | 17.68153 | 357° | 15km/h | 21528m | 5.4m/s | -55.2°C | 4.6% | 0hPa | 2.7V | 00:00:00 | 01:34:19 | 00:00:00 | |
| DO3MHA-11 | 2026-08-30 12:13:22 | 49.45870 | 17.68154 | 348° | 13km/h | 21523m | 5.7m/s | -55.1°C | 4.6% | 0hPa | 2.7V | 00:00:00 | 01:34:18 | 08:30:00 | |
| OE5MMP-10 | 2026-08-30 12:13:19 | 49.45858 | 17.68162 | 335° | 13km/h | 21505m | 6.9m/s | -55.3°C | 4.6% | 0hPa | 2.7V | 00:00:00 | 01:34:15 | 00:00:00 | |
| OE5DRO-10 | 2026-08-30 12:13:13 | 49.45841 | 17.68165 | 40° | 11km/h | 21470m | 7.2m/s | -55.4°C | 4.6% | 0hPa | 2.7V | 00:00:00 | 00:00:00 | 00:00:00 | |
| DO3MHA-11 | 2026-08-30 12:13:12 | 49.45839 | 17.68162 | 42° | 15km/h | 21463m | 4.7m/s | -55.4°C | 4.6% | 0hPa | 2.7V | 00:00:00 | 01:34:08 | 00:00:00 | |
| PG1ADW-2 | 2026-08-30 12:13:10 | 49.45832 | 17.68157 | 9° | 11km/h | 21452m | 6.2m/s | -55.5°C | 4.6% | 0hPa | 2.7V | 00:00:00 | 01:34:06 | 00:00:00 | |
| OE5MMP-10 | 2026-08-30 12:13:09 | 49.45829 | 17.68156 | 358° | 13km/h | 21446m | 4.7m/s | -55.5°C | 4.7% | 0hPa | 2.6V | 00:00:00 | 01:34:05 | 00:00:00 | |
| PETON7-10 | 2026-08-30 12:13:08 | 49.45825 | 17.68157 | 356° | 11km/h | 21440m | 6.9m/s | -55.4°C | 4.7% | 0hPa | 2.6V | 00:00:00 | 00:00:00 | 08:30:00 | |
| OE3OSB-13 | 2026-08-30 12:13:07 | 49.45821 | 17.68158 | 352° | 13km/h | 21433m | 6.8m/s | -55.5°C | 1.3% | -1.0hPa | 2.6V | 00:00:00 | 00:00:00 | 00:00:00 | |
| OE5DXL-15 | 2026-08-30 12:13:06 | 49.45818 | 17.68159 | 338° | 9km/h | 21427m | 4.7m/s | -55.4°C | 4.8% | 0hPa | 2.6V | 00:00:00 | 00:00:00 | 00:00:00 | |
| DO3MHA-11 | 2026-08-30 12:13:02 | 49.45808 | 17.68173 | 305° | 9km/h | 21403m | 8.0m/s | -55.3°C | 4.7% | 0hPa | 2.6V | 00:00:00 | 01:33:58 | 00:00:00 | |
| OE5MMP-10 | 2026-08-30 12:12:59 | 49.45804 | 17.68179 | 321° | 9km/h | 21386m | 6.9m/s | -55.3°C | 4.5% | 0hPa | 2.6V | 00:00:00 | 01:33:55 | 00:00:00 | |
| OE5DRO-10 | 2026-08-30 12:12:54 | 49.45797 | 17.68189 | 325° | 9km/h | 21356m | 7.2m/s | -55.1°C | 4.5% | 0hPa | 2.6V | 00:00:00 | 00:00:00 | 08:30:00 | |
| PETON7-10 | 2026-08-30 12:12:53 | 49.45794 | 17.68192 | 326° | 9km/h | 21350m | 5.3m/s | -55.1°C | 4.6% | 0hPa | 2.7V | 00:00:00 | 00:00:00 | 00:00:00 | |
| DO3MHA-11 | 2026-08-30 12:12:52 | 49.45791 | 17.68195 | 326° | 7km/h | 21345m | 4.9m/s | -55.2°C | 4.6% | 0hPa | 2.7V | 00:00:00 | 01:33:48 | 00:00:00 | |
| PG1ADW-2 | 2026-08-30 12:12:50 | 49.45786 | 17.68201 | 326° | 7km/h | 21332m | 5.3m/s | -55.2°C | 4.6% | 0hPa | 2.6V | 00:00:00 | 00:00:00 | 00:00:00 | |
| OE5MMP-10 | 2026-08-30 12:12:49 | 49.45784 | 17.68203 | 330° | 7km/h | 21327m | 4.1m/s | -55.2°C | 4.7% | 0hPa | 2.6V | 00:00:00 | 01:33:45 | 00:00:00 | |
| DO3MHA-11 | 2026-08-30 12:12:42 | 49.45779 | 17.68210 | 252° | 7km/h | 21288m | 6.5m/s | -55.2°C | 4.6% | 0hPa | 2.6V | 00:00:00 | 01:33:38 | 00:00:00 | |
| OE5MMP-10 | 2026-08-30 12:12:39 | 49.45779 | 17.68222 | 261° | 7km/h | 21271m | 7.2m/s | -55.3°C | 4.7% | 0hPa | 2.6V | 00:00:00 | 01:33:35 | 00:00:00 | |
| PETON7-10 | 2026-08-30 12:12:38 | 49.45780 | 17.68226 | 252° | 5km/h | 21264m | 6.5m/s | -55.3°C | 4.7% | 0hPa | 2.6V | 00:00:00 | 01:33:34 | 00:00:00 | |
| OE3OSB-13 | 2026-08-30 12:12:36 | 49.45780 | 17.68230 | 301° | 4km/h | 21252m | 7.0m/s | -55.4°C | 1.3% | -1.0hPa | 2.6V | 00:00:00 | 00:00:00 | 00:00:00 | |
| OE5DRO-10 | 2026-08-30 12:12:35 | 49.45779 | 17.68231 | 350° | 4km/h | 21247m | 4.9m/s | -55.3°C | 4.7% | 0hPa | 2.6V | 00:00:00 | 00:00:00 | 00:00:00 | |
| DO3MHA-11 | 2026-08-30 12:12:32 | 49.45775 | 17.68227 | 71° | 4km/h | 21229m | 4.2m/s | -55.2°C | 4.7% | 0hPa | 2.6V | 00:00:00 | 01:33:28 | 00:00:00 | |
| PG1ADW-2 | 2026-08-30 12:12:30 | 49.45774 | 17.68223 | 17° | 5km/h | 21218m | 6.1m/s | -55.2°C | 4.6% | 0hPa | 2.6V | 00:00:00 | 00:00:00 | 00:00:00 | |
| OE5MMP-10 | 2026-08-30 12:12:29 | 49.45773 | 17.68223 | 349° | 4km/h | 21212m | 4.8m/s | -55.2°C | 4.6% | 0hPa | 2.6V | 00:00:00 | 01:33:25 | 00:00:00 | |
| PETON7-10 | 2026-08-30 12:12:23 | 49.45772 | 17.68230 | 279° | 5km/h | 21176m | 5.6m/s | -55.1°C | 4.6% | 0hPa | 2.6V | 00:00:00 | 00:00:00 | 00:00:00 | |
| DO3MHA-11 | 2026-08-30 12:12:22 | 49.45772 | 17.68232 | 256° | 5km/h | 21170m | 7.3m/s | -55.1°C | 4.6% | 0hPa | 2.7V | 00:00:00 | 01:33:18 | 00:00:00 | |
| OE5MMP-10 | 2026-08-30 12:12:19 | 49.45771 | 17.68232 | 334° | 7km/h | 21153m | 6.2m/s | -55.1°C | 4.6% | 0hPa | 2.7V | 00:00:00 | 01:33:15 | 00:00:00 | |
| OE5DRO-10 | 2026-08-30 12:12:16 | 49.45766 | 17.68233 | 9° | 9km/h | 21136m | 6.4m/s | -55.1°C | 4.5% | 0hPa | 2.7V | 00:00:00 | 00:00:00 | 00:00:00 | |
| PG1ADW-2 | 2026-08-30 12:12:10 | 49.45759 | 17.68244 | 298° | 11km/h | 21100m | 6.6m/s | -55.1°C | 4.6% | 0hPa | 2.7V | 00:00:00 | 00:00:00 | 08:30:00 | |
| OE5MMP-10 | 2026-08-30 12:12:09 | 49.45758 | 17.68246 | 317° | 9km/h | 21095m | 3.6m/s | -55.1°C | 4.6% | 0hPa | 2.7V | 00:00:00 | 01:33:05 | 00:00:00 | |
| PETON7-10 | 2026-08-30 12:12:07 | 49.45755 | 17.68250 | 309° | 13km/h | 21085m | 6.6m/s | -55.2°C | 4.6% | 0hPa | 2.7V | 00:00:00 | 00:00:00 | 00:00:00 | |
| OE5DXL-15 | 2026-08-30 12:12:05 | 49.45752 | 17.68256 | 321° | 11km/h | 21074m | 6.0m/s | -55.2°C | 4.6% | 0hPa | 2.7V | 00:00:00 | 00:00:00 | 08:30:00 | |
| DO3MHA-11 | 2026-08-30 12:12:02 | 49.45746 | 17.68260 | 334° | 15km/h | 21057m | 6.8m/s | -55.2°C | 4.6% | 0hPa | 2.7V | 00:00:00 | 01:32:58 | 00:00:00 | |
| OE5MMP-10 | 2026-08-30 12:11:59 | 49.45736 | 17.68268 | 340° | 13km/h | 21040m | 7.0m/s | -55.3°C | 4.7% | 0hPa | 2.7V | 00:00:00 | 01:32:55 | 08:30:00 | |
| OE5DRO-10 | 2026-08-30 12:11:57 | 49.45728 | 17.68272 | 340° | 11km/h | 21028m | 4.8m/s | -55.4°C | 4.7% | 0hPa | 2.7V | 00:00:00 | 00:00:00 | 00:00:00 | |
| DO3MHA-11 | 2026-08-30 12:11:52 | 49.45719 | 17.68287 | 270° | 11km/h | 20998m | 4.3m/s | -55.4°C | 4.8% | 0hPa | 2.7V | 00:00:00 | 01:32:48 | 08:30:00 | |
| PG1ADW-2 | 2026-08-30 12:11:50 | 49.45718 | 17.68294 | 280° | 13km/h | 20987m | 5.5m/s | -55.4°C | 4.8% | 0hPa | 2.6V | 00:00:00 | 01:32:46 | 00:00:00 | |
| OE5MMP-10 | 2026-08-30 12:11:49 | 49.45718 | 17.68298 | 295° | 13km/h | 20982m | 4.4m/s | -55.4°C | 4.8% | 0hPa | 2.6V | 00:00:00 | 01:32:45 | 00:00:00 | |
| DO3MHA-11 | 2026-08-30 12:11:42 | 49.45703 | 17.68322 | 307° | 11km/h | 20941m | 6.6m/s | -55.3°C | 4.7% | 0hPa | 2.6V | 00:00:00 | 01:32:38 | 00:00:00 | |
| OE5MMP-10 | 2026-08-30 12:11:39 | 49.45698 | 17.68334 | 291° | 11km/h | 20923m | 5.3m/s | -55.1°C | 4.7% | 0hPa | 2.6V | 00:00:00 | 01:32:35 | 00:00:00 | |
| OE5DRO-10 | 2026-08-30 12:11:38 | 49.45697 | 17.68339 | 289° | 11km/h | 20918m | 4.7m/s | -55.1°C | 4.7% | 0hPa | 2.6V | 00:00:00 | 00:00:00 | 00:00:00 | |
| PETON7-10 | 2026-08-30 12:11:37 | 49.45696 | 17.68343 | 288° | 11km/h | 20912m | 6.7m/s | -55.0°C | 4.7% | 0hPa | 2.6V | 00:00:00 | 00:00:00 | 00:00:00 | |
| OE5DXL-15 | 2026-08-30 12:11:34 | 49.45695 | 17.68354 | 272° | 9km/h | 20894m | 6.5m/s | -54.9°C | 4.7% | 0hPa | 2.7V | 00:00:00 | 00:00:00 | 00:00:00 | |
| DO3MHA-11 | 2026-08-30 12:11:32 | 49.45696 | 17.68365 | 259° | 9km/h | 20884m | 5.3m/s | -54.9°C | 4.6% | 0hPa | 2.7V | 00:00:00 | 01:32:28 | 00:00:00 | |
| PG1ADW-2 | 2026-08-30 12:11:30 | 49.45698 | 17.68374 | 244° | 9km/h | 20871m | 4.9m/s | -54.8°C | 4.6% | 0hPa | 2.7V | 00:00:00 | 00:00:00 | 00:00:00 | |
| OE5MMP-10 | 2026-08-30 12:11:29 | 49.45699 | 17.68378 | 251° | 9km/h | 20865m | 6.0m/s | -54.8°C | 4.6% | 0hPa | 2.7V | 00:00:00 | 01:32:25 | 00:00:00 | |
| PETON7-10 | 2026-08-30 12:11:22 | 49.45697 | 17.68402 | 290° | 9km/h | 20825m | 5.3m/s | -54.9°C | 4.6% | 0hPa | 2.7V | 00:00:00 | 00:00:00 | 00:00:00 | |
| OE5MMP-10 | 2026-08-30 12:11:19 | 49.45697 | 17.68414 | 241° | 9km/h | 20809m | 6.7m/s | -54.8°C | 4.6% | 0hPa | 2.7V | 00:00:00 | 01:32:15 | 00:00:00 | |
| PG1ADW-2 | 2026-08-30 12:11:10 | 49.45708 | 17.68436 | 307° | 9km/h | 20756m | 5.5m/s | -54.3°C | 4.5% | 0hPa | 2.7V | 00:00:00 | 00:00:00 | 00:00:00 | |
| OE5MMP-10 | 2026-08-30 12:11:09 | 49.45706 | 17.68439 | 319° | 7km/h | 20751m | 4.0m/s | -54.3°C | 4.4% | 0hPa | 2.7V | 00:00:00 | 01:32:05 | 00:00:00 | |
| DO3MHA-11 | 2026-08-30 12:11:07 | 49.45701 | 17.68443 | 344° | 7km/h | 20739m | 6.1m/s | -54.3°C | 4.4% | 0hPa | 2.7V | 00:00:00 | 01:32:03 | 00:00:00 | |
| OE5DXL-15 | 2026-08-30 12:11:05 | 49.45698 | 17.68445 | 309° | 7km/h | 20728m | 6.4m/s | -54.2°C | 4.5% | 0hPa | 2.7V | 00:00:00 | 00:00:00 | 00:00:00 | |
| OE3OSB-13 | 2026-08-30 12:11:03 | 49.45698 | 17.68452 | 233° | 5km/h | 20710m | 6.9m/s | -54.0°C | 1.2% | -1.0hPa | 2.7V | 00:00:00 | 00:00:00 | 00:00:00 | |
| OE5DRO-10 | 2026-08-30 12:11:00 | 49.45701 | 17.68455 | 214° | 7km/h | 20700m | 3.8m/s | -53.9°C | 4.5% | 0hPa | 2.7V | 00:00:00 | 00:00:00 | 00:00:00 | |
| OE5MMP-10 | 2026-08-30 12:10:59 | 49.45701 | 17.68457 | 248° | 9km/h | 20695m | 5.6m/s | -53.9°C | 4.4% | 0hPa | 2.7V | 00:00:00 | 01:31:55 | 00:00:00 | |
| DO3MHA-11 | 2026-08-30 12:10:57 | 49.45701 | 17.68465 | 278° | 7km/h | 20683m | 4.4m/s | -53.8°C | 4.4% | 0hPa | 2.6V | 00:00:00 | 01:31:53 | 00:00:00 | |
| PETON7-10 | 2026-08-30 12:10:52 | 49.45701 | 17.68484 | 250° | 5km/h | 20653m | 5.7m/s | -53.8°C | 4.3% | 0hPa | 2.6V | 00:00:00 | 00:00:00 | 08:30:00 | |
| PG1ADW-2 | 2026-08-30 12:10:50 | 49.45703 | 17.68486 | 177° | 5km/h | 20641m | 7.3m/s | -53.8°C | 4.3% | 0hPa | 2.6V | 00:00:00 | 00:00:00 | 00:00:00 | |
| OE5MMP-10 | 2026-08-30 12:10:49 | 49.45703 | 17.68486 | 151° | 7km/h | 20634m | 5.3m/s | -53.8°C | 4.3% | 0hPa | 2.6V | 00:00:00 | 01:31:45 | 00:00:00 | |
| DO3MHA-11 | 2026-08-30 12:10:47 | 49.45705 | 17.68486 | 247° | 7km/h | 20623m | 6.3m/s | -53.6°C | 4.3% | 0hPa | 2.6V | 00:00:00 | 01:31:43 | 00:00:00 | |
| OE5DRO-10 | 2026-08-30 12:10:41 | 49.45700 | 17.68499 | 318° | 4km/h | 20589m | 6.4m/s | -53.4°C | 4.3% | 0hPa | 2.6V | 00:00:00 | 00:00:00 | 00:00:00 | |
| OE5MMP-10 | 2026-08-30 12:10:39 | 49.45697 | 17.68503 | 351° | 4km/h | 20578m | 6.0m/s | -53.5°C | 4.2% | 0hPa | 2.6V | 00:00:00 | 01:31:35 | 00:00:00 | |
| PETON7-10 | 2026-08-30 12:10:37 | 49.45695 | 17.68501 | 76° | 4km/h | 20567m | 3.6m/s | -53.6°C | 4.2% | 0hPa | 2.6V | 00:00:00 | 00:00:00 | 00:00:00 | |
| OE5DXL-15 | 2026-08-30 12:10:35 | 49.45695 | 17.68497 | 126° | 7km/h | 20556m | 5.7m/s | -53.7°C | 4.2% | 0hPa | 2.6V | 00:00:00 | 00:00:00 | 00:00:00 | |
| OE3OSB-13 | 2026-08-30 12:10:32 | 49.45696 | 17.68494 | 36° | 0km/h | 20533m | 4.6m/s | -53.8°C | 1.1% | -1.0hPa | 2.6V | 00:00:00 | 00:00:00 | 00:00:00 | |
| PG1ADW-2 | 2026-08-30 12:10:30 | 49.45696 | 17.68495 | 272° | 5km/h | 20528m | 6.5m/s | -53.8°C | 4.2% | 0hPa | 2.6V | 00:00:00 | 01:31:26 | 00:00:00 | |
| OE5MMP-10 | 2026-08-30 12:10:29 | 49.45696 | 17.68496 | 264° | 5km/h | 20522m | 4.8m/s | -53.8°C | 4.2% | 0hPa | 2.6V | 00:00:00 | 01:31:25 | 08:30:00 | |
| DO3MHA-11 | 2026-08-30 12:10:27 | 49.45696 | 17.68497 | 64° | 5km/h | 20510m | 6.5m/s | -54.0°C | 4.4% | 0hPa | 2.6V | 00:00:00 | 01:31:23 | 00:00:00 | |
| OE5DRO-10 | 2026-08-30 12:10:22 | 49.45696 | 17.68489 | 88° | 9km/h | 20483m | 4.9m/s | -54.1°C | 4.5% | 0hPa | 2.6V | 00:00:00 | 00:00:00 | 00:00:00 | |
| OE5MMP-10 | 2026-08-30 12:10:19 | 49.45693 | 17.68480 | 52° | 9km/h | 20467m | 4.9m/s | -54.2°C | 4.3% | 0hPa | 2.6V | 00:00:00 | 01:31:15 | 00:00:00 | |
| DO3MHA-11 | 2026-08-30 12:10:17 | 49.45691 | 17.68477 | 12° | 9km/h | 20456m | 4.5m/s | -54.2°C | 4.4% | 0hPa | 2.6V | 00:00:00 | 01:31:13 | 08:30:00 | |
| GYPAP8-17 | 2026-08-30 12:10:11 | 49.45682 | 17.68469 | 31° | 9km/h | 20425m | 5.4m/s | 0°C | 0% | 0hPa | 2.7V | 00:00:00 | 00:00:00 | 00:00:00 | |
| PG1ADW-2 | 2026-08-30 12:10:10 | 49.45678 | 17.68465 | 31° | 11km/h | 20413m | 6.6m/s | -54.0°C | 4.5% | 0hPa | 2.7V | 00:00:00 | 00:00:00 | 00:00:00 | |
| OE5MMP-10 | 2026-08-30 12:10:09 | 49.45675 | 17.68463 | 17° | 11km/h | 20408m | 4.1m/s | -54.0°C | 4.5% | 0hPa | 2.6V | 00:00:00 | 01:31:05 | 00:00:00 | |
| PETON7-10 | 2026-08-30 12:10:07 | 49.45669 | 17.68463 | 334° | 11km/h | 20397m | 5.9m/s | -53.9°C | 4.5% | 0hPa | 2.6V | 00:00:00 | 00:00:00 | 00:00:00 | |
| OE5DXL-15 | 2026-08-30 12:10:05 | 49.45664 | 17.68468 | 323° | 9km/h | 20385m | 6.9m/s | -53.9°C | 4.4% | 0hPa | 2.7V | 00:00:00 | 00:00:00 | 00:00:00 | |
| OE5DRO-10 | 2026-08-30 12:10:03 | 49.45661 | 17.68473 | 313° | 11km/h | 20374m | 4.7m/s | -54.0°C | 4.4% | 0hPa | 2.7V | 00:00:00 | 00:00:00 | 08:30:00 | |
| OE3OSB-13 | 2026-08-30 12:10:00 | 49.45655 | 17.68482 | 325° | 9km/h | 20357m | 6.1m/s | -53.9°C | 1.2% | -1.0hPa | 2.6V | 00:00:00 | 00:00:00 | 00:00:00 | |
| OE5MMP-10 | 2026-08-30 12:09:59 | 49.45653 | 17.68484 | 348° | 11km/h | 20350m | 6.8m/s | -53.9°C | 4.3% | 0hPa | 2.6V | 00:00:00 | 01:30:55 | 00:00:00 | |
| DO3MHA-11 | 2026-08-30 12:09:57 | 49.45647 | 17.68484 | 3° | 11km/h | 20338m | 6.3m/s | -53.9°C | 4.3% | 0hPa | 2.6V | 00:00:00 | 01:30:53 | 00:00:00 | |
| PETON7-10 | 2026-08-30 12:09:52 | 49.45632 | 17.68488 | 329° | 9km/h | 20310m | 4.7m/s | -53.8°C | 4.4% | 0hPa | 2.6V | 00:00:00 | 00:00:00 | 00:00:00 | |
| PG1ADW-2 | 2026-08-30 12:09:50 | 49.45629 | 17.68494 | 276° | 9km/h | 20298m | 5.9m/s | -53.7°C | 4.4% | 0hPa | 2.6V | 00:00:00 | 00:00:00 | 00:00:00 | |
| OE5MMP-10 | 2026-08-30 12:09:49 | 49.45629 | 17.68498 | 266° | 7km/h | 20293m | 4.9m/s | -53.8°C | 4.4% | 0hPa | 2.6V | 00:00:00 | 01:30:45 | 00:00:00 | |
| DO3MHA-11 | 2026-08-30 12:09:47 | 49.45630 | 17.68505 | 277° | 7km/h | 20280m | 5.7m/s | -53.9°C | 4.4% | 0hPa | 2.6V | 00:00:00 | 01:30:43 | 00:00:00 | |
| OE5DRO-10 | 2026-08-30 12:09:44 | 49.45627 | 17.68510 | 330° | 7km/h | 20263m | 4.6m/s | -53.8°C | 4.3% | 0hPa | 2.7V | 00:00:00 | 00:00:00 | 00:00:00 | |
| OE5MMP-10 | 2026-08-30 12:09:39 | 49.45617 | 17.68513 | 307° | 9km/h | 20235m | 5.5m/s | -53.6°C | 4.3% | 0hPa | 2.7V | 00:00:00 | 01:30:35 | 00:00:00 | |
| OE5DXL-15 | 2026-08-30 12:09:34 | 49.45613 | 17.68532 | 277° | 5km/h | 20207m | 6.4m/s | -53.8°C | 4.3% | 0hPa | 2.7V | 00:00:00 | 00:00:00 | 00:00:00 | |
| OE3OSB-13 | 2026-08-30 12:09:30 | 49.45612 | 17.68541 | 88° | 4km/h | 20179m | 4.3m/s | -53.7°C | 1.2% | -1.0hPa | 2.7V | 00:00:00 | 00:00:00 | 00:00:00 | |
| OE5MMP-10 | 2026-08-30 12:09:29 | 49.45612 | 17.68541 | 89° | 4km/h | 20179m | 4.2m/s | -53.6°C | 4.4% | 0hPa | 2.7V | 00:00:00 | 01:30:25 | 00:00:00 | |
| DO3MHA-11 | 2026-08-30 12:09:27 | 49.45614 | 17.68538 | 155° | 4km/h | 20168m | 6.2m/s | -53.6°C | 4.3% | 0hPa | 2.7V | 00:00:00 | 01:30:23 | 00:00:00 | |
| OE5DRO-10 | 2026-08-30 12:09:25 | 49.45615 | 17.68538 | 233° | 5km/h | 20159m | 5.0m/s | -53.6°C | 4.3% | 0hPa | 2.7V | 00:00:00 | 00:00:00 | 00:00:00 | |
| PETON7-10 | 2026-08-30 12:09:22 | 49.45614 | 17.68542 | 291° | 5km/h | 20140m | 7.0m/s | -53.5°C | 4.2% | 0hPa | 2.7V | 00:00:00 | 00:00:00 | 00:00:00 | |
| OE5MMP-10 | 2026-08-30 12:09:19 | 49.45613 | 17.68547 | 311° | 5km/h | 20122m | 7.1m/s | -53.6°C | 4.2% | 0hPa | 2.7V | 00:00:00 | 01:30:15 | 00:00:00 | |
| DO3MHA-11 | 2026-08-30 12:09:17 | 49.45612 | 17.68550 | 280° | 5km/h | 20110m | 5.9m/s | -53.7°C | 4.2% | 0hPa | 2.7V | 00:00:00 | 01:30:13 | 00:00:00 | |
| PG1ADW-2 | 2026-08-30 12:09:10 | 49.45614 | 17.68563 | 268° | 5km/h | 20069m | 4.3m/s | -53.7°C | 4.3% | 0hPa | 2.7V | 00:00:00 | 01:30:06 | 08:30:00 | |
| OE5MMP-10 | 2026-08-30 12:09:09 | 49.45614 | 17.68567 | 284° | 5km/h | 20063m | 6.9m/s | -53.8°C | 4.3% | 0hPa | 2.7V | 00:00:00 | 01:30:05 | 00:00:00 | |
| DO3MHA-11 | 2026-08-30 12:09:07 | 49.45612 | 17.68573 | 300° | 5km/h | 20050m | 4.7m/s | -53.9°C | 4.3% | 0hPa | 2.7V | 00:00:00 | 01:30:03 | 00:00:00 | |
| OE5DRO-10 | 2026-08-30 12:09:06 | 49.45611 | 17.68576 | 288° | 4km/h | 20044m | 6.8m/s | -53.9°C | 4.3% | 0hPa | 2.7V | 00:00:00 | 00:00:00 | 00:00:00 | |
| OE5DXL-15 | 2026-08-30 12:09:05 | 49.45610 | 17.68580 | 273° | 5km/h | 20039m | 4.1m/s | -53.8°C | 4.3% | 0hPa | 2.7V | 00:00:00 | 00:00:00 | 00:00:00 | |
| OE3OSB-13 | 2026-08-30 12:08:58 | 49.45615 | 17.68587 | 228° | 5km/h | 20000m | 4.3m/s | -53.8°C | 1.2% | -1.0hPa | 2.6V | 00:00:00 | 00:00:00 | 00:00:00 | |
| PETON7-10 | 2026-08-30 12:08:52 | 49.45620 | 17.68593 | 237° | 5km/h | 19966m | 5.0m/s | -53.6°C | 4.3% | 0hPa | 2.6V | 00:00:00 | 01:29:48 | 00:00:00 | |
| PG1ADW-2 | 2026-08-30 12:08:50 | 49.45621 | 17.68595 | 232° | 5km/h | 19953m | 5.4m/s | -53.6°C | 4.3% | 0hPa | 2.6V | 00:00:00 | 00:00:00 | 00:00:00 | |
| OE5MMP-10 | 2026-08-30 12:08:49 | 49.45621 | 17.68596 | 198° | 5km/h | 19948m | 5.3m/s | -53.6°C | 4.2% | 0hPa | 2.6V | 00:00:00 | 01:29:45 | 00:00:00 | |
| DO3MHA-11 | 2026-08-30 12:08:47 | 49.45621 | 17.68596 | 186° | 5km/h | 19935m | 4.9m/s | -53.5°C | 4.2% | 0hPa | 2.6V | 00:00:00 | 01:29:43 | 08:30:00 | |
| OE5MMP-10 | 2026-08-30 12:08:39 | 49.45624 | 17.68577 | 27° | 7km/h | 19890m | 7.1m/s | -53.9°C | 4.3% | 0hPa | 2.6V | 00:00:00 | 01:29:35 | 00:00:00 | |
| DO3MHA-11 | 2026-08-30 12:08:37 | 49.45621 | 17.68577 | 342° | 9km/h | 19877m | 5.7m/s | -53.9°C | 4.3% | 0hPa | 2.6V | 00:00:00 | 01:29:33 | 00:00:00 | |
| OE5DXL-15 | 2026-08-30 12:08:35 | 49.45618 | 17.68580 | 332° | 9km/h | 19866m | 3.6m/s | -53.9°C | 4.3% | 0hPa | 2.6V | 00:00:00 | 00:00:00 | 00:00:00 | |
| PG1ADW-2 | 2026-08-30 12:08:30 | 49.45611 | 17.68573 | 105° | 9km/h | 19837m | 5.1m/s | -54.3°C | 4.3% | 0hPa | 2.6V | 00:00:00 | 00:00:00 | 00:00:00 | |
| OE5MMP-10 | 2026-08-30 12:08:29 | 49.45612 | 17.68570 | 112° | 7km/h | 19832m | 5.0m/s | -54.3°C | 4.4% | 0hPa | 2.6V | 00:00:00 | 01:29:25 | 00:00:00 | |
| OE5DRO-10 | 2026-08-30 12:08:28 | 49.45612 | 17.68566 | 107° | 9km/h | 19825m | 8.0m/s | -54.3°C | 4.4% | 0hPa | 2.6V | 00:00:00 | 00:00:00 | 00:00:00 | |
| DO3MHA-11 | 2026-08-30 12:08:27 | 49.45613 | 17.68562 | 112° | 7km/h | 19818m | 4.6m/s | -54.4°C | 4.4% | 0hPa | 2.6V | 00:00:00 | 01:29:23 | 00:00:00 | |
| PETON7-10 | 2026-08-30 12:08:22 | 49.45618 | 17.68550 | 26° | 9km/h | 19789m | 5.3m/s | -54.5°C | 4.3% | 0hPa | 2.6V | 00:00:00 | 00:00:00 | 00:00:00 | |
| OE5MMP-10 | 2026-08-30 12:08:19 | 49.45613 | 17.68552 | 311° | 9km/h | 19772m | 5.4m/s | -54.5°C | 4.4% | 0hPa | 2.6V | 00:00:00 | 01:29:15 | 00:00:00 | |
| DO3MHA-11 | 2026-08-30 12:08:17 | 49.45612 | 17.68553 | 44° | 11km/h | 19762m | 4.7m/s | -54.5°C | 4.4% | 0hPa | 2.6V | 00:00:00 | 01:29:13 | 00:00:00 | |
| PG1ADW-2 | 2026-08-30 12:08:10 | 49.45617 | 17.68529 | 92° | 16km/h | 19735m | 6.5m/s | -54.6°C | 4.3% | 0hPa | 2.7V | 00:00:00 | 00:00:00 | 00:00:00 | |
| OE5MMP-10 | 2026-08-30 12:08:09 | 49.45616 | 17.68525 | 73° | 13km/h | 19728m | 5.6m/s | -54.6°C | 4.3% | 0hPa | 2.7V | 00:00:00 | 01:29:05 | 00:00:00 | |
| DO3MHA-11 | 2026-08-30 12:08:07 | 49.45614 | 17.68518 | 55° | 15km/h | 19718m | 5.6m/s | -54.7°C | 4.4% | 0hPa | 2.7V | 00:00:00 | 01:29:03 | 00:00:00 | |
| OE5DXL-15 | 2026-08-30 12:08:05 | 49.45612 | 17.68512 | 90° | 20km/h | 19707m | 4.4m/s | -54.6°C | 4.4% | 0hPa | 2.7V | 00:00:00 | 00:00:00 | 00:00:00 | |
| OE3OSB-13 | 2026-08-30 12:07:56 | 49.45604 | 17.68458 | 58° | 16km/h | 19656m | 5.1m/s | -55.1°C | 1.3% | -1.0hPa | 2.7V | 00:00:00 | 00:00:00 | 00:00:00 | |
| GYPAP8-17 | 2026-08-30 12:07:54 | 49.45602 | 17.68451 | 60° | 18km/h | 19650m | 6.2m/s | 0°C | 0% | 0hPa | 2.7V | 00:00:00 | 00:00:00 | 00:00:00 | |
| PETON7-10 | 2026-08-30 12:07:52 | 49.45594 | 17.68428 | 61° | 22km/h | 19635m | 5.2m/s | -55.4°C | 4.6% | 0hPa | 2.7V | 00:00:00 | 00:00:00 | 00:00:00 | |
| PG1ADW-2 | 2026-08-30 12:07:50 | 49.45586 | 17.68406 | 58° | 22km/h | 19623m | 5.6m/s | -55.5°C | 4.6% | 0hPa | 2.7V | 00:00:00 | 01:28:46 | 00:00:00 | |
| OE5MMP-10 | 2026-08-30 12:07:49 | 49.45581 | 17.68395 | 60° | 26km/h | 19617m | 6.2m/s | -55.4°C | 4.7% | 0hPa | 2.7V | 00:00:00 | 01:28:45 | 00:00:00 | |
| DO3MHA-11 | 2026-08-30 12:07:47 | 49.45573 | 17.68372 | 63° | 18km/h | 19607m | 4.0m/s | -55.3°C | 4.6% | 0hPa | 2.7V | 00:00:00 | 01:28:43 | 00:00:00 | |
| PETON7-10 | 2026-08-30 12:07:37 | 49.45540 | 17.68322 | 52° | 15km/h | 19550m | 6.7m/s | -55.2°C | 4.6% | 0hPa | 2.7V | 00:00:00 | 00:00:00 | 00:00:00 | |
| OE5DXL-15 | 2026-08-30 12:07:35 | 49.45534 | 17.68307 | 55° | 15km/h | 19540m | 5.1m/s | -55.2°C | 4.6% | 0hPa | 2.7V | 00:00:00 | 00:00:00 | 08:30:00 | |
| OE5MMP-10 | 2026-08-30 12:07:31 | 49.45519 | 17.68285 | 37° | 11km/h | 19517m | 6.3m/s | -55.3°C | 4.5% | 0hPa | 2.6V | 00:00:00 | 01:28:27 | 00:00:00 | |
| PG1ADW-2 | 2026-08-30 12:07:30 | 49.45517 | 17.68283 | 17° | 11km/h | 19511m | 4.5m/s | -55.3°C | 4.5% | 0hPa | 2.6V | 00:00:00 | 00:00:00 | 00:00:00 | |
| DO3MHA-11 | 2026-08-30 12:07:27 | 49.45512 | 17.68285 | 355° | 16km/h | 19496m | 4.7m/s | -55.4°C | 4.6% | 0hPa | 2.6V | 00:00:00 | 01:28:23 | 00:00:00 | |
| OE3OSB-13 | 2026-08-30 12:07:25 | 49.45509 | 17.68282 | 65° | 9km/h | 19486m | 6.0m/s | -55.4°C | 1.3% | -1.0hPa | 2.6V | 00:00:00 | 00:00:00 | 00:00:00 | |
| PETON7-10 | 2026-08-30 12:07:22 | 49.45507 | 17.68264 | 77° | 13km/h | 19469m | 6.2m/s | -55.5°C | 4.6% | 0hPa | 2.6V | 00:00:00 | 01:28:18 | 00:00:00 | |
| OE5MMP-10 | 2026-08-30 12:07:21 | 49.45505 | 17.68256 | 70° | 13km/h | 19463m | 5.5m/s | -55.4°C | 4.6% | 0hPa | 2.6V | 00:00:00 | 01:28:17 | 08:30:00 | |
| DO3MHA-11 | 2026-08-30 12:07:17 | 49.45499 | 17.68228 | 65° | 9km/h | 19443m | 4.4m/s | -55.6°C | 4.6% | 0hPa | 2.7V | 00:00:00 | 01:28:13 | 08:30:00 | |
| OE5DRO-10 | 2026-08-30 12:07:12 | 49.45492 | 17.68225 | 23° | 15km/h | 19415m | 5.2m/s | -55.6°C | 4.7% | 0hPa | 2.7V | 00:00:00 | 00:00:00 | 08:30:00 | |
| OE5MMP-10 | 2026-08-30 12:07:11 | 49.45491 | 17.68224 | 59° | 18km/h | 19410m | 3.7m/s | -55.7°C | 4.7% | 0hPa | 2.6V | 00:00:00 | 01:28:07 | 00:00:00 | |
| PG1ADW-2 | 2026-08-30 12:07:10 | 49.45490 | 17.68221 | 57° | 15km/h | 19405m | 5.7m/s | -55.7°C | 4.7% | 0hPa | 2.6V | 00:00:00 | 00:00:00 | 00:00:00 | |
| DO3MHA-11 | 2026-08-30 12:07:07 | 49.45483 | 17.68203 | 66° | 18km/h | 19389m | 5.3m/s | -55.7°C | 4.7% | 0hPa | 2.7V | 00:00:00 | 01:28:03 | 00:00:00 | |
| OE5DXL-15 | 2026-08-30 12:07:05 | 49.45479 | 17.68188 | 74° | 20km/h | 19378m | 4.4m/s | -55.9°C | 4.7% | 0hPa | 2.7V | 00:00:00 | 00:00:00 | 00:00:00 | |
| OE3OSB-13 | 2026-08-30 12:06:54 | 49.45456 | 17.68142 | 65° | 11km/h | 19315m | 4.0m/s | -56.0°C | 1.3% | -1.0hPa | 2.7V | 00:00:00 | 00:00:00 | 00:00:00 | |
| OE5DRO-10 | 2026-08-30 12:06:53 | 49.45454 | 17.68138 | 61° | 24km/h | 19310m | 5.9m/s | -56.0°C | 4.8% | 0hPa | 2.7V | 00:00:00 | 00:00:00 | 00:00:00 | |
| PETON7-10 | 2026-08-30 12:06:52 | 49.45452 | 17.68134 | 53° | 26km/h | 19304m | 5.6m/s | -56.0°C | 4.8% | 0hPa | 2.7V | 00:00:00 | 00:00:00 | 00:00:00 | |
| OE5MMP-10 | 2026-08-30 12:06:51 | 49.45450 | 17.68129 | 52° | 24km/h | 19298m | 4.9m/s | -56.0°C | 4.8% | 0hPa | 2.7V | 00:00:00 | 01:27:47 | 00:00:00 | |
| PG1ADW-2 | 2026-08-30 12:06:50 | 49.45447 | 17.68124 | 56° | 24km/h | 19293m | 6.1m/s | -56.0°C | 4.8% | 0hPa | 2.6V | 00:00:00 | 00:00:00 | 00:00:00 | |
| DO3MHA-11 | 2026-08-30 12:06:47 | 49.45440 | 17.68107 | 50° | 29km/h | 19278m | 6.5m/s | -56.1°C | 4.9% | 0hPa | 2.6V | 00:00:00 | 01:27:43 | 00:00:00 | |
| OE5MMP-10 | 2026-08-30 12:06:41 | 49.45412 | 17.68055 | 52° | 24km/h | 19244m | 5.9m/s | -56.0°C | 4.7% | 0hPa | 2.6V | 00:00:00 | 01:27:37 | 00:00:00 | |
| DO3MHA-11 | 2026-08-30 12:06:37 | 49.45395 | 17.68019 | 54° | 22km/h | 19223m | 4.4m/s | -55.9°C | 4.7% | 0hPa | 2.6V | 00:00:00 | 01:27:33 | 00:00:00 | |
| PETON7-10 | 2026-08-30 12:06:36 | 49.45392 | 17.68012 | 46° | 22km/h | 19217m | 6.6m/s | -55.9°C | 4.8% | 0hPa | 2.6V | 00:00:00 | 01:27:32 | 00:00:00 | |
| OE5DXL-15 | 2026-08-30 12:06:35 | 49.45388 | 17.68007 | 37° | 22km/h | 19211m | 5.6m/s | -55.9°C | 4.8% | 0hPa | 2.6V | 00:00:00 | 00:00:00 | 00:00:00 | |
| OE5DRO-10 | 2026-08-30 12:06:34 | 49.45383 | 17.68002 | 35° | 22km/h | 19206m | 4.7m/s | -55.9°C | 4.8% | 0hPa | 2.6V | 00:00:00 | 00:00:00 | 00:00:00 | |
| OE5MMP-10 | 2026-08-30 12:06:31 | 49.45371 | 17.67988 | 32° | 22km/h | 19190m | 6.5m/s | -55.8°C | 4.7% | 0hPa | 2.6V | 00:00:00 | 01:27:27 | 00:00:00 | |
| PG1ADW-2 | 2026-08-30 12:06:30 | 49.45367 | 17.67984 | 28° | 22km/h | 19183m | 6.4m/s | -55.8°C | 4.8% | 0hPa | 2.6V | 00:00:00 | 01:27:26 | 00:00:00 | |
| DO3MHA-11 | 2026-08-30 12:06:27 | 49.45353 | 17.67971 | 38° | 24km/h | 19166m | 4.3m/s | -55.8°C | 4.7% | 0hPa | 2.6V | 00:00:00 | 01:27:23 | 00:00:00 | |
| OE3OSB-13 | 2026-08-30 12:06:23 | 49.45333 | 17.67953 | 26° | 22km/h | 19143m | 6.2m/s | -56.0°C | 1.4% | -1.0hPa | 2.6V | 00:00:00 | 00:00:00 | 00:00:00 | |
| PETON7-10 | 2026-08-30 12:06:21 | 49.45322 | 17.67945 | 24° | 22km/h | 19132m | 4.0m/s | -55.8°C | 4.7% | 0hPa | 2.6V | 00:00:00 | 00:00:00 | 08:30:00 | |
| DO3MHA-11 | 2026-08-30 12:06:17 | 49.45298 | 17.67937 | 12° | 20km/h | 19109m | 6.4m/s | -55.8°C | 4.8% | 0hPa | 2.7V | 00:00:00 | 01:27:13 | 00:00:00 | |
| OE5DRO-10 | 2026-08-30 12:06:15 | 49.45286 | 17.67934 | 8° | 16km/h | 19098m | 7.1m/s | -55.8°C | 4.8% | 0hPa | 2.6V | 00:00:00 | 00:00:00 | 00:00:00 | |
| OE5MMP-10 | 2026-08-30 12:06:11 | 49.45265 | 17.67931 | 8° | 16km/h | 19075m | 4.6m/s | -55.6°C | 4.7% | 0hPa | 2.6V | 00:00:00 | 01:27:07 | 00:00:00 | |
| PG1ADW-2 | 2026-08-30 12:06:10 | 49.45260 | 17.67930 | 3° | 15km/h | 19070m | 5.7m/s | -55.7°C | 4.8% | 0hPa | 2.6V | 00:00:00 | 00:00:00 | 08:30:00 | |
| DO3MHA-11 | 2026-08-30 12:06:07 | 49.45248 | 17.67933 | 356° | 15km/h | 19053m | 5.2m/s | -55.6°C | 4.7% | 0hPa | 2.6V | 00:00:00 | 01:27:03 | 00:00:00 | |
| PETON7-10 | 2026-08-30 12:06:06 | 49.45244 | 17.67932 | 7° | 13km/h | 19047m | 6.2m/s | -55.5°C | 4.7% | 0hPa | 2.6V | 00:00:00 | 00:00:00 | 00:00:00 | |
| OE5DXL-15 | 2026-08-30 12:06:05 | 49.45240 | 17.67932 | 13° | 11km/h | 19042m | 4.5m/s | -55.6°C | 4.7% | 0hPa | 2.6V | 00:00:00 | 00:00:00 | 00:00:00 | |
| OE3OSB-13 | 2026-08-30 12:05:52 | 49.45202 | 17.67945 | 348° | 15km/h | 18972m | 5.2m/s | -55.6°C | 1.3% | -1.0hPa | 2.6V | 00:00:00 | 00:00:00 | 00:00:00 | |
| PETON7-10 | 2026-08-30 12:05:51 | 49.45198 | 17.67946 | 344° | 7km/h | 18967m | 5.2m/s | -55.5°C | 4.7% | 0hPa | 2.6V | 00:00:00 | 01:26:47 | 00:00:00 | |
| PG1ADW-2 | 2026-08-30 12:05:50 | 49.45195 | 17.67948 | 344° | 7km/h | 18962m | 4.5m/s | -55.5°C | 4.7% | 0hPa | 2.6V | 00:00:00 | 00:00:00 | 00:00:00 | |
| DO3MHA-11 | 2026-08-30 12:05:47 | 49.45189 | 17.67946 | 51° | 5km/h | 18946m | 5.3m/s | -55.3°C | 4.6% | 0hPa | 2.6V | 00:00:00 | 01:26:43 | 08:30:00 | |
| DO3MHA-11 | 2026-08-30 12:05:37 | 49.45176 | 17.67942 | 55° | 11km/h | 18889m | 5.6m/s | -55.6°C | 4.8% | 0hPa | 2.7V | 00:00:00 | 01:26:33 | 00:00:00 | |
| PETON7-10 | 2026-08-30 12:05:36 | 49.45175 | 17.67938 | 78° | 13km/h | 18883m | 6.6m/s | -55.6°C | 4.8% | 0hPa | 2.7V | 00:00:00 | 00:00:00 | 00:00:00 | |
| OE5DXL-15 | 2026-08-30 12:05:35 | 49.45175 | 17.67934 | 100° | 15km/h | 18877m | 5.1m/s | -55.6°C | 4.8% | 0hPa | 2.6V | 00:00:00 | 00:00:00 | 00:00:00 | |
| OE5MMP-10 | 2026-08-30 12:05:33 | 49.45177 | 17.67926 | 131° | 11km/h | 18866m | 5.9m/s | -55.5°C | 4.7% | 0hPa | 2.6V | 00:00:00 | 01:26:29 | 08:30:00 | |
| PG1ADW-2 | 2026-08-30 12:05:30 | 49.45183 | 17.67919 | 142° | 15km/h | 18850m | 5.9m/s | -55.6°C | 4.7% | 0hPa | 2.7V | 00:00:00 | 00:00:00 | 00:00:00 | |
| DO3MHA-11 | 2026-08-30 12:05:27 | 49.45187 | 17.67912 | 81° | 16km/h | 18832m | 5.1m/s | -55.4°C | 4.6% | 0hPa | 2.7V | 00:00:00 | 01:26:23 | 00:00:00 | |
| OE5MMP-10 | 2026-08-30 12:05:23 | 49.45180 | 17.67890 | 64° | 16km/h | 18810m | 4.6m/s | -55.5°C | 4.5% | 0hPa | 2.7V | 00:00:00 | 01:26:19 | 00:00:00 | |
| PETON7-10 | 2026-08-30 12:05:21 | 49.45176 | 17.67876 | 69° | 16km/h | 18800m | 3.9m/s | -55.5°C | 4.6% | 0hPa | 2.7V | 00:00:00 | 00:00:00 | 00:00:00 | |
| OE5DRO-10 | 2026-08-30 12:05:18 | 49.45177 | 17.67859 | 125° | 18km/h | 18783m | 5.3m/s | -55.6°C | 4.8% | 0hPa | 2.7V | 00:00:00 | 00:00:00 | 00:00:00 | |
| DO3MHA-11 | 2026-08-30 12:05:17 | 49.45180 | 17.67854 | 136° | 16km/h | 18778m | 5.3m/s | -55.7°C | 4.9% | 0hPa | 2.6V | 00:00:00 | 01:26:13 | 00:00:00 | |
| OE5MMP-10 | 2026-08-30 12:05:12 | 49.45193 | 17.67834 | 120° | 20km/h | 18751m | 4.9m/s | -55.7°C | 4.8% | 0hPa | 2.6V | 00:00:00 | 01:26:08 | 00:00:00 | |
| PG1ADW-2 | 2026-08-30 12:05:10 | 49.45196 | 17.67823 | 94° | 20km/h | 18739m | 6.3m/s | -55.7°C | 4.8% | 0hPa | 2.6V | 00:00:00 | 01:26:06 | 00:00:00 | |
| DO3MHA-11 | 2026-08-30 12:05:07 | 49.45195 | 17.67802 | 91° | 20km/h | 18721m | 5.7m/s | -55.6°C | 4.8% | 0hPa | 2.7V | 00:00:00 | 01:26:03 | 00:00:00 | |
| PETON7-10 | 2026-08-30 12:05:06 | 49.45195 | 17.67794 | 87° | 20km/h | 18716m | 5.0m/s | -55.6°C | 4.7% | 0hPa | 2.7V | 00:00:00 | 01:26:02 | 00:00:00 | |
| OE5DXL-15 | 2026-08-30 12:05:05 | 49.45195 | 17.67786 | 83° | 24km/h | 18710m | 6.4m/s | -55.5°C | 4.7% | 0hPa | 2.7V | 00:00:00 | 00:00:00 | 00:00:00 | |
| OE3OSB-13 | 2026-08-30 12:04:50 | 49.45191 | 17.67659 | 68° | 22km/h | 18621m | 6.6m/s | -55.0°C | 1.3% | -1.0hPa | 2.7V | 00:00:00 | 00:00:00 | 00:00:00 | |
| DO3MHA-11 | 2026-08-30 12:04:47 | 49.45185 | 17.67641 | 67° | 27km/h | 18610m | 6.3m/s | -54.9°C | 4.6% | 0hPa | 2.7V | 00:00:00 | 01:25:43 | 00:00:00 | |
| OE5MMP-10 | 2026-08-30 12:04:40 | 49.45173 | 17.67565 | 92° | 29km/h | 18571m | 5.8m/s | -54.9°C | 4.6% | 0hPa | 2.7V | 00:00:00 | 01:25:36 | 00:00:00 | |
| DO3MHA-11 | 2026-08-30 12:04:37 | 49.45173 | 17.67534 | 78° | 29km/h | 18556m | 5.6m/s | -54.7°C | 4.5% | 0hPa | 2.7V | 00:00:00 | 01:25:33 | 00:00:00 | |
| PETON7-10 | 2026-08-30 12:04:36 | 49.45171 | 17.67524 | 69° | 27km/h | 18551m | 4.6m/s | -54.7°C | 4.5% | 0hPa | 2.7V | 00:00:00 | 00:00:00 | 00:00:00 | |
| OE5DXL-15 | 2026-08-30 12:04:35 | 49.45168 | 17.67513 | 67° | 26km/h | 18546m | 5.1m/s | -54.7°C | 4.5% | 0hPa | 2.7V | 00:00:00 | 00:00:00 | 00:00:00 | |
| OE5MMP-10 | 2026-08-30 12:04:30 | 49.45155 | 17.67456 | 80° | 26km/h | 18519m | 3.9m/s | -54.6°C | 4.6% | 0hPa | 2.7V | 00:00:00 | 01:25:26 | 00:00:00 | |
| DO3MHA-11 | 2026-08-30 12:04:27 | 49.45154 | 17.67427 | 91° | 27km/h | 18503m | 4.0m/s | -54.6°C | 4.6% | 0hPa | 2.6V | 00:00:00 | 01:25:23 | 00:00:00 | |
| OE5MMP-10 | 2026-08-30 12:04:20 | 49.45137 | 17.67360 | 63° | 26km/h | 18467m | 4.7m/s | -54.6°C | 4.5% | 0hPa | 2.6V | 00:00:00 | 01:25:16 | 00:00:00 | |
| OE3OSB-13 | 2026-08-30 12:04:19 | 49.45130 | 17.67341 | 60° | 26km/h | 18455m | 4.6m/s | -54.5°C | 1.3% | -1.0hPa | 2.6V | 00:00:00 | 00:00:00 | 00:00:00 | |
| DO3MHA-11 | 2026-08-30 12:04:17 | 49.45127 | 17.67332 | 65° | 24km/h | 18450m | 6.2m/s | -54.4°C | 4.4% | 0hPa | 2.6V | 00:00:00 | 01:25:13 | 08:30:00 | |
| PG1ADW-2 | 2026-08-30 12:04:10 | 49.45121 | 17.67266 | 90° | 22km/h | 18411m | 3.9m/s | -54.3°C | 4.4% | 0hPa | 2.7V | 00:00:00 | 00:00:00 | 00:00:00 | |
| DO3MHA-11 | 2026-08-30 12:04:07 | 49.45118 | 17.67241 | 64° | 22km/h | 18397m | 4.6m/s | -54.2°C | 4.4% | 0hPa | 2.6V | 00:00:00 | 01:25:03 | 00:00:00 | |
| PETON7-10 | 2026-08-30 12:04:06 | 49.45116 | 17.67235 | 56° | 22km/h | 18392m | 4.8m/s | -54.1°C | 4.4% | 0hPa | 2.6V | 00:00:00 | 00:00:00 | 08:30:00 | |
| OE5DXL-15 | 2026-08-30 12:04:05 | 49.45113 | 17.67229 | 54° | 22km/h | 18386m | 6.1m/s | -54.1°C | 4.4% | 0hPa | 2.6V | 00:00:00 | 00:00:00 | 00:00:00 | |
| OE3OSB-13 | 2026-08-30 12:03:48 | 49.45075 | 17.67090 | 65° | 18km/h | 18290m | 5.8m/s | -54.3°C | 1.3% | -1.0hPa | 2.6V | 00:00:00 | 00:00:00 | 00:00:00 | |
| DO3MHA-11 | 2026-08-30 12:03:47 | 49.45075 | 17.67090 | 66° | 20km/h | 18290m | 5.7m/s | -54.3°C | 4.3% | 0hPa | 2.6V | 00:00:00 | 01:24:43 | 00:00:00 | |
| OE5DRO-10 | 2026-08-30 12:03:43 | 49.45068 | 17.67065 | 66° | 20km/h | 18268m | 5.6m/s | -54.1°C | 4.2% | 0hPa | 2.7V | 00:00:00 | 00:00:00 | 00:00:00 | |
| OE5MMP-10 | 2026-08-30 12:03:38 | 49.45051 | 17.67031 | 41° | 20km/h | 18240m | 5.2m/s | 0°C | 0% | 0hPa | 2.7V | 00:00:00 | 01:24:34 | 00:00:00 | |
| DO3MHA-11 | 2026-08-30 12:03:37 | 49.45045 | 17.67025 | 35° | 18km/h | 18235m | 5.5m/s | -54.4°C | 4.3% | 0hPa | 2.7V | 00:00:00 | 01:24:33 | 00:00:00 | |
| PETON7-10 | 2026-08-30 12:03:36 | 49.45039 | 17.67019 | 30° | 18km/h | 18229m | 5.5m/s | -54.5°C | 4.3% | 0hPa | 2.7V | 00:00:00 | 01:24:32 | 00:00:00 | |
| OE5DXL-15 | 2026-08-30 12:03:35 | 49.45034 | 17.67014 | 30° | 16km/h | 18224m | 4.4m/s | -54.7°C | 4.4% | 0hPa | 2.7V | 00:00:00 | 00:00:00 | 00:00:00 | |
| PG1ADW-2 | 2026-08-30 12:03:30 | 49.45017 | 17.66993 | 55° | 16km/h | 18196m | 5.2m/s | -55.4°C | 4.7% | 0hPa | 2.7V | 00:00:00 | 00:00:00 | 00:00:00 | |
| OE5MMP-10 | 2026-08-30 12:03:28 | 49.45014 | 17.66984 | 62° | 18km/h | 18184m | 5.2m/s | 0°C | 0% | 0hPa | 2.7V | 00:00:00 | 01:24:24 | 00:00:00 | |
| DO3MHA-11 | 2026-08-30 12:03:27 | 49.45011 | 17.66979 | 53° | 18km/h | 18179m | 5.0m/s | -55.7°C | 4.8% | 0hPa | 2.7V | 00:00:00 | 01:24:23 | 00:00:00 | |
| OE5DRO-10 | 2026-08-30 12:03:24 | 49.44999 | 17.66966 | 26° | 16km/h | 18164m | 5.8m/s | -55.7°C | 4.6% | 0hPa | 2.7V | 00:00:00 | 00:00:00 | 00:00:00 | |
| PETON7-10 | 2026-08-30 12:03:21 | 49.44982 | 17.66954 | 20° | 15km/h | 18147m | 6.5m/s | -55.5°C | 4.7% | 0hPa | 2.6V | 00:00:00 | 00:00:00 | 00:00:00 | |
| OE5MMP-10 | 2026-08-30 12:03:18 | 49.44972 | 17.66950 | 30° | 15km/h | 18130m | 7.3m/s | 0°C | 0% | 0hPa | 2.6V | 00:00:00 | 01:24:14 | 00:00:00 | |
| OE3OSB-13 | 2026-08-30 12:03:17 | 49.44969 | 17.66946 | 17° | 7km/h | 18118m | 6.8m/s | -55.4°C | 1.4% | -1.0hPa | 2.6V | 00:00:00 | 00:00:00 | 00:00:00 | |
| PG1ADW-2 | 2026-08-30 12:03:10 | 49.44946 | 17.66938 | 8° | 13km/h | 18084m | 5.3m/s | -55.4°C | 4.7% | 0hPa | 2.6V | 00:00:00 | 00:00:00 | 08:30:00 | |
| DO3MHA-11 | 2026-08-30 12:03:09 | 49.44942 | 17.66937 | 10° | 9km/h | 18079m | 4.6m/s | -55.4°C | 4.6% | 0hPa | 2.7V | 00:00:00 | 01:24:05 | 00:00:00 | |
| OE5MMP-10 | 2026-08-30 12:03:08 | 49.44937 | 17.66936 | 16° | 13km/h | 18073m | 6.7m/s | 0°C | 0% | 0hPa | 2.7V | 00:00:00 | 01:24:04 | 00:00:00 | |
| PETON7-10 | 2026-08-30 12:03:06 | 49.44930 | 17.66932 | 19° | 11km/h | 18062m | 5.4m/s | -55.7°C | 4.7% | 0hPa | 2.7V | 00:00:00 | 00:00:00 | 00:00:00 | |
| OE5DXL-15 | 2026-08-30 12:03:05 | 49.44928 | 17.66931 | 8° | 15km/h | 18056m | 5.9m/s | -55.6°C | 4.7% | 0hPa | 2.7V | 00:00:00 | 01:24:01 | 08:30:00 | |
| DO3MHA-11 | 2026-08-30 12:02:59 | 49.44921 | 17.66922 | 30° | 16km/h | 18023m | 4.6m/s | -55.5°C | 4.7% | 0hPa | 2.7V | 00:00:00 | 01:23:55 | 00:00:00 | |
| PETON7-10 | 2026-08-30 12:02:51 | 49.44899 | 17.66887 | 54° | 18km/h | 17981m | 6.2m/s | -55.9°C | 4.7% | 0hPa | 2.7V | 00:00:00 | 01:23:47 | 00:00:00 | |
| PG1ADW-2 | 2026-08-30 12:02:50 | 49.44897 | 17.66881 | 58° | 16km/h | 17974m | 6.3m/s | -56.0°C | 4.8% | 0hPa | 2.7V | 00:00:00 | 00:00:00 | 00:00:00 | |
| DO3MHA-11 | 2026-08-30 12:02:49 | 49.44894 | 17.66874 | 61° | 18km/h | 17969m | 5.0m/s | -56.0°C | 4.8% | 0hPa | 2.7V | 00:00:00 | 01:23:45 | 00:00:00 | |
| OE5DRO-10 | 2026-08-30 12:02:46 | 49.44886 | 17.66854 | 58° | 15km/h | 17952m | 3.9m/s | -56.2°C | 4.9% | 0hPa | 2.7V | 00:00:00 | 00:00:00 | 00:00:00 | |
| DO3MHA-11 | 2026-08-30 12:02:39 | 49.44880 | 17.66811 | 83° | 13km/h | 17915m | 6.2m/s | -56.0°C | 4.8% | 0hPa | 2.7V | 00:00:00 | 01:23:35 | 08:30:00 | |
| PETON7-10 | 2026-08-30 12:02:36 | 49.44875 | 17.66793 | 55° | 13km/h | 17898m | 6.2m/s | -56.0°C | 4.9% | 0hPa | 2.7V | 00:00:00 | 00:00:00 | 00:00:00 | |
| OE5DXL-15 | 2026-08-30 12:02:35 | 49.44873 | 17.66789 | 46° | 16km/h | 17892m | 5.4m/s | -55.9°C | 4.9% | 0hPa | 2.7V | 00:00:00 | 00:00:00 | 00:00:00 | |
| HA6NAB-11 | 2026-08-30 12:02:34 | 49.44873 | 17.66789 | 46° | 13km/h | 17892m | 5.5m/s | -56.0°C | 0% | 0hPa | 2.7V | 00:00:00 | 00:00:00 | 00:00:00 | |
| OE5MMP-10 | 2026-08-30 12:02:33 | 49.44868 | 17.66782 | 45° | 16km/h | 17880m | 6.6m/s | 0°C | 0% | 0hPa | 2.7V | 00:00:00 | 01:23:29 | 00:00:00 | |
| DO3MHA-11 | 2026-08-30 12:02:30 | 49.44859 | 17.66773 | 34° | 16km/h | 17857m | 5.6m/s | -56.0°C | 5.0% | 0hPa | 2.7V | 00:00:00 | 01:23:25 | 00:00:00 | |
| OE5DRO-10 | 2026-08-30 12:02:27 | 49.44856 | 17.66768 | 48° | 18km/h | 17845m | 5.4m/s | -56.0°C | 4.9% | 0hPa | 2.7V | 00:00:00 | 00:00:00 | 00:00:00 | |
| HA6NAB-11 | 2026-08-30 12:02:22 | 49.44842 | 17.66757 | 25° | 20km/h | 17823m | 7.1m/s | -55.9°C | 0% | 0hPa | 2.7V | 00:00:00 | 00:00:00 | 00:00:00 | |
| PETON7-10 | 2026-08-30 12:02:21 | 49.44832 | 17.66749 | 23° | 18km/h | 17811m | 4.9m/s | -55.9°C | 4.8% | 0hPa | 2.7V | 00:00:00 | 00:00:00 | 00:00:00 | |
| OE5MMP-10 | 2026-08-30 12:02:20 | 49.44827 | 17.66747 | 18° | 22km/h | 17806m | 6.1m/s | 0°C | 0% | 0hPa | 2.7V | 00:00:00 | 01:23:16 | 00:00:00 | |
| DO3MHA-11 | 2026-08-30 12:02:19 | 49.44822 | 17.66745 | 15° | 16km/h | 17800m | 4.5m/s | -55.7°C | 4.8% | 0hPa | 2.7V | 00:00:00 | 01:23:15 | 00:00:00 | |
| OE3OSB-13 | 2026-08-30 12:02:15 | 49.44801 | 17.66733 | 20° | 11km/h | 17771m | 4.8m/s | -55.7°C | 1.4% | -1.0hPa | 2.7V | 00:00:00 | 00:00:00 | 00:00:00 | |
| PG1ADW-2 | 2026-08-30 12:02:10 | 49.44787 | 17.66726 | 4° | 20km/h | 17748m | 6.2m/s | -55.7°C | 4.9% | 0hPa | 2.7V | 00:00:00 | 00:00:00 | 00:00:00 | |
| DO3MHA-11 | 2026-08-30 12:02:09 | 49.44782 | 17.66726 | 3° | 20km/h | 17743m | 4.7m/s | -55.7°C | 5.0% | 0hPa | 2.7V | 00:00:00 | 01:23:05 | 00:00:00 | |
| OE5DRO-10 | 2026-08-30 12:02:08 | 49.44776 | 17.66725 | 6° | 20km/h | 17737m | 6.5m/s | -55.7°C | 5.0% | 0hPa | 2.7V | 00:00:00 | 00:00:00 | 00:00:00 | |
| HA6NAB-11 | 2026-08-30 12:02:07 | 49.44776 | 17.66725 | 7° | 24km/h | 17737m | 6.6m/s | -55.8°C | 0% | 0hPa | 2.7V | 00:00:00 | 00:00:00 | 00:00:00 | |
| PETON7-10 | 2026-08-30 12:02:06 | 49.44763 | 17.66721 | 14° | 20km/h | 17726m | 4.6m/s | -55.7°C | 5.0% | 0hPa | 2.7V | 00:00:00 | 01:23:02 | 00:00:00 | |
| OE5DXL-15 | 2026-08-30 12:02:05 | 49.44758 | 17.66719 | 13° | 18km/h | 17720m | 6.4m/s | -55.6°C | 5.0% | 0hPa | 2.7V | 00:00:00 | 00:00:00 | 00:00:00 | |
| OE5MMP-10 | 2026-08-30 12:02:04 | 49.44753 | 17.66717 | 18° | 18km/h | 17715m | 4.3m/s | 0°C | 0% | 0hPa | 2.7V | 00:00:00 | 01:23:00 | 00:00:00 | |
| SQ9EZE-14 | 2026-08-30 12:02:02 | 49.44748 | 17.66715 | 25° | 18km/h | 17709m | 7.1m/s | 0°C | 0% | 0hPa | 2.7V | 00:00:00 | 00:00:00 | 00:00:00 | |
| OE5MMP-10 | 2026-08-30 12:01:54 | 49.44707 | 17.66704 | 355° | 20km/h | 17658m | 4.0m/s | 0°C | 0% | 0hPa | 2.7V | 00:00:00 | 01:22:50 | 00:00:00 | |
| PETON7-10 | 2026-08-30 12:01:51 | 49.44692 | 17.66701 | 26° | 18km/h | 17642m | 4.8m/s | -55.3°C | 4.7% | 0hPa | 2.7V | 00:00:00 | 00:00:00 | 08:30:00 | |
| PG1ADW-2 | 2026-08-30 12:01:50 | 49.44688 | 17.66697 | 30° | 16km/h | 17636m | 6.4m/s | -55.2°C | 4.7% | 0hPa | 2.6V | 00:00:00 | 00:00:00 | 00:00:00 | |
| DO3MHA-11 | 2026-08-30 12:01:49 | 49.44685 | 17.66694 | 38° | 18km/h | 17631m | 4.9m/s | -55.1°C | 4.7% | 0hPa | 2.6V | 00:00:00 | 01:22:45 | 00:00:00 | |
| OE3OSB-13 | 2026-08-30 12:01:44 | 49.44665 | 17.66671 | 20° | 16km/h | 17599m | 3.2m/s | -55.1°C | 1.4% | -1.0hPa | 2.6V | 00:00:00 | 00:00:00 | 00:00:00 | |
| DO3MHA-11 | 2026-08-30 12:01:39 | 49.44645 | 17.66662 | 10° | 15km/h | 17577m | 6.4m/s | -55.3°C | 4.7% | 0hPa | 2.6V | 00:00:00 | 01:22:35 | 00:00:00 | |
| PETON7-10 | 2026-08-30 12:01:36 | 49.44633 | 17.66658 | 24° | 15km/h | 17560m | 6.9m/s | -55.4°C | 4.7% | 0hPa | 2.6V | 00:00:00 | 00:00:00 | 00:00:00 | |
| PG1ADW-2 | 2026-08-30 12:01:30 | 49.44619 | 17.66635 | 45° | 13km/h | 17528m | 5.3m/s | -55.3°C | 4.7% | 0hPa | 2.6V | 00:00:00 | 00:00:00 | 00:00:00 | |
| DO3MHA-11 | 2026-08-30 12:01:29 | 49.44616 | 17.66631 | 32° | 15km/h | 17522m | 6.0m/s | -55.2°C | 4.7% | 0hPa | 2.6V | 00:00:00 | 01:22:25 | 00:00:00 | |
| GYPAP8-17 | 2026-08-30 12:01:27 | 49.44612 | 17.66629 | 17° | 16km/h | 17517m | 4.2m/s | 0°C | 0% | 0hPa | 2.6V | 00:00:00 | 00:00:00 | 00:00:00 | |
| PETON7-10 | 2026-08-30 12:01:21 | 49.44585 | 17.66618 | 55° | 11km/h | 17483m | 5.1m/s | -55.1°C | 4.8% | 0hPa | 2.6V | 00:00:00 | 01:22:17 | 00:00:00 | |
| DO3MHA-11 | 2026-08-30 12:01:19 | 49.44583 | 17.66611 | 69° | 11km/h | 17472m | 4.8m/s | -55.2°C | 4.9% | 0hPa | 2.6V | 00:00:00 | 01:22:15 | 00:00:00 | |
| OE3OSB-13 | 2026-08-30 12:01:12 | 49.44567 | 17.66590 | 22° | 13km/h | 17436m | 5.4m/s | -55.1°C | 1.4% | -1.0hPa | 2.6V | 00:00:00 | 00:00:00 | 00:00:00 | |
| PG1ADW-2 | 2026-08-30 12:01:10 | 49.44562 | 17.66586 | 35° | 13km/h | 17427m | 5.1m/s | -55.1°C | 4.7% | 0hPa | 2.6V | 00:00:00 | 01:22:06 | 00:00:00 | |
| DO3MHA-11 | 2026-08-30 12:01:09 | 49.44561 | 17.66584 | 60° | 13km/h | 17421m | 5.7m/s | -55.0°C | 4.7% | 0hPa | 2.7V | 00:00:00 | 01:22:05 | 08:30:00 | |
| PETON7-10 | 2026-08-30 12:01:06 | 49.44558 | 17.66573 | 59° | 15km/h | 17406m | 4.6m/s | -54.9°C | 4.7% | 0hPa | 2.7V | 00:00:00 | 00:00:00 | 00:00:00 | |
| OE5DXL-15 | 2026-08-30 12:01:05 | 49.44556 | 17.66571 | 49° | 13km/h | 17401m | 4.7m/s | -54.9°C | 4.6% | 0hPa | 2.7V | 00:00:00 | 00:00:00 | 00:00:00 | |
| DO3MHA-11 | 2026-08-30 12:00:59 | 49.44537 | 17.66547 | 42° | 13km/h | 17370m | 5.6m/s | -54.9°C | 4.7% | 0hPa | 2.7V | 00:00:00 | 01:21:55 | 00:00:00 | |
| OE5DRO-10 | 2026-08-30 12:00:52 | 49.44524 | 17.66516 | 44° | 11km/h | 17336m | 5.6m/s | -55.0°C | 4.7% | 0hPa | 2.7V | 00:00:00 | 00:00:00 | 00:00:00 | |
| PETON7-10 | 2026-08-30 12:00:51 | 49.44522 | 17.66513 | 48° | 13km/h | 17330m | 5.5m/s | -55.0°C | 4.8% | 0hPa | 2.7V | 00:00:00 | 00:00:00 | 00:00:00 | |
| PG1ADW-2 | 2026-08-30 12:00:50 | 49.44520 | 17.66509 | 44° | 11km/h | 17325m | 4.8m/s | -55.0°C | 4.8% | 0hPa | 2.7V | 00:00:00 | 00:00:00 | 00:00:00 | |
| DO3MHA-11 | 2026-08-30 12:00:49 | 49.44517 | 17.66506 | 30° | 13km/h | 17319m | 6.1m/s | -54.9°C | 4.7% | 0hPa | 2.7V | 00:00:00 | 01:21:45 | 00:00:00 | |
| OE3OSB-13 | 2026-08-30 12:00:41 | 49.44496 | 17.66494 | 32° | 16km/h | 17278m | 5.8m/s | -54.8°C | 1.4% | -1.0hPa | 2.7V | 00:00:00 | 00:00:00 | 00:00:00 | |
| DO3MHA-11 | 2026-08-30 12:00:39 | 49.44489 | 17.66485 | 35° | 7km/h | 17269m | 4.5m/s | -54.7°C | 4.4% | 0hPa | 2.7V | 00:00:00 | 01:21:35 | 00:00:00 | |
| PETON7-10 | 2026-08-30 12:00:36 | 49.44483 | 17.66477 | 84° | 11km/h | 17254m | 6.1m/s | -54.8°C | 4.5% | 0hPa | 2.7V | 00:00:00 | 01:21:32 | 00:00:00 | |
| OE5DXL-15 | 2026-08-30 12:00:35 | 49.44483 | 17.66475 | 121° | 13km/h | 17249m | 5.2m/s | -54.9°C | 4.6% | 0hPa | 2.7V | 00:00:00 | 00:00:00 | 00:00:00 | |
| PG1ADW-2 | 2026-08-30 12:00:30 | 49.44486 | 17.66466 | 73° | 15km/h | 17225m | 5.3m/s | -54.9°C | 4.6% | 0hPa | 2.7V | 00:00:00 | 00:00:00 | 00:00:00 | |
| DO3MHA-11 | 2026-08-30 12:00:29 | 49.44485 | 17.66462 | 68° | 13km/h | 17220m | 5.0m/s | -54.9°C | 4.7% | 0hPa | 2.7V | 00:00:00 | 01:21:25 | 00:00:00 | |
| PETON7-10 | 2026-08-30 12:00:21 | 49.44471 | 17.66427 | 88° | 16km/h | 17180m | 4.7m/s | -55.1°C | 4.6% | 0hPa | 2.7V | 00:00:00 | 00:00:00 | 00:00:00 | |
| DO3MHA-11 | 2026-08-30 12:00:19 | 49.44471 | 17.66418 | 100° | 18km/h | 17169m | 6.5m/s | -55.1°C | 4.7% | 0hPa | 2.7V | 00:00:00 | 01:21:15 | 00:00:00 | |
| OE5DRO-10 | 2026-08-30 12:00:14 | 49.44471 | 17.66387 | 82° | 15km/h | 17142m | 6.2m/s | -55.1°C | 4.7% | 0hPa | 2.7V | 00:00:00 | 00:00:00 | 00:00:00 | |
| PG1ADW-2 | 2026-08-30 12:00:10 | 49.44466 | 17.66358 | 77° | 15km/h | 17121m | 6.0m/s | -55.2°C | 4.7% | 0hPa | 2.7V | 00:00:00 | 00:00:00 | 08:30:00 | |
| DO3MHA-11 | 2026-08-30 12:00:09 | 49.44466 | 17.66351 | 82° | 13km/h | 17115m | 5.0m/s | -55.1°C | 4.7% | 0hPa | 2.7V | 00:00:00 | 01:21:05 | 00:00:00 | |
| PETON7-10 | 2026-08-30 12:00:06 | 49.44465 | 17.66334 | 99° | 13km/h | 17100m | 5.2m/s | -55.1°C | 4.8% | 0hPa | 2.7V | 00:00:00 | 00:00:00 | 00:00:00 | |
| OE5DXL-15 | 2026-08-30 12:00:05 | 49.44466 | 17.66331 | 110° | 16km/h | 17096m | 3.5m/s | -55.1°C | 4.8% | 0hPa | 2.7V | 00:00:00 | 00:00:00 | 00:00:00 | |
| DO3MHA-11 | 2026-08-30 11:59:59 | 49.44467 | 17.66302 | 75° | 15km/h | 17064m | 6.1m/s | -54.9°C | 4.7% | 0hPa | 2.7V | 00:00:00 | 01:20:55 | 00:00:00 | |
| OE5DRO-10 | 2026-08-30 11:59:55 | 49.44462 | 17.66279 | 61° | 18km/h | 17042m | 3.8m/s | -54.7°C | 4.6% | 0hPa | 2.7V | 00:00:00 | 00:00:00 | 00:00:00 | |
| PG1ADW-2 | 2026-08-30 11:59:51 | 49.44456 | 17.66251 | 82° | 22km/h | 17016m | 5.9m/s | -54.7°C | 4.6% | 0hPa | 2.7V | 00:00:00 | 01:20:46 | 00:00:00 | |
| DO3MHA-11 | 2026-08-30 11:59:49 | 49.44455 | 17.66246 | 82° | 20km/h | 17011m | 4.1m/s | -54.6°C | 4.6% | 0hPa | 2.7V | 00:00:00 | 01:20:45 | 00:00:00 | |
| OE3JTB-15 | 2026-08-30 11:59:46 | 49.44453 | 17.66226 | 81° | 24km/h | 16994m | 5.0m/s | -54.6°C | 4.5% | 0hPa | 2.7V | 00:00:00 | 00:00:00 | 00:00:00 | |
| OE3OSB-13 | 2026-08-30 11:59:40 | 49.44448 | 17.66166 | 83° | 20km/h | 16955m | 6.0m/s | -54.7°C | 1.4% | -1.0hPa | 2.7V | 00:00:00 | 00:00:00 | 00:00:00 | |
| DO3MHA-11 | 2026-08-30 11:59:39 | 49.44448 | 17.66166 | 84° | 24km/h | 16955m | 6.0m/s | -54.7°C | 4.7% | 0hPa | 2.7V | 00:00:00 | 01:20:35 | 08:30:00 | |
| PETON7-10 | 2026-08-30 11:59:36 | 49.44446 | 17.66142 | 81° | 26km/h | 16939m | 5.5m/s | -54.6°C | 4.6% | 0hPa | 2.7V | 00:00:00 | 00:00:00 | 08:30:00 | |
| OE5DXL-15 | 2026-08-30 11:59:35 | 49.44446 | 17.66133 | 86° | 27km/h | 16934m | 4.8m/s | -54.6°C | 4.6% | 0hPa | 2.7V | 00:00:00 | 00:00:00 | 00:00:00 | |
| PG1ADW-2 | 2026-08-30 11:59:30 | 49.44445 | 17.66081 | 89° | 27km/h | 16907m | 5.8m/s | -54.5°C | 4.6% | 0hPa | 2.7V | 00:00:00 | 00:00:00 | 00:00:00 | |
| DO3MHA-11 | 2026-08-30 11:59:29 | 49.44445 | 17.66069 | 90° | 26km/h | 16902m | 4.7m/s | -54.4°C | 4.5% | 0hPa | 2.7V | 00:00:00 | 01:20:25 | 00:00:00 | |
| PETON7-10 | 2026-08-30 11:59:21 | 49.44432 | 17.65992 | 80° | 27km/h | 16860m | 4.5m/s | -54.2°C | 4.6% | 0hPa | 2.7V | 00:00:00 | 00:00:00 | 00:00:00 | |
| DO3MHA-11 | 2026-08-30 11:59:19 | 49.44431 | 17.65972 | 88° | 22km/h | 16849m | 6.9m/s | -54.3°C | 4.6% | 0hPa | 2.7V | 00:00:00 | 01:20:15 | 00:00:00 | |
| OE5DRO-10 | 2026-08-30 11:59:17 | 49.44431 | 17.65953 | 92° | 26km/h | 16840m | 2.8m/s | -54.2°C | 4.5% | 0hPa | 2.7V | 00:00:00 | 00:00:00 | 00:00:00 | |
| PG1ADW-2 | 2026-08-30 11:59:10 | 49.44425 | 17.65876 | 67° | 22km/h | 16805m | 5.2m/s | -53.9°C | 4.5% | 0hPa | 2.7V | 00:00:00 | 00:00:00 | 00:00:00 | |
| OE3OSB-13 | 2026-08-30 11:59:08 | 49.44418 | 17.65857 | 56° | 26km/h | 16796m | 5.5m/s | -53.9°C | 1.4% | -1.0hPa | 2.7V | 00:00:00 | 00:00:00 | 00:00:00 | |
| OE3JTB-15 | 2026-08-30 11:59:07 | 49.44415 | 17.65849 | 55° | 20km/h | 16790m | 6.1m/s | -53.7°C | 4.5% | 0hPa | 2.7V | 00:00:00 | 01:20:03 | 00:00:00 | |
| PETON7-10 | 2026-08-30 11:59:06 | 49.44412 | 17.65843 | 59° | 22km/h | 16785m | 3.8m/s | -53.7°C | 4.5% | 0hPa | 2.7V | 00:00:00 | 01:20:02 | 00:00:00 | |
| OE5DXL-15 | 2026-08-30 11:59:05 | 49.44410 | 17.65836 | 66° | 18km/h | 16781m | 5.3m/s | -53.7°C | 4.5% | 0hPa | 2.7V | 00:00:00 | 00:00:00 | 00:00:00 | |
| OE5DRO-10 | 2026-08-30 11:58:58 | 49.44397 | 17.65779 | 74° | 20km/h | 16742m | 6.2m/s | -53.5°C | 4.4% | 0hPa | 2.7V | 00:00:00 | 00:00:00 | 00:00:00 | |
| DO3MHA-11 | 2026-08-30 11:58:53 | 49.44390 | 17.65739 | 70° | 20km/h | 16715m | 6.0m/s | -53.3°C | 4.4% | 0hPa | 2.7V | 00:00:00 | 01:19:49 | 00:00:00 | |
| PETON7-10 | 2026-08-30 11:58:51 | 49.44386 | 17.65725 | 66° | 16km/h | 16705m | 5.5m/s | -53.2°C | 4.4% | 0hPa | 2.7V | 00:00:00 | 00:00:00 | 00:00:00 | |
| PG1ADW-2 | 2026-08-30 11:58:50 | 49.44384 | 17.65718 | 69° | 18km/h | 16700m | 5.0m/s | -53.2°C | 4.4% | 0hPa | 2.7V | 00:00:00 | 00:00:00 | 00:00:00 | |
| DO3MHA-11 | 2026-08-30 11:58:43 | 49.44377 | 17.65667 | 73° | 15km/h | 16664m | 5.8m/s | -53.0°C | 4.2% | 0hPa | 2.7V | 00:00:00 | 01:19:39 | 00:00:00 | |
| OE5DRO-10 | 2026-08-30 11:58:39 | 49.44369 | 17.65647 | 40° | 18km/h | 16644m | 3.3m/s | -52.8°C | 4.2% | 0hPa | 2.7V | 00:00:00 | 00:00:00 | 08:30:00 | |
| OE3JTB-15 | 2026-08-30 11:58:38 | 49.44367 | 17.65644 | 45° | 24km/h | 16639m | 5.8m/s | -52.9°C | 4.2% | 0hPa | 2.7V | 00:00:00 | 00:00:00 | 00:00:00 | |
| OE3OSB-13 | 2026-08-30 11:58:37 | 49.44365 | 17.65641 | 65° | 11km/h | 16634m | 4.6m/s | -52.9°C | 1.3% | -1.0hPa | 2.7V | 00:00:00 | 00:00:00 | 00:00:00 | |
| PETON7-10 | 2026-08-30 11:58:36 | 49.44364 | 17.65636 | 81° | 20km/h | 16629m | 5.8m/s | -52.8°C | 4.2% | 0hPa | 2.7V | 00:00:00 | 00:00:00 | 00:00:00 | |
| OE5DXL-15 | 2026-08-30 11:58:35 | 49.44364 | 17.65631 | 99° | 26km/h | 16623m | 5.8m/s | -52.8°C | 4.2% | 0hPa | 2.7V | 00:00:00 | 00:00:00 | 08:30:00 | |
| DO3MHA-11 | 2026-08-30 11:58:33 | 49.44366 | 17.65618 | 106° | 20km/h | 16614m | 5.0m/s | -52.7°C | 4.2% | 0hPa | 2.7V | 00:00:00 | 01:19:29 | 00:00:00 | |
| PG1ADW-2 | 2026-08-30 11:58:30 | 49.44368 | 17.65590 | 83° | 24km/h | 16597m | 4.9m/s | -52.7°C | 4.1% | 0hPa | 2.7V | 00:00:00 | 01:19:26 | 00:00:00 | |
| DO3MHA-11 | 2026-08-30 11:58:23 | 49.44356 | 17.65542 | 79° | 26km/h | 16560m | 4.8m/s | -52.9°C | 4.2% | 0hPa | 2.7V | 00:00:00 | 01:19:19 | 00:00:00 | |
| PETON7-10 | 2026-08-30 11:58:21 | 49.44354 | 17.65525 | 82° | 29km/h | 16549m | 6.9m/s | -53.0°C | 4.1% | 0hPa | 2.7V | 00:00:00 | 01:19:17 | 00:00:00 | |
| OE5DRO-10 | 2026-08-30 11:58:20 | 49.44354 | 17.65517 | 84° | 31km/h | 16543m | 4.2m/s | -53.0°C | 4.2% | 0hPa | 2.7V | 00:00:00 | 00:00:00 | 00:00:00 | |
| DO3MHA-11 | 2026-08-30 11:58:13 | 49.44352 | 17.65441 | 91° | 33km/h | 16504m | 7.1m/s | -53.3°C | 4.2% | 0hPa | 2.7V | 00:00:00 | 01:19:09 | 00:00:00 | |
| PG1ADW-2 | 2026-08-30 11:58:10 | 49.44354 | 17.65402 | 98° | 33km/h | 16487m | 5.0m/s | -53.2°C | 4.2% | 0hPa | 2.7V | 00:00:00 | 00:00:00 | 00:00:00 | |
| OE3JTB-15 | 2026-08-30 11:58:09 | 49.44355 | 17.65389 | 96° | 35km/h | 16482m | 4.2m/s | -53.2°C | 4.2% | 0hPa | 2.7V | 00:00:00 | 00:00:00 | 00:00:00 | |
| PETON7-10 | 2026-08-30 11:58:06 | 49.44357 | 17.65349 | 91° | 33km/h | 16467m | 4.0m/s | -53.2°C | 4.2% | 0hPa | 2.7V | 00:00:00 | 00:00:00 | 00:00:00 | |
| OE5DXL-15 | 2026-08-30 11:58:05 | 49.44357 | 17.65336 | 90° | 33km/h | 16463m | 5.3m/s | -53.2°C | 4.2% | 0hPa | 2.7V | 00:00:00 | 00:00:00 | 00:00:00 | |
| DO3MHA-11 | 2026-08-30 11:58:03 | 49.44357 | 17.65310 | 89° | 31km/h | 16452m | 6.0m/s | -53.3°C | 4.2% | 0hPa | 2.7V | 00:00:00 | 01:18:59 | 00:00:00 | |
| OE5DRO-10 | 2026-08-30 11:58:01 | 49.44355 | 17.65285 | 85° | 33km/h | 16442m | 4.3m/s | -53.5°C | 4.2% | 0hPa | 2.7V | 00:00:00 | 00:00:00 | 00:00:00 | |
| DO3MHA-11 | 2026-08-30 11:57:53 | 49.44352 | 17.65192 | 82° | 37km/h | 16402m | 5.3m/s | -54.0°C | 4.5% | 0hPa | 2.7V | 00:00:00 | 01:18:49 | 08:30:00 | |
| PETON7-10 | 2026-08-30 11:57:51 | 49.44349 | 17.65161 | 79° | 35km/h | 16392m | 4.7m/s | -54.0°C | 4.5% | 0hPa | 2.7V | 00:00:00 | 00:00:00 | 00:00:00 | |
| PG1ADW-2 | 2026-08-30 11:57:50 | 49.44347 | 17.65146 | 79° | 31km/h | 16387m | 4.9m/s | -54.1°C | 4.5% | 0hPa | 2.7V | 00:00:00 | 00:00:00 | 00:00:00 | |
| OE5DRO-10 | 2026-08-30 11:57:42 | 49.44334 | 17.65043 | 84° | 31km/h | 16345m | 5.8m/s | -54.0°C | 4.5% | 0hPa | 2.7V | 00:00:00 | 00:00:00 | 00:00:00 | |
| PETON7-10 | 2026-08-30 11:57:36 | 49.44325 | 17.64965 | 79° | 29km/h | 16316m | 6.0m/s | -53.9°C | 4.4% | 0hPa | 2.7V | 00:00:00 | 01:18:32 | 00:00:00 | |
| OE3OSB-13 | 2026-08-30 11:57:35 | 49.44324 | 17.64953 | 79° | 29km/h | 16310m | 5.1m/s | -53.9°C | 1.5% | -1.0hPa | 2.7V | 00:00:00 | 00:00:00 | 00:00:00 | |
| OE3JTB-15 | 2026-08-30 11:57:34 | 49.44322 | 17.64942 | 78° | 31km/h | 16304m | 6.0m/s | -53.9°C | 4.4% | 0hPa | 2.7V | 00:00:00 | 01:18:30 | 00:00:00 | |
| DO3MHA-11 | 2026-08-30 11:57:33 | 49.44321 | 17.64932 | 82° | 27km/h | 16299m | 4.4m/s | -53.9°C | 4.4% | 0hPa | 2.7V | 00:00:00 | 01:18:29 | 00:00:00 | |
| PG1ADW-2 | 2026-08-30 11:57:30 | 49.44320 | 17.64906 | 86° | 29km/h | 16285m | 3.8m/s | -54.1°C | 4.6% | 0hPa | 2.7V | 00:00:00 | 00:00:00 | 00:00:00 | |
| DO3MHA-11 | 2026-08-30 11:57:23 | 49.44312 | 17.64821 | 90° | 29km/h | 16250m | 3.8m/s | -54.6°C | 4.6% | 0hPa | 2.7V | 00:00:00 | 01:18:19 | 00:00:00 | |
| PETON7-10 | 2026-08-30 11:57:21 | 49.44314 | 17.64792 | 100° | 26km/h | 16241m | 6.5m/s | -54.7°C | 4.6% | 0hPa | 2.7V | 00:00:00 | 00:00:00 | 08:30:00 | |
| DO3MHA-11 | 2026-08-30 11:57:13 | 49.44321 | 17.64712 | 90° | 27km/h | 16200m | 5.1m/s | -55.0°C | 4.8% | 0hPa | 2.7V | 00:00:00 | 01:18:09 | 00:00:00 | |
| PG1ADW-2 | 2026-08-30 11:57:10 | 49.44320 | 17.64684 | 75° | 33km/h | 16184m | 5.5m/s | -55.1°C | 4.8% | 0hPa | 2.7V | 00:00:00 | 01:18:06 | 08:30:00 | |
| PETON7-10 | 2026-08-30 11:57:06 | 49.44309 | 17.64646 | 65° | 35km/h | 16165m | 4.0m/s | -55.5°C | 5.1% | 0hPa | 2.7V | 00:00:00 | 00:00:00 | 00:00:00 | |
| OE5DXL-15 | 2026-08-30 11:57:05 | 49.44306 | 17.64635 | 62° | 38km/h | 16160m | 6.0m/s | -55.6°C | 5.1% | 0hPa | 2.7V | 00:00:00 | 00:00:00 | 00:00:00 | |
| OE5DRO-10 | 2026-08-30 11:57:04 | 49.44302 | 17.64624 | 63° | 37km/h | 16156m | 3.6m/s | -55.5°C | 5.1% | 0hPa | 2.7V | 00:00:00 | 00:00:00 | 00:00:00 | |
| DO3MHA-11 | 2026-08-30 11:57:03 | 49.44298 | 17.64612 | 66° | 37km/h | 16151m | 4.8m/s | -55.5°C | 5.1% | 0hPa | 2.7V | 00:00:00 | 01:17:59 | 00:00:00 | |
| HA6NAB-11 | 2026-08-30 11:57:01 | 49.44295 | 17.64598 | 73° | 37km/h | 16146m | 5.7m/s | -55.6°C | 0% | 0hPa | 2.7V | 00:00:00 | 00:00:00 | 00:00:00 | |
| HA6NAB-11 | 2026-08-30 11:56:55 | 49.44282 | 17.64517 | 81° | 35km/h | 16116m | 6.3m/s | -55.5°C | 0% | 0hPa | 2.7V | 00:00:00 | 00:00:00 | 00:00:00 | |
| DO3MHA-11 | 2026-08-30 11:56:53 | 49.44276 | 17.64478 | 76° | 40km/h | 16099m | 5.3m/s | -55.4°C | 4.9% | 0hPa | 2.7V | 00:00:00 | 01:17:49 | 00:00:00 | |
| PETON7-10 | 2026-08-30 11:56:51 | 49.44271 | 17.64451 | 76° | 42km/h | 16087m | 5.0m/s | -55.3°C | 4.9% | 0hPa | 2.7V | 00:00:00 | 01:17:47 | 00:00:00 | |
| PG1ADW-2 | 2026-08-30 11:56:50 | 49.44269 | 17.64437 | 73° | 44km/h | 16082m | 4.8m/s | -55.4°C | 5.0% | 0hPa | 2.7V | 00:00:00 | 00:00:00 | 00:00:00 | |
| HA6NAB-11 | 2026-08-30 11:56:49 | 49.44262 | 17.64408 | 68° | 42km/h | 16073m | 3.6m/s | -55.6°C | 0% | 0hPa | 2.7V | 00:00:00 | 00:00:00 | 00:00:00 | |
| OE5DRO-10 | 2026-08-30 11:56:45 | 49.44251 | 17.64360 | 75° | 44km/h | 16057m | 4.9m/s | -56.3°C | 5.4% | 0hPa | 2.7V | 00:00:00 | 00:00:00 | 00:00:00 | |
| DO3MHA-11 | 2026-08-30 11:56:43 | 49.44245 | 17.64328 | 75° | 44km/h | 16047m | 4.3m/s | -56.3°C | 5.4% | 0hPa | 2.7V | 00:00:00 | 01:17:39 | 00:00:00 | |
| HA6NAB-11 | 2026-08-30 11:56:40 | 49.44238 | 17.64297 | 73° | 44km/h | 16036m | 7.1m/s | -56.3°C | 0% | 0hPa | 2.7V | 00:00:00 | 00:00:00 | 00:00:00 | |
| PETON7-10 | 2026-08-30 11:56:36 | 49.44212 | 17.64223 | 55° | 40km/h | 16009m | 6.2m/s | -56.1°C | 5.2% | 0hPa | 2.7V | 00:00:00 | 00:00:00 | 00:00:00 | |
| OE5DXL-15 | 2026-08-30 11:56:35 | 49.44205 | 17.64207 | 55° | 35km/h | 16004m | 4.9m/s | -56.0°C | 5.2% | 0hPa | 2.7V | 00:00:00 | 00:00:00 | 00:00:00 | |
| OE3OSB-13 | 2026-08-30 11:56:33 | 49.44184 | 17.64162 | 53° | 44km/h | 15991m | 5.4m/s | -56.0°C | 1.8% | -1.0hPa | 2.7V | 00:00:00 | 00:00:00 | 00:00:00 | |
| PG1ADW-2 | 2026-08-30 11:56:30 | 49.44171 | 17.64134 | 59° | 35km/h | 15980m | 7.2m/s | -55.9°C | 5.1% | 0hPa | 2.7V | 00:00:00 | 00:00:00 | 00:00:00 | |
| HA6NAB-11 | 2026-08-30 11:56:29 | 49.44171 | 17.64134 | 60° | 44km/h | 15980m | 7.2m/s | -56.0°C | 0% | 0hPa | 2.7V | 00:00:00 | 00:00:00 | 00:00:00 | |
| OE5DRO-10 | 2026-08-30 11:56:26 | 49.44156 | 17.64082 | 70° | 31km/h | 15957m | 4.9m/s | -56.0°C | 5.3% | 0hPa | 2.7V | 00:00:00 | 00:00:00 | 00:00:00 | |
| HA6NAB-11 | 2026-08-30 11:56:23 | 49.44151 | 17.64058 | 71° | 33km/h | 15945m | 3.9m/s | -56.0°C | 0% | 0hPa | 2.7V | 00:00:00 | 00:00:00 | 00:00:00 | |
| PETON7-10 | 2026-08-30 11:56:21 | 49.44138 | 17.64023 | 53° | 29km/h | 15928m | 6.5m/s | -56.3°C | 5.1% | 0hPa | 2.7V | 00:00:00 | 00:00:00 | 00:00:00 | |
| OM5KV | 2026-08-30 11:56:20 | 49.44138 | 17.64023 | 54° | 37km/h | 15928m | 6.5m/s | -56.4°C | 2.0% | 0hPa | 2.7V | 00:00:00 | 00:00:00 | 00:00:00 | |
| PG1ADW-2 | 2026-08-30 11:56:10 | 49.44088 | 17.63914 | 97° | 33km/h | 15867m | 3.2m/s | -57.0°C | 6.1% | 0hPa | 2.7V | 00:00:00 | 00:00:00 | 00:00:00 | |
| OM5KV | 2026-08-30 11:56:08 | 49.44087 | 17.63910 | 81° | 15km/h | 15863m | 5.1m/s | -57.0°C | 2.4% | 0hPa | 2.7V | 00:00:00 | 00:00:00 | 00:00:00 | |
| OE5DRO-10 | 2026-08-30 11:56:07 | 49.44082 | 17.63894 | 56° | 38km/h | 15852m | 5.1m/s | -57.0°C | 6.0% | 0hPa | 2.7V | 00:00:00 | 00:00:00 | 00:00:00 | |
| PETON7-10 | 2026-08-30 11:56:06 | 49.44075 | 17.63881 | 56° | 35km/h | 15847m | 4.9m/s | -57.0°C | 5.8% | 0hPa | 2.7V | 00:00:00 | 01:17:02 | 00:00:00 | |
| OE5DXL-15 | 2026-08-30 11:56:05 | 49.44068 | 17.63864 | 53° | 35km/h | 15840m | 9.6m/s | -57.0°C | 5.7% | 0hPa | 2.7V | 00:00:00 | 00:00:00 | 00:00:00 | |
| OE3OSB-13 | 2026-08-30 11:56:02 | 49.44036 | 17.63799 | 50° | 42km/h | 15816m | 6.3m/s | -57.3°C | 2.2% | -1.0hPa | 2.7V | 00:00:00 | 00:00:00 | 00:00:00 | |
| PETON7-10 | 2026-08-30 11:55:51 | 49.44017 | 17.63732 | 94° | 35km/h | 15741m | 7.5m/s | -56.8°C | 5.8% | 0hPa | 2.7V | 00:00:00 | 00:00:00 | 00:00:00 | |
| PG1ADW-2 | 2026-08-30 11:55:50 | 49.44018 | 17.63709 | 98° | 31km/h | 15733m | 7.3m/s | -56.7°C | 5.8% | 0hPa | 2.7V | 00:00:00 | 01:16:46 | 00:00:00 | |
| OE5DRO-10 | 2026-08-30 11:55:48 | 49.44025 | 17.63672 | 112° | 27km/h | 15722m | 3.7m/s | -56.6°C | 5.8% | 0hPa | 2.7V | 00:00:00 | 00:00:00 | 08:30:00 | |
| OM5KV | 2026-08-30 11:55:46 | 49.44028 | 17.63659 | 112° | 33km/h | 15716m | 8.6m/s | -56.6°C | 2.3% | 0hPa | 2.7V | 00:00:00 | 00:00:00 | 00:00:00 | |
| HA6NAB-11 | 2026-08-30 11:55:42 | 49.44023 | 17.63630 | 33° | 24km/h | 15681m | 7.4m/s | -56.3°C | 0% | 0hPa | 2.7V | 00:00:00 | 00:00:00 | 00:00:00 | |
| OM5KV | 2026-08-30 11:55:40 | 49.44015 | 17.63617 | 68° | 22km/h | 15665m | 8.2m/s | -56.2°C | 2.3% | 0hPa | 2.7V | 00:00:00 | 00:00:00 | 00:00:00 | |
| PETON7-10 | 2026-08-30 11:55:36 | 49.44028 | 17.63546 | 104° | 31km/h | 15629m | 3.7m/s | -55.8°C | 5.6% | 0hPa | 2.7V | 00:00:00 | 00:00:00 | 00:00:00 | |
| OE5DXL-15 | 2026-08-30 11:55:35 | 49.44030 | 17.63530 | 101° | 35km/h | 15622m | 9.7m/s | -55.7°C | 5.5% | 0hPa | 2.7V | 00:00:00 | 00:00:00 | 00:00:00 | |
| DO3MHA-11 | 2026-08-30 11:55:34 | 49.44031 | 17.63518 | 93° | 26km/h | 15613m | 8.4m/s | -55.6°C | 5.5% | 0hPa | 2.7V | 00:00:00 | 01:16:30 | 08:30:00 | |
| OE3OSB-13 | 2026-08-30 11:55:31 | 49.44027 | 17.63498 | 49° | 11km/h | 15586m | 5.2m/s | -55.4°C | 2.0% | -1.0hPa | 2.7V | 00:00:00 | 00:00:00 | 00:00:00 | |
| PG1ADW-2 | 2026-08-30 11:55:30 | 49.44027 | 17.63498 | 50° | 37km/h | 15586m | 5.1m/s | -55.4°C | 5.4% | 0hPa | 2.7V | 00:00:00 | 00:00:00 | 00:00:00 | |
| OE5DRO-10 | 2026-08-30 11:55:29 | 49.44025 | 17.63494 | 60° | 38km/h | 15580m | 6.9m/s | -55.3°C | 5.4% | 0hPa | 2.7V | 00:00:00 | 00:00:00 | 00:00:00 | |
| OM5KV | 2026-08-30 11:55:28 | 49.44025 | 17.63494 | 61° | 18km/h | 15580m | 6.9m/s | -55.3°C | 2.2% | 0hPa | 2.7V | 00:00:00 | 00:00:00 | 00:00:00 | |
| OM5KV | 2026-08-30 11:55:22 | 49.44017 | 17.63403 | 98° | 44km/h | 15533m | 7.2m/s | -55.1°C | 2.2% | 0hPa | 2.7V | 00:00:00 | 00:00:00 | 00:00:00 | |
| PETON7-10 | 2026-08-30 11:55:21 | 49.44021 | 17.63373 | 108° | 38km/h | 15517m | 11.3m/s | -54.9°C | 5.3% | 0hPa | 2.7V | 00:00:00 | 01:16:17 | 00:00:00 | |
| OM5KV | 2026-08-30 11:55:18 | 49.44028 | 17.63347 | 120° | 38km/h | 15497m | 8.7m/s | -54.8°C | 2.2% | 0hPa | 2.7V | 00:00:00 | 00:00:00 | 00:00:00 | |
| OM5KV | 2026-08-30 11:55:17 | 49.44033 | 17.63333 | 115° | 42km/h | 15487m | 8.9m/s | -54.8°C | 2.2% | 0hPa | 2.7V | 00:00:00 | 00:00:00 | 00:00:00 | |
| DO3MHA-11 | 2026-08-30 11:55:14 | 49.44038 | 17.63267 | 76° | 37km/h | 15457m | 8.6m/s | -54.5°C | 5.1% | 0hPa | 2.7V | 00:00:00 | 01:16:10 | 00:00:00 | |
| OM5KV | 2026-08-30 11:55:12 | 49.44036 | 17.63254 | 73° | 31km/h | 15449m | 7.0m/s | -54.6°C | 2.1% | 0hPa | 2.7V | 00:00:00 | 00:00:00 | 00:00:00 | |
| OM5KV | 2026-08-30 11:55:11 | 49.44034 | 17.63243 | 75° | 27km/h | 15442m | 6.3m/s | -54.6°C | 2.1% | 0hPa | 2.7V | 00:00:00 | 00:00:00 | 00:00:00 | |
| OE5DRO-10 | 2026-08-30 11:55:10 | 49.44033 | 17.63222 | 102° | 44km/h | 15427m | 7.7m/s | -54.5°C | 5.3% | 0hPa | 2.7V | 00:00:00 | 00:00:00 | 00:00:00 | |
| PETON7-10 | 2026-08-30 11:55:06 | 49.44046 | 17.63160 | 106° | 44km/h | 15392m | 8.8m/s | -54.3°C | 5.2% | 0hPa | 2.7V | 00:00:00 | 00:00:00 | 08:30:00 | |
| OE5DXL-15 | 2026-08-30 11:55:05 | 49.44048 | 17.63147 | 108° | 49km/h | 15385m | 5.2m/s | -54.3°C | 5.1% | 0hPa | 2.7V | 00:00:00 | 00:00:00 | 00:00:00 | |
| DO3MHA-11 | 2026-08-30 11:55:04 | 49.44051 | 17.63136 | 118° | 38km/h | 15380m | 6.0m/s | -54.3°C | 5.1% | 0hPa | 2.7V | 00:00:00 | 01:16:00 | 00:00:00 | |
| OE3OSB-13 | 2026-08-30 11:55:00 | 49.44083 | 17.63086 | 130° | 38km/h | 15341m | 8.9m/s | -54.2°C | 2.0% | -1.0hPa | 2.7V | 00:00:00 | 00:00:00 | 00:00:00 | |
| DO3MHA-11 | 2026-08-30 11:54:54 | 49.44085 | 17.63002 | 84° | 58km/h | 15295m | 7.5m/s | -54.2°C | 5.0% | 0hPa | 2.7V | 00:00:00 | 01:15:50 | 00:00:00 | |
| OE3JTB-15 | 2026-08-30 11:54:52 | 49.44086 | 17.62953 | 100° | 62km/h | 15277m | 10.3m/s | -54.2°C | 4.9% | 0hPa | 2.7V | 00:00:00 | 00:00:00 | 08:30:00 | |
| OE5DRO-10 | 2026-08-30 11:54:51 | 49.44090 | 17.62929 | 110° | 55km/h | 15268m | 8.4m/s | -54.2°C | 4.9% | 0hPa | 2.7V | 00:00:00 | 00:00:00 | 00:00:00 | |
| PG1ADW-2 | 2026-08-30 11:54:50 | 49.44096 | 17.62906 | 115° | 55km/h | 15260m | 7.0m/s | -54.2°C | 5.0% | 0hPa | 2.7V | 00:00:00 | 00:00:00 | 00:00:00 | |
| OM5KV | 2026-08-30 11:54:48 | 49.44103 | 17.62885 | 117° | 58km/h | 15254m | 6.5m/s | -54.4°C | 2.2% | 0hPa | 2.7V | 00:00:00 | 00:00:00 | 00:00:00 | |
| DO3MHA-11 | 2026-08-30 11:54:44 | 49.44120 | 17.62786 | 87° | 51km/h | 15218m | 5.2m/s | -54.2°C | 5.5% | 0hPa | 2.7V | 00:00:00 | 01:15:40 | 00:00:00 | |
| OM5KV | 2026-08-30 11:54:42 | 49.44118 | 17.62765 | 85° | 53km/h | 15212m | 6.6m/s | -54.2°C | 2.4% | 0hPa | 2.7V | 00:00:00 | 00:00:00 | 00:00:00 | |
| OM5KV | 2026-08-30 11:54:37 | 49.44118 | 17.62675 | 107° | 46km/h | 15174m | 7.2m/s | -54.3°C | 2.4% | 0hPa | 2.7V | 00:00:00 | 00:00:00 | 00:00:00 | |
| OE5DXL-15 | 2026-08-30 11:54:36 | 49.44125 | 17.62612 | 92° | 57km/h | 15157m | 8.2m/s | -54.4°C | 5.4% | 0hPa | 2.7V | 00:00:00 | 00:00:00 | 00:00:00 | |
| DO3MHA-11 | 2026-08-30 11:54:34 | 49.44124 | 17.62587 | 82° | 53km/h | 15148m | 8.8m/s | -54.6°C | 5.5% | 0hPa | 2.7V | 00:00:00 | 01:15:30 | 00:00:00 | |
| OE5DRO-10 | 2026-08-30 11:54:32 | 49.44113 | 17.62537 | 64° | 55km/h | 15131m | 8.1m/s | -54.6°C | 5.4% | 0hPa | 2.7V | 00:00:00 | 00:00:00 | 00:00:00 | |
| OM5KV | 2026-08-30 11:54:31 | 49.44113 | 17.62537 | 65° | 66km/h | 15131m | 8.2m/s | -54.7°C | 2.4% | 0hPa | 2.7V | 00:00:00 | 00:00:00 | 00:00:00 | |
| PG1ADW-2 | 2026-08-30 11:54:30 | 49.44099 | 17.62499 | 56° | 53km/h | 15113m | 6.8m/s | -54.4°C | 5.5% | 0hPa | 2.7V | 00:00:00 | 01:15:26 | 00:00:00 | |
| OE3OSB-13 | 2026-08-30 11:54:28 | 49.44088 | 17.62473 | 59° | 37km/h | 15098m | 7.3m/s | -54.4°C | 2.4% | -1.0hPa | 2.7V | 00:00:00 | 00:00:00 | 00:00:00 | |
| OM5KV | 2026-08-30 11:54:25 | 49.44079 | 17.62443 | 70° | 47km/h | 15082m | 7.4m/s | -54.8°C | 2.8% | 0hPa | 2.7V | 00:00:00 | 00:00:00 | 00:00:00 | |
| DO3MHA-11 | 2026-08-30 11:54:24 | 49.44070 | 17.62403 | 74° | 58km/h | 15069m | 7.2m/s | 0°C | 0% | 0hPa | 2.7V | 00:00:00 | 01:15:20 | 00:00:00 | |
| PETON7-10 | 2026-08-30 11:54:21 | 49.44057 | 17.62339 | 68° | 58km/h | 15046m | 5.0m/s | -54.7°C | 6.1% | 0hPa | 2.7V | 00:00:00 | 00:00:00 | 00:00:00 | |
| OM5KV | 2026-08-30 11:54:19 | 49.44051 | 17.62320 | 65° | 53km/h | 15042m | 3.8m/s | -54.7°C | 2.7% | 0hPa | 2.7V | 00:00:00 | 00:00:00 | 00:00:00 | |
| HA6NAB-11 | 2026-08-30 11:54:18 | 49.44045 | 17.62301 | 64° | 53km/h | 15035m | 10.3m/s | 0°C | 0% | 0hPa | 2.7V | 00:00:00 | 00:00:00 | 00:00:00 | |
| DO3MHA-11 | 2026-08-30 11:54:14 | 49.44008 | 17.62200 | 63° | 57km/h | 14999m | 6.0m/s | 0°C | 0% | 0hPa | 2.7V | 00:00:00 | 01:15:10 | 00:00:00 | |
| OE5DRO-10 | 2026-08-30 11:54:13 | 49.44003 | 17.62181 | 68° | 57km/h | 14992m | 7.0m/s | -54.4°C | 5.8% | 0hPa | 2.7V | 00:00:00 | 00:00:00 | 00:00:00 | |
| HA6NAB-11 | 2026-08-30 11:54:12 | 49.44003 | 17.62181 | 68° | 55km/h | 14992m | 7.0m/s | 0°C | 0% | 0hPa | 2.7V | 00:00:00 | 00:00:00 | 00:00:00 | |
| PG1ADW-2 | 2026-08-30 11:54:10 | 49.43991 | 17.62118 | 78° | 57km/h | 14973m | 5.8m/s | -54.3°C | 5.9% | 0hPa | 2.7V | 00:00:00 | 00:00:00 | 08:30:00 | |
| OM5KV | 2026-08-30 11:54:07 | 49.43983 | 17.62073 | 74° | 58km/h | 14962m | 4.0m/s | -54.3°C | 2.7% | 0hPa | 2.7V | 00:00:00 | 00:00:00 | 00:00:00 | |
| PETON7-10 | 2026-08-30 11:54:06 | 49.43975 | 17.62031 | 74° | 55km/h | 14952m | 5.9m/s | -54.2°C | 5.8% | 0hPa | 2.7V | 00:00:00 | 00:00:00 | 00:00:00 | |
| OE5DXL-15 | 2026-08-30 11:54:05 | 49.43971 | 17.62010 | 75° | 57km/h | 14947m | 3.6m/s | -54.2°C | 5.8% | 0hPa | 2.7V | 00:00:00 | 00:00:00 | 08:30:00 | |
| DO3MHA-11 | 2026-08-30 11:54:04 | 49.43967 | 17.61988 | 74° | 57km/h | 14943m | 5.7m/s | 0°C | 0% | 0hPa | 2.7V | 00:00:00 | 01:15:00 | 08:30:00 | |
| OM5KV | 2026-08-30 11:54:02 | 49.43962 | 17.61966 | 74° | 62km/h | 14937m | 5.6m/s | -54.2°C | 2.7% | 0hPa | 2.7V | 00:00:00 | 00:00:00 | 00:00:00 | |
| OE3OSB-13 | 2026-08-30 11:53:57 | 49.43942 | 17.61830 | 76° | 53km/h | 14905m | 4.6m/s | -54.0°C | 2.5% | -1.0hPa | 2.7V | 00:00:00 | 00:00:00 | 00:00:00 | |
| OM5KV | 2026-08-30 11:53:56 | 49.43941 | 17.61830 | 77° | 53km/h | 14905m | 4.6m/s | -54.0°C | 2.7% | 0hPa | 2.7V | 00:00:00 | 00:00:00 | 00:00:00 | |
| DO3MHA-11 | 2026-08-30 11:53:54 | 49.43933 | 17.61774 | 77° | 51km/h | 14889m | 4.0m/s | 0°C | 0% | 0hPa | 2.7V | 00:00:00 | 01:14:50 | 00:00:00 | |
| PETON7-10 | 2026-08-30 11:53:51 | 49.43923 | 17.61718 | 75° | 58km/h | 14874m | 5.1m/s | -54.1°C | 5.7% | 0hPa | 2.7V | 00:00:00 | 01:14:47 | 00:00:00 | |
| PG1ADW-2 | 2026-08-30 11:53:50 | 49.43919 | 17.61698 | 78° | 60km/h | 14868m | 7.1m/s | -54.1°C | 5.7% | 0hPa | 2.7V | 00:00:00 | 00:00:00 | 00:00:00 | |
| OM5KV | 2026-08-30 11:53:45 | 49.43910 | 17.61606 | 83° | 64km/h | 14844m | 5.0m/s | -54.1°C | 2.6% | 0hPa | 2.7V | 00:00:00 | 00:00:00 | 00:00:00 | |
| OE5DXL-15 | 2026-08-30 11:53:35 | 49.43880 | 17.61364 | 88° | 68km/h | 14788m | 6.0m/s | -54.2°C | 5.5% | 0hPa | 2.7V | 00:00:00 | 00:00:00 | 00:00:00 | |
| PG1ADW-2 | 2026-08-30 11:53:30 | 49.43873 | 17.61240 | 80° | 69km/h | 14763m | 5.8m/s | -54.5°C | 5.7% | 0hPa | 2.7V | 00:00:00 | 00:00:00 | 00:00:00 | |
| OM5KV | 2026-08-30 11:53:29 | 49.43872 | 17.61240 | 80° | 64km/h | 14763m | 5.8m/s | -54.6°C | 2.7% | 0hPa | 2.7V | 00:00:00 | 00:00:00 | 00:00:00 | |
| OM5KV | 2026-08-30 11:53:23 | 49.43854 | 17.61082 | 81° | 71km/h | 14733m | 5.9m/s | -54.8°C | 2.7% | 0hPa | 2.7V | 00:00:00 | 00:00:00 | 00:00:00 | |
| OM5KV | 2026-08-30 11:53:22 | 49.43850 | 17.61056 | 79° | 69km/h | 14728m | 4.0m/s | -54.8°C | 2.8% | 0hPa | 2.7V | 00:00:00 | 00:00:00 | 00:00:00 | |
| PETON7-10 | 2026-08-30 11:53:20 | 49.43838 | 17.60975 | 77° | 68km/h | 14713m | 5.2m/s | -54.9°C | 5.9% | 0hPa | 2.7V | 00:00:00 | 00:00:00 | 00:00:00 | |
| OM5KV | 2026-08-30 11:53:17 | 49.43830 | 17.60921 | 80° | 71km/h | 14702m | 5.2m/s | -55.1°C | 2.8% | 0hPa | 2.7V | 00:00:00 | 00:00:00 | 00:00:00 | |
| OE5DRO-10 | 2026-08-30 11:53:16 | 49.43823 | 17.60868 | 78° | 64km/h | 14692m | 6.1m/s | -55.0°C | 6.1% | 0hPa | 2.7V | 00:00:00 | 00:00:00 | 00:00:00 | |
| OM5KV | 2026-08-30 11:53:13 | 49.43816 | 17.60815 | 80° | 68km/h | 14682m | 4.8m/s | -55.1°C | 2.9% | 0hPa | 2.7V | 00:00:00 | 00:00:00 | 00:00:00 | |
| OM5KV | 2026-08-30 11:53:12 | 49.43813 | 17.60790 | 82° | 66km/h | 14677m | 5.3m/s | -55.0°C | 2.9% | 0hPa | 2.7V | 00:00:00 | 00:00:00 | 00:00:00 | |
| PG1ADW-2 | 2026-08-30 11:53:10 | 49.43805 | 17.60717 | 77° | 58km/h | 14662m | 5.7m/s | -54.9°C | 6.0% | 0hPa | 2.7V | 00:00:00 | 01:14:06 | 00:00:00 | |
| OM5KV | 2026-08-30 11:53:08 | 49.43800 | 17.60692 | 75° | 68km/h | 14657m | 4.8m/s | -55.0°C | 0% | 0hPa | 2.7V | 00:00:00 | 00:00:00 | 00:00:00 | |
| OM5KV | 2026-08-30 11:53:06 | 49.43791 | 17.60641 | 76° | 68km/h | 14646m | 6.7m/s | -55.0°C | 2.8% | 0hPa | 2.7V | 00:00:00 | 00:00:00 | 00:00:00 | |
| OE5DXL-15 | 2026-08-30 11:53:05 | 49.43783 | 17.60592 | 77° | 53km/h | 14637m | 3.2m/s | -54.9°C | 6.0% | 0hPa | 2.7V | 00:00:00 | 00:00:00 | 00:00:00 | |
| OM5KV | 2026-08-30 11:53:02 | 49.43775 | 17.60545 | 76° | 60km/h | 14626m | 6.0m/s | 0°C | 0% | 0hPa | 2.7V | 00:00:00 | 00:00:00 | 00:00:00 | |
| OE3OSB-13 | 2026-08-30 11:52:55 | 49.43756 | 17.60376 | 81° | 51km/h | 14583m | 4.6m/s | -55.1°C | 3.0% | -1.0hPa | 2.7V | 00:00:00 | 00:00:00 | 00:00:00 | |
| OM5KV | 2026-08-30 11:52:51 | 49.43747 | 17.60318 | 74° | 53km/h | 14568m | 4.1m/s | 0°C | 0% | 0hPa | 2.7V | 00:00:00 | 00:00:00 | 00:00:00 | |
| PG1ADW-2 | 2026-08-30 11:52:50 | 49.43739 | 17.60277 | 74° | 51km/h | 14557m | 5.1m/s | -55.0°C | 6.3% | 0hPa | 2.7V | 00:00:00 | 00:00:00 | 00:00:00 | |
| OM5KV | 2026-08-30 11:52:49 | 49.43739 | 17.60277 | 75° | 58km/h | 14557m | 5.1m/s | -55.1°C | 3.1% | 0hPa | 2.7V | 00:00:00 | 00:00:00 | 00:00:00 | |
| OM5KV | 2026-08-30 11:52:45 | 49.43722 | 17.60193 | 77° | 55km/h | 14537m | 6.0m/s | 0°C | 0% | 0hPa | 2.7V | 00:00:00 | 00:00:00 | 00:00:00 | |
| OM5KV | 2026-08-30 11:52:43 | 49.43718 | 17.60152 | 83° | 51km/h | 14527m | 3.9m/s | -54.8°C | 3.1% | 0hPa | 2.7V | 00:00:00 | 00:00:00 | 00:00:00 | |
| OM5KV | 2026-08-30 11:52:39 | 49.43711 | 17.60082 | 84° | 44km/h | 14508m | 5.8m/s | 0°C | 0% | 0hPa | 2.7V | 00:00:00 | 00:00:00 | 00:00:00 | |
| OE5DRO-10 | 2026-08-30 11:52:38 | 49.43708 | 17.60047 | 81° | 46km/h | 14497m | 4.8m/s | -54.6°C | 6.2% | 0hPa | 2.7V | 00:00:00 | 00:00:00 | 00:00:00 | |
| PETON7-10 | 2026-08-30 11:52:35 | 49.43700 | 17.59990 | 78° | 46km/h | 14483m | 6.1m/s | -54.5°C | 6.1% | 0hPa | 2.7V | 00:00:00 | 00:00:00 | 00:00:00 | |
| OM5KV | 2026-08-30 11:52:33 | 49.43697 | 17.59970 | 80° | 55km/h | 14478m | 4.3m/s | 0°C | 0% | 0hPa | 2.7V | 00:00:00 | 00:00:00 | 00:00:00 | |
| PG1ADW-2 | 2026-08-30 11:52:30 | 49.43688 | 17.59894 | 85° | 42km/h | 14459m | 5.7m/s | -54.4°C | 6.1% | 0hPa | 2.7V | 00:00:00 | 00:00:00 | 00:00:00 | |
| OM5KV | 2026-08-30 11:52:26 | 49.43687 | 17.59829 | 87° | 38km/h | 14440m | 3.7m/s | -54.5°C | 3.1% | 0hPa | 2.7V | 00:00:00 | 00:00:00 | 00:00:00 | |
| OE3OSB-13 | 2026-08-30 11:52:24 | 49.43685 | 17.59798 | 82° | 42km/h | 14430m | 4.7m/s | -54.5°C | 2.8% | -1.0hPa | 2.7V | 00:00:00 | 00:00:00 | 00:00:00 | |
| OM5KV | 2026-08-30 11:52:23 | 49.43684 | 17.59797 | 84° | 44km/h | 14430m | 4.7m/s | 0°C | 0% | 0hPa | 2.7V | 00:00:00 | 00:00:00 | 00:00:00 | |
| PETON7-10 | 2026-08-30 11:52:20 | 49.43675 | 17.59729 | 77° | 40km/h | 14411m | 3.4m/s | -54.4°C | 6.0% | 0hPa | 2.7V | 00:00:00 | 01:13:16 | 00:00:00 | |
| OE5DRO-10 | 2026-08-30 11:52:19 | 49.43672 | 17.59711 | 78° | 40km/h | 14407m | 5.2m/s | -54.3°C | 6.1% | 0hPa | 2.7V | 00:00:00 | 00:00:00 | 00:00:00 | |
| OM5KV | 2026-08-30 11:52:14 | 49.43669 | 17.59638 | 93° | 40km/h | 14389m | 3.9m/s | 0°C | 0% | 0hPa | 2.7V | 00:00:00 | 00:00:00 | 00:00:00 | |
| PG1ADW-2 | 2026-08-30 11:52:10 | 49.43665 | 17.59566 | 78° | 38km/h | 14365m | 5.6m/s | -54.0°C | 6.1% | 0hPa | 2.7V | 00:00:00 | 00:00:00 | 00:00:00 | |
| OE3JTB-15 | 2026-08-30 11:52:09 | 49.43663 | 17.59553 | 80° | 44km/h | 14359m | 5.5m/s | -54.0°C | 6.2% | 0hPa | 2.7V | 00:00:00 | 01:13:05 | 00:00:00 | |
| OM5KV | 2026-08-30 11:52:08 | 49.43663 | 17.59553 | 81° | 35km/h | 14359m | 5.6m/s | 0°C | 0% | 0hPa | 2.7V | 00:00:00 | 00:00:00 | 00:00:00 | |
| PETON7-10 | 2026-08-30 11:52:05 | 49.43657 | 17.59493 | 86° | 38km/h | 14340m | 4.4m/s | -53.9°C | 5.9% | 0hPa | 2.7V | 00:00:00 | 00:00:00 | 00:00:00 | |
| OM5KV | 2026-08-30 11:52:02 | 49.43656 | 17.59460 | 91° | 40km/h | 14331m | 3.5m/s | 0°C | 0% | 0hPa | 2.7V | 00:00:00 | 00:00:00 | 00:00:00 | |
| OE3OSB-13 | 2026-08-30 11:51:53 | 49.43661 | 17.59322 | 93° | 35km/h | 14282m | 5.8m/s | -53.6°C | 2.8% | -1.0hPa | 2.7V | 00:00:00 | 00:00:00 | 00:00:00 | |
| PETON7-10 | 2026-08-30 11:51:50 | 49.43663 | 17.59274 | 94° | 35km/h | 14265m | 3.8m/s | -53.4°C | 6.1% | 0hPa | 2.7V | 00:00:00 | 00:00:00 | 00:00:00 | |
| OE5DRO-10 | 2026-08-30 11:51:41 | 49.43663 | 17.59189 | 43° | 47km/h | 14221m | 5.5m/s | -53.6°C | 6.0% | 0hPa | 2.7V | 00:00:00 | 00:00:00 | 00:00:00 | |
| DO3MHA-11 | 2026-08-30 11:51:40 | 49.43659 | 17.59182 | 57° | 53km/h | 14216m | 4.1m/s | 0°C | 0% | 0hPa | 2.7V | 00:00:00 | 01:12:36 | 00:00:00 | |
| OE5DXL-15 | 2026-08-30 11:51:35 | 49.43655 | 17.59076 | 102° | 58km/h | 14180m | 9.2m/s | -53.6°C | 6.1% | 0hPa | 2.7V | 00:00:00 | 00:00:00 | 00:00:00 | |
| OE3JTB-15 | 2026-08-30 11:51:34 | 49.43659 | 17.59051 | 108° | 53km/h | 14172m | 7.3m/s | -53.6°C | 6.1% | 0hPa | 2.7V | 00:00:00 | 00:00:00 | 00:00:00 | |
| PG1ADW-2 | 2026-08-30 11:51:30 | 49.43676 | 17.58982 | 109° | 57km/h | 14141m | 7.9m/s | -53.6°C | 6.0% | 0hPa | 2.7V | 00:00:00 | 00:00:00 | 00:00:00 | |
| OE5DRO-10 | 2026-08-30 11:51:22 | 49.43706 | 17.58854 | 95° | 66km/h | 14081m | 10.6m/s | -53.6°C | 5.9% | 0hPa | 2.7V | 00:00:00 | 00:00:00 | 00:00:00 | |
| DO3MHA-11 | 2026-08-30 11:51:20 | 49.43708 | 17.58812 | 97° | 66km/h | 14067m | 8.8m/s | 0°C | 0% | 0hPa | 2.7V | 00:00:00 | 01:12:16 | 00:00:00 | |
| DO3MHA-11 | 2026-08-30 11:51:10 | 49.43756 | 17.58563 | 106° | 69km/h | 14012m | 5.3m/s | 0°C | 0% | 0hPa | 2.7V | 00:00:00 | 01:12:06 | 00:00:00 | |
| PETON7-10 | 2026-08-30 11:51:05 | 49.43774 | 17.58433 | 97° | 69km/h | 13982m | 4.3m/s | -54.4°C | 6.4% | 0hPa | 2.7V | 00:00:00 | 00:00:00 | 00:00:00 | |
| OE5DRO-10 | 2026-08-30 11:51:03 | 49.43778 | 17.58380 | 94° | 68km/h | 13970m | 4.7m/s | -54.4°C | 6.4% | 0hPa | 2.7V | 00:00:00 | 00:00:00 | 00:00:00 | |
| OE3OSB-13 | 2026-08-30 11:50:51 | 49.43799 | 17.58061 | 99° | 68km/h | 13912m | 3.6m/s | -54.7°C | 3.0% | -1.0hPa | 2.7V | 00:00:00 | 00:00:00 | 00:00:00 | |
| DO3MHA-11 | 2026-08-30 11:50:50 | 49.43802 | 17.58034 | 99° | 66km/h | 13906m | 8.4m/s | 0°C | 0% | 0hPa | 2.7V | 00:00:00 | 01:11:46 | 00:00:00 | |
| OE5DRO-10 | 2026-08-30 11:50:44 | 49.43813 | 17.57881 | 97° | 66km/h | 13873m | 5.0m/s | -55.0°C | 6.5% | 0hPa | 2.7V | 00:00:00 | 00:00:00 | 00:00:00 | |
| PETON7-10 | 2026-08-30 11:50:35 | 49.43838 | 17.57656 | 100° | 68km/h | 13826m | 5.4m/s | -55.0°C | 6.4% | 0hPa | 2.7V | 00:00:00 | 00:00:00 | 08:30:00 | |
| PG1ADW-2 | 2026-08-30 11:50:30 | 49.43849 | 17.57545 | 95° | 73km/h | 13796m | 5.3m/s | -54.9°C | 6.4% | 0hPa | 2.7V | 00:00:00 | 01:11:26 | 00:00:00 | |
| OE5DRO-10 | 2026-08-30 11:50:25 | 49.43861 | 17.57407 | 103° | 77km/h | 13760m | 9.6m/s | -54.8°C | 6.6% | 0hPa | 2.7V | 00:00:00 | 00:00:00 | 00:00:00 | |
| PETON7-10 | 2026-08-30 11:50:20 | 49.43879 | 17.57270 | 102° | 78km/h | 13728m | 4.5m/s | -54.8°C | 6.4% | 0hPa | 2.7V | 00:00:00 | 00:00:00 | 00:00:00 | |
| PG1ADW-2 | 2026-08-30 11:50:10 | 49.43901 | 17.56976 | 98° | 80km/h | 13663m | 8.8m/s | -54.8°C | 6.4% | 0hPa | 2.7V | 00:00:00 | 00:00:00 | 00:00:00 | |
| OE5DRO-10 | 2026-08-30 11:50:06 | 49.43914 | 17.56845 | 98° | 77km/h | 13639m | 6.8m/s | -54.8°C | 6.6% | 0hPa | 2.7V | 00:00:00 | 00:00:00 | 08:30:00 | |
| OE5DXL-15 | 2026-08-30 11:50:05 | 49.43916 | 17.56813 | 95° | 77km/h | 13632m | 5.0m/s | -54.9°C | 6.8% | 0hPa | 2.7V | 00:00:00 | 00:00:00 | 00:00:00 | |
| OE3OSB-13 | 2026-08-30 11:49:49 | 49.43922 | 17.56337 | 92° | 62km/h | 13526m | 3.5m/s | -54.9°C | 3.2% | -1.0hPa | 2.7V | 00:00:00 | 00:00:00 | 00:00:00 | |
| OE5DRO-10 | 2026-08-30 11:49:47 | 49.43924 | 17.56286 | 97° | 78km/h | 13514m | 7.9m/s | -54.9°C | 6.7% | 0hPa | 2.7V | 00:00:00 | 00:00:00 | 00:00:00 | |
| OE5DXL-15 | 2026-08-30 11:49:35 | 49.43947 | 17.55933 | 93° | 78km/h | 13435m | 5.8m/s | -54.5°C | 6.9% | 0hPa | 2.7V | 00:00:00 | 00:00:00 | 08:30:00 | |
| PG1ADW-2 | 2026-08-30 11:49:30 | 49.43957 | 17.55775 | 98° | 78km/h | 13395m | 11.2m/s | -54.3°C | 6.9% | 0hPa | 2.7V | 00:00:00 | 00:00:00 | 00:00:00 | |
| OE5DRO-10 | 2026-08-30 11:49:28 | 49.43961 | 17.55709 | 96° | 78km/h | 13380m | 7.1m/s | -54.1°C | 6.8% | 0hPa | 2.7V | 00:00:00 | 00:00:00 | 00:00:00 | |
| PETON7-10 | 2026-08-30 11:49:20 | 49.43962 | 17.55473 | 92° | 77km/h | 13325m | 7.9m/s | -53.9°C | 7.3% | 0hPa | 2.7V | 00:00:00 | 01:10:16 | 00:00:00 | |
| OE3OSB-13 | 2026-08-30 11:49:19 | 49.43966 | 17.55385 | 96° | 77km/h | 13304m | 6.3m/s | -54.0°C | 4.1% | -1.0hPa | 2.7V | 00:00:00 | 00:00:00 | 00:00:00 | |
| PG1ADW-2 | 2026-08-30 11:49:10 | 49.43974 | 17.55165 | 81° | 77km/h | 13255m | 8.8m/s | -54.1°C | 7.5% | 0hPa | 2.7V | 00:00:00 | 01:10:06 | 00:00:00 | |
| OE5DRO-10 | 2026-08-30 11:49:09 | 49.43971 | 17.55137 | 80° | 77km/h | 13248m | 6.1m/s | -54.2°C | 7.6% | 0hPa | 2.7V | 00:00:00 | 00:00:00 | 00:00:00 | |
| OE5DXL-15 | 2026-08-30 11:49:05 | 49.43963 | 17.55032 | 90° | 78km/h | 13223m | 7.8m/s | -54.2°C | 7.8% | 0hPa | 2.7V | 00:00:00 | 00:00:00 | 00:00:00 | |
| OE3OSB-13 | 2026-08-30 11:48:47 | 49.43997 | 17.54448 | 93° | 78km/h | 13088m | 9.8m/s | -54.0°C | 4.0% | -1.0hPa | 2.7V | 00:00:00 | 00:00:00 | 00:00:00 | |
| PETON7-10 | 2026-08-30 11:48:35 | 49.43999 | 17.54111 | 85° | 80km/h | 13013m | 5.0m/s | -53.6°C | 7.9% | 0hPa | 2.7V | 00:00:00 | 01:09:31 | 00:00:00 | |
| OE5DRO-10 | 2026-08-30 11:48:31 | 49.43994 | 17.53989 | 89° | 80km/h | 12988m | 6.8m/s | -53.6°C | 7.8% | 0hPa | 2.7V | 00:00:00 | 00:00:00 | 00:00:00 | |
| PG1ADW-2 | 2026-08-30 11:48:30 | 49.43993 | 17.53957 | 90° | 80km/h | 12981m | 7.0m/s | -53.7°C | 7.9% | 0hPa | 2.7V | 00:00:00 | 00:00:00 | 00:00:00 | |
| PETON7-10 | 2026-08-30 11:48:20 | 49.43991 | 17.53644 | 89° | 82km/h | 12907m | 6.9m/s | -53.6°C | 8.3% | 0hPa | 2.7V | 00:00:00 | 00:00:00 | 08:30:00 | |
| OE3OSB-13 | 2026-08-30 11:48:16 | 49.43982 | 17.53483 | 82° | 73km/h | 12868m | 8.5m/s | -53.7°C | 5.0% | -1.0hPa | 2.9V | 00:00:00 | 00:00:00 | 00:00:00 | |
| OE5DRO-10 | 2026-08-30 11:48:12 | 49.43981 | 17.53398 | 94° | 80km/h | 12849m | 6.4m/s | -53.7°C | 8.6% | 0hPa | 2.9V | 00:00:00 | 00:00:00 | 00:00:00 | |
| PG1ADW-2 | 2026-08-30 11:48:10 | 49.43984 | 17.53338 | 96° | 80km/h | 12835m | 4.7m/s | -53.8°C | 8.7% | 0hPa | 2.7V | 00:00:00 | 00:00:00 | 08:30:00 | |
| PETON7-10 | 2026-08-30 11:48:05 | 49.43994 | 17.53170 | 92° | 77km/h | 12801m | 4.7m/s | -54.2°C | 9.6% | 0hPa | 2.9V | 00:00:00 | 00:00:00 | 00:00:00 | |
| OE5DRO-10 | 2026-08-30 11:47:53 | 49.43988 | 17.52808 | 86° | 75km/h | 12703m | 6.2m/s | -54.1°C | 9.5% | 0hPa | 2.9V | 00:00:00 | 00:00:00 | 00:00:00 | |
| PETON7-10 | 2026-08-30 11:47:50 | 49.43984 | 17.52722 | 90° | 75km/h | 12681m | 6.1m/s | -54.0°C | 9.9% | 0hPa | 2.9V | 00:00:00 | 01:08:46 | 00:00:00 | |
| OE3OSB-13 | 2026-08-30 11:47:45 | 49.43991 | 17.52553 | 92° | 66km/h | 12642m | 5.1m/s | -54.3°C | 6.5% | -1.0hPa | 2.9V | 00:00:00 | 00:00:00 | 00:00:00 | |
| OE5DXL-15 | 2026-08-30 11:47:35 | 49.44006 | 17.52291 | 101° | 75km/h | 12577m | 6.6m/s | -54.2°C | 10.2% | 0hPa | 2.9V | 00:00:00 | 00:00:00 | 00:00:00 | |
| OE5DRO-10 | 2026-08-30 11:47:34 | 49.44010 | 17.52262 | 102° | 75km/h | 12569m | 9.4m/s | -54.2°C | 10.2% | 0hPa | 2.9V | 00:00:00 | 00:00:00 | 00:00:00 | |
| PG1ADW-2 | 2026-08-30 11:47:30 | 49.44020 | 17.52146 | 91° | 77km/h | 12541m | 5.3m/s | -54.0°C | 10.4% | 0hPa | 2.9V | 00:00:00 | 00:00:00 | 00:00:00 | |
| PETON7-10 | 2026-08-30 11:47:20 | 49.44028 | 17.51866 | 87° | 77km/h | 12472m | 7.9m/s | -54.2°C | 10.2% | 0hPa | 2.9V | 00:00:00 | 00:00:00 | 00:00:00 | |
| OE5DRO-10 | 2026-08-30 11:47:15 | 49.44019 | 17.51717 | 89° | 73km/h | 12441m | 5.8m/s | -54.1°C | 9.7% | 0hPa | 2.9V | 00:00:00 | 00:00:00 | 08:30:00 | |
| OE3OSB-13 | 2026-08-30 11:47:13 | 49.44020 | 17.51653 | 94° | 82km/h | 12426m | 6.6m/s | -54.0°C | 5.7% | -1.0hPa | 2.9V | 00:00:00 | 00:00:00 | 00:00:00 | |
| PG1ADW-2 | 2026-08-30 11:47:10 | 49.44026 | 17.51556 | 94° | 69km/h | 12405m | 5.3m/s | -53.9°C | 9.2% | 0hPa | 2.9V | 00:00:00 | 00:00:00 | 00:00:00 | |
| OE5DXL-15 | 2026-08-30 11:47:05 | 49.44027 | 17.51419 | 89° | 71km/h | 12375m | 5.9m/s | -53.6°C | 9.0% | 0hPa | 2.9V | 00:00:00 | 00:00:00 | 00:00:00 | |
| OE5DRO-10 | 2026-08-30 11:46:56 | 49.44042 | 17.51183 | 93° | 71km/h | 12322m | 4.0m/s | -53.2°C | 8.6% | 0hPa | 2.9V | 00:00:00 | 00:00:00 | 00:00:00 | |
| PG1ADW-2 | 2026-08-30 11:46:50 | 49.44058 | 17.51023 | 105° | 73km/h | 12288m | 5.0m/s | -52.9°C | 8.7% | 0hPa | 2.9V | 00:00:00 | 00:00:00 | 00:00:00 | |
| OE3OSB-13 | 2026-08-30 11:46:42 | 49.44090 | 17.50808 | 99° | 64km/h | 12244m | 6.4m/s | -53.0°C | 5.5% | -1.0hPa | 2.9V | 00:00:00 | 00:00:00 | 00:00:00 | |
| OE5DRO-10 | 2026-08-30 11:46:37 | 49.44095 | 17.50664 | 94° | 75km/h | 12217m | 8.1m/s | -52.8°C | 9.2% | 0hPa | 2.9V | 00:00:00 | 00:00:00 | 00:00:00 | |
| PETON7-10 | 2026-08-30 11:46:35 | 49.44100 | 17.50606 | 99° | 75km/h | 12205m | 6.9m/s | -52.7°C | 9.2% | 0hPa | 2.9V | 00:00:00 | 00:00:00 | 00:00:00 | |
| PG1ADW-2 | 2026-08-30 11:46:30 | 49.44109 | 17.50467 | 94° | 75km/h | 12174m | 6.3m/s | -52.7°C | 9.0% | 0hPa | 2.9V | 00:00:00 | 01:07:26 | 00:00:00 | |
| PETON7-10 | 2026-08-30 11:46:20 | 49.44149 | 17.50177 | 106° | 71km/h | 12117m | 4.5m/s | -52.4°C | 9.2% | 0hPa | 2.9V | 00:00:00 | 01:07:16 | 00:00:00 | |
| HA6NAB-11 | 2026-08-30 11:46:13 | 49.44175 | 17.50014 | 106° | 75km/h | 12082m | 7.3m/s | 0°C | 0% | 0hPa | 2.9V | 00:00:00 | 00:00:00 | 00:00:00 | |
| OE3OSB-13 | 2026-08-30 11:46:11 | 49.44188 | 17.49932 | 100° | 66km/h | 12064m | 5.6m/s | -52.5°C | 5.9% | -1.0hPa | 2.9V | 00:00:00 | 00:00:00 | 00:00:00 | |
| PG1ADW-2 | 2026-08-30 11:46:10 | 49.44191 | 17.49907 | 98° | 75km/h | 12060m | 3.6m/s | -52.4°C | 9.4% | 0hPa | 2.9V | 00:00:00 | 00:00:00 | 00:00:00 | |
| OE5DXL-15 | 2026-08-30 11:46:05 | 49.44206 | 17.49776 | 105° | 78km/h | 12036m | 5.6m/s | -52.5°C | 8.8% | 0hPa | 2.9V | 00:00:00 | 00:00:00 | 00:00:00 | |
| OE5DRO-10 | 2026-08-30 11:45:59 | 49.44235 | 17.49618 | 102° | 80km/h | 12009m | 5.8m/s | -52.5°C | 9.7% | 0hPa | 2.9V | 00:00:00 | 00:00:00 | 00:00:00 | |
| PETON7-10 | 2026-08-30 11:45:50 | 49.44266 | 17.49330 | 107° | 80km/h | 11965m | 5.7m/s | -52.4°C | 10.3% | 0hPa | 2.9V | 00:00:00 | 00:00:00 | 00:00:00 | |
| OE5DRO-10 | 2026-08-30 11:45:40 | 49.44304 | 17.49027 | 99° | 73km/h | 11905m | 5.7m/s | -52.1°C | 10.1% | 0hPa | 2.9V | 00:00:00 | 00:00:00 | 00:00:00 | |
| HA6NAB-11 | 2026-08-30 11:45:36 | 49.44313 | 17.48903 | 95° | 75km/h | 11879m | 7.2m/s | 0°C | 0% | 0hPa | 2.9V | 00:00:00 | 00:00:00 | 00:00:00 | |
| PETON7-10 | 2026-08-30 11:45:35 | 49.44314 | 17.48875 | 94° | 71km/h | 11873m | 5.3m/s | -52.0°C | 10.3% | 0hPa | 2.9V | 00:00:00 | 01:06:31 | 00:00:00 | |
| PG1ADW-2 | 2026-08-30 11:45:30 | 49.44328 | 17.48735 | 108° | 69km/h | 11845m | 4.0m/s | -52.4°C | 11.8% | 0hPa | 2.9V | 00:00:00 | 00:00:00 | 00:00:00 | |
| OE5DRO-10 | 2026-08-30 11:45:21 | 49.44347 | 17.48499 | 85° | 69km/h | 11794m | 5.7m/s | -52.4°C | 13.8% | 0hPa | 2.9V | 00:00:00 | 00:00:00 | 00:00:00 | |
| PETON7-10 | 2026-08-30 11:45:20 | 49.44346 | 17.48473 | 90° | 69km/h | 11789m | 4.2m/s | -52.4°C | 14.2% | 0hPa | 2.7V | 00:00:00 | 00:00:00 | 00:00:00 | |
| PG1ADW-2 | 2026-08-30 11:45:10 | 49.44375 | 17.48205 | 87° | 69km/h | 11719m | 6.0m/s | -51.9°C | 15.6% | 0hPa | 2.9V | 00:00:00 | 01:06:06 | 08:30:00 | |
| OE3OSB-13 | 2026-08-30 11:45:09 | 49.44374 | 17.48180 | 84° | 66km/h | 11713m | 6.7m/s | -52.0°C | 11.3% | -1.0hPa | 2.9V | 00:00:00 | 00:00:00 | 00:00:00 | |
| OE5DXL-15 | 2026-08-30 11:45:05 | 49.44373 | 17.48071 | 97° | 68km/h | 11683m | 5.2m/s | -51.8°C | 17.1% | 0hPa | 2.9V | 00:00:00 | 00:00:00 | 08:30:00 | |
| OE5DRO-10 | 2026-08-30 11:45:02 | 49.44381 | 17.47993 | 101° | 64km/h | 11660m | 6.6m/s | -51.8°C | 18.7% | 0hPa | 2.7V | 00:00:00 | 00:00:00 | 00:00:00 | |
| PETON7-10 | 2026-08-30 11:44:50 | 49.44402 | 17.47675 | 100° | 66km/h | 11576m | 2.6m/s | -52.2°C | 24.0% | 0hPa | 2.7V | 00:00:00 | 01:05:46 | 00:00:00 | |
| OE5DRO-10 | 2026-08-30 11:44:43 | 49.44422 | 17.47528 | 110° | 75km/h | 11536m | 3.3m/s | -51.9°C | 24.0% | 0hPa | 2.7V | 00:00:00 | 00:00:00 | 00:00:00 | |
| OE3OSB-13 | 2026-08-30 11:44:38 | 49.44442 | 17.47400 | 103° | 89km/h | 11505m | 9.6m/s | -51.8°C | 19.1% | -1.0hPa | 2.7V | 00:00:00 | 00:00:00 | 00:00:00 | |
| PETON7-10 | 2026-08-30 11:44:35 | 49.44460 | 17.47300 | 107° | 75km/h | 11485m | 3.9m/s | -51.6°C | 27.4% | 0hPa | 2.7V | 00:00:00 | 00:00:00 | 00:00:00 | |
| PG1ADW-2 | 2026-08-30 11:44:30 | 49.44486 | 17.47164 | 107° | 80km/h | 11449m | 11.3m/s | -51.7°C | 28.5% | 0hPa | 2.7V | 00:00:00 | 00:00:00 | 00:00:00 | |
| OE5DRO-10 | 2026-08-30 11:44:24 | 49.44521 | 17.46993 | 104° | 82km/h | 11401m | 6.0m/s | -51.8°C | 30.1% | 0hPa | 2.7V | 00:00:00 | 00:00:00 | 08:30:00 | |
| PETON7-10 | 2026-08-30 11:44:20 | 49.44533 | 17.46877 | 100° | 84km/h | 11376m | 8.3m/s | -52.0°C | 29.7% | 0hPa | 2.9V | 00:00:00 | 00:00:00 | 00:00:00 | |
| S52SK | 2026-08-30 11:44:16 | 49.44548 | 17.46788 | 109° | 78km/h | 11354m | 6.8m/s | 0°C | 0% | 0hPa | 2.9V | 00:00:00 | 00:00:00 | 00:00:00 | |
| PG1ADW-2 | 2026-08-30 11:44:10 | 49.44589 | 17.46562 | 108° | 84km/h | 11305m | 6.9m/s | -52.2°C | 29.6% | 0hPa | 2.9V | 00:00:00 | 00:00:00 | 00:00:00 | |
| OE3OSB-13 | 2026-08-30 11:44:07 | 49.44607 | 17.46467 | 104° | 80km/h | 11287m | 6.5m/s | -52.4°C | 23.8% | -1.0hPa | 2.7V | 00:00:00 | 00:00:00 | 00:00:00 | |
| PETON7-10 | 2026-08-30 11:44:05 | 49.44616 | 17.46406 | 103° | 84km/h | 11275m | 7.4m/s | -52.4°C | 31.0% | 0hPa | 2.7V | 00:00:00 | 01:05:01 | 00:00:00 | |
| PETON7-10 | 2026-08-30 11:43:50 | 49.44708 | 17.45940 | 109° | 80km/h | 11190m | 10.0m/s | -52.2°C | 34.1% | 0hPa | 2.7V | 00:00:00 | 00:00:00 | 08:30:00 | |
| OE5DRO-10 | 2026-08-30 11:43:46 | 49.44728 | 17.45812 | 100° | 86km/h | 11160m | 6.8m/s | -51.9°C | 34.6% | 0hPa | 2.9V | 00:00:00 | 00:00:00 | 00:00:00 | |
| OE3OSB-13 | 2026-08-30 11:43:36 | 49.44760 | 17.45475 | 108° | 86km/h | 11089m | 4.2m/s | -51.5°C | 31.0% | -1.0hPa | 2.9V | 00:00:00 | 00:00:00 | 00:00:00 | |
| OE5DXL-15 | 2026-08-30 11:43:35 | 49.44760 | 17.45475 | 109° | 80km/h | 11089m | 4.1m/s | -51.5°C | 38.5% | 0hPa | 2.9V | 00:00:00 | 00:00:00 | 00:00:00 | |
| PG1ADW-2 | 2026-08-30 11:43:30 | 49.44805 | 17.45311 | 111° | 77km/h | 11065m | 4.8m/s | -51.3°C | 39.1% | 0hPa | 2.9V | 00:00:00 | 00:00:00 | 00:00:00 | |
| OE5DRO-10 | 2026-08-30 11:43:27 | 49.44828 | 17.45207 | 107° | 73km/h | 11047m | 8.0m/s | -51.1°C | 39.7% | 0hPa | 2.9V | 00:00:00 | 00:00:00 | 00:00:00 | |
| S52SK | 2026-08-30 11:43:22 | 49.44846 | 17.45101 | 104° | 62km/h | 11016m | 9.1m/s | 0°C | 0% | 0hPa | 2.7V | 00:00:00 | 00:00:00 | 00:00:00 | |
| PETON7-10 | 2026-08-30 11:43:20 | 49.44862 | 17.45027 | 113° | 78km/h | 10995m | 5.4m/s | -50.8°C | 39.8% | 0hPa | 2.7V | 00:00:00 | 01:04:16 | 00:00:00 | |
| S52SK | 2026-08-30 11:43:16 | 49.44885 | 17.44945 | 115° | 77km/h | 10971m | 9.0m/s | 0°C | 0% | 0hPa | 2.7V | 00:00:00 | 00:00:00 | 00:00:00 | |
| PG1ADW-2 | 2026-08-30 11:43:10 | 49.44930 | 17.44758 | 102° | 77km/h | 10919m | 7.5m/s | -50.3°C | 38.7% | 0hPa | 2.7V | 00:00:00 | 00:00:00 | 00:00:00 | |
| OE5DRO-10 | 2026-08-30 11:43:08 | 49.44937 | 17.44694 | 100° | 77km/h | 10906m | 3.5m/s | -50.3°C | 38.3% | 0hPa | 2.9V | 00:00:00 | 00:00:00 | 00:00:00 | |
| OE3JTB-15 | 2026-08-30 11:43:06 | 49.44947 | 17.44626 | 109° | 82km/h | 10897m | 4.9m/s | -50.2°C | 37.4% | 0hPa | 2.9V | 00:00:00 | 00:00:00 | 00:00:00 | |
| PETON7-10 | 2026-08-30 11:43:05 | 49.44956 | 17.44593 | 115° | 73km/h | 10892m | 4.9m/s | -50.1°C | 37.0% | 0hPa | 2.7V | 00:00:00 | 00:00:00 | 00:00:00 | |
| PETON7-10 | 2026-08-30 11:42:50 | 49.45049 | 17.44195 | 112° | 73km/h | 10791m | 8.5m/s | -49.2°C | 34.1% | 0hPa | 2.9V | 00:00:00 | 00:00:00 | 00:00:00 | |
| OE5DRO-10 | 2026-08-30 11:42:49 | 49.45056 | 17.44166 | 109° | 73km/h | 10782m | 9.1m/s | -49.2°C | 34.0% | 0hPa | 2.9V | 00:00:00 | 00:00:00 | 00:00:00 | |
| PETON7-10 | 2026-08-30 11:42:35 | 49.45159 | 17.43804 | 113° | 73km/h | 10695m | 8.5m/s | -48.7°C | 34.6% | 0hPa | 2.9V | 00:00:00 | 01:03:31 | 00:00:00 | |
| S52SK | 2026-08-30 11:42:33 | 49.45166 | 17.43777 | 112° | 73km/h | 10687m | 8.3m/s | 0°C | 0% | 0hPa | 2.9V | 00:00:00 | 00:00:00 | 00:00:00 | |
| OE5DRO-10 | 2026-08-30 11:42:30 | 49.45190 | 17.43670 | 105° | 77km/h | 10661m | 7.0m/s | -48.6°C | 35.9% | 0hPa | 2.9V | 00:00:00 | 00:00:00 | 00:00:00 | |
| S52SK | 2026-08-30 11:42:28 | 49.45194 | 17.43643 | 99° | 68km/h | 10655m | 4.2m/s | 0°C | 0% | 0hPa | 2.9V | 00:00:00 | 00:00:00 | 00:00:00 | |
| S52SK | 2026-08-30 11:42:23 | 49.45201 | 17.43504 | 94° | 75km/h | 10632m | 6.8m/s | 0°C | 0% | 0hPa | 2.9V | 00:00:00 | 00:00:00 | 00:00:00 | |
| PETON7-10 | 2026-08-30 11:42:20 | 49.45208 | 17.43385 | 98° | 78km/h | 10601m | 9.9m/s | -48.5°C | 35.3% | 0hPa | 2.9V | 00:00:00 | 00:00:00 | 00:00:00 | |
| OE5DRO-10 | 2026-08-30 11:42:11 | 49.45278 | 17.43123 | 112° | 78km/h | 10541m | 7.8m/s | -48.0°C | 36.4% | 0hPa | 2.7V | 00:00:00 | 00:00:00 | 00:00:00 | |
| PG1ADW-2 | 2026-08-30 11:42:10 | 49.45286 | 17.43092 | 110° | 78km/h | 10533m | 7.1m/s | -48.0°C | 36.1% | 0hPa | 2.7V | 00:00:00 | 00:00:00 | 08:30:00 | |
| PETON7-10 | 2026-08-30 11:42:05 | 49.45319 | 17.42968 | 115° | 82km/h | 10501m | 3.2m/s | -47.7°C | 38.0% | 0hPa | 2.9V | 00:00:00 | 00:00:00 | 00:00:00 | |
| OE3OSB-13 | 2026-08-30 11:42:03 | 49.45340 | 17.42889 | 109° | 78km/h | 10485m | 8.7m/s | -47.7°C | 31.6% | -1.0hPa | 2.9V | 00:00:00 | 00:00:00 | 00:00:00 | |
| OE5DRO-10 | 2026-08-30 11:41:52 | 49.45411 | 17.42582 | 98° | 86km/h | 10398m | 5.7m/s | -47.1°C | 39.2% | 0hPa | 2.9V | 00:00:00 | 00:00:00 | 00:00:00 | |
| PETON7-10 | 2026-08-30 11:41:50 | 49.45416 | 17.42515 | 95° | 86km/h | 10382m | 8.1m/s | -46.9°C | 39.4% | 0hPa | 2.9V | 00:00:00 | 01:02:46 | 00:00:00 | |
| OE5DXL-15 | 2026-08-30 11:41:35 | 49.45508 | 17.42041 | 102° | 82km/h | 10281m | 5.2m/s | 0°C | 0% | 0hPa | 2.9V | 00:00:00 | 00:00:00 | 00:00:00 | |
| OE5DRO-10 | 2026-08-30 11:41:33 | 49.45517 | 17.41975 | 104° | 80km/h | 10268m | 5.3m/s | -46.0°C | 41.0% | 0hPa | 2.9V | 00:00:00 | 00:00:00 | 08:30:00 | |
| OE3OSB-13 | 2026-08-30 11:41:32 | 49.45526 | 17.41916 | 100° | 75km/h | 10253m | 8.2m/s | -46.0°C | 33.4% | -1.0hPa | 2.7V | 00:00:00 | 00:00:00 | 00:00:00 | |
| PG1ADW-2 | 2026-08-30 11:41:30 | 49.45529 | 17.41887 | 99° | 80km/h | 10246m | 6.6m/s | -45.9°C | 39.9% | 0hPa | 2.7V | 00:00:00 | 00:00:00 | 00:00:00 | |
| PETON7-10 | 2026-08-30 11:41:20 | 49.45585 | 17.41567 | 95° | 80km/h | 10178m | 5.0m/s | -45.3°C | 41.4% | 0hPa | 2.7V | 00:00:00 | 00:00:00 | 00:00:00 | |
| OE5DRO-10 | 2026-08-30 11:41:14 | 49.45599 | 17.41406 | 109° | 91km/h | 10147m | 10.0m/s | -45.1°C | 38.5% | 0hPa | 2.7V | 00:00:00 | 00:00:00 | 00:00:00 | |
| PG1ADW-2 | 2026-08-30 11:41:10 | 49.45627 | 17.41282 | 107° | 93km/h | 10113m | 10.2m/s | -44.8°C | 37.8% | 0hPa | 2.7V | 00:00:00 | 01:02:06 | 00:00:00 | |
| OE5DXL-15 | 2026-08-30 11:41:05 | 49.45643 | 17.41105 | 99° | 89km/h | 10080m | 3.6m/s | 0°C | 0% | 0hPa | 2.7V | 00:00:00 | 01:02:01 | 00:00:00 | |
| OE3OSB-13 | 2026-08-30 11:41:01 | 49.45668 | 17.40931 | 104° | 93km/h | 10048m | 9.3m/s | -44.4°C | 34.0% | -1.0hPa | 2.7V | 00:00:00 | 00:00:00 | 00:00:00 | |
| OE5DRO-10 | 2026-08-30 11:40:55 | 49.45695 | 17.40741 | 106° | 88km/h | 10019m | 4.8m/s | -44.0°C | 40.7% | 0hPa | 2.7V | 00:00:00 | 00:00:00 | 00:00:00 | |
| PG1ADW-2 | 2026-08-30 11:40:50 | 49.45721 | 17.40573 | 96° | 84km/h | 9978m | 8.1m/s | -43.7°C | 39.1% | 0hPa | 2.7V | 00:00:00 | 00:00:00 | 00:00:00 | |
| OE3JTB-15 | 2026-08-30 11:40:49 | 49.45723 | 17.40537 | 92° | 82km/h | 9972m | 3.2m/s | -43.7°C | 39.1% | 0hPa | 2.7V | 00:00:00 | 00:00:00 | 00:00:00 | |
| OE5DRO-10 | 2026-08-30 11:40:36 | 49.45755 | 17.40111 | 89° | 84km/h | 9895m | 3.9m/s | -43.1°C | 39.7% | 0hPa | 2.7V | 00:00:00 | 00:00:00 | 00:00:00 | |
| PETON7-10 | 2026-08-30 11:40:35 | 49.45755 | 17.40077 | 92° | 82km/h | 9892m | 3.1m/s | -43.0°C | 40.2% | 0hPa | 2.9V | 00:00:00 | 00:00:00 | 00:00:00 | |
| OE5DXL-15 | 2026-08-30 11:40:33 | 49.45759 | 17.40016 | 100° | 73km/h | 9881m | 8.1m/s | 0°C | 0% | 0hPa | 2.9V | 00:00:00 | 00:00:00 | 00:00:00 | |
| PG1ADW-2 | 2026-08-30 11:40:30 | 49.45776 | 17.39937 | 115° | 82km/h | 9858m | 6.1m/s | 0°C | 0% | 0hPa | 2.9V | 00:00:00 | 00:00:00 | 00:00:00 | |
| OE3OSB-13 | 2026-08-30 11:40:29 | 49.45783 | 17.39912 | 112° | 71km/h | 9852m | 6.5m/s | -42.6°C | 35.0% | -1.0hPa | 2.9V | 00:00:00 | 00:00:00 | 00:00:00 | |
| PETON7-10 | 2026-08-30 11:40:20 | 49.45825 | 17.39610 | 112° | 80km/h | 9791m | 8.6m/s | -42.1°C | 42.4% | 0hPa | 2.9V | 00:00:00 | 01:01:16 | 00:00:00 | |
| OE5DRO-10 | 2026-08-30 11:40:17 | 49.45852 | 17.39521 | 113° | 78km/h | 9770m | 4.2m/s | -41.9°C | 43.7% | 0hPa | 2.9V | 00:00:00 | 00:00:00 | 00:00:00 | |
| PG1ADW-2 | 2026-08-30 11:40:10 | 49.45882 | 17.39322 | 96° | 77km/h | 9712m | 7.2m/s | 0°C | 0% | 0hPa | 2.9V | 00:00:00 | 00:00:00 | 00:00:00 | |
| PETON7-10 | 2026-08-30 11:40:05 | 49.45905 | 17.39164 | 110° | 73km/h | 9681m | 4.4m/s | -41.1°C | 31.9% | 0hPa | 2.9V | 00:00:00 | 00:00:00 | 00:00:00 | |
| OE3OSB-13 | 2026-08-30 11:39:59 | 49.45946 | 17.38964 | 103° | 78km/h | 9645m | 7.7m/s | -40.9°C | 20.4% | -1.0hPa | 2.9V | 00:00:00 | 00:00:00 | 00:00:00 | |
| OE5DRO-10 | 2026-08-30 11:39:58 | 49.45946 | 17.38964 | 104° | 77km/h | 9645m | 7.6m/s | -40.9°C | 24.4% | 0hPa | 2.9V | 00:00:00 | 00:00:00 | 00:00:00 | |
| PETON7-10 | 2026-08-30 11:39:50 | 49.45992 | 17.38755 | 109° | 82km/h | 9602m | 9.2m/s | -40.6°C | 29.4% | 0hPa | 2.9V | 00:00:00 | 00:00:00 | 00:00:00 | |
| OE5DRO-10 | 2026-08-30 11:39:39 | 49.46026 | 17.38415 | 90° | 78km/h | 9517m | 7.1m/s | -39.8°C | 30.4% | 0hPa | 2.9V | 00:00:00 | 00:00:00 | 00:00:00 | |
| PETON7-10 | 2026-08-30 11:39:35 | 49.46042 | 17.38292 | 113° | 78km/h | 9494m | 5.8m/s | -39.5°C | 29.3% | 0hPa | 2.7V | 00:00:00 | 01:00:31 | 00:00:00 | |
| PG1ADW-2 | 2026-08-30 11:39:30 | 49.46069 | 17.38156 | 100° | 77km/h | 9456m | 7.1m/s | 0°C | 0% | 0hPa | 2.7V | 00:00:00 | 00:00:00 | 00:00:00 | |
| OE3OSB-13 | 2026-08-30 11:39:27 | 49.46075 | 17.38069 | 93° | 78km/h | 9436m | 7.7m/s | -39.0°C | 24.2% | -1.0hPa | 2.7V | 00:00:00 | 00:00:00 | 00:00:00 | |
| PETON7-10 | 2026-08-30 11:39:20 | 49.46077 | 17.37843 | 97° | 75km/h | 9399m | 4.2m/s | -38.6°C | 28.2% | 0hPa | 2.7V | 00:00:00 | 00:00:00 | 08:30:00 | |
| PG1ADW-2 | 2026-08-30 11:39:10 | 49.46101 | 17.37572 | 95° | 80km/h | 9331m | 5.0m/s | 0°C | 0% | 0hPa | 2.9V | 00:00:00 | 00:00:00 | 00:00:00 | |
| PETON7-10 | 2026-08-30 11:39:05 | 49.46116 | 17.37412 | 102° | 82km/h | 9304m | 5.3m/s | -37.7°C | 24.0% | 0hPa | 2.9V | 00:00:00 | 00:00:00 | 00:00:00 | |
| OE3OSB-13 | 2026-08-30 11:38:56 | 49.46149 | 17.37152 | 94° | 84km/h | 9240m | 9.1m/s | -37.2°C | 15.7% | -1.0hPa | 2.9V | 00:00:00 | 00:00:00 | 00:00:00 | |
| PETON7-10 | 2026-08-30 11:38:50 | 49.46155 | 17.36940 | 91° | 89km/h | 9210m | 3.0m/s | -36.9°C | 17.8% | 0hPa | 2.9V | 00:00:00 | 00:59:46 | 00:00:00 | |
| OE5DRO-10 | 2026-08-30 11:38:42 | 49.46184 | 17.36670 | 108° | 84km/h | 9163m | 4.1m/s | -36.6°C | 17.1% | 0hPa | 2.9V | 00:00:00 | 00:00:00 | 08:30:00 | |
| PETON7-10 | 2026-08-30 11:38:35 | 49.46236 | 17.36441 | 110° | 80km/h | 9122m | 6.5m/s | -36.6°C | 17.7% | 0hPa | 2.9V | 00:00:00 | 00:00:00 | 00:00:00 | |
| OE3JTB-15 | 2026-08-30 11:38:26 | 49.46275 | 17.36164 | 117° | 71km/h | 9067m | 5.0m/s | -36.3°C | 17.9% | 0hPa | 2.9V | 00:00:00 | 00:59:22 | 00:00:00 | |
| OE5DRO-10 | 2026-08-30 11:38:23 | 49.46303 | 17.36089 | 122° | 78km/h | 9056m | 1.7m/s | -36.2°C | 18.4% | 0hPa | 2.9V | 00:00:00 | 00:00:00 | 00:00:00 | |
| PETON7-10 | 2026-08-30 11:38:20 | 49.46329 | 17.36010 | 112° | 78km/h | 9044m | 5.4m/s | -36.1°C | 18.8% | 0hPa | 2.9V | 00:00:00 | 00:00:00 | 00:00:00 | |
| PETON7-10 | 2026-08-30 11:38:05 | 49.46399 | 17.35562 | 94° | 62km/h | 8962m | 7.7m/s | -35.5°C | 22.5% | 0hPa | 2.9V | 00:00:00 | 00:59:01 | 00:00:00 | |
| OE5DRO-10 | 2026-08-30 11:38:04 | 49.46400 | 17.35534 | 94° | 62km/h | 8955m | 5.5m/s | -35.5°C | 22.9% | 0hPa | 2.9V | 00:00:00 | 00:00:00 | 00:00:00 | |
| OE3JTB-15 | 2026-08-30 11:37:54 | 49.46423 | 17.35291 | 100° | 68km/h | 8888m | 7.8m/s | -34.9°C | 25.2% | 0hPa | 2.9V | 00:00:00 | 00:00:00 | 00:00:00 | |
| PETON7-10 | 2026-08-30 11:37:50 | 49.46436 | 17.35207 | 105° | 73km/h | 8869m | 2.2m/s | -34.8°C | 28.4% | 0hPa | 2.9V | 00:00:00 | 00:00:00 | 00:00:00 | |
| OE5DRO-10 | 2026-08-30 11:37:45 | 49.46448 | 17.35074 | 93° | 71km/h | 8839m | 7.6m/s | -34.7°C | 30.9% | 0hPa | 2.9V | 00:00:00 | 00:00:00 | 00:00:00 | |
| PETON7-10 | 2026-08-30 11:37:35 | 49.46485 | 17.34789 | 95° | 68km/h | 8787m | 5.4m/s | -34.3°C | 32.9% | 0hPa | 2.9V | 00:00:00 | 00:00:00 | 00:00:00 | |
| OE5DRO-10 | 2026-08-30 11:37:26 | 49.46483 | 17.34558 | 95° | 62km/h | 8734m | 6.7m/s | -33.9°C | 33.8% | 0hPa | 2.9V | 00:00:00 | 00:00:00 | 00:00:00 | |
| OE3JTB-15 | 2026-08-30 11:37:25 | 49.46485 | 17.34530 | 99° | 64km/h | 8729m | 5.2m/s | -33.9°C | 33.7% | 0hPa | 2.9V | 00:00:00 | 00:00:00 | 00:00:00 | |
| OE3OSB-13 | 2026-08-30 11:37:23 | 49.46493 | 17.34477 | 107° | 68km/h | 8718m | 3.0m/s | -33.8°C | 29.8% | -1.0hPa | 2.9V | 00:00:00 | 00:00:00 | 00:00:00 | |
| PETON7-10 | 2026-08-30 11:37:20 | 49.46509 | 17.34401 | 104° | 58km/h | 8708m | 2.9m/s | -33.6°C | 34.8% | 0hPa | 2.9V | 00:00:00 | 00:58:16 | 00:00:00 | |
| OE5DRO-10 | 2026-08-30 11:37:07 | 49.46539 | 17.34118 | 99° | 66km/h | 8643m | 8.3m/s | -33.2°C | 0% | 0hPa | 2.9V | 00:00:00 | 00:00:00 | 00:00:00 | |
| PETON7-10 | 2026-08-30 11:37:05 | 49.46542 | 17.34070 | 94° | 68km/h | 8628m | 6.0m/s | -33.1°C | 36.8% | 0hPa | 2.9V | 00:00:00 | 00:00:00 | 08:30:00 | |
| OE3OSB-13 | 2026-08-30 11:36:52 | 49.46580 | 17.33742 | 87° | 62km/h | 8555m | 6.2m/s | -32.8°C | 38.4% | -1.0hPa | 2.9V | 00:00:00 | 00:00:00 | 00:00:00 | |
| PETON7-10 | 2026-08-30 11:36:50 | 49.46580 | 17.33691 | 93° | 64km/h | 8544m | 6.4m/s | -32.7°C | 44.1% | 0hPa | 2.9V | 00:00:00 | 00:00:00 | 00:00:00 | |
| OE5DRO-10 | 2026-08-30 11:36:48 | 49.46583 | 17.33640 | 97° | 64km/h | 8531m | 5.6m/s | 0°C | 0% | 0hPa | 2.9V | 00:00:00 | 00:00:00 | 00:00:00 | |
| OE5DRO-10 | 2026-08-30 11:36:29 | 49.46604 | 17.33174 | 87° | 68km/h | 8416m | 7.5m/s | 0°C | 0% | 0hPa | 2.9V | 00:00:00 | 00:00:00 | 00:00:00 | |
| OE3JTB-15 | 2026-08-30 11:36:26 | 49.46604 | 17.33079 | 93° | 66km/h | 8399m | 4.6m/s | -31.6°C | 51.4% | 0hPa | 2.9V | 00:00:00 | 00:00:00 | 00:00:00 | |
| OE3OSB-13 | 2026-08-30 11:36:21 | 49.46616 | 17.32963 | 96° | 46km/h | 8369m | 4.8m/s | -31.4°C | 46.8% | -1.0hPa | 2.7V | 00:00:00 | 00:00:00 | 00:00:00 | |
| PETON7-10 | 2026-08-30 11:36:20 | 49.46617 | 17.32944 | 92° | 68km/h | 8364m | 5.3m/s | -31.3°C | 52.4% | 0hPa | 2.7V | 00:00:00 | 00:00:00 | 00:00:00 | |
| OE5DRO-10 | 2026-08-30 11:36:10 | 49.46641 | 17.32682 | 90° | 68km/h | 8297m | 5.9m/s | 0°C | 0% | 0hPa | 3.0V | 00:00:00 | 00:00:00 | 00:00:00 | |
| PETON7-10 | 2026-08-30 11:36:07 | 49.46638 | 17.32552 | 89° | 64km/h | 8265m | 6.3m/s | -30.6°C | 40.0% | 0hPa | 3.0V | 00:00:00 | 00:00:00 | 00:00:00 | |
| OE3JTB-15 | 2026-08-30 11:35:57 | 49.46645 | 17.32357 | 94° | 62km/h | 8211m | 5.3m/s | -30.2°C | 35.5% | 0hPa | 3.0V | 00:00:00 | 00:00:00 | 00:00:00 | |
| OE5DRO-10 | 2026-08-30 11:35:51 | 49.46640 | 17.32208 | 92° | 60km/h | 8176m | 6.4m/s | 0°C | 0% | 0hPa | 3.0V | 00:00:00 | 00:00:00 | 00:00:00 | |
| PETON7-10 | 2026-08-30 11:35:50 | 49.46641 | 17.32185 | 92° | 62km/h | 8170m | 6.1m/s | -29.8°C | 25.6% | 0hPa | 3.0V | 00:00:00 | 00:56:46 | 00:00:00 | |
| PETON7-10 | 2026-08-30 11:35:35 | 49.46687 | 17.31836 | 109° | 68km/h | 8079m | 5.2m/s | -29.1°C | 13.1% | 0hPa | 3.0V | 00:00:00 | 00:00:00 | 00:00:00 | |
| OE3JTB-15 | 2026-08-30 11:35:25 | 49.46733 | 17.31595 | 103° | 64km/h | 8016m | 7.9m/s | -28.7°C | 10.5% | 0hPa | 2.9V | 00:00:00 | 00:56:21 | 00:00:00 | |
| PETON7-10 | 2026-08-30 11:35:20 | 49.46740 | 17.31456 | 88° | 60km/h | 7985m | 6.4m/s | -28.4°C | 11.2% | 0hPa | 2.9V | 00:00:00 | 00:00:00 | 00:00:00 | |
| OE3OSB-13 | 2026-08-30 11:35:19 | 49.46738 | 17.31420 | 80° | 46km/h | 7972m | 7.5m/s | -28.5°C | 9.2% | -1.0hPa | 2.9V | 00:00:00 | 00:00:00 | 00:00:00 | |
| PETON7-10 | 2026-08-30 11:35:05 | 49.46749 | 17.31109 | 97° | 66km/h | 7890m | 6.6m/s | -27.8°C | 10.4% | 0hPa | 2.9V | 00:00:00 | 00:56:01 | 00:00:00 | |
| OE3OSB-13 | 2026-08-30 11:34:48 | 49.46783 | 17.30652 | 92° | 58km/h | 7771m | 6.3m/s | -27.0°C | 10.5% | -1.0hPa | 2.9V | 00:00:00 | 00:00:00 | 00:00:00 | |
| PETON7-10 | 2026-08-30 11:34:35 | 49.46787 | 17.30356 | 92° | 66km/h | 7688m | 7.2m/s | -26.8°C | 20.2% | 0hPa | 2.9V | 00:00:00 | 00:00:00 | 00:00:00 | |
| PETON7-10 | 2026-08-30 11:34:20 | 49.46811 | 17.29981 | 91° | 55km/h | 7576m | 6.0m/s | -26.0°C | 22.2% | 0hPa | 2.9V | 00:00:00 | 00:55:16 | 00:00:00 | |
| OE3OSB-13 | 2026-08-30 11:34:17 | 49.46817 | 17.29891 | 105° | 57km/h | 7546m | 6.2m/s | -25.9°C | 18.5% | -1.0hPa | 2.9V | 00:00:00 | 00:00:00 | 00:00:00 | |
| PETON7-10 | 2026-08-30 11:34:05 | 49.46844 | 17.29662 | 103° | 55km/h | 7467m | 6.9m/s | -25.3°C | 18.1% | 0hPa | 2.9V | 00:00:00 | 00:00:00 | 00:00:00 | |
| OE3OSB-13 | 2026-08-30 11:33:46 | 49.46895 | 17.29248 | 105° | 49km/h | 7322m | 7.6m/s | -24.2°C | 15.3% | -1.0hPa | 2.9V | 00:00:00 | 00:00:00 | 00:00:00 | |
| PETON7-10 | 2026-08-30 11:33:35 | 49.46912 | 17.29054 | 91° | 51km/h | 7253m | 5.8m/s | -23.7°C | 20.4% | 0hPa | 2.9V | 00:00:00 | 00:54:31 | 00:00:00 | |
| PETON7-10 | 2026-08-30 11:33:20 | 49.46925 | 17.28764 | 92° | 47km/h | 7152m | 8.2m/s | -22.8°C | 21.7% | 0hPa | 2.9V | 00:00:00 | 00:00:00 | 00:00:00 | |
| OE3OSB-13 | 2026-08-30 11:33:15 | 49.46922 | 17.28654 | 89° | 40km/h | 7111m | 6.9m/s | -22.5°C | 19.4% | -1.0hPa | 3.0V | 00:00:00 | 00:00:00 | 00:00:00 | |
| OE3JTB-15 | 2026-08-30 11:33:11 | 49.46920 | 17.28601 | 88° | 47km/h | 7091m | 6.6m/s | -22.3°C | 20.9% | 0hPa | 3.0V | 00:00:00 | 00:54:07 | 00:00:00 | |
| PETON7-10 | 2026-08-30 11:33:05 | 49.46920 | 17.28489 | 85° | 47km/h | 7052m | 7.1m/s | -21.9°C | 20.3% | 0hPa | 3.0V | 00:00:00 | 00:00:00 | 00:00:00 | |
| PETON7-10 | 2026-08-30 11:32:50 | 49.46921 | 17.28210 | 92° | 46km/h | 6948m | 6.4m/s | -20.9°C | 18.9% | 0hPa | 3.0V | 00:00:00 | 00:53:46 | 00:00:00 | |
| OE3OSB-13 | 2026-08-30 11:32:44 | 49.46922 | 17.28084 | 88° | 44km/h | 6902m | 6.8m/s | -20.5°C | 16.7% | -1.0hPa | 3.0V | 00:00:00 | 00:00:00 | 00:00:00 | |
| OE3JTB-15 | 2026-08-30 11:32:42 | 49.46921 | 17.28067 | 84° | 47km/h | 6895m | 7.2m/s | -20.4°C | 18.0% | 0hPa | 3.0V | 00:00:00 | 00:00:00 | 00:00:00 | |
| PETON7-10 | 2026-08-30 11:32:35 | 49.46911 | 17.27944 | 84° | 46km/h | 6846m | 8.0m/s | -20.0°C | 12.1% | 0hPa | 3.0V | 00:00:00 | 00:00:00 | 08:30:00 | |
| PETON7-10 | 2026-08-30 11:32:20 | 49.46916 | 17.27676 | 88° | 46km/h | 6741m | 6.9m/s | -19.2°C | 10.0% | 0hPa | 3.0V | 00:00:00 | 00:00:00 | 00:00:00 | |
| OE3OSB-13 | 2026-08-30 11:32:12 | 49.46922 | 17.27534 | 92° | 47km/h | 6686m | 7.1m/s | -18.8°C | 8.6% | -1.0hPa | 3.0V | 00:00:00 | 00:00:00 | 00:00:00 | |
| PETON7-10 | 2026-08-30 11:32:05 | 49.46930 | 17.27410 | 94° | 47km/h | 6639m | 7.3m/s | -18.4°C | 9.3% | 0hPa | 3.0V | 00:00:00 | 00:53:01 | 00:00:00 | |
| OE3JTB-15 | 2026-08-30 11:31:59 | 49.46937 | 17.27303 | 97° | 47km/h | 6598m | 7.4m/s | -18.0°C | 9.3% | 0hPa | 3.0V | 00:00:00 | 00:00:00 | 00:00:00 | |
| PETON7-10 | 2026-08-30 11:31:50 | 49.46945 | 17.27140 | 91° | 46km/h | 6534m | 7.0m/s | -17.4°C | 9.5% | 0hPa | 3.0V | 00:00:00 | 00:00:00 | 00:00:00 | |
| OE3OSB-13 | 2026-08-30 11:31:41 | 49.46954 | 17.26977 | 100° | 46km/h | 6473m | 6.3m/s | -16.9°C | 8.6% | -1.0hPa | 3.0V | 00:00:00 | 00:00:00 | 00:00:00 | |
| PETON7-10 | 2026-08-30 11:31:35 | 49.46951 | 17.26876 | 91° | 47km/h | 6431m | 6.8m/s | -16.6°C | 10.6% | 0hPa | 3.0V | 00:00:00 | 00:00:00 | 00:00:00 | |
| PETON7-10 | 2026-08-30 11:31:20 | 49.46958 | 17.26597 | 93° | 47km/h | 6326m | 7.0m/s | -16.1°C | 11.0% | 0hPa | 3.0V | 00:00:00 | 00:52:16 | 00:00:00 | |
| OE3OSB-13 | 2026-08-30 11:31:10 | 49.46971 | 17.26412 | 91° | 44km/h | 6259m | 7.1m/s | -15.7°C | 10.2% | -1.0hPa | 3.0V | 00:00:00 | 00:00:00 | 00:00:00 | |
| PETON7-10 | 2026-08-30 11:30:50 | 49.47003 | 17.26057 | 98° | 46km/h | 6132m | 6.6m/s | -14.7°C | 11.2% | 0hPa | 3.0V | 00:00:00 | 00:00:00 | 00:00:00 | |
| OE3OSB-13 | 2026-08-30 11:30:39 | 49.47019 | 17.25871 | 94° | 47km/h | 6063m | 6.8m/s | -14.2°C | 10.2% | -1.0hPa | 3.0V | 00:00:00 | 00:00:00 | 00:00:00 | |
| PETON7-10 | 2026-08-30 11:30:35 | 49.47025 | 17.25798 | 96° | 44km/h | 6038m | 5.7m/s | -14.0°C | 10.9% | 0hPa | 3.0V | 00:00:00 | 00:51:31 | 00:00:00 | |
| PETON7-10 | 2026-08-30 11:30:21 | 49.47052 | 17.25544 | 101° | 46km/h | 5949m | 5.2m/s | -13.2°C | 9.5% | 0hPa | 3.0V | 00:00:00 | 00:00:00 | 08:30:00 | |
| OE3OSB-13 | 2026-08-30 11:30:08 | 49.47066 | 17.25336 | 105° | 42km/h | 5876m | 6.0m/s | -12.6°C | 8.4% | -1.0hPa | 3.0V | 00:00:00 | 00:00:00 | 00:00:00 | |
| PETON7-10 | 2026-08-30 11:30:05 | 49.47074 | 17.25282 | 101° | 46km/h | 5862m | 6.5m/s | -12.4°C | 8.8% | 0hPa | 3.0V | 00:00:00 | 00:00:00 | 00:00:00 | |
| OE3JTB-15 | 2026-08-30 11:29:58 | 49.47084 | 17.25162 | 96° | 44km/h | 5818m | 6.5m/s | -12.0°C | 7.7% | 0hPa | 3.0V | 00:00:00 | 00:50:54 | 00:00:00 | |
| PETON7-10 | 2026-08-30 11:29:50 | 49.47095 | 17.25016 | 99° | 42km/h | 5772m | 6.1m/s | -11.7°C | 9.2% | 0hPa | 3.0V | 00:00:00 | 00:50:46 | 00:00:00 | |
| OE3OSB-13 | 2026-08-30 11:29:37 | 49.47099 | 17.24807 | 95° | 42km/h | 5697m | 6.2m/s | -11.2°C | 10.0% | -1.0hPa | 3.0V | 00:00:00 | 00:00:00 | 00:00:00 | |
| PETON7-10 | 2026-08-30 11:29:35 | 49.47102 | 17.24775 | 102° | 46km/h | 5684m | 7.6m/s | -11.0°C | 10.7% | 0hPa | 3.0V | 00:00:00 | 00:00:00 | 00:00:00 | |
| OE3JTB-15 | 2026-08-30 11:29:29 | 49.47109 | 17.24673 | 93° | 47km/h | 5648m | 6.8m/s | -10.7°C | 10.5% | 0hPa | 3.0V | 00:00:00 | 00:00:00 | 00:00:00 | |
| PETON7-10 | 2026-08-30 11:29:20 | 49.47108 | 17.24508 | 92° | 47km/h | 5598m | 6.0m/s | -10.3°C | 10.5% | 0hPa | 3.0V | 00:00:00 | 00:00:00 | 00:00:00 | |
| OE3OSB-13 | 2026-08-30 11:29:06 | 49.47123 | 17.24252 | 94° | 49km/h | 5517m | 4.5m/s | -9.7°C | 8.8% | -1.0hPa | 3.0V | 00:00:00 | 00:00:00 | 00:00:00 | |
| PETON7-10 | 2026-08-30 11:29:05 | 49.47123 | 17.24232 | 91° | 47km/h | 5512m | 5.9m/s | -9.6°C | 9.3% | 0hPa | 3.0V | 00:00:00 | 00:50:01 | 00:00:00 | |
| OE3JTB-15 | 2026-08-30 11:29:00 | 49.47129 | 17.24143 | 100° | 47km/h | 5485m | 5.5m/s | -9.3°C | 8.4% | 0hPa | 3.0V | 00:00:00 | 00:00:00 | 00:00:00 | |
| PETON7-10 | 2026-08-30 11:28:50 | 49.47141 | 17.23960 | 103° | 47km/h | 5430m | 4.7m/s | -9.0°C | 5.9% | 0hPa | 3.0V | 00:00:00 | 00:00:00 | 00:00:00 | |
| PETON7-10 | 2026-08-30 11:28:35 | 49.47160 | 17.23679 | 90° | 53km/h | 5350m | 5.4m/s | -9.2°C | 14.2% | 0hPa | 3.0V | 00:00:00 | 00:00:00 | 00:00:00 | |
| OE3JTB-15 | 2026-08-30 11:28:31 | 49.47159 | 17.23603 | 92° | 58km/h | 5328m | 5.7m/s | -9.6°C | 29.1% | 0hPa | 3.0V | 00:00:00 | 00:49:27 | 00:00:00 | |
| PETON7-10 | 2026-08-30 11:28:20 | 49.47161 | 17.23376 | 86° | 60km/h | 5270m | 7.2m/s | -9.7°C | 68.6% | 0hPa | 3.0V | 00:00:00 | 00:49:16 | 00:00:00 | |
| PETON7-10 | 2026-08-30 11:28:05 | 49.47155 | 17.23022 | 89° | 64km/h | 5187m | 5.6m/s | -9.2°C | 91.2% | 0hPa | 3.0V | 00:00:00 | 00:00:00 | 08:30:00 | |
| OE3OSB-13 | 2026-08-30 11:28:04 | 49.47155 | 17.22996 | 90° | 64km/h | 5181m | 5.4m/s | -9.2°C | 89.9% | -1.0hPa | 3.0V | 00:00:00 | 00:00:00 | 00:00:00 | |
| PETON7-10 | 2026-08-30 11:27:50 | 49.47142 | 17.22650 | 85° | 60km/h | 5105m | 6.0m/s | -8.5°C | 90.9% | 0hPa | 3.0V | 00:00:00 | 00:00:00 | 00:00:00 | |
| PETON7-10 | 2026-08-30 11:27:35 | 49.47122 | 17.22303 | 78° | 55km/h | 5018m | 6.1m/s | -7.9°C | 84.1% | 0hPa | 3.0V | 00:00:00 | 00:48:31 | 00:00:00 | |
| OE3JTB-15 | 2026-08-30 11:27:33 | 49.47117 | 17.22262 | 83° | 58km/h | 5007m | 5.6m/s | -7.8°C | 84.6% | 0hPa | 3.0V | 00:00:00 | 00:00:00 | 00:00:00 | |
| PETON7-10 | 2026-08-30 11:27:20 | 49.47101 | 17.21983 | 87° | 60km/h | 4926m | 5.6m/s | -7.1°C | 84.4% | 0hPa | 3.0V | 00:00:00 | 00:00:00 | 00:00:00 | |
| PETON7-10 | 2026-08-30 11:27:05 | 49.47100 | 17.21634 | 97° | 55km/h | 4830m | 6.3m/s | -6.8°C | 85.3% | 0hPa | 3.0V | 00:00:00 | 00:00:00 | 00:00:00 | |
| OE3JTB-15 | 2026-08-30 11:27:04 | 49.47101 | 17.21611 | 95° | 53km/h | 4824m | 6.1m/s | -6.7°C | 85.7% | 0hPa | 3.0V | 00:00:00 | 00:48:00 | 00:00:00 | |
| OE3OSB-13 | 2026-08-30 11:27:02 | 49.47102 | 17.21564 | 87° | 58km/h | 4811m | 6.2m/s | -6.7°C | 82.5% | -1.0hPa | 3.0V | 00:00:00 | 00:00:00 | 00:00:00 | |
| PETON7-10 | 2026-08-30 11:26:50 | 49.47103 | 17.21311 | 90° | 51km/h | 4733m | 5.9m/s | -6.2°C | 83.1% | 0hPa | 3.0V | 00:00:00 | 00:47:46 | 00:00:00 | |
| PETON7-10 | 2026-08-30 11:26:35 | 49.47115 | 17.21014 | 92° | 51km/h | 4628m | 6.1m/s | -5.6°C | 82.6% | 0hPa | 3.0V | 00:00:00 | 00:00:00 | 00:00:00 | |
| OE3OSB-13 | 2026-08-30 11:26:31 | 49.47121 | 17.20934 | 97° | 57km/h | 4602m | 6.2m/s | -5.5°C | 0% | -1.0hPa | 3.0V | 00:00:00 | 00:00:00 | 00:00:00 | |
| PETON7-10 | 2026-08-30 11:26:20 | 49.47122 | 17.20724 | 90° | 40km/h | 4530m | 5.5m/s | -5.7°C | 0% | 0hPa | 3.0V | 00:00:00 | 00:00:00 | 00:00:00 | |
| OE3JTB-15 | 2026-08-30 11:26:06 | 49.47114 | 17.20503 | 88° | 47km/h | 4433m | 7.3m/s | -5.0°C | 0% | 0hPa | 3.0V | 00:00:00 | 00:00:00 | 00:00:00 | |
| PETON7-10 | 2026-08-30 11:26:05 | 49.47114 | 17.20487 | 89° | 46km/h | 4427m | 5.7m/s | -5.0°C | 0% | 0hPa | 3.0V | 00:00:00 | 00:47:01 | 00:00:00 | |
| OE3OSB-13 | 2026-08-30 11:26:00 | 49.47107 | 17.20383 | 88° | 44km/h | 4387m | 6.3m/s | -4.8°C | 98.7% | -1.0hPa | 3.0V | 00:00:00 | 00:00:00 | 00:00:00 | |
| PETON7-10 | 2026-08-30 11:25:50 | 49.47098 | 17.20218 | 84° | 47km/h | 4324m | 4.9m/s | -4.3°C | 0% | 0hPa | 3.0V | 00:00:00 | 00:00:00 | 08:30:00 | |
| OE3JTB-15 | 2026-08-30 11:25:37 | 49.47077 | 17.19982 | 86° | 47km/h | 4233m | 7.0m/s | -3.5°C | 94.8% | 0hPa | 3.0V | 00:00:00 | 00:46:33 | 00:00:00 | |
| PETON7-10 | 2026-08-30 11:25:35 | 49.47074 | 17.19945 | 77° | 47km/h | 4218m | 5.7m/s | -3.3°C | 94.3% | 0hPa | 3.0V | 00:00:00 | 00:00:00 | 00:00:00 | |
| OE3OSB-13 | 2026-08-30 11:25:29 | 49.47059 | 17.19818 | 80° | 42km/h | 4167m | 8.4m/s | -2.9°C | 89.5% | -1.0hPa | 3.0V | 00:00:00 | 00:00:00 | 00:00:00 | |
| PETON7-10 | 2026-08-30 11:25:20 | 49.47043 | 17.19673 | 84° | 47km/h | 4108m | 7.4m/s | -2.4°C | 90.1% | 0hPa | 3.0V | 00:00:00 | 00:46:16 | 00:00:00 | |
| OE3JTB-15 | 2026-08-30 11:25:08 | 49.47020 | 17.19453 | 82° | 46km/h | 4020m | 7.3m/s | -1.7°C | 87.0% | 0hPa | 3.0V | 00:00:00 | 00:00:00 | 00:00:00 | |
| PETON7-10 | 2026-08-30 11:25:04 | 49.47014 | 17.19382 | 88° | 46km/h | 3991m | 7.5m/s | -1.5°C | 86.4% | 0hPa | 3.0V | 00:00:00 | 00:00:00 | 00:00:00 | |
| OE3OSB-13 | 2026-08-30 11:24:58 | 49.47009 | 17.19257 | 90° | 47km/h | 3938m | 7.2m/s | -1.1°C | 82.9% | -1.0hPa | 3.0V | 00:00:00 | 00:00:00 | 00:00:00 | |
| PETON7-10 | 2026-08-30 11:24:49 | 49.47010 | 17.19113 | 86° | 46km/h | 3878m | 7.9m/s | -0.6°C | 83.4% | 0hPa | 3.0V | 00:00:00 | 00:00:00 | 00:00:00 | |
| OE3JTB-15 | 2026-08-30 11:24:39 | 49.46990 | 17.18942 | 71° | 44km/h | 3804m | 7.2m/s | 0.0°C | 80.7% | 0hPa | 3.0V | 00:00:00 | 00:00:00 | 00:00:00 | |
| PETON7-10 | 2026-08-30 11:24:34 | 49.46975 | 17.18856 | 77° | 44km/h | 3765m | 7.5m/s | 0.3°C | 79.6% | 0hPa | 3.0V | 00:00:00 | 00:45:30 | 00:00:00 | |
| OE3OSB-13 | 2026-08-30 11:24:27 | 49.46960 | 17.18734 | 82° | 46km/h | 3703m | 6.3m/s | 0.8°C | 75.3% | -1.0hPa | 3.0V | 00:00:00 | 00:00:00 | 00:00:00 | |
| PETON7-10 | 2026-08-30 11:24:19 | 49.46945 | 17.18611 | 78° | 42km/h | 3650m | 8.8m/s | 1.1°C | 77.8% | 0hPa | 3.0V | 00:00:00 | 00:00:00 | 00:00:00 | |
| OE3JTB-15 | 2026-08-30 11:24:10 | 49.46934 | 17.18466 | 88° | 42km/h | 3584m | 6.6m/s | 1.6°C | 75.5% | 0hPa | 3.0V | 00:00:00 | 00:45:06 | 00:00:00 | |
| PETON7-10 | 2026-08-30 11:24:04 | 49.46927 | 17.18366 | 87° | 42km/h | 3539m | 7.3m/s | 2.0°C | 74.4% | 0hPa | 3.0V | 00:00:00 | 00:00:00 | 00:00:00 | |
| OE3OSB-13 | 2026-08-30 11:23:55 | 49.46915 | 17.18219 | 86° | 40km/h | 3473m | 8.5m/s | 2.1°C | 78.7% | -1.0hPa | 3.0V | 00:00:00 | 00:00:00 | 00:00:00 | |
| PETON7-10 | 2026-08-30 11:23:49 | 49.46907 | 17.18121 | 84° | 40km/h | 3428m | 8.6m/s | 2.2°C | 81.4% | 0hPa | 3.0V | 00:00:00 | 00:44:45 | 00:00:00 | |
| OE3JTB-15 | 2026-08-30 11:23:41 | 49.46897 | 17.17995 | 80° | 33km/h | 3370m | 8.5m/s | 2.6°C | 82.6% | 0hPa | 3.0V | 00:00:00 | 00:00:00 | 08:30:00 | |
| PETON7-10 | 2026-08-30 11:23:34 | 49.46883 | 17.17898 | 76° | 33km/h | 3319m | 8.0m/s | 2.9°C | 81.4% | 0hPa | 3.0V | 00:00:00 | 00:00:00 | 08:30:00 | |
| OE3OSB-13 | 2026-08-30 11:23:24 | 49.46859 | 17.17773 | 65° | 29km/h | 3248m | 6.9m/s | 3.4°C | 77.7% | -1.0hPa | 3.0V | 00:00:00 | 00:00:00 | 00:00:00 | |
| PETON7-10 | 2026-08-30 11:23:19 | 49.46847 | 17.17717 | 70° | 33km/h | 3214m | 6.8m/s | 3.5°C | 81.6% | 0hPa | 3.0V | 00:00:00 | 00:00:00 | 00:00:00 | |
| OE3JTB-15 | 2026-08-30 11:23:12 | 49.46834 | 17.17634 | 79° | 33km/h | 3167m | 5.9m/s | 3.9°C | 79.6% | 0hPa | 3.0V | 00:00:00 | 00:00:00 | 00:00:00 | |
| PETON7-10 | 2026-08-30 11:23:04 | 49.46823 | 17.17537 | 83° | 33km/h | 3114m | 6.1m/s | 4.1°C | 82.4% | 0hPa | 3.0V | 00:00:00 | 00:44:00 | 00:00:00 | |
| OE3OSB-13 | 2026-08-30 11:22:53 | 49.46811 | 17.17399 | 87° | 35km/h | 3042m | 6.6m/s | 4.7°C | -1.0% | -1.0hPa | 3.0V | 00:00:00 | 00:00:00 | 00:00:00 | |
| PETON7-10 | 2026-08-30 11:22:49 | 49.46809 | 17.17346 | 92° | 31km/h | 3013m | 6.6m/s | 4.9°C | 81.9% | 0hPa | 3.0V | 00:00:00 | 00:00:00 | 00:00:00 | |
| OE3JTB-15 | 2026-08-30 11:22:43 | 49.46802 | 17.17278 | 85° | 29km/h | 2973m | 6.6m/s | 5.1°C | 82.4% | 0hPa | 3.0V | 00:00:00 | 00:43:39 | 00:00:00 | |
| PETON7-10 | 2026-08-30 11:22:34 | 49.46796 | 17.17167 | 75° | 29km/h | 2920m | 5.7m/s | 5.6°C | 81.2% | 0hPa | 3.0V | 00:00:00 | 00:00:00 | 00:00:00 | |
| OE3OSB-13 | 2026-08-30 11:22:22 | 49.46790 | 17.17035 | 89° | 29km/h | 2846m | 6.7m/s | 0°C | -1.0% | -1.0hPa | 3.0V | 00:00:00 | 00:00:00 | 00:00:00 | |
| PETON7-10 | 2026-08-30 11:22:19 | 49.46789 | 17.17000 | 80° | 26km/h | 2827m | 6.2m/s | 6.4°C | 78.1% | 0hPa | 3.0V | 00:00:00 | 00:43:15 | 00:00:00 | |
| OE3JTB-15 | 2026-08-30 11:22:14 | 49.46788 | 17.16949 | 85° | 29km/h | 2798m | 5.6m/s | 6.7°C | 77.4% | 0hPa | 3.0V | 00:00:00 | 00:00:00 | 00:00:00 | |
| PETON7-10 | 2026-08-30 11:22:04 | 49.46778 | 17.16848 | 87° | 31km/h | 2741m | 6.2m/s | 0°C | 0% | 0hPa | 3.0V | 00:00:00 | 00:00:00 | 00:00:00 | |
| PETON7-10 | 2026-08-30 11:21:49 | 49.46762 | 17.16675 | 80° | 31km/h | 2656m | 5.1m/s | 0°C | 0% | 0hPa | 3.0V | 00:00:00 | 00:00:00 | 00:00:00 | |
| OE3JTB-15 | 2026-08-30 11:21:45 | 49.46758 | 17.16629 | 76° | 33km/h | 2634m | 5.4m/s | 8.0°C | 73.4% | 0hPa | 3.0V | 00:00:00 | 00:00:00 | 00:00:00 | |
| PETON7-10 | 2026-08-30 11:21:34 | 49.46737 | 17.16497 | 77° | 35km/h | 2576m | 6.4m/s | 0°C | 0% | 0hPa | 3.0V | 00:00:00 | 00:42:30 | 00:00:00 | |
| PETON7-10 | 2026-08-30 11:21:19 | 49.46720 | 17.16303 | 81° | 37km/h | 2498m | 4.8m/s | 0°C | 0% | 0hPa | 3.0V | 00:00:00 | 00:00:00 | 00:00:00 | |
| OE3JTB-15 | 2026-08-30 11:21:16 | 49.46715 | 17.16262 | 75° | 37km/h | 2483m | 4.5m/s | 8.8°C | 75.0% | 0hPa | 3.0V | 00:00:00 | 00:42:12 | 00:00:00 | |
| OE3JTB-15 | 2026-08-30 11:20:47 | 49.46692 | 17.15862 | 89° | 33km/h | 2344m | 5.6m/s | 9.3°C | 64.0% | 0hPa | 3.0V | 00:00:00 | 00:00:00 | 00:00:00 | |
| OE3JTB-15 | 2026-08-30 11:20:18 | 49.46695 | 17.15499 | 82° | 33km/h | 2192m | 4.3m/s | 8.3°C | 73.5% | 0hPa | 0V | 00:00:00 | 00:00:00 | 00:00:00 | |
| OE3JTB-15 | 2026-08-30 11:19:49 | 49.46656 | 17.15132 | 88° | 31km/h | 2008m | 7.2m/s | 0°C | 0% | 0hPa | 0V | 00:00:00 | 00:40:45 | 00:00:00 | |
| OE3JTB-15 | 2026-08-30 11:19:20 | 49.46612 | 17.14784 | 69° | 31km/h | 1810m | 7.0m/s | 0°C | 0% | 0hPa | 0V | 00:00:00 | 00:00:00 | 00:00:00 |